<?xml version="1.0" encoding="UTF-8" standalone="no" ?>
<gpx xmlns="http://www.topografix.com/GPX/1/1" xmlns:xsi="http://www.w3.org/2001/XMLSchema-instance" xsi:schemaLocation="http://www.topografix.com/GPX/1/1 http://www.topografix.com/GPX/1/1/gpx.xsd" version="1.1" creator="VisuGPX - https://www.visugpx.com">
  <metadata>
    <name>La Forest track vtt 2019</name>
    <desc><![CDATA[parcours du 17/02/ 2019 la forest track départ cucq 75% single  organisateur team omv
]]></desc>
  </metadata>
  <trk>
    <name><![CDATA[La Forestière vtt 2019]]></name>
    <trkseg>
      <trkpt lat="50.48185" lon="1.61763">
        <ele>36.2</ele>
        <time>2019-02-17T07:41:48Z</time>
      </trkpt>
      <trkpt lat="50.48185" lon="1.61763">
        <ele>36.2</ele>
        <time>2019-02-17T07:41:51Z</time>
      </trkpt>
      <trkpt lat="50.48185" lon="1.61763">
        <ele>36.2</ele>
        <time>2019-02-17T07:41:55Z</time>
      </trkpt>
      <trkpt lat="50.48185" lon="1.61763">
        <ele>36.2</ele>
        <time>2019-02-17T07:41:59Z</time>
      </trkpt>
      <trkpt lat="50.48185" lon="1.61763">
        <ele>36.2</ele>
        <time>2019-02-17T07:42:03Z</time>
      </trkpt>
      <trkpt lat="50.48185" lon="1.61763">
        <ele>36.2</ele>
        <time>2019-02-17T07:42:07Z</time>
      </trkpt>
      <trkpt lat="50.48185" lon="1.61763">
        <ele>36.2</ele>
        <time>2019-02-17T07:42:11Z</time>
      </trkpt>
      <trkpt lat="50.48185" lon="1.61763">
        <ele>36.2</ele>
        <time>2019-02-17T07:42:15Z</time>
      </trkpt>
      <trkpt lat="50.48185" lon="1.61763">
        <ele>36.2</ele>
        <time>2019-02-17T07:42:19Z</time>
      </trkpt>
      <trkpt lat="50.48185" lon="1.61763">
        <ele>36.2</ele>
        <time>2019-02-17T07:42:23Z</time>
      </trkpt>
      <trkpt lat="50.48185" lon="1.61763">
        <ele>36.2</ele>
        <time>2019-02-17T07:42:27Z</time>
      </trkpt>
      <trkpt lat="50.48185" lon="1.61763">
        <ele>36.2</ele>
        <time>2019-02-17T07:42:31Z</time>
      </trkpt>
      <trkpt lat="50.48185" lon="1.61763">
        <ele>36.2</ele>
        <time>2019-02-17T07:42:35Z</time>
      </trkpt>
      <trkpt lat="50.48185" lon="1.61763">
        <ele>36.2</ele>
        <time>2019-02-17T07:42:39Z</time>
      </trkpt>
      <trkpt lat="50.48185" lon="1.61763">
        <ele>36.2</ele>
        <time>2019-02-17T07:42:43Z</time>
      </trkpt>
      <trkpt lat="50.48185" lon="1.61763">
        <ele>36.2</ele>
        <time>2019-02-17T07:42:47Z</time>
      </trkpt>
      <trkpt lat="50.48185" lon="1.61763">
        <ele>36.2</ele>
        <time>2019-02-17T07:42:51Z</time>
      </trkpt>
      <trkpt lat="50.48185" lon="1.61763">
        <ele>36.2</ele>
        <time>2019-02-17T07:42:55Z</time>
      </trkpt>
      <trkpt lat="50.48185" lon="1.61763">
        <ele>36.2</ele>
        <time>2019-02-17T07:43:00Z</time>
      </trkpt>
      <trkpt lat="50.48185" lon="1.61763">
        <ele>36.2</ele>
        <time>2019-02-17T07:43:03Z</time>
      </trkpt>
      <trkpt lat="50.48185" lon="1.61763">
        <ele>36.2</ele>
        <time>2019-02-17T07:43:07Z</time>
      </trkpt>
      <trkpt lat="50.48185" lon="1.61763">
        <ele>36.2</ele>
        <time>2019-02-17T07:43:11Z</time>
      </trkpt>
      <trkpt lat="50.48185" lon="1.61763">
        <ele>36.2</ele>
        <time>2019-02-17T07:43:15Z</time>
      </trkpt>
      <trkpt lat="50.48185" lon="1.61763">
        <ele>36.2</ele>
        <time>2019-02-17T07:43:19Z</time>
      </trkpt>
      <trkpt lat="50.48185" lon="1.61763">
        <ele>36.2</ele>
        <time>2019-02-17T07:43:23Z</time>
      </trkpt>
      <trkpt lat="50.48185" lon="1.61763">
        <ele>36.2</ele>
        <time>2019-02-17T07:43:27Z</time>
      </trkpt>
      <trkpt lat="50.48185" lon="1.61763">
        <ele>36.2</ele>
        <time>2019-02-17T07:43:31Z</time>
      </trkpt>
      <trkpt lat="50.48185" lon="1.61763">
        <ele>36.2</ele>
        <time>2019-02-17T07:43:35Z</time>
      </trkpt>
      <trkpt lat="50.48185" lon="1.61763">
        <ele>36.2</ele>
        <time>2019-02-17T07:43:39Z</time>
      </trkpt>
      <trkpt lat="50.48185" lon="1.61763">
        <ele>36.2</ele>
        <time>2019-02-17T07:43:43Z</time>
      </trkpt>
      <trkpt lat="50.48185" lon="1.61763">
        <ele>36.2</ele>
        <time>2019-02-17T07:43:47Z</time>
      </trkpt>
      <trkpt lat="50.48185" lon="1.61763">
        <ele>36.2</ele>
        <time>2019-02-17T07:43:51Z</time>
      </trkpt>
      <trkpt lat="50.48185" lon="1.61763">
        <ele>36.2</ele>
        <time>2019-02-17T07:43:55Z</time>
      </trkpt>
      <trkpt lat="50.48185" lon="1.61763">
        <ele>36.2</ele>
        <time>2019-02-17T07:43:59Z</time>
      </trkpt>
      <trkpt lat="50.48185" lon="1.61763">
        <ele>36.2</ele>
        <time>2019-02-17T07:44:03Z</time>
      </trkpt>
      <trkpt lat="50.48185" lon="1.61763">
        <ele>36.2</ele>
        <time>2019-02-17T07:44:07Z</time>
      </trkpt>
      <trkpt lat="50.48185" lon="1.61763">
        <ele>36.2</ele>
        <time>2019-02-17T07:44:11Z</time>
      </trkpt>
      <trkpt lat="50.48185" lon="1.61763">
        <ele>36.2</ele>
        <time>2019-02-17T07:44:15Z</time>
      </trkpt>
      <trkpt lat="50.48185" lon="1.61763">
        <ele>36.2</ele>
        <time>2019-02-17T07:44:19Z</time>
      </trkpt>
      <trkpt lat="50.48185" lon="1.61763">
        <ele>36.2</ele>
        <time>2019-02-17T07:44:23Z</time>
      </trkpt>
      <trkpt lat="50.48185" lon="1.61763">
        <ele>36.2</ele>
        <time>2019-02-17T07:44:27Z</time>
      </trkpt>
      <trkpt lat="50.48185" lon="1.61763">
        <ele>36.2</ele>
        <time>2019-02-17T07:44:31Z</time>
      </trkpt>
      <trkpt lat="50.48185" lon="1.61763">
        <ele>36.2</ele>
        <time>2019-02-17T07:44:35Z</time>
      </trkpt>
      <trkpt lat="50.48185" lon="1.61763">
        <ele>36.2</ele>
        <time>2019-02-17T07:44:39Z</time>
      </trkpt>
      <trkpt lat="50.48185" lon="1.61763">
        <ele>36.2</ele>
        <time>2019-02-17T07:44:43Z</time>
      </trkpt>
      <trkpt lat="50.48185" lon="1.61763">
        <ele>36.2</ele>
        <time>2019-02-17T07:44:47Z</time>
      </trkpt>
      <trkpt lat="50.48185" lon="1.61763">
        <ele>36.2</ele>
        <time>2019-02-17T07:44:51Z</time>
      </trkpt>
      <trkpt lat="50.48185" lon="1.61763">
        <ele>36.2</ele>
        <time>2019-02-17T07:44:55Z</time>
      </trkpt>
      <trkpt lat="50.48185" lon="1.61763">
        <ele>36.2</ele>
        <time>2019-02-17T07:44:59Z</time>
      </trkpt>
      <trkpt lat="50.48185" lon="1.61763">
        <ele>36.2</ele>
        <time>2019-02-17T07:45:03Z</time>
      </trkpt>
      <trkpt lat="50.48185" lon="1.61763">
        <ele>36.2</ele>
        <time>2019-02-17T07:45:07Z</time>
      </trkpt>
      <trkpt lat="50.48185" lon="1.61763">
        <ele>36.2</ele>
        <time>2019-02-17T07:45:11Z</time>
      </trkpt>
      <trkpt lat="50.48185" lon="1.61763">
        <ele>36.2</ele>
        <time>2019-02-17T07:45:15Z</time>
      </trkpt>
      <trkpt lat="50.48185" lon="1.61763">
        <ele>36.2</ele>
        <time>2019-02-17T07:45:19Z</time>
      </trkpt>
      <trkpt lat="50.48185" lon="1.61763">
        <ele>36.2</ele>
        <time>2019-02-17T07:45:23Z</time>
      </trkpt>
      <trkpt lat="50.48185" lon="1.61763">
        <ele>36.2</ele>
        <time>2019-02-17T07:45:27Z</time>
      </trkpt>
      <trkpt lat="50.48185" lon="1.61763">
        <ele>36.2</ele>
        <time>2019-02-17T07:45:31Z</time>
      </trkpt>
      <trkpt lat="50.48185" lon="1.61763">
        <ele>36.2</ele>
        <time>2019-02-17T07:45:35Z</time>
      </trkpt>
      <trkpt lat="50.48185" lon="1.61763">
        <ele>36.2</ele>
        <time>2019-02-17T07:45:39Z</time>
      </trkpt>
      <trkpt lat="50.48185" lon="1.61763">
        <ele>36.2</ele>
        <time>2019-02-17T07:45:43Z</time>
      </trkpt>
      <trkpt lat="50.48185" lon="1.61763">
        <ele>36.2</ele>
        <time>2019-02-17T07:45:47Z</time>
      </trkpt>
      <trkpt lat="50.48185" lon="1.61763">
        <ele>36.2</ele>
        <time>2019-02-17T07:45:51Z</time>
      </trkpt>
      <trkpt lat="50.48185" lon="1.61763">
        <ele>36.2</ele>
        <time>2019-02-17T07:45:55Z</time>
      </trkpt>
      <trkpt lat="50.48185" lon="1.61763">
        <ele>36.2</ele>
        <time>2019-02-17T07:45:59Z</time>
      </trkpt>
      <trkpt lat="50.48185" lon="1.61763">
        <ele>36.2</ele>
        <time>2019-02-17T07:46:03Z</time>
      </trkpt>
      <trkpt lat="50.48185" lon="1.61763">
        <ele>36.2</ele>
        <time>2019-02-17T07:46:07Z</time>
      </trkpt>
      <trkpt lat="50.48185" lon="1.61763">
        <ele>36.2</ele>
        <time>2019-02-17T07:46:11Z</time>
      </trkpt>
      <trkpt lat="50.48185" lon="1.61763">
        <ele>36.2</ele>
        <time>2019-02-17T07:46:15Z</time>
      </trkpt>
      <trkpt lat="50.48185" lon="1.61763">
        <ele>36.2</ele>
        <time>2019-02-17T07:46:19Z</time>
      </trkpt>
      <trkpt lat="50.48185" lon="1.61763">
        <ele>36.2</ele>
        <time>2019-02-17T07:46:23Z</time>
      </trkpt>
      <trkpt lat="50.48185" lon="1.61763">
        <ele>36.2</ele>
        <time>2019-02-17T07:46:27Z</time>
      </trkpt>
      <trkpt lat="50.48185" lon="1.61763">
        <ele>36.2</ele>
        <time>2019-02-17T07:46:31Z</time>
      </trkpt>
      <trkpt lat="50.48185" lon="1.61763">
        <ele>36.2</ele>
        <time>2019-02-17T07:46:35Z</time>
      </trkpt>
      <trkpt lat="50.48185" lon="1.61763">
        <ele>36.2</ele>
        <time>2019-02-17T07:46:39Z</time>
      </trkpt>
      <trkpt lat="50.48185" lon="1.61763">
        <ele>36.2</ele>
        <time>2019-02-17T07:46:43Z</time>
      </trkpt>
      <trkpt lat="50.48185" lon="1.61763">
        <ele>36.2</ele>
        <time>2019-02-17T07:46:47Z</time>
      </trkpt>
      <trkpt lat="50.48185" lon="1.61763">
        <ele>36.2</ele>
        <time>2019-02-17T07:46:51Z</time>
      </trkpt>
      <trkpt lat="50.48185" lon="1.61763">
        <ele>36.2</ele>
        <time>2019-02-17T07:46:55Z</time>
      </trkpt>
      <trkpt lat="50.48185" lon="1.61763">
        <ele>36.2</ele>
        <time>2019-02-17T07:46:59Z</time>
      </trkpt>
      <trkpt lat="50.48185" lon="1.61763">
        <ele>36.2</ele>
        <time>2019-02-17T07:47:03Z</time>
      </trkpt>
      <trkpt lat="50.48185" lon="1.61763">
        <ele>36.2</ele>
        <time>2019-02-17T07:47:07Z</time>
      </trkpt>
      <trkpt lat="50.48185" lon="1.61763">
        <ele>36.2</ele>
        <time>2019-02-17T07:47:11Z</time>
      </trkpt>
      <trkpt lat="50.48185" lon="1.61763">
        <ele>36.2</ele>
        <time>2019-02-17T07:47:15Z</time>
      </trkpt>
      <trkpt lat="50.48185" lon="1.61763">
        <ele>36.2</ele>
        <time>2019-02-17T07:47:19Z</time>
      </trkpt>
      <trkpt lat="50.48185" lon="1.61763">
        <ele>36.2</ele>
        <time>2019-02-17T07:47:23Z</time>
      </trkpt>
      <trkpt lat="50.48185" lon="1.61763">
        <ele>36.2</ele>
        <time>2019-02-17T07:47:27Z</time>
      </trkpt>
      <trkpt lat="50.48185" lon="1.61763">
        <ele>36.2</ele>
        <time>2019-02-17T07:47:31Z</time>
      </trkpt>
      <trkpt lat="50.48185" lon="1.61763">
        <ele>36.2</ele>
        <time>2019-02-17T07:47:35Z</time>
      </trkpt>
      <trkpt lat="50.48185" lon="1.61763">
        <ele>36.2</ele>
        <time>2019-02-17T07:47:39Z</time>
      </trkpt>
      <trkpt lat="50.48185" lon="1.61763">
        <ele>36.2</ele>
        <time>2019-02-17T07:47:43Z</time>
      </trkpt>
      <trkpt lat="50.48185" lon="1.61763">
        <ele>36.2</ele>
        <time>2019-02-17T07:47:47Z</time>
      </trkpt>
      <trkpt lat="50.48185" lon="1.61763">
        <ele>36.2</ele>
        <time>2019-02-17T07:47:51Z</time>
      </trkpt>
      <trkpt lat="50.48185" lon="1.61763">
        <ele>36.2</ele>
        <time>2019-02-17T07:47:55Z</time>
      </trkpt>
      <trkpt lat="50.48185" lon="1.61763">
        <ele>36.2</ele>
        <time>2019-02-17T07:47:59Z</time>
      </trkpt>
      <trkpt lat="50.48185" lon="1.61763">
        <ele>36.2</ele>
        <time>2019-02-17T07:48:03Z</time>
      </trkpt>
      <trkpt lat="50.48185" lon="1.61763">
        <ele>36.2</ele>
        <time>2019-02-17T07:48:07Z</time>
      </trkpt>
      <trkpt lat="50.48185" lon="1.61763">
        <ele>36.2</ele>
        <time>2019-02-17T07:48:11Z</time>
      </trkpt>
      <trkpt lat="50.48185" lon="1.61763">
        <ele>36.2</ele>
        <time>2019-02-17T07:48:15Z</time>
      </trkpt>
      <trkpt lat="50.48185" lon="1.61763">
        <ele>36.2</ele>
        <time>2019-02-17T07:48:19Z</time>
      </trkpt>
      <trkpt lat="50.48185" lon="1.61763">
        <ele>36.2</ele>
        <time>2019-02-17T07:48:23Z</time>
      </trkpt>
      <trkpt lat="50.48185" lon="1.61763">
        <ele>36.2</ele>
        <time>2019-02-17T07:48:27Z</time>
      </trkpt>
      <trkpt lat="50.48185" lon="1.61763">
        <ele>36.2</ele>
        <time>2019-02-17T07:48:31Z</time>
      </trkpt>
      <trkpt lat="50.48185" lon="1.61763">
        <ele>36.2</ele>
        <time>2019-02-17T07:48:35Z</time>
      </trkpt>
      <trkpt lat="50.48185" lon="1.61763">
        <ele>36.2</ele>
        <time>2019-02-17T07:48:39Z</time>
      </trkpt>
      <trkpt lat="50.48185" lon="1.61763">
        <ele>36.2</ele>
        <time>2019-02-17T07:48:43Z</time>
      </trkpt>
      <trkpt lat="50.48185" lon="1.61763">
        <ele>36.2</ele>
        <time>2019-02-17T07:48:47Z</time>
      </trkpt>
      <trkpt lat="50.48185" lon="1.61763">
        <ele>36.2</ele>
        <time>2019-02-17T07:48:51Z</time>
      </trkpt>
      <trkpt lat="50.48185" lon="1.61763">
        <ele>36.2</ele>
        <time>2019-02-17T07:48:55Z</time>
      </trkpt>
      <trkpt lat="50.48185" lon="1.61763">
        <ele>36.2</ele>
        <time>2019-02-17T07:48:59Z</time>
      </trkpt>
      <trkpt lat="50.48185" lon="1.61763">
        <ele>36.2</ele>
        <time>2019-02-17T07:49:03Z</time>
      </trkpt>
      <trkpt lat="50.48185" lon="1.61763">
        <ele>36.2</ele>
        <time>2019-02-17T07:49:07Z</time>
      </trkpt>
      <trkpt lat="50.48185" lon="1.61763">
        <ele>36.2</ele>
        <time>2019-02-17T07:49:11Z</time>
      </trkpt>
      <trkpt lat="50.48185" lon="1.61763">
        <ele>36.2</ele>
        <time>2019-02-17T07:49:15Z</time>
      </trkpt>
      <trkpt lat="50.48185" lon="1.61763">
        <ele>36.2</ele>
        <time>2019-02-17T07:49:19Z</time>
      </trkpt>
      <trkpt lat="50.48185" lon="1.61763">
        <ele>36.2</ele>
        <time>2019-02-17T07:49:23Z</time>
      </trkpt>
      <trkpt lat="50.48185" lon="1.61763">
        <ele>36.2</ele>
        <time>2019-02-17T07:49:27Z</time>
      </trkpt>
      <trkpt lat="50.48185" lon="1.61763">
        <ele>36.2</ele>
        <time>2019-02-17T07:49:31Z</time>
      </trkpt>
      <trkpt lat="50.48185" lon="1.61763">
        <ele>36.2</ele>
        <time>2019-02-17T07:49:35Z</time>
      </trkpt>
      <trkpt lat="50.48185" lon="1.61763">
        <ele>36.2</ele>
        <time>2019-02-17T07:49:39Z</time>
      </trkpt>
      <trkpt lat="50.48185" lon="1.61763">
        <ele>36.2</ele>
        <time>2019-02-17T07:49:43Z</time>
      </trkpt>
      <trkpt lat="50.48185" lon="1.61763">
        <ele>36.2</ele>
        <time>2019-02-17T07:49:47Z</time>
      </trkpt>
      <trkpt lat="50.48185" lon="1.61763">
        <ele>36.2</ele>
        <time>2019-02-17T07:49:51Z</time>
      </trkpt>
      <trkpt lat="50.48185" lon="1.61763">
        <ele>36.2</ele>
        <time>2019-02-17T07:49:55Z</time>
      </trkpt>
      <trkpt lat="50.48185" lon="1.61763">
        <ele>36.2</ele>
        <time>2019-02-17T07:49:59Z</time>
      </trkpt>
      <trkpt lat="50.48185" lon="1.61763">
        <ele>36.2</ele>
        <time>2019-02-17T07:50:03Z</time>
      </trkpt>
      <trkpt lat="50.48185" lon="1.61763">
        <ele>36.2</ele>
        <time>2019-02-17T07:50:07Z</time>
      </trkpt>
      <trkpt lat="50.48185" lon="1.61763">
        <ele>36.2</ele>
        <time>2019-02-17T07:50:11Z</time>
      </trkpt>
      <trkpt lat="50.48185" lon="1.61763">
        <ele>36.2</ele>
        <time>2019-02-17T07:50:15Z</time>
      </trkpt>
      <trkpt lat="50.48185" lon="1.61763">
        <ele>36.2</ele>
        <time>2019-02-17T07:50:19Z</time>
      </trkpt>
      <trkpt lat="50.48185" lon="1.61763">
        <ele>36.2</ele>
        <time>2019-02-17T07:50:23Z</time>
      </trkpt>
      <trkpt lat="50.48182" lon="1.61765">
        <ele>36.4</ele>
        <time>2019-02-17T07:50:27Z</time>
      </trkpt>
      <trkpt lat="50.48171" lon="1.61766">
        <ele>37.2</ele>
        <time>2019-02-17T07:50:31Z</time>
      </trkpt>
      <trkpt lat="50.48159" lon="1.61766">
        <ele>36.8</ele>
        <time>2019-02-17T07:50:35Z</time>
      </trkpt>
      <trkpt lat="50.48147" lon="1.61768">
        <ele>36.8</ele>
        <time>2019-02-17T07:50:39Z</time>
      </trkpt>
      <trkpt lat="50.48134" lon="1.61768">
        <ele>37</ele>
        <time>2019-02-17T07:50:43Z</time>
      </trkpt>
      <trkpt lat="50.48121" lon="1.61768">
        <ele>37.4</ele>
        <time>2019-02-17T07:50:47Z</time>
      </trkpt>
      <trkpt lat="50.48107" lon="1.61768">
        <ele>36.6</ele>
        <time>2019-02-17T07:50:51Z</time>
      </trkpt>
      <trkpt lat="50.48092" lon="1.61768">
        <ele>37</ele>
        <time>2019-02-17T07:50:55Z</time>
      </trkpt>
      <trkpt lat="50.48077" lon="1.61767">
        <ele>37.2</ele>
        <time>2019-02-17T07:50:59Z</time>
      </trkpt>
      <trkpt lat="50.48062" lon="1.61764">
        <ele>37.4</ele>
        <time>2019-02-17T07:51:03Z</time>
      </trkpt>
      <trkpt lat="50.48048" lon="1.61761">
        <ele>36.8</ele>
        <time>2019-02-17T07:51:07Z</time>
      </trkpt>
      <trkpt lat="50.48034" lon="1.6177">
        <ele>37.2</ele>
        <time>2019-02-17T07:51:11Z</time>
      </trkpt>
      <trkpt lat="50.48019" lon="1.61782">
        <ele>37</ele>
        <time>2019-02-17T07:51:15Z</time>
      </trkpt>
      <trkpt lat="50.48003" lon="1.6179">
        <ele>37.4</ele>
        <time>2019-02-17T07:51:19Z</time>
      </trkpt>
      <trkpt lat="50.47987" lon="1.61795">
        <ele>37.4</ele>
        <time>2019-02-17T07:51:23Z</time>
      </trkpt>
      <trkpt lat="50.47971" lon="1.61795">
        <ele>37</ele>
        <time>2019-02-17T07:51:27Z</time>
      </trkpt>
      <trkpt lat="50.47955" lon="1.61792">
        <ele>37.2</ele>
        <time>2019-02-17T07:51:31Z</time>
      </trkpt>
      <trkpt lat="50.47941" lon="1.61789">
        <ele>36.8</ele>
        <time>2019-02-17T07:51:35Z</time>
      </trkpt>
      <trkpt lat="50.47926" lon="1.61786">
        <ele>37</ele>
        <time>2019-02-17T07:51:39Z</time>
      </trkpt>
      <trkpt lat="50.47913" lon="1.61783">
        <ele>37</ele>
        <time>2019-02-17T07:51:43Z</time>
      </trkpt>
      <trkpt lat="50.47897" lon="1.61779">
        <ele>37.2</ele>
        <time>2019-02-17T07:51:47Z</time>
      </trkpt>
      <trkpt lat="50.4788" lon="1.61774">
        <ele>36.8</ele>
        <time>2019-02-17T07:51:51Z</time>
      </trkpt>
      <trkpt lat="50.47863" lon="1.61771">
        <ele>37.2</ele>
        <time>2019-02-17T07:51:55Z</time>
      </trkpt>
      <trkpt lat="50.47847" lon="1.61766">
        <ele>36.6</ele>
        <time>2019-02-17T07:51:59Z</time>
      </trkpt>
      <trkpt lat="50.4783" lon="1.61762">
        <ele>36.6</ele>
        <time>2019-02-17T07:52:03Z</time>
      </trkpt>
      <trkpt lat="50.47814" lon="1.61759">
        <ele>36.6</ele>
        <time>2019-02-17T07:52:07Z</time>
      </trkpt>
      <trkpt lat="50.47798" lon="1.61756">
        <ele>36.8</ele>
        <time>2019-02-17T07:52:11Z</time>
      </trkpt>
      <trkpt lat="50.47782" lon="1.61751">
        <ele>37.4</ele>
        <time>2019-02-17T07:52:15Z</time>
      </trkpt>
      <trkpt lat="50.47765" lon="1.61748">
        <ele>37</ele>
        <time>2019-02-17T07:52:19Z</time>
      </trkpt>
      <trkpt lat="50.47749" lon="1.61744">
        <ele>37</ele>
        <time>2019-02-17T07:52:23Z</time>
      </trkpt>
      <trkpt lat="50.47733" lon="1.61741">
        <ele>37.2</ele>
        <time>2019-02-17T07:52:27Z</time>
      </trkpt>
      <trkpt lat="50.47717" lon="1.61737">
        <ele>37.4</ele>
        <time>2019-02-17T07:52:31Z</time>
      </trkpt>
      <trkpt lat="50.47701" lon="1.61733">
        <ele>36.8</ele>
        <time>2019-02-17T07:52:35Z</time>
      </trkpt>
      <trkpt lat="50.47689" lon="1.6173">
        <ele>36.8</ele>
        <time>2019-02-17T07:52:39Z</time>
      </trkpt>
      <trkpt lat="50.4768" lon="1.61729">
        <ele>37.4</ele>
        <time>2019-02-17T07:52:43Z</time>
      </trkpt>
      <trkpt lat="50.47666" lon="1.61728">
        <ele>36.8</ele>
        <time>2019-02-17T07:52:47Z</time>
      </trkpt>
      <trkpt lat="50.47653" lon="1.61726">
        <ele>37.2</ele>
        <time>2019-02-17T07:52:51Z</time>
      </trkpt>
      <trkpt lat="50.47637" lon="1.61723">
        <ele>37.6</ele>
        <time>2019-02-17T07:52:55Z</time>
      </trkpt>
      <trkpt lat="50.47619" lon="1.61718">
        <ele>36.6</ele>
        <time>2019-02-17T07:52:59Z</time>
      </trkpt>
      <trkpt lat="50.47603" lon="1.61714">
        <ele>36.8</ele>
        <time>2019-02-17T07:53:03Z</time>
      </trkpt>
      <trkpt lat="50.47587" lon="1.6171">
        <ele>36.6</ele>
        <time>2019-02-17T07:53:07Z</time>
      </trkpt>
      <trkpt lat="50.47567" lon="1.61706">
        <ele>37.6</ele>
        <time>2019-02-17T07:53:11Z</time>
      </trkpt>
      <trkpt lat="50.47543" lon="1.61699">
        <ele>38.2</ele>
        <time>2019-02-17T07:53:15Z</time>
      </trkpt>
      <trkpt lat="50.47519" lon="1.61695">
        <ele>38</ele>
        <time>2019-02-17T07:53:19Z</time>
      </trkpt>
      <trkpt lat="50.47496" lon="1.6169">
        <ele>38</ele>
        <time>2019-02-17T07:53:23Z</time>
      </trkpt>
      <trkpt lat="50.47473" lon="1.61683">
        <ele>39.2</ele>
        <time>2019-02-17T07:53:27Z</time>
      </trkpt>
      <trkpt lat="50.4745" lon="1.61679">
        <ele>38.6</ele>
        <time>2019-02-17T07:53:31Z</time>
      </trkpt>
      <trkpt lat="50.47428" lon="1.61673">
        <ele>39.4</ele>
        <time>2019-02-17T07:53:35Z</time>
      </trkpt>
      <trkpt lat="50.47406" lon="1.61668">
        <ele>40</ele>
        <time>2019-02-17T07:53:39Z</time>
      </trkpt>
      <trkpt lat="50.47385" lon="1.6166">
        <ele>40.4</ele>
        <time>2019-02-17T07:53:43Z</time>
      </trkpt>
      <trkpt lat="50.47368" lon="1.61654">
        <ele>39.8</ele>
        <time>2019-02-17T07:53:47Z</time>
      </trkpt>
      <trkpt lat="50.47358" lon="1.61649">
        <ele>39</ele>
        <time>2019-02-17T07:53:51Z</time>
      </trkpt>
      <trkpt lat="50.4736" lon="1.61665">
        <ele>39.2</ele>
        <time>2019-02-17T07:53:55Z</time>
      </trkpt>
      <trkpt lat="50.4736" lon="1.61694">
        <ele>39</ele>
        <time>2019-02-17T07:53:59Z</time>
      </trkpt>
      <trkpt lat="50.4736" lon="1.61722">
        <ele>40</ele>
        <time>2019-02-17T07:54:03Z</time>
      </trkpt>
      <trkpt lat="50.47359" lon="1.61747">
        <ele>39.2</ele>
        <time>2019-02-17T07:54:07Z</time>
      </trkpt>
      <trkpt lat="50.47357" lon="1.61756">
        <ele>38.4</ele>
        <time>2019-02-17T07:54:11Z</time>
      </trkpt>
      <trkpt lat="50.47358" lon="1.6178">
        <ele>39.4</ele>
        <time>2019-02-17T07:54:15Z</time>
      </trkpt>
      <trkpt lat="50.47357" lon="1.61813">
        <ele>38.8</ele>
        <time>2019-02-17T07:54:19Z</time>
      </trkpt>
      <trkpt lat="50.47358" lon="1.61847">
        <ele>39</ele>
        <time>2019-02-17T07:54:23Z</time>
      </trkpt>
      <trkpt lat="50.4736" lon="1.6188">
        <ele>38.8</ele>
        <time>2019-02-17T07:54:27Z</time>
      </trkpt>
      <trkpt lat="50.47362" lon="1.61912">
        <ele>38</ele>
        <time>2019-02-17T07:54:31Z</time>
      </trkpt>
      <trkpt lat="50.47365" lon="1.61943">
        <ele>37.8</ele>
        <time>2019-02-17T07:54:35Z</time>
      </trkpt>
      <trkpt lat="50.47369" lon="1.61974">
        <ele>37.8</ele>
        <time>2019-02-17T07:54:39Z</time>
      </trkpt>
      <trkpt lat="50.47371" lon="1.62006">
        <ele>37.4</ele>
        <time>2019-02-17T07:54:43Z</time>
      </trkpt>
      <trkpt lat="50.47374" lon="1.62037">
        <ele>37</ele>
        <time>2019-02-17T07:54:47Z</time>
      </trkpt>
      <trkpt lat="50.47379" lon="1.6207">
        <ele>37</ele>
        <time>2019-02-17T07:54:51Z</time>
      </trkpt>
      <trkpt lat="50.47381" lon="1.62102">
        <ele>37.6</ele>
        <time>2019-02-17T07:54:55Z</time>
      </trkpt>
      <trkpt lat="50.47382" lon="1.62133">
        <ele>37.4</ele>
        <time>2019-02-17T07:54:59Z</time>
      </trkpt>
      <trkpt lat="50.47378" lon="1.62165">
        <ele>37.2</ele>
        <time>2019-02-17T07:55:03Z</time>
      </trkpt>
      <trkpt lat="50.47369" lon="1.62192">
        <ele>37.6</ele>
        <time>2019-02-17T07:55:07Z</time>
      </trkpt>
      <trkpt lat="50.47358" lon="1.62216">
        <ele>38</ele>
        <time>2019-02-17T07:55:11Z</time>
      </trkpt>
      <trkpt lat="50.47346" lon="1.62241">
        <ele>36.8</ele>
        <time>2019-02-17T07:55:15Z</time>
      </trkpt>
      <trkpt lat="50.47332" lon="1.62267">
        <ele>36.8</ele>
        <time>2019-02-17T07:55:19Z</time>
      </trkpt>
      <trkpt lat="50.47315" lon="1.62289">
        <ele>37.4</ele>
        <time>2019-02-17T07:55:23Z</time>
      </trkpt>
      <trkpt lat="50.47298" lon="1.62313">
        <ele>37.2</ele>
        <time>2019-02-17T07:55:27Z</time>
      </trkpt>
      <trkpt lat="50.47282" lon="1.62334">
        <ele>38</ele>
        <time>2019-02-17T07:55:31Z</time>
      </trkpt>
      <trkpt lat="50.47264" lon="1.6235">
        <ele>38.8</ele>
        <time>2019-02-17T07:55:35Z</time>
      </trkpt>
      <trkpt lat="50.47244" lon="1.62358">
        <ele>37.8</ele>
        <time>2019-02-17T07:55:39Z</time>
      </trkpt>
      <trkpt lat="50.47223" lon="1.62369">
        <ele>38</ele>
        <time>2019-02-17T07:55:43Z</time>
      </trkpt>
      <trkpt lat="50.47203" lon="1.62389">
        <ele>38.2</ele>
        <time>2019-02-17T07:55:47Z</time>
      </trkpt>
      <trkpt lat="50.47187" lon="1.62416">
        <ele>36.8</ele>
        <time>2019-02-17T07:55:51Z</time>
      </trkpt>
      <trkpt lat="50.47172" lon="1.62445">
        <ele>37.6</ele>
        <time>2019-02-17T07:55:55Z</time>
      </trkpt>
      <trkpt lat="50.47157" lon="1.62472">
        <ele>38</ele>
        <time>2019-02-17T07:55:59Z</time>
      </trkpt>
      <trkpt lat="50.47142" lon="1.62499">
        <ele>38</ele>
        <time>2019-02-17T07:56:03Z</time>
      </trkpt>
      <trkpt lat="50.4713" lon="1.6253">
        <ele>37.4</ele>
        <time>2019-02-17T07:56:07Z</time>
      </trkpt>
      <trkpt lat="50.47119" lon="1.62563">
        <ele>37.8</ele>
        <time>2019-02-17T07:56:11Z</time>
      </trkpt>
      <trkpt lat="50.47111" lon="1.62596">
        <ele>37.6</ele>
        <time>2019-02-17T07:56:15Z</time>
      </trkpt>
      <trkpt lat="50.47103" lon="1.6263">
        <ele>38.4</ele>
        <time>2019-02-17T07:56:19Z</time>
      </trkpt>
      <trkpt lat="50.47094" lon="1.62665">
        <ele>37.8</ele>
        <time>2019-02-17T07:56:23Z</time>
      </trkpt>
      <trkpt lat="50.47085" lon="1.627">
        <ele>37.6</ele>
        <time>2019-02-17T07:56:27Z</time>
      </trkpt>
      <trkpt lat="50.47078" lon="1.62737">
        <ele>38.4</ele>
        <time>2019-02-17T07:56:31Z</time>
      </trkpt>
      <trkpt lat="50.47071" lon="1.62776">
        <ele>38.6</ele>
        <time>2019-02-17T07:56:35Z</time>
      </trkpt>
      <trkpt lat="50.47065" lon="1.62815">
        <ele>38.2</ele>
        <time>2019-02-17T07:56:39Z</time>
      </trkpt>
      <trkpt lat="50.47058" lon="1.62853">
        <ele>38.6</ele>
        <time>2019-02-17T07:56:43Z</time>
      </trkpt>
      <trkpt lat="50.47052" lon="1.6289">
        <ele>38.4</ele>
        <time>2019-02-17T07:56:47Z</time>
      </trkpt>
      <trkpt lat="50.47041" lon="1.62925">
        <ele>38.4</ele>
        <time>2019-02-17T07:56:51Z</time>
      </trkpt>
      <trkpt lat="50.47023" lon="1.62954">
        <ele>38.4</ele>
        <time>2019-02-17T07:56:55Z</time>
      </trkpt>
      <trkpt lat="50.47003" lon="1.62981">
        <ele>38</ele>
        <time>2019-02-17T07:56:59Z</time>
      </trkpt>
      <trkpt lat="50.46985" lon="1.63007">
        <ele>38.2</ele>
        <time>2019-02-17T07:57:03Z</time>
      </trkpt>
      <trkpt lat="50.46969" lon="1.63036">
        <ele>37.8</ele>
        <time>2019-02-17T07:57:07Z</time>
      </trkpt>
      <trkpt lat="50.46959" lon="1.63064">
        <ele>37.2</ele>
        <time>2019-02-17T07:57:11Z</time>
      </trkpt>
      <trkpt lat="50.46951" lon="1.63094">
        <ele>37.6</ele>
        <time>2019-02-17T07:57:15Z</time>
      </trkpt>
      <trkpt lat="50.46947" lon="1.63124">
        <ele>37.4</ele>
        <time>2019-02-17T07:57:19Z</time>
      </trkpt>
      <trkpt lat="50.46943" lon="1.63153">
        <ele>37</ele>
        <time>2019-02-17T07:57:23Z</time>
      </trkpt>
      <trkpt lat="50.46937" lon="1.63182">
        <ele>37.6</ele>
        <time>2019-02-17T07:57:27Z</time>
      </trkpt>
      <trkpt lat="50.4693" lon="1.6321">
        <ele>37.8</ele>
        <time>2019-02-17T07:57:31Z</time>
      </trkpt>
      <trkpt lat="50.4692" lon="1.63237">
        <ele>37.6</ele>
        <time>2019-02-17T07:57:35Z</time>
      </trkpt>
      <trkpt lat="50.46913" lon="1.63262">
        <ele>37.6</ele>
        <time>2019-02-17T07:57:39Z</time>
      </trkpt>
      <trkpt lat="50.46915" lon="1.63286">
        <ele>37.2</ele>
        <time>2019-02-17T07:57:43Z</time>
      </trkpt>
      <trkpt lat="50.46918" lon="1.63309">
        <ele>37.6</ele>
        <time>2019-02-17T07:57:47Z</time>
      </trkpt>
      <trkpt lat="50.46921" lon="1.63331">
        <ele>37.2</ele>
        <time>2019-02-17T07:57:51Z</time>
      </trkpt>
      <trkpt lat="50.46923" lon="1.63343">
        <ele>36.6</ele>
        <time>2019-02-17T07:57:55Z</time>
      </trkpt>
      <trkpt lat="50.46923" lon="1.63343">
        <ele>36.6</ele>
        <time>2019-02-17T07:57:59Z</time>
      </trkpt>
      <trkpt lat="50.46924" lon="1.63344">
        <ele>36.4</ele>
        <time>2019-02-17T07:58:03Z</time>
      </trkpt>
      <trkpt lat="50.46924" lon="1.63345">
        <ele>36.4</ele>
        <time>2019-02-17T07:58:07Z</time>
      </trkpt>
      <trkpt lat="50.46924" lon="1.63345">
        <ele>36.4</ele>
        <time>2019-02-17T07:58:11Z</time>
      </trkpt>
      <trkpt lat="50.46925" lon="1.63347">
        <ele>36.6</ele>
        <time>2019-02-17T07:58:15Z</time>
      </trkpt>
      <trkpt lat="50.46927" lon="1.63354">
        <ele>36.8</ele>
        <time>2019-02-17T07:58:19Z</time>
      </trkpt>
      <trkpt lat="50.4693" lon="1.6337">
        <ele>37.2</ele>
        <time>2019-02-17T07:58:23Z</time>
      </trkpt>
      <trkpt lat="50.46932" lon="1.63387">
        <ele>37.4</ele>
        <time>2019-02-17T07:58:27Z</time>
      </trkpt>
      <trkpt lat="50.46934" lon="1.63405">
        <ele>37.4</ele>
        <time>2019-02-17T07:58:31Z</time>
      </trkpt>
      <trkpt lat="50.46935" lon="1.63425">
        <ele>37</ele>
        <time>2019-02-17T07:58:35Z</time>
      </trkpt>
      <trkpt lat="50.46938" lon="1.63446">
        <ele>38</ele>
        <time>2019-02-17T07:58:39Z</time>
      </trkpt>
      <trkpt lat="50.46941" lon="1.6347">
        <ele>37.8</ele>
        <time>2019-02-17T07:58:43Z</time>
      </trkpt>
      <trkpt lat="50.46944" lon="1.63496">
        <ele>38.6</ele>
        <time>2019-02-17T07:58:47Z</time>
      </trkpt>
      <trkpt lat="50.46945" lon="1.63525">
        <ele>38.2</ele>
        <time>2019-02-17T07:58:51Z</time>
      </trkpt>
      <trkpt lat="50.46946" lon="1.63557">
        <ele>38.4</ele>
        <time>2019-02-17T07:58:55Z</time>
      </trkpt>
      <trkpt lat="50.46946" lon="1.63591">
        <ele>38.6</ele>
        <time>2019-02-17T07:58:59Z</time>
      </trkpt>
      <trkpt lat="50.46946" lon="1.63626">
        <ele>38.4</ele>
        <time>2019-02-17T07:59:03Z</time>
      </trkpt>
      <trkpt lat="50.46943" lon="1.63661">
        <ele>38</ele>
        <time>2019-02-17T07:59:07Z</time>
      </trkpt>
      <trkpt lat="50.46938" lon="1.6369">
        <ele>38.2</ele>
        <time>2019-02-17T07:59:11Z</time>
      </trkpt>
      <trkpt lat="50.46932" lon="1.63715">
        <ele>37.8</ele>
        <time>2019-02-17T07:59:15Z</time>
      </trkpt>
      <trkpt lat="50.46926" lon="1.63741">
        <ele>37.4</ele>
        <time>2019-02-17T07:59:19Z</time>
      </trkpt>
      <trkpt lat="50.46919" lon="1.63767">
        <ele>37.6</ele>
        <time>2019-02-17T07:59:23Z</time>
      </trkpt>
      <trkpt lat="50.46916" lon="1.6379">
        <ele>37.8</ele>
        <time>2019-02-17T07:59:27Z</time>
      </trkpt>
      <trkpt lat="50.46917" lon="1.63816">
        <ele>37.4</ele>
        <time>2019-02-17T07:59:31Z</time>
      </trkpt>
      <trkpt lat="50.46921" lon="1.63844">
        <ele>38</ele>
        <time>2019-02-17T07:59:35Z</time>
      </trkpt>
      <trkpt lat="50.46924" lon="1.63872">
        <ele>38</ele>
        <time>2019-02-17T07:59:39Z</time>
      </trkpt>
      <trkpt lat="50.46928" lon="1.63904">
        <ele>38.2</ele>
        <time>2019-02-17T07:59:43Z</time>
      </trkpt>
      <trkpt lat="50.46932" lon="1.63937">
        <ele>38.4</ele>
        <time>2019-02-17T07:59:47Z</time>
      </trkpt>
      <trkpt lat="50.46938" lon="1.63967">
        <ele>38</ele>
        <time>2019-02-17T07:59:51Z</time>
      </trkpt>
      <trkpt lat="50.46947" lon="1.63995">
        <ele>38</ele>
        <time>2019-02-17T07:59:55Z</time>
      </trkpt>
      <trkpt lat="50.46959" lon="1.64019">
        <ele>38.4</ele>
        <time>2019-02-17T07:59:59Z</time>
      </trkpt>
      <trkpt lat="50.46969" lon="1.64044">
        <ele>38</ele>
        <time>2019-02-17T08:00:03Z</time>
      </trkpt>
      <trkpt lat="50.46971" lon="1.64075">
        <ele>38</ele>
        <time>2019-02-17T08:00:07Z</time>
      </trkpt>
      <trkpt lat="50.46973" lon="1.64105">
        <ele>38</ele>
        <time>2019-02-17T08:00:11Z</time>
      </trkpt>
      <trkpt lat="50.46974" lon="1.64135">
        <ele>38.2</ele>
        <time>2019-02-17T08:00:15Z</time>
      </trkpt>
      <trkpt lat="50.46976" lon="1.64165">
        <ele>38.2</ele>
        <time>2019-02-17T08:00:19Z</time>
      </trkpt>
      <trkpt lat="50.46977" lon="1.64194">
        <ele>38.6</ele>
        <time>2019-02-17T08:00:23Z</time>
      </trkpt>
      <trkpt lat="50.46977" lon="1.64223">
        <ele>39</ele>
        <time>2019-02-17T08:00:27Z</time>
      </trkpt>
      <trkpt lat="50.46975" lon="1.64253">
        <ele>38.8</ele>
        <time>2019-02-17T08:00:31Z</time>
      </trkpt>
      <trkpt lat="50.4697" lon="1.64282">
        <ele>38.8</ele>
        <time>2019-02-17T08:00:35Z</time>
      </trkpt>
      <trkpt lat="50.46964" lon="1.64313">
        <ele>38.6</ele>
        <time>2019-02-17T08:00:39Z</time>
      </trkpt>
      <trkpt lat="50.46959" lon="1.64343">
        <ele>39.4</ele>
        <time>2019-02-17T08:00:43Z</time>
      </trkpt>
      <trkpt lat="50.46954" lon="1.64374">
        <ele>39.4</ele>
        <time>2019-02-17T08:00:47Z</time>
      </trkpt>
      <trkpt lat="50.46951" lon="1.64405">
        <ele>38.8</ele>
        <time>2019-02-17T08:00:51Z</time>
      </trkpt>
      <trkpt lat="50.4695" lon="1.64437">
        <ele>39.4</ele>
        <time>2019-02-17T08:00:55Z</time>
      </trkpt>
      <trkpt lat="50.4695" lon="1.64469">
        <ele>39.8</ele>
        <time>2019-02-17T08:00:59Z</time>
      </trkpt>
      <trkpt lat="50.46949" lon="1.64501">
        <ele>39.2</ele>
        <time>2019-02-17T08:01:03Z</time>
      </trkpt>
      <trkpt lat="50.46949" lon="1.64533">
        <ele>40.4</ele>
        <time>2019-02-17T08:01:07Z</time>
      </trkpt>
      <trkpt lat="50.46948" lon="1.64565">
        <ele>40</ele>
        <time>2019-02-17T08:01:11Z</time>
      </trkpt>
      <trkpt lat="50.4694" lon="1.64591">
        <ele>40.6</ele>
        <time>2019-02-17T08:01:15Z</time>
      </trkpt>
      <trkpt lat="50.46919" lon="1.64595">
        <ele>41.2</ele>
        <time>2019-02-17T08:01:19Z</time>
      </trkpt>
      <trkpt lat="50.46898" lon="1.64594">
        <ele>40.6</ele>
        <time>2019-02-17T08:01:23Z</time>
      </trkpt>
      <trkpt lat="50.46877" lon="1.64594">
        <ele>41.2</ele>
        <time>2019-02-17T08:01:27Z</time>
      </trkpt>
      <trkpt lat="50.46856" lon="1.64594">
        <ele>40.8</ele>
        <time>2019-02-17T08:01:31Z</time>
      </trkpt>
      <trkpt lat="50.46834" lon="1.64594">
        <ele>41.4</ele>
        <time>2019-02-17T08:01:35Z</time>
      </trkpt>
      <trkpt lat="50.46814" lon="1.64594">
        <ele>41</ele>
        <time>2019-02-17T08:01:39Z</time>
      </trkpt>
      <trkpt lat="50.46794" lon="1.64594">
        <ele>41</ele>
        <time>2019-02-17T08:01:43Z</time>
      </trkpt>
      <trkpt lat="50.46773" lon="1.64595">
        <ele>41</ele>
        <time>2019-02-17T08:01:47Z</time>
      </trkpt>
      <trkpt lat="50.46751" lon="1.64599">
        <ele>41.2</ele>
        <time>2019-02-17T08:01:51Z</time>
      </trkpt>
      <trkpt lat="50.46731" lon="1.64605">
        <ele>41.8</ele>
        <time>2019-02-17T08:01:55Z</time>
      </trkpt>
      <trkpt lat="50.4671" lon="1.64615">
        <ele>42</ele>
        <time>2019-02-17T08:01:59Z</time>
      </trkpt>
      <trkpt lat="50.46691" lon="1.64628">
        <ele>41.4</ele>
        <time>2019-02-17T08:02:03Z</time>
      </trkpt>
      <trkpt lat="50.46672" lon="1.6464">
        <ele>41.4</ele>
        <time>2019-02-17T08:02:07Z</time>
      </trkpt>
      <trkpt lat="50.46653" lon="1.64649">
        <ele>41.8</ele>
        <time>2019-02-17T08:02:11Z</time>
      </trkpt>
      <trkpt lat="50.46633" lon="1.64657">
        <ele>41.4</ele>
        <time>2019-02-17T08:02:15Z</time>
      </trkpt>
      <trkpt lat="50.46615" lon="1.64665">
        <ele>41.8</ele>
        <time>2019-02-17T08:02:19Z</time>
      </trkpt>
      <trkpt lat="50.46595" lon="1.64668">
        <ele>41.8</ele>
        <time>2019-02-17T08:02:23Z</time>
      </trkpt>
      <trkpt lat="50.46574" lon="1.64666">
        <ele>42.4</ele>
        <time>2019-02-17T08:02:27Z</time>
      </trkpt>
      <trkpt lat="50.46553" lon="1.64661">
        <ele>42</ele>
        <time>2019-02-17T08:02:31Z</time>
      </trkpt>
      <trkpt lat="50.46532" lon="1.64657">
        <ele>43</ele>
        <time>2019-02-17T08:02:35Z</time>
      </trkpt>
      <trkpt lat="50.46509" lon="1.64656">
        <ele>42.8</ele>
        <time>2019-02-17T08:02:39Z</time>
      </trkpt>
      <trkpt lat="50.46488" lon="1.64656">
        <ele>43</ele>
        <time>2019-02-17T08:02:43Z</time>
      </trkpt>
      <trkpt lat="50.46466" lon="1.64656">
        <ele>41.8</ele>
        <time>2019-02-17T08:02:47Z</time>
      </trkpt>
      <trkpt lat="50.46443" lon="1.64654">
        <ele>41.8</ele>
        <time>2019-02-17T08:02:51Z</time>
      </trkpt>
      <trkpt lat="50.4642" lon="1.64655">
        <ele>42.4</ele>
        <time>2019-02-17T08:02:55Z</time>
      </trkpt>
      <trkpt lat="50.46398" lon="1.64663">
        <ele>42</ele>
        <time>2019-02-17T08:02:59Z</time>
      </trkpt>
      <trkpt lat="50.46377" lon="1.64676">
        <ele>41.8</ele>
        <time>2019-02-17T08:03:03Z</time>
      </trkpt>
      <trkpt lat="50.46356" lon="1.64695">
        <ele>41</ele>
        <time>2019-02-17T08:03:07Z</time>
      </trkpt>
      <trkpt lat="50.46337" lon="1.64712">
        <ele>41</ele>
        <time>2019-02-17T08:03:11Z</time>
      </trkpt>
      <trkpt lat="50.46319" lon="1.64727">
        <ele>40.6</ele>
        <time>2019-02-17T08:03:15Z</time>
      </trkpt>
      <trkpt lat="50.46308" lon="1.64739">
        <ele>41</ele>
        <time>2019-02-17T08:03:19Z</time>
      </trkpt>
      <trkpt lat="50.46309" lon="1.64771">
        <ele>41.2</ele>
        <time>2019-02-17T08:03:23Z</time>
      </trkpt>
      <trkpt lat="50.4631" lon="1.64802">
        <ele>42.4</ele>
        <time>2019-02-17T08:03:27Z</time>
      </trkpt>
      <trkpt lat="50.46314" lon="1.64832">
        <ele>42.4</ele>
        <time>2019-02-17T08:03:31Z</time>
      </trkpt>
      <trkpt lat="50.4632" lon="1.64859">
        <ele>43.2</ele>
        <time>2019-02-17T08:03:35Z</time>
      </trkpt>
      <trkpt lat="50.46318" lon="1.64889">
        <ele>43.8</ele>
        <time>2019-02-17T08:03:39Z</time>
      </trkpt>
      <trkpt lat="50.46326" lon="1.64918">
        <ele>43.6</ele>
        <time>2019-02-17T08:03:43Z</time>
      </trkpt>
      <trkpt lat="50.46346" lon="1.64923">
        <ele>43.2</ele>
        <time>2019-02-17T08:03:47Z</time>
      </trkpt>
      <trkpt lat="50.46367" lon="1.64925">
        <ele>44.6</ele>
        <time>2019-02-17T08:03:51Z</time>
      </trkpt>
      <trkpt lat="50.4638" lon="1.64945">
        <ele>45.6</ele>
        <time>2019-02-17T08:03:55Z</time>
      </trkpt>
      <trkpt lat="50.46388" lon="1.64971">
        <ele>46.6</ele>
        <time>2019-02-17T08:03:59Z</time>
      </trkpt>
      <trkpt lat="50.46397" lon="1.64995">
        <ele>46.6</ele>
        <time>2019-02-17T08:04:03Z</time>
      </trkpt>
      <trkpt lat="50.46415" lon="1.64991">
        <ele>47.8</ele>
        <time>2019-02-17T08:04:07Z</time>
      </trkpt>
      <trkpt lat="50.46433" lon="1.64982">
        <ele>47.6</ele>
        <time>2019-02-17T08:04:11Z</time>
      </trkpt>
      <trkpt lat="50.46449" lon="1.64982">
        <ele>48.4</ele>
        <time>2019-02-17T08:04:15Z</time>
      </trkpt>
      <trkpt lat="50.46462" lon="1.64999">
        <ele>49.6</ele>
        <time>2019-02-17T08:04:19Z</time>
      </trkpt>
      <trkpt lat="50.46472" lon="1.65016">
        <ele>50</ele>
        <time>2019-02-17T08:04:23Z</time>
      </trkpt>
      <trkpt lat="50.46482" lon="1.65031">
        <ele>50.2</ele>
        <time>2019-02-17T08:04:27Z</time>
      </trkpt>
      <trkpt lat="50.46485" lon="1.65041">
        <ele>50.6</ele>
        <time>2019-02-17T08:04:31Z</time>
      </trkpt>
      <trkpt lat="50.46489" lon="1.65056">
        <ele>50.8</ele>
        <time>2019-02-17T08:04:35Z</time>
      </trkpt>
      <trkpt lat="50.46494" lon="1.65065">
        <ele>51.4</ele>
        <time>2019-02-17T08:04:39Z</time>
      </trkpt>
      <trkpt lat="50.46501" lon="1.65076">
        <ele>51.6</ele>
        <time>2019-02-17T08:04:43Z</time>
      </trkpt>
      <trkpt lat="50.46505" lon="1.65088">
        <ele>52</ele>
        <time>2019-02-17T08:04:47Z</time>
      </trkpt>
      <trkpt lat="50.46506" lon="1.65099">
        <ele>52.8</ele>
        <time>2019-02-17T08:04:51Z</time>
      </trkpt>
      <trkpt lat="50.46514" lon="1.65107">
        <ele>53.6</ele>
        <time>2019-02-17T08:04:55Z</time>
      </trkpt>
      <trkpt lat="50.46522" lon="1.65118">
        <ele>53.4</ele>
        <time>2019-02-17T08:04:59Z</time>
      </trkpt>
      <trkpt lat="50.46534" lon="1.65129">
        <ele>53.8</ele>
        <time>2019-02-17T08:05:03Z</time>
      </trkpt>
      <trkpt lat="50.46541" lon="1.65141">
        <ele>55.4</ele>
        <time>2019-02-17T08:05:07Z</time>
      </trkpt>
      <trkpt lat="50.4655" lon="1.65153">
        <ele>56.4</ele>
        <time>2019-02-17T08:05:11Z</time>
      </trkpt>
      <trkpt lat="50.4656" lon="1.65166">
        <ele>57.2</ele>
        <time>2019-02-17T08:05:15Z</time>
      </trkpt>
      <trkpt lat="50.46571" lon="1.65185">
        <ele>57.6</ele>
        <time>2019-02-17T08:05:19Z</time>
      </trkpt>
      <trkpt lat="50.46582" lon="1.65198">
        <ele>58.2</ele>
        <time>2019-02-17T08:05:23Z</time>
      </trkpt>
      <trkpt lat="50.46593" lon="1.65214">
        <ele>58.8</ele>
        <time>2019-02-17T08:05:27Z</time>
      </trkpt>
      <trkpt lat="50.466" lon="1.65227">
        <ele>59.6</ele>
        <time>2019-02-17T08:05:31Z</time>
      </trkpt>
      <trkpt lat="50.46609" lon="1.65237">
        <ele>60.8</ele>
        <time>2019-02-17T08:05:35Z</time>
      </trkpt>
      <trkpt lat="50.46617" lon="1.65252">
        <ele>61.6</ele>
        <time>2019-02-17T08:05:39Z</time>
      </trkpt>
      <trkpt lat="50.46624" lon="1.65265">
        <ele>62</ele>
        <time>2019-02-17T08:05:43Z</time>
      </trkpt>
      <trkpt lat="50.46632" lon="1.65278">
        <ele>62.4</ele>
        <time>2019-02-17T08:05:47Z</time>
      </trkpt>
      <trkpt lat="50.46639" lon="1.65291">
        <ele>62.4</ele>
        <time>2019-02-17T08:05:51Z</time>
      </trkpt>
      <trkpt lat="50.46646" lon="1.65303">
        <ele>63</ele>
        <time>2019-02-17T08:05:55Z</time>
      </trkpt>
      <trkpt lat="50.46649" lon="1.65314">
        <ele>64</ele>
        <time>2019-02-17T08:05:59Z</time>
      </trkpt>
      <trkpt lat="50.46656" lon="1.65327">
        <ele>64.4</ele>
        <time>2019-02-17T08:06:03Z</time>
      </trkpt>
      <trkpt lat="50.46661" lon="1.65343">
        <ele>65.4</ele>
        <time>2019-02-17T08:06:07Z</time>
      </trkpt>
      <trkpt lat="50.46666" lon="1.65357">
        <ele>66.2</ele>
        <time>2019-02-17T08:06:11Z</time>
      </trkpt>
      <trkpt lat="50.4667" lon="1.65369">
        <ele>66.6</ele>
        <time>2019-02-17T08:06:15Z</time>
      </trkpt>
      <trkpt lat="50.46676" lon="1.65382">
        <ele>66.8</ele>
        <time>2019-02-17T08:06:19Z</time>
      </trkpt>
      <trkpt lat="50.46681" lon="1.65399">
        <ele>67</ele>
        <time>2019-02-17T08:06:23Z</time>
      </trkpt>
      <trkpt lat="50.46688" lon="1.65413">
        <ele>67</ele>
        <time>2019-02-17T08:06:27Z</time>
      </trkpt>
      <trkpt lat="50.46695" lon="1.65432">
        <ele>67</ele>
        <time>2019-02-17T08:06:31Z</time>
      </trkpt>
      <trkpt lat="50.46704" lon="1.65452">
        <ele>67</ele>
        <time>2019-02-17T08:06:35Z</time>
      </trkpt>
      <trkpt lat="50.46713" lon="1.6547">
        <ele>67.2</ele>
        <time>2019-02-17T08:06:39Z</time>
      </trkpt>
      <trkpt lat="50.46723" lon="1.6549">
        <ele>67.4</ele>
        <time>2019-02-17T08:06:43Z</time>
      </trkpt>
      <trkpt lat="50.46731" lon="1.65508">
        <ele>67.2</ele>
        <time>2019-02-17T08:06:47Z</time>
      </trkpt>
      <trkpt lat="50.4674" lon="1.65525">
        <ele>67.2</ele>
        <time>2019-02-17T08:06:51Z</time>
      </trkpt>
      <trkpt lat="50.46749" lon="1.65543">
        <ele>67</ele>
        <time>2019-02-17T08:06:55Z</time>
      </trkpt>
      <trkpt lat="50.46756" lon="1.65558">
        <ele>67.6</ele>
        <time>2019-02-17T08:06:59Z</time>
      </trkpt>
      <trkpt lat="50.46765" lon="1.65574">
        <ele>67.8</ele>
        <time>2019-02-17T08:07:03Z</time>
      </trkpt>
      <trkpt lat="50.46775" lon="1.65585">
        <ele>68.6</ele>
        <time>2019-02-17T08:07:07Z</time>
      </trkpt>
      <trkpt lat="50.46782" lon="1.65606">
        <ele>69.6</ele>
        <time>2019-02-17T08:07:11Z</time>
      </trkpt>
      <trkpt lat="50.46792" lon="1.65621">
        <ele>69.6</ele>
        <time>2019-02-17T08:07:15Z</time>
      </trkpt>
      <trkpt lat="50.46799" lon="1.65639">
        <ele>70.2</ele>
        <time>2019-02-17T08:07:19Z</time>
      </trkpt>
      <trkpt lat="50.46805" lon="1.65654">
        <ele>70</ele>
        <time>2019-02-17T08:07:23Z</time>
      </trkpt>
      <trkpt lat="50.46812" lon="1.65666">
        <ele>71.4</ele>
        <time>2019-02-17T08:07:27Z</time>
      </trkpt>
      <trkpt lat="50.46821" lon="1.6568">
        <ele>71.6</ele>
        <time>2019-02-17T08:07:31Z</time>
      </trkpt>
      <trkpt lat="50.4683" lon="1.65698">
        <ele>71.4</ele>
        <time>2019-02-17T08:07:35Z</time>
      </trkpt>
      <trkpt lat="50.46838" lon="1.65717">
        <ele>72</ele>
        <time>2019-02-17T08:07:39Z</time>
      </trkpt>
      <trkpt lat="50.46846" lon="1.65733">
        <ele>72</ele>
        <time>2019-02-17T08:07:43Z</time>
      </trkpt>
      <trkpt lat="50.46855" lon="1.65748">
        <ele>72.2</ele>
        <time>2019-02-17T08:07:47Z</time>
      </trkpt>
      <trkpt lat="50.46864" lon="1.65763">
        <ele>72.8</ele>
        <time>2019-02-17T08:07:51Z</time>
      </trkpt>
      <trkpt lat="50.4687" lon="1.65781">
        <ele>72.8</ele>
        <time>2019-02-17T08:07:55Z</time>
      </trkpt>
      <trkpt lat="50.46878" lon="1.65793">
        <ele>72.8</ele>
        <time>2019-02-17T08:07:59Z</time>
      </trkpt>
      <trkpt lat="50.46884" lon="1.65808">
        <ele>72.6</ele>
        <time>2019-02-17T08:08:03Z</time>
      </trkpt>
      <trkpt lat="50.46887" lon="1.65816">
        <ele>72.8</ele>
        <time>2019-02-17T08:08:07Z</time>
      </trkpt>
      <trkpt lat="50.46891" lon="1.65823">
        <ele>74</ele>
        <time>2019-02-17T08:08:11Z</time>
      </trkpt>
      <trkpt lat="50.46896" lon="1.65822">
        <ele>74.6</ele>
        <time>2019-02-17T08:08:15Z</time>
      </trkpt>
      <trkpt lat="50.46896" lon="1.65805">
        <ele>74.8</ele>
        <time>2019-02-17T08:08:19Z</time>
      </trkpt>
      <trkpt lat="50.46895" lon="1.65785">
        <ele>75.8</ele>
        <time>2019-02-17T08:08:23Z</time>
      </trkpt>
      <trkpt lat="50.46895" lon="1.65766">
        <ele>76</ele>
        <time>2019-02-17T08:08:27Z</time>
      </trkpt>
      <trkpt lat="50.46899" lon="1.65762">
        <ele>76.8</ele>
        <time>2019-02-17T08:08:31Z</time>
      </trkpt>
      <trkpt lat="50.46904" lon="1.65763">
        <ele>76.8</ele>
        <time>2019-02-17T08:08:35Z</time>
      </trkpt>
      <trkpt lat="50.46904" lon="1.65763">
        <ele>76.8</ele>
        <time>2019-02-17T08:08:39Z</time>
      </trkpt>
      <trkpt lat="50.46904" lon="1.65763">
        <ele>76.8</ele>
        <time>2019-02-17T08:08:43Z</time>
      </trkpt>
      <trkpt lat="50.46904" lon="1.65763">
        <ele>76.8</ele>
        <time>2019-02-17T08:08:47Z</time>
      </trkpt>
      <trkpt lat="50.46904" lon="1.65763">
        <ele>76.8</ele>
        <time>2019-02-17T08:08:51Z</time>
      </trkpt>
      <trkpt lat="50.46907" lon="1.65764">
        <ele>76.4</ele>
        <time>2019-02-17T08:08:55Z</time>
      </trkpt>
      <trkpt lat="50.46907" lon="1.65764">
        <ele>76.4</ele>
        <time>2019-02-17T08:08:59Z</time>
      </trkpt>
      <trkpt lat="50.46907" lon="1.65764">
        <ele>76.4</ele>
        <time>2019-02-17T08:09:03Z</time>
      </trkpt>
      <trkpt lat="50.46907" lon="1.65764">
        <ele>76.4</ele>
        <time>2019-02-17T08:09:07Z</time>
      </trkpt>
      <trkpt lat="50.46907" lon="1.65764">
        <ele>76.4</ele>
        <time>2019-02-17T08:09:11Z</time>
      </trkpt>
      <trkpt lat="50.46909" lon="1.65764">
        <ele>76.8</ele>
        <time>2019-02-17T08:09:15Z</time>
      </trkpt>
      <trkpt lat="50.46909" lon="1.65764">
        <ele>76.8</ele>
        <time>2019-02-17T08:09:19Z</time>
      </trkpt>
      <trkpt lat="50.46909" lon="1.65764">
        <ele>76.8</ele>
        <time>2019-02-17T08:09:23Z</time>
      </trkpt>
      <trkpt lat="50.46909" lon="1.65764">
        <ele>76.8</ele>
        <time>2019-02-17T08:09:27Z</time>
      </trkpt>
      <trkpt lat="50.46913" lon="1.65762">
        <ele>77.6</ele>
        <time>2019-02-17T08:09:31Z</time>
      </trkpt>
      <trkpt lat="50.46913" lon="1.65762">
        <ele>77.6</ele>
        <time>2019-02-17T08:09:35Z</time>
      </trkpt>
      <trkpt lat="50.46917" lon="1.65762">
        <ele>77.2</ele>
        <time>2019-02-17T08:09:39Z</time>
      </trkpt>
      <trkpt lat="50.46927" lon="1.65758">
        <ele>77.8</ele>
        <time>2019-02-17T08:09:43Z</time>
      </trkpt>
      <trkpt lat="50.46941" lon="1.65754">
        <ele>79</ele>
        <time>2019-02-17T08:09:47Z</time>
      </trkpt>
      <trkpt lat="50.46955" lon="1.65748">
        <ele>79.4</ele>
        <time>2019-02-17T08:09:51Z</time>
      </trkpt>
      <trkpt lat="50.46968" lon="1.65742">
        <ele>80.4</ele>
        <time>2019-02-17T08:09:55Z</time>
      </trkpt>
      <trkpt lat="50.46979" lon="1.65736">
        <ele>80.4</ele>
        <time>2019-02-17T08:09:59Z</time>
      </trkpt>
      <trkpt lat="50.46994" lon="1.65729">
        <ele>80.2</ele>
        <time>2019-02-17T08:10:03Z</time>
      </trkpt>
      <trkpt lat="50.47007" lon="1.65722">
        <ele>80.6</ele>
        <time>2019-02-17T08:10:07Z</time>
      </trkpt>
      <trkpt lat="50.47017" lon="1.65718">
        <ele>80.4</ele>
        <time>2019-02-17T08:10:11Z</time>
      </trkpt>
      <trkpt lat="50.47024" lon="1.65725">
        <ele>81</ele>
        <time>2019-02-17T08:10:15Z</time>
      </trkpt>
      <trkpt lat="50.47028" lon="1.65741">
        <ele>81.2</ele>
        <time>2019-02-17T08:10:19Z</time>
      </trkpt>
      <trkpt lat="50.47035" lon="1.65757">
        <ele>80.4</ele>
        <time>2019-02-17T08:10:23Z</time>
      </trkpt>
      <trkpt lat="50.47039" lon="1.65779">
        <ele>79.8</ele>
        <time>2019-02-17T08:10:27Z</time>
      </trkpt>
      <trkpt lat="50.47036" lon="1.65803">
        <ele>79.4</ele>
        <time>2019-02-17T08:10:31Z</time>
      </trkpt>
      <trkpt lat="50.47028" lon="1.65819">
        <ele>79.2</ele>
        <time>2019-02-17T08:10:35Z</time>
      </trkpt>
      <trkpt lat="50.47017" lon="1.65827">
        <ele>79.4</ele>
        <time>2019-02-17T08:10:39Z</time>
      </trkpt>
      <trkpt lat="50.47002" lon="1.65832">
        <ele>79.6</ele>
        <time>2019-02-17T08:10:43Z</time>
      </trkpt>
      <trkpt lat="50.46988" lon="1.65836">
        <ele>79</ele>
        <time>2019-02-17T08:10:47Z</time>
      </trkpt>
      <trkpt lat="50.46969" lon="1.65839">
        <ele>78.6</ele>
        <time>2019-02-17T08:10:51Z</time>
      </trkpt>
      <trkpt lat="50.46957" lon="1.65861">
        <ele>78</ele>
        <time>2019-02-17T08:10:55Z</time>
      </trkpt>
      <trkpt lat="50.46959" lon="1.65891">
        <ele>77.2</ele>
        <time>2019-02-17T08:10:59Z</time>
      </trkpt>
      <trkpt lat="50.46961" lon="1.65922">
        <ele>77.4</ele>
        <time>2019-02-17T08:11:03Z</time>
      </trkpt>
      <trkpt lat="50.46963" lon="1.65954">
        <ele>76.2</ele>
        <time>2019-02-17T08:11:07Z</time>
      </trkpt>
      <trkpt lat="50.46967" lon="1.65985">
        <ele>75</ele>
        <time>2019-02-17T08:11:11Z</time>
      </trkpt>
      <trkpt lat="50.46989" lon="1.65995">
        <ele>74.8</ele>
        <time>2019-02-17T08:11:15Z</time>
      </trkpt>
      <trkpt lat="50.47015" lon="1.66003">
        <ele>74.8</ele>
        <time>2019-02-17T08:11:19Z</time>
      </trkpt>
      <trkpt lat="50.47039" lon="1.66019">
        <ele>73.4</ele>
        <time>2019-02-17T08:11:23Z</time>
      </trkpt>
      <trkpt lat="50.47062" lon="1.66039">
        <ele>72.2</ele>
        <time>2019-02-17T08:11:27Z</time>
      </trkpt>
      <trkpt lat="50.47072" lon="1.66077">
        <ele>71.4</ele>
        <time>2019-02-17T08:11:31Z</time>
      </trkpt>
      <trkpt lat="50.47071" lon="1.66113">
        <ele>71.4</ele>
        <time>2019-02-17T08:11:35Z</time>
      </trkpt>
      <trkpt lat="50.4706" lon="1.66137">
        <ele>72</ele>
        <time>2019-02-17T08:11:39Z</time>
      </trkpt>
      <trkpt lat="50.47044" lon="1.66159">
        <ele>71.4</ele>
        <time>2019-02-17T08:11:43Z</time>
      </trkpt>
      <trkpt lat="50.4703" lon="1.66182">
        <ele>72</ele>
        <time>2019-02-17T08:11:47Z</time>
      </trkpt>
      <trkpt lat="50.47015" lon="1.66204">
        <ele>71.4</ele>
        <time>2019-02-17T08:11:51Z</time>
      </trkpt>
      <trkpt lat="50.46999" lon="1.66227">
        <ele>71.8</ele>
        <time>2019-02-17T08:11:55Z</time>
      </trkpt>
      <trkpt lat="50.46983" lon="1.66252">
        <ele>70</ele>
        <time>2019-02-17T08:11:59Z</time>
      </trkpt>
      <trkpt lat="50.4697" lon="1.66271">
        <ele>69.8</ele>
        <time>2019-02-17T08:12:03Z</time>
      </trkpt>
      <trkpt lat="50.46955" lon="1.66294">
        <ele>69.8</ele>
        <time>2019-02-17T08:12:07Z</time>
      </trkpt>
      <trkpt lat="50.4694" lon="1.66317">
        <ele>69.4</ele>
        <time>2019-02-17T08:12:11Z</time>
      </trkpt>
      <trkpt lat="50.46924" lon="1.66337">
        <ele>70.2</ele>
        <time>2019-02-17T08:12:15Z</time>
      </trkpt>
      <trkpt lat="50.46907" lon="1.66355">
        <ele>70.4</ele>
        <time>2019-02-17T08:12:19Z</time>
      </trkpt>
      <trkpt lat="50.46905" lon="1.66386">
        <ele>69.4</ele>
        <time>2019-02-17T08:12:23Z</time>
      </trkpt>
      <trkpt lat="50.46907" lon="1.66419">
        <ele>70</ele>
        <time>2019-02-17T08:12:27Z</time>
      </trkpt>
      <trkpt lat="50.469" lon="1.66449">
        <ele>70</ele>
        <time>2019-02-17T08:12:31Z</time>
      </trkpt>
      <trkpt lat="50.46883" lon="1.66462">
        <ele>70.8</ele>
        <time>2019-02-17T08:12:35Z</time>
      </trkpt>
      <trkpt lat="50.46865" lon="1.6647">
        <ele>70.8</ele>
        <time>2019-02-17T08:12:39Z</time>
      </trkpt>
      <trkpt lat="50.46849" lon="1.66484">
        <ele>70.8</ele>
        <time>2019-02-17T08:12:43Z</time>
      </trkpt>
      <trkpt lat="50.46832" lon="1.66497">
        <ele>72.2</ele>
        <time>2019-02-17T08:12:47Z</time>
      </trkpt>
      <trkpt lat="50.46815" lon="1.66486">
        <ele>72</ele>
        <time>2019-02-17T08:12:51Z</time>
      </trkpt>
      <trkpt lat="50.468" lon="1.66495">
        <ele>71.2</ele>
        <time>2019-02-17T08:12:55Z</time>
      </trkpt>
      <trkpt lat="50.46789" lon="1.66518">
        <ele>70</ele>
        <time>2019-02-17T08:12:59Z</time>
      </trkpt>
      <trkpt lat="50.4678" lon="1.66544">
        <ele>69.8</ele>
        <time>2019-02-17T08:13:03Z</time>
      </trkpt>
      <trkpt lat="50.46787" lon="1.66578">
        <ele>68</ele>
        <time>2019-02-17T08:13:07Z</time>
      </trkpt>
      <trkpt lat="50.46794" lon="1.66616">
        <ele>67</ele>
        <time>2019-02-17T08:13:11Z</time>
      </trkpt>
      <trkpt lat="50.46796" lon="1.66658">
        <ele>66.2</ele>
        <time>2019-02-17T08:13:15Z</time>
      </trkpt>
      <trkpt lat="50.46798" lon="1.66698">
        <ele>65.8</ele>
        <time>2019-02-17T08:13:19Z</time>
      </trkpt>
      <trkpt lat="50.46801" lon="1.66737">
        <ele>66</ele>
        <time>2019-02-17T08:13:23Z</time>
      </trkpt>
      <trkpt lat="50.46801" lon="1.66775">
        <ele>66</ele>
        <time>2019-02-17T08:13:27Z</time>
      </trkpt>
      <trkpt lat="50.46799" lon="1.66809">
        <ele>66</ele>
        <time>2019-02-17T08:13:31Z</time>
      </trkpt>
      <trkpt lat="50.46799" lon="1.66842">
        <ele>67</ele>
        <time>2019-02-17T08:13:35Z</time>
      </trkpt>
      <trkpt lat="50.468" lon="1.66876">
        <ele>68.2</ele>
        <time>2019-02-17T08:13:39Z</time>
      </trkpt>
      <trkpt lat="50.46798" lon="1.66904">
        <ele>68.2</ele>
        <time>2019-02-17T08:13:43Z</time>
      </trkpt>
      <trkpt lat="50.46799" lon="1.66925">
        <ele>69.8</ele>
        <time>2019-02-17T08:13:47Z</time>
      </trkpt>
      <trkpt lat="50.46798" lon="1.6695">
        <ele>70</ele>
        <time>2019-02-17T08:13:51Z</time>
      </trkpt>
      <trkpt lat="50.46795" lon="1.66973">
        <ele>70.8</ele>
        <time>2019-02-17T08:13:55Z</time>
      </trkpt>
      <trkpt lat="50.46793" lon="1.66993">
        <ele>71.8</ele>
        <time>2019-02-17T08:13:59Z</time>
      </trkpt>
      <trkpt lat="50.46786" lon="1.67015">
        <ele>72.8</ele>
        <time>2019-02-17T08:14:03Z</time>
      </trkpt>
      <trkpt lat="50.46776" lon="1.67034">
        <ele>73.2</ele>
        <time>2019-02-17T08:14:07Z</time>
      </trkpt>
      <trkpt lat="50.46765" lon="1.67053">
        <ele>73.6</ele>
        <time>2019-02-17T08:14:11Z</time>
      </trkpt>
      <trkpt lat="50.46754" lon="1.6707">
        <ele>74</ele>
        <time>2019-02-17T08:14:15Z</time>
      </trkpt>
      <trkpt lat="50.46741" lon="1.67087">
        <ele>73.8</ele>
        <time>2019-02-17T08:14:19Z</time>
      </trkpt>
      <trkpt lat="50.46729" lon="1.67103">
        <ele>74.2</ele>
        <time>2019-02-17T08:14:23Z</time>
      </trkpt>
      <trkpt lat="50.46717" lon="1.67118">
        <ele>74.2</ele>
        <time>2019-02-17T08:14:27Z</time>
      </trkpt>
      <trkpt lat="50.46704" lon="1.67134">
        <ele>74.6</ele>
        <time>2019-02-17T08:14:31Z</time>
      </trkpt>
      <trkpt lat="50.46692" lon="1.67148">
        <ele>75</ele>
        <time>2019-02-17T08:14:35Z</time>
      </trkpt>
      <trkpt lat="50.46681" lon="1.67164">
        <ele>75.6</ele>
        <time>2019-02-17T08:14:39Z</time>
      </trkpt>
      <trkpt lat="50.4667" lon="1.67179">
        <ele>75.8</ele>
        <time>2019-02-17T08:14:43Z</time>
      </trkpt>
      <trkpt lat="50.46657" lon="1.67195">
        <ele>76.6</ele>
        <time>2019-02-17T08:14:47Z</time>
      </trkpt>
      <trkpt lat="50.46645" lon="1.67209">
        <ele>77.2</ele>
        <time>2019-02-17T08:14:51Z</time>
      </trkpt>
      <trkpt lat="50.46634" lon="1.67223">
        <ele>77.4</ele>
        <time>2019-02-17T08:14:55Z</time>
      </trkpt>
      <trkpt lat="50.46621" lon="1.67237">
        <ele>77.2</ele>
        <time>2019-02-17T08:14:59Z</time>
      </trkpt>
      <trkpt lat="50.46607" lon="1.67253">
        <ele>78.6</ele>
        <time>2019-02-17T08:15:03Z</time>
      </trkpt>
      <trkpt lat="50.46593" lon="1.6727">
        <ele>78.4</ele>
        <time>2019-02-17T08:15:07Z</time>
      </trkpt>
      <trkpt lat="50.46579" lon="1.67287">
        <ele>79</ele>
        <time>2019-02-17T08:15:11Z</time>
      </trkpt>
      <trkpt lat="50.46567" lon="1.67308">
        <ele>79.2</ele>
        <time>2019-02-17T08:15:15Z</time>
      </trkpt>
      <trkpt lat="50.46556" lon="1.67327">
        <ele>80.2</ele>
        <time>2019-02-17T08:15:19Z</time>
      </trkpt>
      <trkpt lat="50.46546" lon="1.67342">
        <ele>80.6</ele>
        <time>2019-02-17T08:15:23Z</time>
      </trkpt>
      <trkpt lat="50.46538" lon="1.67357">
        <ele>80.6</ele>
        <time>2019-02-17T08:15:27Z</time>
      </trkpt>
      <trkpt lat="50.46531" lon="1.67372">
        <ele>80.8</ele>
        <time>2019-02-17T08:15:31Z</time>
      </trkpt>
      <trkpt lat="50.46524" lon="1.67387">
        <ele>80.8</ele>
        <time>2019-02-17T08:15:35Z</time>
      </trkpt>
      <trkpt lat="50.46516" lon="1.67399">
        <ele>81.4</ele>
        <time>2019-02-17T08:15:39Z</time>
      </trkpt>
      <trkpt lat="50.46507" lon="1.67414">
        <ele>81.2</ele>
        <time>2019-02-17T08:15:43Z</time>
      </trkpt>
      <trkpt lat="50.46497" lon="1.6743">
        <ele>81.4</ele>
        <time>2019-02-17T08:15:47Z</time>
      </trkpt>
      <trkpt lat="50.46487" lon="1.67447">
        <ele>82.8</ele>
        <time>2019-02-17T08:15:51Z</time>
      </trkpt>
      <trkpt lat="50.46476" lon="1.67465">
        <ele>82.2</ele>
        <time>2019-02-17T08:15:55Z</time>
      </trkpt>
      <trkpt lat="50.46465" lon="1.67484">
        <ele>82.2</ele>
        <time>2019-02-17T08:15:59Z</time>
      </trkpt>
      <trkpt lat="50.46456" lon="1.67503">
        <ele>82.6</ele>
        <time>2019-02-17T08:16:03Z</time>
      </trkpt>
      <trkpt lat="50.46445" lon="1.67523">
        <ele>82.2</ele>
        <time>2019-02-17T08:16:07Z</time>
      </trkpt>
      <trkpt lat="50.46435" lon="1.67541">
        <ele>82.8</ele>
        <time>2019-02-17T08:16:11Z</time>
      </trkpt>
      <trkpt lat="50.46427" lon="1.67559">
        <ele>82.8</ele>
        <time>2019-02-17T08:16:15Z</time>
      </trkpt>
      <trkpt lat="50.46417" lon="1.6758">
        <ele>83</ele>
        <time>2019-02-17T08:16:19Z</time>
      </trkpt>
      <trkpt lat="50.46405" lon="1.67603">
        <ele>83.4</ele>
        <time>2019-02-17T08:16:23Z</time>
      </trkpt>
      <trkpt lat="50.46393" lon="1.67626">
        <ele>83.6</ele>
        <time>2019-02-17T08:16:27Z</time>
      </trkpt>
      <trkpt lat="50.4638" lon="1.67648">
        <ele>83.2</ele>
        <time>2019-02-17T08:16:31Z</time>
      </trkpt>
      <trkpt lat="50.46365" lon="1.67669">
        <ele>83.4</ele>
        <time>2019-02-17T08:16:35Z</time>
      </trkpt>
      <trkpt lat="50.46351" lon="1.67688">
        <ele>83.4</ele>
        <time>2019-02-17T08:16:39Z</time>
      </trkpt>
      <trkpt lat="50.46335" lon="1.67706">
        <ele>83.8</ele>
        <time>2019-02-17T08:16:43Z</time>
      </trkpt>
      <trkpt lat="50.46322" lon="1.67724">
        <ele>84</ele>
        <time>2019-02-17T08:16:47Z</time>
      </trkpt>
      <trkpt lat="50.46312" lon="1.67741">
        <ele>84.4</ele>
        <time>2019-02-17T08:16:51Z</time>
      </trkpt>
      <trkpt lat="50.46297" lon="1.6776">
        <ele>84.4</ele>
        <time>2019-02-17T08:16:55Z</time>
      </trkpt>
      <trkpt lat="50.4628" lon="1.67777">
        <ele>84.8</ele>
        <time>2019-02-17T08:16:59Z</time>
      </trkpt>
      <trkpt lat="50.46268" lon="1.67787">
        <ele>85.4</ele>
        <time>2019-02-17T08:17:03Z</time>
      </trkpt>
      <trkpt lat="50.46252" lon="1.67798">
        <ele>85.8</ele>
        <time>2019-02-17T08:17:07Z</time>
      </trkpt>
      <trkpt lat="50.46235" lon="1.67807">
        <ele>86</ele>
        <time>2019-02-17T08:17:11Z</time>
      </trkpt>
      <trkpt lat="50.4622" lon="1.67814">
        <ele>86.8</ele>
        <time>2019-02-17T08:17:15Z</time>
      </trkpt>
      <trkpt lat="50.46208" lon="1.67822">
        <ele>88.6</ele>
        <time>2019-02-17T08:17:19Z</time>
      </trkpt>
      <trkpt lat="50.46189" lon="1.67829">
        <ele>88.8</ele>
        <time>2019-02-17T08:17:23Z</time>
      </trkpt>
      <trkpt lat="50.46174" lon="1.6783">
        <ele>89.4</ele>
        <time>2019-02-17T08:17:27Z</time>
      </trkpt>
      <trkpt lat="50.46161" lon="1.67838">
        <ele>89.8</ele>
        <time>2019-02-17T08:17:31Z</time>
      </trkpt>
      <trkpt lat="50.46146" lon="1.67847">
        <ele>90.6</ele>
        <time>2019-02-17T08:17:35Z</time>
      </trkpt>
      <trkpt lat="50.46129" lon="1.67854">
        <ele>90.4</ele>
        <time>2019-02-17T08:17:39Z</time>
      </trkpt>
      <trkpt lat="50.46116" lon="1.6786">
        <ele>91</ele>
        <time>2019-02-17T08:17:43Z</time>
      </trkpt>
      <trkpt lat="50.46103" lon="1.67865">
        <ele>90</ele>
        <time>2019-02-17T08:17:47Z</time>
      </trkpt>
      <trkpt lat="50.46093" lon="1.6785">
        <ele>91</ele>
        <time>2019-02-17T08:17:51Z</time>
      </trkpt>
      <trkpt lat="50.46085" lon="1.67832">
        <ele>91.2</ele>
        <time>2019-02-17T08:17:55Z</time>
      </trkpt>
      <trkpt lat="50.46076" lon="1.67817">
        <ele>92</ele>
        <time>2019-02-17T08:17:59Z</time>
      </trkpt>
      <trkpt lat="50.46065" lon="1.67801">
        <ele>92</ele>
        <time>2019-02-17T08:18:03Z</time>
      </trkpt>
      <trkpt lat="50.4605" lon="1.67787">
        <ele>92.4</ele>
        <time>2019-02-17T08:18:07Z</time>
      </trkpt>
      <trkpt lat="50.46035" lon="1.67776">
        <ele>92.8</ele>
        <time>2019-02-17T08:18:11Z</time>
      </trkpt>
      <trkpt lat="50.46021" lon="1.67766">
        <ele>93.2</ele>
        <time>2019-02-17T08:18:15Z</time>
      </trkpt>
      <trkpt lat="50.46007" lon="1.67755">
        <ele>93.4</ele>
        <time>2019-02-17T08:18:19Z</time>
      </trkpt>
      <trkpt lat="50.45993" lon="1.67745">
        <ele>94</ele>
        <time>2019-02-17T08:18:23Z</time>
      </trkpt>
      <trkpt lat="50.45979" lon="1.67735">
        <ele>94.6</ele>
        <time>2019-02-17T08:18:27Z</time>
      </trkpt>
      <trkpt lat="50.45967" lon="1.67716">
        <ele>94.8</ele>
        <time>2019-02-17T08:18:31Z</time>
      </trkpt>
      <trkpt lat="50.45955" lon="1.67691">
        <ele>95.4</ele>
        <time>2019-02-17T08:18:35Z</time>
      </trkpt>
      <trkpt lat="50.45945" lon="1.67668">
        <ele>95.4</ele>
        <time>2019-02-17T08:18:39Z</time>
      </trkpt>
      <trkpt lat="50.45932" lon="1.67648">
        <ele>95.2</ele>
        <time>2019-02-17T08:18:43Z</time>
      </trkpt>
      <trkpt lat="50.45919" lon="1.6763">
        <ele>95.4</ele>
        <time>2019-02-17T08:18:47Z</time>
      </trkpt>
      <trkpt lat="50.45906" lon="1.67613">
        <ele>95.4</ele>
        <time>2019-02-17T08:18:51Z</time>
      </trkpt>
      <trkpt lat="50.45893" lon="1.67595">
        <ele>95.4</ele>
        <time>2019-02-17T08:18:55Z</time>
      </trkpt>
      <trkpt lat="50.45883" lon="1.67577">
        <ele>95.8</ele>
        <time>2019-02-17T08:18:59Z</time>
      </trkpt>
      <trkpt lat="50.45868" lon="1.67558">
        <ele>96.4</ele>
        <time>2019-02-17T08:19:03Z</time>
      </trkpt>
      <trkpt lat="50.45854" lon="1.67538">
        <ele>96.4</ele>
        <time>2019-02-17T08:19:07Z</time>
      </trkpt>
      <trkpt lat="50.45848" lon="1.67509">
        <ele>96.6</ele>
        <time>2019-02-17T08:19:11Z</time>
      </trkpt>
      <trkpt lat="50.45849" lon="1.67478">
        <ele>96</ele>
        <time>2019-02-17T08:19:15Z</time>
      </trkpt>
      <trkpt lat="50.4585" lon="1.67449">
        <ele>95.8</ele>
        <time>2019-02-17T08:19:19Z</time>
      </trkpt>
      <trkpt lat="50.45853" lon="1.67414">
        <ele>94.8</ele>
        <time>2019-02-17T08:19:23Z</time>
      </trkpt>
      <trkpt lat="50.45854" lon="1.67379">
        <ele>94</ele>
        <time>2019-02-17T08:19:27Z</time>
      </trkpt>
      <trkpt lat="50.45857" lon="1.67338">
        <ele>91.4</ele>
        <time>2019-02-17T08:19:31Z</time>
      </trkpt>
      <trkpt lat="50.45838" lon="1.67306">
        <ele>89</ele>
        <time>2019-02-17T08:19:35Z</time>
      </trkpt>
      <trkpt lat="50.45813" lon="1.67266">
        <ele>83</ele>
        <time>2019-02-17T08:19:39Z</time>
      </trkpt>
      <trkpt lat="50.45791" lon="1.67211">
        <ele>75.6</ele>
        <time>2019-02-17T08:19:43Z</time>
      </trkpt>
      <trkpt lat="50.45771" lon="1.67171">
        <ele>72.2</ele>
        <time>2019-02-17T08:19:47Z</time>
      </trkpt>
      <trkpt lat="50.45735" lon="1.67155">
        <ele>66.4</ele>
        <time>2019-02-17T08:19:51Z</time>
      </trkpt>
      <trkpt lat="50.45695" lon="1.67148">
        <ele>65.4</ele>
        <time>2019-02-17T08:19:55Z</time>
      </trkpt>
      <trkpt lat="50.45659" lon="1.6713">
        <ele>63.6</ele>
        <time>2019-02-17T08:19:59Z</time>
      </trkpt>
      <trkpt lat="50.45624" lon="1.67116">
        <ele>61.6</ele>
        <time>2019-02-17T08:20:03Z</time>
      </trkpt>
      <trkpt lat="50.45591" lon="1.67094">
        <ele>58.2</ele>
        <time>2019-02-17T08:20:07Z</time>
      </trkpt>
      <trkpt lat="50.45572" lon="1.67084">
        <ele>57.2</ele>
        <time>2019-02-17T08:20:11Z</time>
      </trkpt>
      <trkpt lat="50.45552" lon="1.67083">
        <ele>58.6</ele>
        <time>2019-02-17T08:20:15Z</time>
      </trkpt>
      <trkpt lat="50.4553" lon="1.67087">
        <ele>58.2</ele>
        <time>2019-02-17T08:20:19Z</time>
      </trkpt>
      <trkpt lat="50.45511" lon="1.67099">
        <ele>59.2</ele>
        <time>2019-02-17T08:20:23Z</time>
      </trkpt>
      <trkpt lat="50.45495" lon="1.67115">
        <ele>59.6</ele>
        <time>2019-02-17T08:20:27Z</time>
      </trkpt>
      <trkpt lat="50.45483" lon="1.67135">
        <ele>59.6</ele>
        <time>2019-02-17T08:20:31Z</time>
      </trkpt>
      <trkpt lat="50.45473" lon="1.67157">
        <ele>60.8</ele>
        <time>2019-02-17T08:20:35Z</time>
      </trkpt>
      <trkpt lat="50.45463" lon="1.67173">
        <ele>59.6</ele>
        <time>2019-02-17T08:20:39Z</time>
      </trkpt>
      <trkpt lat="50.45458" lon="1.67184">
        <ele>59.6</ele>
        <time>2019-02-17T08:20:43Z</time>
      </trkpt>
      <trkpt lat="50.45456" lon="1.67201">
        <ele>59.4</ele>
        <time>2019-02-17T08:20:47Z</time>
      </trkpt>
      <trkpt lat="50.45451" lon="1.67218">
        <ele>60.2</ele>
        <time>2019-02-17T08:20:51Z</time>
      </trkpt>
      <trkpt lat="50.45447" lon="1.67233">
        <ele>59.8</ele>
        <time>2019-02-17T08:20:55Z</time>
      </trkpt>
      <trkpt lat="50.45443" lon="1.6725">
        <ele>60.4</ele>
        <time>2019-02-17T08:20:59Z</time>
      </trkpt>
      <trkpt lat="50.45438" lon="1.67268">
        <ele>62</ele>
        <time>2019-02-17T08:21:03Z</time>
      </trkpt>
      <trkpt lat="50.45431" lon="1.67284">
        <ele>61.6</ele>
        <time>2019-02-17T08:21:07Z</time>
      </trkpt>
      <trkpt lat="50.45428" lon="1.673">
        <ele>61.6</ele>
        <time>2019-02-17T08:21:11Z</time>
      </trkpt>
      <trkpt lat="50.45426" lon="1.67318">
        <ele>62</ele>
        <time>2019-02-17T08:21:15Z</time>
      </trkpt>
      <trkpt lat="50.45421" lon="1.67339">
        <ele>61.2</ele>
        <time>2019-02-17T08:21:19Z</time>
      </trkpt>
      <trkpt lat="50.45416" lon="1.67362">
        <ele>62.2</ele>
        <time>2019-02-17T08:21:23Z</time>
      </trkpt>
      <trkpt lat="50.45411" lon="1.67384">
        <ele>63.4</ele>
        <time>2019-02-17T08:21:27Z</time>
      </trkpt>
      <trkpt lat="50.45407" lon="1.67404">
        <ele>63.2</ele>
        <time>2019-02-17T08:21:31Z</time>
      </trkpt>
      <trkpt lat="50.45403" lon="1.67426">
        <ele>63.2</ele>
        <time>2019-02-17T08:21:35Z</time>
      </trkpt>
      <trkpt lat="50.45399" lon="1.67447">
        <ele>63.4</ele>
        <time>2019-02-17T08:21:39Z</time>
      </trkpt>
      <trkpt lat="50.45394" lon="1.6747">
        <ele>62.8</ele>
        <time>2019-02-17T08:21:43Z</time>
      </trkpt>
      <trkpt lat="50.4539" lon="1.67491">
        <ele>63.4</ele>
        <time>2019-02-17T08:21:47Z</time>
      </trkpt>
      <trkpt lat="50.45386" lon="1.67513">
        <ele>64</ele>
        <time>2019-02-17T08:21:51Z</time>
      </trkpt>
      <trkpt lat="50.45381" lon="1.67534">
        <ele>64</ele>
        <time>2019-02-17T08:21:55Z</time>
      </trkpt>
      <trkpt lat="50.45376" lon="1.67556">
        <ele>64.4</ele>
        <time>2019-02-17T08:21:59Z</time>
      </trkpt>
      <trkpt lat="50.4537" lon="1.67579">
        <ele>64.4</ele>
        <time>2019-02-17T08:22:03Z</time>
      </trkpt>
      <trkpt lat="50.45365" lon="1.67601">
        <ele>65.4</ele>
        <time>2019-02-17T08:22:07Z</time>
      </trkpt>
      <trkpt lat="50.4536" lon="1.67624">
        <ele>65.4</ele>
        <time>2019-02-17T08:22:11Z</time>
      </trkpt>
      <trkpt lat="50.45354" lon="1.67647">
        <ele>65.4</ele>
        <time>2019-02-17T08:22:15Z</time>
      </trkpt>
      <trkpt lat="50.45349" lon="1.6767">
        <ele>66</ele>
        <time>2019-02-17T08:22:19Z</time>
      </trkpt>
      <trkpt lat="50.45343" lon="1.67693">
        <ele>66.2</ele>
        <time>2019-02-17T08:22:23Z</time>
      </trkpt>
      <trkpt lat="50.45337" lon="1.67717">
        <ele>66.4</ele>
        <time>2019-02-17T08:22:27Z</time>
      </trkpt>
      <trkpt lat="50.45332" lon="1.67741">
        <ele>66.4</ele>
        <time>2019-02-17T08:22:31Z</time>
      </trkpt>
      <trkpt lat="50.45327" lon="1.67764">
        <ele>67</ele>
        <time>2019-02-17T08:22:35Z</time>
      </trkpt>
      <trkpt lat="50.45322" lon="1.6779">
        <ele>67.6</ele>
        <time>2019-02-17T08:22:39Z</time>
      </trkpt>
      <trkpt lat="50.45319" lon="1.67815">
        <ele>67.2</ele>
        <time>2019-02-17T08:22:43Z</time>
      </trkpt>
      <trkpt lat="50.45316" lon="1.67838">
        <ele>67.8</ele>
        <time>2019-02-17T08:22:47Z</time>
      </trkpt>
      <trkpt lat="50.45312" lon="1.67862">
        <ele>68</ele>
        <time>2019-02-17T08:22:51Z</time>
      </trkpt>
      <trkpt lat="50.45308" lon="1.67886">
        <ele>68.4</ele>
        <time>2019-02-17T08:22:55Z</time>
      </trkpt>
      <trkpt lat="50.45303" lon="1.6791">
        <ele>68.2</ele>
        <time>2019-02-17T08:22:59Z</time>
      </trkpt>
      <trkpt lat="50.45298" lon="1.67935">
        <ele>68.8</ele>
        <time>2019-02-17T08:23:03Z</time>
      </trkpt>
      <trkpt lat="50.45293" lon="1.6796">
        <ele>68.8</ele>
        <time>2019-02-17T08:23:07Z</time>
      </trkpt>
      <trkpt lat="50.45288" lon="1.67985">
        <ele>69.8</ele>
        <time>2019-02-17T08:23:11Z</time>
      </trkpt>
      <trkpt lat="50.45283" lon="1.68009">
        <ele>69.4</ele>
        <time>2019-02-17T08:23:15Z</time>
      </trkpt>
      <trkpt lat="50.45279" lon="1.68032">
        <ele>69.4</ele>
        <time>2019-02-17T08:23:19Z</time>
      </trkpt>
      <trkpt lat="50.45275" lon="1.68057">
        <ele>70.6</ele>
        <time>2019-02-17T08:23:23Z</time>
      </trkpt>
      <trkpt lat="50.45269" lon="1.68082">
        <ele>69.2</ele>
        <time>2019-02-17T08:23:27Z</time>
      </trkpt>
      <trkpt lat="50.45264" lon="1.68107">
        <ele>70</ele>
        <time>2019-02-17T08:23:31Z</time>
      </trkpt>
      <trkpt lat="50.45259" lon="1.68132">
        <ele>70.4</ele>
        <time>2019-02-17T08:23:35Z</time>
      </trkpt>
      <trkpt lat="50.45253" lon="1.68158">
        <ele>69.4</ele>
        <time>2019-02-17T08:23:39Z</time>
      </trkpt>
      <trkpt lat="50.45247" lon="1.68183">
        <ele>70.4</ele>
        <time>2019-02-17T08:23:43Z</time>
      </trkpt>
      <trkpt lat="50.45241" lon="1.68209">
        <ele>69.8</ele>
        <time>2019-02-17T08:23:47Z</time>
      </trkpt>
      <trkpt lat="50.45236" lon="1.68234">
        <ele>68.8</ele>
        <time>2019-02-17T08:23:51Z</time>
      </trkpt>
      <trkpt lat="50.45231" lon="1.68259">
        <ele>68.6</ele>
        <time>2019-02-17T08:23:55Z</time>
      </trkpt>
      <trkpt lat="50.45228" lon="1.68285">
        <ele>69</ele>
        <time>2019-02-17T08:23:59Z</time>
      </trkpt>
      <trkpt lat="50.45225" lon="1.68312">
        <ele>68.8</ele>
        <time>2019-02-17T08:24:03Z</time>
      </trkpt>
      <trkpt lat="50.45222" lon="1.68339">
        <ele>68.8</ele>
        <time>2019-02-17T08:24:07Z</time>
      </trkpt>
      <trkpt lat="50.45221" lon="1.68367">
        <ele>68.8</ele>
        <time>2019-02-17T08:24:11Z</time>
      </trkpt>
      <trkpt lat="50.45219" lon="1.68398">
        <ele>68.4</ele>
        <time>2019-02-17T08:24:15Z</time>
      </trkpt>
      <trkpt lat="50.45218" lon="1.6843">
        <ele>68.2</ele>
        <time>2019-02-17T08:24:19Z</time>
      </trkpt>
      <trkpt lat="50.45216" lon="1.68461">
        <ele>67.8</ele>
        <time>2019-02-17T08:24:23Z</time>
      </trkpt>
      <trkpt lat="50.45214" lon="1.68493">
        <ele>68</ele>
        <time>2019-02-17T08:24:27Z</time>
      </trkpt>
      <trkpt lat="50.45211" lon="1.68523">
        <ele>67.4</ele>
        <time>2019-02-17T08:24:31Z</time>
      </trkpt>
      <trkpt lat="50.45208" lon="1.68552">
        <ele>67.6</ele>
        <time>2019-02-17T08:24:35Z</time>
      </trkpt>
      <trkpt lat="50.45204" lon="1.68583">
        <ele>67.4</ele>
        <time>2019-02-17T08:24:39Z</time>
      </trkpt>
      <trkpt lat="50.452" lon="1.68614">
        <ele>67.4</ele>
        <time>2019-02-17T08:24:43Z</time>
      </trkpt>
      <trkpt lat="50.45196" lon="1.68643">
        <ele>66.4</ele>
        <time>2019-02-17T08:24:47Z</time>
      </trkpt>
      <trkpt lat="50.45192" lon="1.6867">
        <ele>66</ele>
        <time>2019-02-17T08:24:51Z</time>
      </trkpt>
      <trkpt lat="50.45179" lon="1.68683">
        <ele>66.4</ele>
        <time>2019-02-17T08:24:55Z</time>
      </trkpt>
      <trkpt lat="50.45162" lon="1.68674">
        <ele>66</ele>
        <time>2019-02-17T08:24:59Z</time>
      </trkpt>
      <trkpt lat="50.45146" lon="1.68665">
        <ele>67</ele>
        <time>2019-02-17T08:25:03Z</time>
      </trkpt>
      <trkpt lat="50.45129" lon="1.68656">
        <ele>67.4</ele>
        <time>2019-02-17T08:25:07Z</time>
      </trkpt>
      <trkpt lat="50.45112" lon="1.68647">
        <ele>68</ele>
        <time>2019-02-17T08:25:11Z</time>
      </trkpt>
      <trkpt lat="50.45094" lon="1.68636">
        <ele>68</ele>
        <time>2019-02-17T08:25:15Z</time>
      </trkpt>
      <trkpt lat="50.45076" lon="1.68627">
        <ele>68.6</ele>
        <time>2019-02-17T08:25:19Z</time>
      </trkpt>
      <trkpt lat="50.45058" lon="1.68617">
        <ele>68.6</ele>
        <time>2019-02-17T08:25:23Z</time>
      </trkpt>
      <trkpt lat="50.4504" lon="1.68608">
        <ele>69.2</ele>
        <time>2019-02-17T08:25:27Z</time>
      </trkpt>
      <trkpt lat="50.45023" lon="1.68599">
        <ele>69.4</ele>
        <time>2019-02-17T08:25:31Z</time>
      </trkpt>
      <trkpt lat="50.45005" lon="1.68589">
        <ele>69.2</ele>
        <time>2019-02-17T08:25:35Z</time>
      </trkpt>
      <trkpt lat="50.44986" lon="1.68579">
        <ele>69.8</ele>
        <time>2019-02-17T08:25:39Z</time>
      </trkpt>
      <trkpt lat="50.44966" lon="1.68569">
        <ele>70.2</ele>
        <time>2019-02-17T08:25:43Z</time>
      </trkpt>
      <trkpt lat="50.44946" lon="1.68559">
        <ele>69.8</ele>
        <time>2019-02-17T08:25:47Z</time>
      </trkpt>
      <trkpt lat="50.44926" lon="1.6855">
        <ele>69.8</ele>
        <time>2019-02-17T08:25:51Z</time>
      </trkpt>
      <trkpt lat="50.44905" lon="1.68539">
        <ele>70.4</ele>
        <time>2019-02-17T08:25:55Z</time>
      </trkpt>
      <trkpt lat="50.44885" lon="1.68527">
        <ele>70.4</ele>
        <time>2019-02-17T08:25:59Z</time>
      </trkpt>
      <trkpt lat="50.44867" lon="1.68517">
        <ele>71.4</ele>
        <time>2019-02-17T08:26:03Z</time>
      </trkpt>
      <trkpt lat="50.44846" lon="1.68506">
        <ele>70.6</ele>
        <time>2019-02-17T08:26:07Z</time>
      </trkpt>
      <trkpt lat="50.44825" lon="1.68495">
        <ele>71</ele>
        <time>2019-02-17T08:26:11Z</time>
      </trkpt>
      <trkpt lat="50.44804" lon="1.68483">
        <ele>70.4</ele>
        <time>2019-02-17T08:26:15Z</time>
      </trkpt>
      <trkpt lat="50.44783" lon="1.68472">
        <ele>71.4</ele>
        <time>2019-02-17T08:26:19Z</time>
      </trkpt>
      <trkpt lat="50.44763" lon="1.68461">
        <ele>69.8</ele>
        <time>2019-02-17T08:26:23Z</time>
      </trkpt>
      <trkpt lat="50.44741" lon="1.68452">
        <ele>69.8</ele>
        <time>2019-02-17T08:26:27Z</time>
      </trkpt>
      <trkpt lat="50.4472" lon="1.68441">
        <ele>69.2</ele>
        <time>2019-02-17T08:26:31Z</time>
      </trkpt>
      <trkpt lat="50.447" lon="1.68431">
        <ele>68.2</ele>
        <time>2019-02-17T08:26:35Z</time>
      </trkpt>
      <trkpt lat="50.4468" lon="1.6842">
        <ele>68.2</ele>
        <time>2019-02-17T08:26:39Z</time>
      </trkpt>
      <trkpt lat="50.44659" lon="1.68408">
        <ele>68</ele>
        <time>2019-02-17T08:26:43Z</time>
      </trkpt>
      <trkpt lat="50.44639" lon="1.68397">
        <ele>67.6</ele>
        <time>2019-02-17T08:26:47Z</time>
      </trkpt>
      <trkpt lat="50.4462" lon="1.68388">
        <ele>68.4</ele>
        <time>2019-02-17T08:26:51Z</time>
      </trkpt>
      <trkpt lat="50.44601" lon="1.68377">
        <ele>66.8</ele>
        <time>2019-02-17T08:26:55Z</time>
      </trkpt>
      <trkpt lat="50.44581" lon="1.68366">
        <ele>66.2</ele>
        <time>2019-02-17T08:26:59Z</time>
      </trkpt>
      <trkpt lat="50.4456" lon="1.68355">
        <ele>66</ele>
        <time>2019-02-17T08:27:03Z</time>
      </trkpt>
      <trkpt lat="50.44538" lon="1.68344">
        <ele>65.2</ele>
        <time>2019-02-17T08:27:07Z</time>
      </trkpt>
      <trkpt lat="50.44518" lon="1.68332">
        <ele>64.6</ele>
        <time>2019-02-17T08:27:11Z</time>
      </trkpt>
      <trkpt lat="50.44496" lon="1.6832">
        <ele>64</ele>
        <time>2019-02-17T08:27:15Z</time>
      </trkpt>
      <trkpt lat="50.44474" lon="1.68307">
        <ele>62.8</ele>
        <time>2019-02-17T08:27:19Z</time>
      </trkpt>
      <trkpt lat="50.44452" lon="1.68294">
        <ele>61.8</ele>
        <time>2019-02-17T08:27:23Z</time>
      </trkpt>
      <trkpt lat="50.44429" lon="1.6828">
        <ele>61.2</ele>
        <time>2019-02-17T08:27:27Z</time>
      </trkpt>
      <trkpt lat="50.44405" lon="1.68267">
        <ele>59.6</ele>
        <time>2019-02-17T08:27:31Z</time>
      </trkpt>
      <trkpt lat="50.44378" lon="1.68254">
        <ele>56.4</ele>
        <time>2019-02-17T08:27:35Z</time>
      </trkpt>
      <trkpt lat="50.44352" lon="1.68239">
        <ele>54.4</ele>
        <time>2019-02-17T08:27:39Z</time>
      </trkpt>
      <trkpt lat="50.44325" lon="1.68223">
        <ele>52.2</ele>
        <time>2019-02-17T08:27:43Z</time>
      </trkpt>
      <trkpt lat="50.44302" lon="1.682">
        <ele>51</ele>
        <time>2019-02-17T08:27:47Z</time>
      </trkpt>
      <trkpt lat="50.44299" lon="1.68166">
        <ele>51</ele>
        <time>2019-02-17T08:27:51Z</time>
      </trkpt>
      <trkpt lat="50.44297" lon="1.68134">
        <ele>51.6</ele>
        <time>2019-02-17T08:27:55Z</time>
      </trkpt>
      <trkpt lat="50.44283" lon="1.6812">
        <ele>50.2</ele>
        <time>2019-02-17T08:27:59Z</time>
      </trkpt>
      <trkpt lat="50.44259" lon="1.68127">
        <ele>49</ele>
        <time>2019-02-17T08:28:03Z</time>
      </trkpt>
      <trkpt lat="50.44235" lon="1.68133">
        <ele>48.8</ele>
        <time>2019-02-17T08:28:07Z</time>
      </trkpt>
      <trkpt lat="50.44211" lon="1.68138">
        <ele>49.4</ele>
        <time>2019-02-17T08:28:11Z</time>
      </trkpt>
      <trkpt lat="50.44188" lon="1.68144">
        <ele>49.2</ele>
        <time>2019-02-17T08:28:15Z</time>
      </trkpt>
      <trkpt lat="50.44167" lon="1.68149">
        <ele>49.6</ele>
        <time>2019-02-17T08:28:19Z</time>
      </trkpt>
      <trkpt lat="50.44147" lon="1.68149">
        <ele>49.4</ele>
        <time>2019-02-17T08:28:23Z</time>
      </trkpt>
      <trkpt lat="50.44139" lon="1.6812">
        <ele>49</ele>
        <time>2019-02-17T08:28:27Z</time>
      </trkpt>
      <trkpt lat="50.44131" lon="1.68082">
        <ele>49.4</ele>
        <time>2019-02-17T08:28:31Z</time>
      </trkpt>
      <trkpt lat="50.44122" lon="1.68043">
        <ele>50</ele>
        <time>2019-02-17T08:28:35Z</time>
      </trkpt>
      <trkpt lat="50.44115" lon="1.68002">
        <ele>49.8</ele>
        <time>2019-02-17T08:28:39Z</time>
      </trkpt>
      <trkpt lat="50.44109" lon="1.67959">
        <ele>49.6</ele>
        <time>2019-02-17T08:28:43Z</time>
      </trkpt>
      <trkpt lat="50.44104" lon="1.6792">
        <ele>49</ele>
        <time>2019-02-17T08:28:47Z</time>
      </trkpt>
      <trkpt lat="50.44089" lon="1.67892">
        <ele>50</ele>
        <time>2019-02-17T08:28:51Z</time>
      </trkpt>
      <trkpt lat="50.4407" lon="1.67876">
        <ele>50.6</ele>
        <time>2019-02-17T08:28:55Z</time>
      </trkpt>
      <trkpt lat="50.44055" lon="1.67861">
        <ele>51.6</ele>
        <time>2019-02-17T08:28:59Z</time>
      </trkpt>
      <trkpt lat="50.4404" lon="1.67853">
        <ele>51.4</ele>
        <time>2019-02-17T08:29:03Z</time>
      </trkpt>
      <trkpt lat="50.44026" lon="1.67845">
        <ele>52</ele>
        <time>2019-02-17T08:29:07Z</time>
      </trkpt>
      <trkpt lat="50.44013" lon="1.67838">
        <ele>52.6</ele>
        <time>2019-02-17T08:29:11Z</time>
      </trkpt>
      <trkpt lat="50.44" lon="1.67831">
        <ele>53.4</ele>
        <time>2019-02-17T08:29:15Z</time>
      </trkpt>
      <trkpt lat="50.43988" lon="1.67824">
        <ele>54</ele>
        <time>2019-02-17T08:29:19Z</time>
      </trkpt>
      <trkpt lat="50.43976" lon="1.67818">
        <ele>54.6</ele>
        <time>2019-02-17T08:29:23Z</time>
      </trkpt>
      <trkpt lat="50.43965" lon="1.67813">
        <ele>54.8</ele>
        <time>2019-02-17T08:29:27Z</time>
      </trkpt>
      <trkpt lat="50.43955" lon="1.67808">
        <ele>55.2</ele>
        <time>2019-02-17T08:29:31Z</time>
      </trkpt>
      <trkpt lat="50.43944" lon="1.67803">
        <ele>56.6</ele>
        <time>2019-02-17T08:29:35Z</time>
      </trkpt>
      <trkpt lat="50.43934" lon="1.67795">
        <ele>57</ele>
        <time>2019-02-17T08:29:39Z</time>
      </trkpt>
      <trkpt lat="50.43923" lon="1.6779">
        <ele>57.2</ele>
        <time>2019-02-17T08:29:43Z</time>
      </trkpt>
      <trkpt lat="50.43911" lon="1.67787">
        <ele>57.8</ele>
        <time>2019-02-17T08:29:47Z</time>
      </trkpt>
      <trkpt lat="50.439" lon="1.67783">
        <ele>58.2</ele>
        <time>2019-02-17T08:29:51Z</time>
      </trkpt>
      <trkpt lat="50.43889" lon="1.6778">
        <ele>59.4</ele>
        <time>2019-02-17T08:29:55Z</time>
      </trkpt>
      <trkpt lat="50.43877" lon="1.67776">
        <ele>59.6</ele>
        <time>2019-02-17T08:29:59Z</time>
      </trkpt>
      <trkpt lat="50.43863" lon="1.67773">
        <ele>60.4</ele>
        <time>2019-02-17T08:30:03Z</time>
      </trkpt>
      <trkpt lat="50.43852" lon="1.6777">
        <ele>61</ele>
        <time>2019-02-17T08:30:07Z</time>
      </trkpt>
      <trkpt lat="50.4384" lon="1.67768">
        <ele>61.6</ele>
        <time>2019-02-17T08:30:11Z</time>
      </trkpt>
      <trkpt lat="50.43828" lon="1.67763">
        <ele>62.6</ele>
        <time>2019-02-17T08:30:15Z</time>
      </trkpt>
      <trkpt lat="50.43817" lon="1.67761">
        <ele>63</ele>
        <time>2019-02-17T08:30:19Z</time>
      </trkpt>
      <trkpt lat="50.43806" lon="1.6776">
        <ele>64.6</ele>
        <time>2019-02-17T08:30:23Z</time>
      </trkpt>
      <trkpt lat="50.43795" lon="1.67758">
        <ele>65.2</ele>
        <time>2019-02-17T08:30:27Z</time>
      </trkpt>
      <trkpt lat="50.43784" lon="1.67752">
        <ele>65.6</ele>
        <time>2019-02-17T08:30:31Z</time>
      </trkpt>
      <trkpt lat="50.43772" lon="1.67748">
        <ele>66.2</ele>
        <time>2019-02-17T08:30:35Z</time>
      </trkpt>
      <trkpt lat="50.43761" lon="1.67745">
        <ele>66.8</ele>
        <time>2019-02-17T08:30:39Z</time>
      </trkpt>
      <trkpt lat="50.43751" lon="1.67743">
        <ele>67.4</ele>
        <time>2019-02-17T08:30:43Z</time>
      </trkpt>
      <trkpt lat="50.43744" lon="1.6774">
        <ele>67.4</ele>
        <time>2019-02-17T08:30:47Z</time>
      </trkpt>
      <trkpt lat="50.43734" lon="1.67738">
        <ele>68</ele>
        <time>2019-02-17T08:30:51Z</time>
      </trkpt>
      <trkpt lat="50.43723" lon="1.67736">
        <ele>69</ele>
        <time>2019-02-17T08:30:55Z</time>
      </trkpt>
      <trkpt lat="50.43714" lon="1.67732">
        <ele>69.4</ele>
        <time>2019-02-17T08:30:59Z</time>
      </trkpt>
      <trkpt lat="50.43704" lon="1.6773">
        <ele>69.8</ele>
        <time>2019-02-17T08:31:03Z</time>
      </trkpt>
      <trkpt lat="50.43696" lon="1.67728">
        <ele>70.4</ele>
        <time>2019-02-17T08:31:07Z</time>
      </trkpt>
      <trkpt lat="50.43688" lon="1.67724">
        <ele>71</ele>
        <time>2019-02-17T08:31:11Z</time>
      </trkpt>
      <trkpt lat="50.43677" lon="1.67722">
        <ele>71.4</ele>
        <time>2019-02-17T08:31:15Z</time>
      </trkpt>
      <trkpt lat="50.43668" lon="1.67719">
        <ele>72.4</ele>
        <time>2019-02-17T08:31:19Z</time>
      </trkpt>
      <trkpt lat="50.43658" lon="1.67715">
        <ele>72.8</ele>
        <time>2019-02-17T08:31:23Z</time>
      </trkpt>
      <trkpt lat="50.43649" lon="1.67712">
        <ele>73.4</ele>
        <time>2019-02-17T08:31:27Z</time>
      </trkpt>
      <trkpt lat="50.43639" lon="1.6771">
        <ele>74</ele>
        <time>2019-02-17T08:31:31Z</time>
      </trkpt>
      <trkpt lat="50.43629" lon="1.67707">
        <ele>74.4</ele>
        <time>2019-02-17T08:31:35Z</time>
      </trkpt>
      <trkpt lat="50.4362" lon="1.67704">
        <ele>74.8</ele>
        <time>2019-02-17T08:31:39Z</time>
      </trkpt>
      <trkpt lat="50.43608" lon="1.67699">
        <ele>75.6</ele>
        <time>2019-02-17T08:31:43Z</time>
      </trkpt>
      <trkpt lat="50.43596" lon="1.67696">
        <ele>76.2</ele>
        <time>2019-02-17T08:31:47Z</time>
      </trkpt>
      <trkpt lat="50.43584" lon="1.6769">
        <ele>76.2</ele>
        <time>2019-02-17T08:31:51Z</time>
      </trkpt>
      <trkpt lat="50.43571" lon="1.67679">
        <ele>76.4</ele>
        <time>2019-02-17T08:31:55Z</time>
      </trkpt>
      <trkpt lat="50.43557" lon="1.67669">
        <ele>76.2</ele>
        <time>2019-02-17T08:31:59Z</time>
      </trkpt>
      <trkpt lat="50.43544" lon="1.6766">
        <ele>76.4</ele>
        <time>2019-02-17T08:32:03Z</time>
      </trkpt>
      <trkpt lat="50.43532" lon="1.67648">
        <ele>76.6</ele>
        <time>2019-02-17T08:32:07Z</time>
      </trkpt>
      <trkpt lat="50.43519" lon="1.67639">
        <ele>76.6</ele>
        <time>2019-02-17T08:32:11Z</time>
      </trkpt>
      <trkpt lat="50.43505" lon="1.67629">
        <ele>76.6</ele>
        <time>2019-02-17T08:32:15Z</time>
      </trkpt>
      <trkpt lat="50.4349" lon="1.67618">
        <ele>76.8</ele>
        <time>2019-02-17T08:32:19Z</time>
      </trkpt>
      <trkpt lat="50.43473" lon="1.67607">
        <ele>75.6</ele>
        <time>2019-02-17T08:32:23Z</time>
      </trkpt>
      <trkpt lat="50.43457" lon="1.67593">
        <ele>74</ele>
        <time>2019-02-17T08:32:27Z</time>
      </trkpt>
      <trkpt lat="50.43439" lon="1.67575">
        <ele>72</ele>
        <time>2019-02-17T08:32:31Z</time>
      </trkpt>
      <trkpt lat="50.43417" lon="1.67554">
        <ele>71.4</ele>
        <time>2019-02-17T08:32:35Z</time>
      </trkpt>
      <trkpt lat="50.43394" lon="1.67531">
        <ele>68</ele>
        <time>2019-02-17T08:32:39Z</time>
      </trkpt>
      <trkpt lat="50.43371" lon="1.67499">
        <ele>64.6</ele>
        <time>2019-02-17T08:32:43Z</time>
      </trkpt>
      <trkpt lat="50.43344" lon="1.67465">
        <ele>59.4</ele>
        <time>2019-02-17T08:32:47Z</time>
      </trkpt>
      <trkpt lat="50.43304" lon="1.67432">
        <ele>54.4</ele>
        <time>2019-02-17T08:32:51Z</time>
      </trkpt>
      <trkpt lat="50.43266" lon="1.67402">
        <ele>49.8</ele>
        <time>2019-02-17T08:32:55Z</time>
      </trkpt>
      <trkpt lat="50.43234" lon="1.67371">
        <ele>47.2</ele>
        <time>2019-02-17T08:32:59Z</time>
      </trkpt>
      <trkpt lat="50.43217" lon="1.67342">
        <ele>45.8</ele>
        <time>2019-02-17T08:33:03Z</time>
      </trkpt>
      <trkpt lat="50.43229" lon="1.67315">
        <ele>46.2</ele>
        <time>2019-02-17T08:33:07Z</time>
      </trkpt>
      <trkpt lat="50.43251" lon="1.67293">
        <ele>47</ele>
        <time>2019-02-17T08:33:11Z</time>
      </trkpt>
      <trkpt lat="50.43275" lon="1.67269">
        <ele>48</ele>
        <time>2019-02-17T08:33:15Z</time>
      </trkpt>
      <trkpt lat="50.43298" lon="1.67244">
        <ele>48.8</ele>
        <time>2019-02-17T08:33:19Z</time>
      </trkpt>
      <trkpt lat="50.43316" lon="1.67216">
        <ele>50.2</ele>
        <time>2019-02-17T08:33:23Z</time>
      </trkpt>
      <trkpt lat="50.43336" lon="1.67186">
        <ele>50.8</ele>
        <time>2019-02-17T08:33:27Z</time>
      </trkpt>
      <trkpt lat="50.43355" lon="1.67158">
        <ele>51.6</ele>
        <time>2019-02-17T08:33:31Z</time>
      </trkpt>
      <trkpt lat="50.43373" lon="1.67132">
        <ele>51.8</ele>
        <time>2019-02-17T08:33:35Z</time>
      </trkpt>
      <trkpt lat="50.43389" lon="1.67108">
        <ele>52.8</ele>
        <time>2019-02-17T08:33:39Z</time>
      </trkpt>
      <trkpt lat="50.43406" lon="1.67084">
        <ele>53</ele>
        <time>2019-02-17T08:33:43Z</time>
      </trkpt>
      <trkpt lat="50.43424" lon="1.67059">
        <ele>52.8</ele>
        <time>2019-02-17T08:33:47Z</time>
      </trkpt>
      <trkpt lat="50.43441" lon="1.67033">
        <ele>53.4</ele>
        <time>2019-02-17T08:33:51Z</time>
      </trkpt>
      <trkpt lat="50.43458" lon="1.67006">
        <ele>53.8</ele>
        <time>2019-02-17T08:33:55Z</time>
      </trkpt>
      <trkpt lat="50.43474" lon="1.6698">
        <ele>54.8</ele>
        <time>2019-02-17T08:33:59Z</time>
      </trkpt>
      <trkpt lat="50.43492" lon="1.66953">
        <ele>54.4</ele>
        <time>2019-02-17T08:34:03Z</time>
      </trkpt>
      <trkpt lat="50.4351" lon="1.66926">
        <ele>55.4</ele>
        <time>2019-02-17T08:34:07Z</time>
      </trkpt>
      <trkpt lat="50.43527" lon="1.669">
        <ele>55.6</ele>
        <time>2019-02-17T08:34:11Z</time>
      </trkpt>
      <trkpt lat="50.43545" lon="1.6688">
        <ele>55.8</ele>
        <time>2019-02-17T08:34:15Z</time>
      </trkpt>
      <trkpt lat="50.43563" lon="1.66864">
        <ele>56.4</ele>
        <time>2019-02-17T08:34:19Z</time>
      </trkpt>
      <trkpt lat="50.43583" lon="1.66853">
        <ele>56.8</ele>
        <time>2019-02-17T08:34:23Z</time>
      </trkpt>
      <trkpt lat="50.43602" lon="1.66844">
        <ele>56.8</ele>
        <time>2019-02-17T08:34:27Z</time>
      </trkpt>
      <trkpt lat="50.43622" lon="1.66837">
        <ele>56.8</ele>
        <time>2019-02-17T08:34:31Z</time>
      </trkpt>
      <trkpt lat="50.43644" lon="1.66832">
        <ele>56.2</ele>
        <time>2019-02-17T08:34:35Z</time>
      </trkpt>
      <trkpt lat="50.43668" lon="1.66828">
        <ele>55.6</ele>
        <time>2019-02-17T08:34:39Z</time>
      </trkpt>
      <trkpt lat="50.43694" lon="1.66827">
        <ele>55</ele>
        <time>2019-02-17T08:34:43Z</time>
      </trkpt>
      <trkpt lat="50.43722" lon="1.66826">
        <ele>53.8</ele>
        <time>2019-02-17T08:34:47Z</time>
      </trkpt>
      <trkpt lat="50.4375" lon="1.66824">
        <ele>53.4</ele>
        <time>2019-02-17T08:34:51Z</time>
      </trkpt>
      <trkpt lat="50.43773" lon="1.66828">
        <ele>53</ele>
        <time>2019-02-17T08:34:55Z</time>
      </trkpt>
      <trkpt lat="50.43789" lon="1.66822">
        <ele>51.6</ele>
        <time>2019-02-17T08:34:59Z</time>
      </trkpt>
      <trkpt lat="50.43809" lon="1.66817">
        <ele>50.6</ele>
        <time>2019-02-17T08:35:03Z</time>
      </trkpt>
      <trkpt lat="50.43831" lon="1.66811">
        <ele>49.2</ele>
        <time>2019-02-17T08:35:07Z</time>
      </trkpt>
      <trkpt lat="50.43849" lon="1.66804">
        <ele>48</ele>
        <time>2019-02-17T08:35:11Z</time>
      </trkpt>
      <trkpt lat="50.43867" lon="1.66802">
        <ele>46.8</ele>
        <time>2019-02-17T08:35:15Z</time>
      </trkpt>
      <trkpt lat="50.43894" lon="1.66808">
        <ele>46.4</ele>
        <time>2019-02-17T08:35:19Z</time>
      </trkpt>
      <trkpt lat="50.4392" lon="1.66817">
        <ele>45.2</ele>
        <time>2019-02-17T08:35:23Z</time>
      </trkpt>
      <trkpt lat="50.43945" lon="1.66828">
        <ele>44.4</ele>
        <time>2019-02-17T08:35:27Z</time>
      </trkpt>
      <trkpt lat="50.43968" lon="1.66836">
        <ele>43.8</ele>
        <time>2019-02-17T08:35:31Z</time>
      </trkpt>
      <trkpt lat="50.43992" lon="1.66845">
        <ele>43.2</ele>
        <time>2019-02-17T08:35:35Z</time>
      </trkpt>
      <trkpt lat="50.44014" lon="1.66855">
        <ele>42.6</ele>
        <time>2019-02-17T08:35:39Z</time>
      </trkpt>
      <trkpt lat="50.44035" lon="1.66846">
        <ele>42.8</ele>
        <time>2019-02-17T08:35:43Z</time>
      </trkpt>
      <trkpt lat="50.44052" lon="1.66824">
        <ele>43.2</ele>
        <time>2019-02-17T08:35:47Z</time>
      </trkpt>
      <trkpt lat="50.44051" lon="1.6679">
        <ele>43.8</ele>
        <time>2019-02-17T08:35:51Z</time>
      </trkpt>
      <trkpt lat="50.44042" lon="1.6676">
        <ele>43.8</ele>
        <time>2019-02-17T08:35:55Z</time>
      </trkpt>
      <trkpt lat="50.44034" lon="1.66731">
        <ele>43.4</ele>
        <time>2019-02-17T08:35:59Z</time>
      </trkpt>
      <trkpt lat="50.44027" lon="1.66703">
        <ele>43</ele>
        <time>2019-02-17T08:36:03Z</time>
      </trkpt>
      <trkpt lat="50.44022" lon="1.66674">
        <ele>43.4</ele>
        <time>2019-02-17T08:36:07Z</time>
      </trkpt>
      <trkpt lat="50.44018" lon="1.66646">
        <ele>43.8</ele>
        <time>2019-02-17T08:36:11Z</time>
      </trkpt>
      <trkpt lat="50.44016" lon="1.66616">
        <ele>44.2</ele>
        <time>2019-02-17T08:36:15Z</time>
      </trkpt>
      <trkpt lat="50.44015" lon="1.66586">
        <ele>44.8</ele>
        <time>2019-02-17T08:36:19Z</time>
      </trkpt>
      <trkpt lat="50.44014" lon="1.66555">
        <ele>44.6</ele>
        <time>2019-02-17T08:36:23Z</time>
      </trkpt>
      <trkpt lat="50.44016" lon="1.66527">
        <ele>45</ele>
        <time>2019-02-17T08:36:27Z</time>
      </trkpt>
      <trkpt lat="50.44028" lon="1.6651">
        <ele>45.2</ele>
        <time>2019-02-17T08:36:31Z</time>
      </trkpt>
      <trkpt lat="50.44043" lon="1.66503">
        <ele>45.8</ele>
        <time>2019-02-17T08:36:35Z</time>
      </trkpt>
      <trkpt lat="50.44057" lon="1.66496">
        <ele>46.6</ele>
        <time>2019-02-17T08:36:39Z</time>
      </trkpt>
      <trkpt lat="50.44072" lon="1.66485">
        <ele>47.2</ele>
        <time>2019-02-17T08:36:43Z</time>
      </trkpt>
      <trkpt lat="50.44085" lon="1.66471">
        <ele>48</ele>
        <time>2019-02-17T08:36:47Z</time>
      </trkpt>
      <trkpt lat="50.44097" lon="1.66455">
        <ele>48.4</ele>
        <time>2019-02-17T08:36:51Z</time>
      </trkpt>
      <trkpt lat="50.44108" lon="1.66439">
        <ele>49.6</ele>
        <time>2019-02-17T08:36:55Z</time>
      </trkpt>
      <trkpt lat="50.44119" lon="1.66423">
        <ele>50</ele>
        <time>2019-02-17T08:36:59Z</time>
      </trkpt>
      <trkpt lat="50.44128" lon="1.66407">
        <ele>50.4</ele>
        <time>2019-02-17T08:37:03Z</time>
      </trkpt>
      <trkpt lat="50.44137" lon="1.66391">
        <ele>51</ele>
        <time>2019-02-17T08:37:07Z</time>
      </trkpt>
      <trkpt lat="50.44146" lon="1.66376">
        <ele>51.6</ele>
        <time>2019-02-17T08:37:11Z</time>
      </trkpt>
      <trkpt lat="50.44155" lon="1.6636">
        <ele>52.4</ele>
        <time>2019-02-17T08:37:15Z</time>
      </trkpt>
      <trkpt lat="50.44164" lon="1.66345">
        <ele>53</ele>
        <time>2019-02-17T08:37:19Z</time>
      </trkpt>
      <trkpt lat="50.44173" lon="1.6633">
        <ele>53.4</ele>
        <time>2019-02-17T08:37:23Z</time>
      </trkpt>
      <trkpt lat="50.44182" lon="1.66314">
        <ele>53.8</ele>
        <time>2019-02-17T08:37:27Z</time>
      </trkpt>
      <trkpt lat="50.4419" lon="1.66297">
        <ele>54</ele>
        <time>2019-02-17T08:37:31Z</time>
      </trkpt>
      <trkpt lat="50.44197" lon="1.66279">
        <ele>54</ele>
        <time>2019-02-17T08:37:35Z</time>
      </trkpt>
      <trkpt lat="50.44206" lon="1.66257">
        <ele>54.4</ele>
        <time>2019-02-17T08:37:39Z</time>
      </trkpt>
      <trkpt lat="50.44216" lon="1.66232">
        <ele>54.4</ele>
        <time>2019-02-17T08:37:43Z</time>
      </trkpt>
      <trkpt lat="50.44227" lon="1.66205">
        <ele>52.6</ele>
        <time>2019-02-17T08:37:47Z</time>
      </trkpt>
      <trkpt lat="50.44238" lon="1.66176">
        <ele>52.6</ele>
        <time>2019-02-17T08:37:51Z</time>
      </trkpt>
      <trkpt lat="50.44252" lon="1.66146">
        <ele>51.6</ele>
        <time>2019-02-17T08:37:55Z</time>
      </trkpt>
      <trkpt lat="50.44266" lon="1.66117">
        <ele>50.8</ele>
        <time>2019-02-17T08:37:59Z</time>
      </trkpt>
      <trkpt lat="50.44281" lon="1.66089">
        <ele>50.2</ele>
        <time>2019-02-17T08:38:03Z</time>
      </trkpt>
      <trkpt lat="50.44298" lon="1.66061">
        <ele>49.2</ele>
        <time>2019-02-17T08:38:07Z</time>
      </trkpt>
      <trkpt lat="50.44318" lon="1.66036">
        <ele>48.8</ele>
        <time>2019-02-17T08:38:11Z</time>
      </trkpt>
      <trkpt lat="50.44339" lon="1.66015">
        <ele>48.2</ele>
        <time>2019-02-17T08:38:15Z</time>
      </trkpt>
      <trkpt lat="50.44362" lon="1.65995">
        <ele>48</ele>
        <time>2019-02-17T08:38:19Z</time>
      </trkpt>
      <trkpt lat="50.44386" lon="1.65975">
        <ele>46.4</ele>
        <time>2019-02-17T08:38:23Z</time>
      </trkpt>
      <trkpt lat="50.4441" lon="1.65955">
        <ele>45.6</ele>
        <time>2019-02-17T08:38:27Z</time>
      </trkpt>
      <trkpt lat="50.44433" lon="1.65936">
        <ele>45</ele>
        <time>2019-02-17T08:38:31Z</time>
      </trkpt>
      <trkpt lat="50.44456" lon="1.65917">
        <ele>44.6</ele>
        <time>2019-02-17T08:38:35Z</time>
      </trkpt>
      <trkpt lat="50.4448" lon="1.65897">
        <ele>44</ele>
        <time>2019-02-17T08:38:39Z</time>
      </trkpt>
      <trkpt lat="50.44503" lon="1.65877">
        <ele>43.8</ele>
        <time>2019-02-17T08:38:43Z</time>
      </trkpt>
      <trkpt lat="50.44524" lon="1.65858">
        <ele>43.2</ele>
        <time>2019-02-17T08:38:47Z</time>
      </trkpt>
      <trkpt lat="50.44533" lon="1.65837">
        <ele>43.6</ele>
        <time>2019-02-17T08:38:51Z</time>
      </trkpt>
      <trkpt lat="50.44519" lon="1.65825">
        <ele>42.8</ele>
        <time>2019-02-17T08:38:55Z</time>
      </trkpt>
      <trkpt lat="50.44502" lon="1.65812">
        <ele>43.8</ele>
        <time>2019-02-17T08:38:59Z</time>
      </trkpt>
      <trkpt lat="50.44485" lon="1.65802">
        <ele>44.2</ele>
        <time>2019-02-17T08:39:03Z</time>
      </trkpt>
      <trkpt lat="50.44468" lon="1.6579">
        <ele>44.4</ele>
        <time>2019-02-17T08:39:07Z</time>
      </trkpt>
      <trkpt lat="50.44451" lon="1.65781">
        <ele>44.6</ele>
        <time>2019-02-17T08:39:11Z</time>
      </trkpt>
      <trkpt lat="50.44433" lon="1.65767">
        <ele>45.2</ele>
        <time>2019-02-17T08:39:15Z</time>
      </trkpt>
      <trkpt lat="50.44413" lon="1.65754">
        <ele>45</ele>
        <time>2019-02-17T08:39:19Z</time>
      </trkpt>
      <trkpt lat="50.44393" lon="1.65742">
        <ele>46.4</ele>
        <time>2019-02-17T08:39:23Z</time>
      </trkpt>
      <trkpt lat="50.44373" lon="1.65727">
        <ele>47.2</ele>
        <time>2019-02-17T08:39:27Z</time>
      </trkpt>
      <trkpt lat="50.44353" lon="1.65714">
        <ele>48</ele>
        <time>2019-02-17T08:39:31Z</time>
      </trkpt>
      <trkpt lat="50.44333" lon="1.65703">
        <ele>49.4</ele>
        <time>2019-02-17T08:39:35Z</time>
      </trkpt>
      <trkpt lat="50.44314" lon="1.65689">
        <ele>49</ele>
        <time>2019-02-17T08:39:39Z</time>
      </trkpt>
      <trkpt lat="50.44297" lon="1.65678">
        <ele>50.4</ele>
        <time>2019-02-17T08:39:43Z</time>
      </trkpt>
      <trkpt lat="50.4428" lon="1.65667">
        <ele>52.2</ele>
        <time>2019-02-17T08:39:47Z</time>
      </trkpt>
      <trkpt lat="50.44264" lon="1.65656">
        <ele>52</ele>
        <time>2019-02-17T08:39:51Z</time>
      </trkpt>
      <trkpt lat="50.44249" lon="1.65646">
        <ele>53.4</ele>
        <time>2019-02-17T08:39:55Z</time>
      </trkpt>
      <trkpt lat="50.44236" lon="1.65637">
        <ele>54.4</ele>
        <time>2019-02-17T08:39:59Z</time>
      </trkpt>
      <trkpt lat="50.44225" lon="1.65629">
        <ele>55</ele>
        <time>2019-02-17T08:40:03Z</time>
      </trkpt>
      <trkpt lat="50.44214" lon="1.65622">
        <ele>55.8</ele>
        <time>2019-02-17T08:40:07Z</time>
      </trkpt>
      <trkpt lat="50.44203" lon="1.65615">
        <ele>56.2</ele>
        <time>2019-02-17T08:40:11Z</time>
      </trkpt>
      <trkpt lat="50.44192" lon="1.65609">
        <ele>57.6</ele>
        <time>2019-02-17T08:40:15Z</time>
      </trkpt>
      <trkpt lat="50.44183" lon="1.65601">
        <ele>58.8</ele>
        <time>2019-02-17T08:40:19Z</time>
      </trkpt>
      <trkpt lat="50.44175" lon="1.65592">
        <ele>59.6</ele>
        <time>2019-02-17T08:40:23Z</time>
      </trkpt>
      <trkpt lat="50.44168" lon="1.65583">
        <ele>60.6</ele>
        <time>2019-02-17T08:40:27Z</time>
      </trkpt>
      <trkpt lat="50.4416" lon="1.6557">
        <ele>61</ele>
        <time>2019-02-17T08:40:31Z</time>
      </trkpt>
      <trkpt lat="50.4415" lon="1.65556">
        <ele>62.4</ele>
        <time>2019-02-17T08:40:35Z</time>
      </trkpt>
      <trkpt lat="50.4414" lon="1.65544">
        <ele>63</ele>
        <time>2019-02-17T08:40:39Z</time>
      </trkpt>
      <trkpt lat="50.4413" lon="1.65534">
        <ele>64</ele>
        <time>2019-02-17T08:40:43Z</time>
      </trkpt>
      <trkpt lat="50.44119" lon="1.65526">
        <ele>65</ele>
        <time>2019-02-17T08:40:47Z</time>
      </trkpt>
      <trkpt lat="50.44109" lon="1.65515">
        <ele>65.6</ele>
        <time>2019-02-17T08:40:51Z</time>
      </trkpt>
      <trkpt lat="50.44099" lon="1.65507">
        <ele>66.4</ele>
        <time>2019-02-17T08:40:55Z</time>
      </trkpt>
      <trkpt lat="50.44089" lon="1.65498">
        <ele>66.4</ele>
        <time>2019-02-17T08:40:59Z</time>
      </trkpt>
      <trkpt lat="50.44079" lon="1.65489">
        <ele>67.4</ele>
        <time>2019-02-17T08:41:03Z</time>
      </trkpt>
      <trkpt lat="50.44069" lon="1.65481">
        <ele>68.2</ele>
        <time>2019-02-17T08:41:07Z</time>
      </trkpt>
      <trkpt lat="50.44057" lon="1.65471">
        <ele>68.4</ele>
        <time>2019-02-17T08:41:11Z</time>
      </trkpt>
      <trkpt lat="50.44045" lon="1.65461">
        <ele>68.8</ele>
        <time>2019-02-17T08:41:15Z</time>
      </trkpt>
      <trkpt lat="50.44032" lon="1.65451">
        <ele>68.4</ele>
        <time>2019-02-17T08:41:19Z</time>
      </trkpt>
      <trkpt lat="50.44019" lon="1.65441">
        <ele>67.8</ele>
        <time>2019-02-17T08:41:23Z</time>
      </trkpt>
      <trkpt lat="50.44003" lon="1.65432">
        <ele>68</ele>
        <time>2019-02-17T08:41:27Z</time>
      </trkpt>
      <trkpt lat="50.43986" lon="1.65423">
        <ele>68.6</ele>
        <time>2019-02-17T08:41:31Z</time>
      </trkpt>
      <trkpt lat="50.43968" lon="1.65415">
        <ele>67.8</ele>
        <time>2019-02-17T08:41:35Z</time>
      </trkpt>
      <trkpt lat="50.43949" lon="1.65413">
        <ele>67.2</ele>
        <time>2019-02-17T08:41:39Z</time>
      </trkpt>
      <trkpt lat="50.43928" lon="1.65414">
        <ele>66.8</ele>
        <time>2019-02-17T08:41:43Z</time>
      </trkpt>
      <trkpt lat="50.43907" lon="1.65418">
        <ele>66</ele>
        <time>2019-02-17T08:41:47Z</time>
      </trkpt>
      <trkpt lat="50.43885" lon="1.65414">
        <ele>64</ele>
        <time>2019-02-17T08:41:51Z</time>
      </trkpt>
      <trkpt lat="50.43863" lon="1.65395">
        <ele>62.6</ele>
        <time>2019-02-17T08:41:55Z</time>
      </trkpt>
      <trkpt lat="50.43841" lon="1.6537">
        <ele>60.6</ele>
        <time>2019-02-17T08:41:59Z</time>
      </trkpt>
      <trkpt lat="50.43815" lon="1.65347">
        <ele>58.2</ele>
        <time>2019-02-17T08:42:03Z</time>
      </trkpt>
      <trkpt lat="50.43785" lon="1.65327">
        <ele>56.6</ele>
        <time>2019-02-17T08:42:07Z</time>
      </trkpt>
      <trkpt lat="50.43755" lon="1.65314">
        <ele>53.6</ele>
        <time>2019-02-17T08:42:11Z</time>
      </trkpt>
      <trkpt lat="50.43735" lon="1.65307">
        <ele>52.2</ele>
        <time>2019-02-17T08:42:15Z</time>
      </trkpt>
      <trkpt lat="50.43737" lon="1.65281">
        <ele>52.6</ele>
        <time>2019-02-17T08:42:19Z</time>
      </trkpt>
      <trkpt lat="50.43746" lon="1.65255">
        <ele>53.2</ele>
        <time>2019-02-17T08:42:23Z</time>
      </trkpt>
      <trkpt lat="50.43754" lon="1.6523">
        <ele>53.8</ele>
        <time>2019-02-17T08:42:27Z</time>
      </trkpt>
      <trkpt lat="50.43764" lon="1.65205">
        <ele>53.8</ele>
        <time>2019-02-17T08:42:31Z</time>
      </trkpt>
      <trkpt lat="50.43774" lon="1.65181">
        <ele>53.6</ele>
        <time>2019-02-17T08:42:35Z</time>
      </trkpt>
      <trkpt lat="50.43785" lon="1.65155">
        <ele>53.2</ele>
        <time>2019-02-17T08:42:39Z</time>
      </trkpt>
      <trkpt lat="50.43795" lon="1.65131">
        <ele>52.6</ele>
        <time>2019-02-17T08:42:43Z</time>
      </trkpt>
      <trkpt lat="50.43801" lon="1.65121">
        <ele>52.4</ele>
        <time>2019-02-17T08:42:47Z</time>
      </trkpt>
      <trkpt lat="50.43803" lon="1.65102">
        <ele>51.4</ele>
        <time>2019-02-17T08:42:51Z</time>
      </trkpt>
      <trkpt lat="50.43807" lon="1.6507">
        <ele>50</ele>
        <time>2019-02-17T08:42:55Z</time>
      </trkpt>
      <trkpt lat="50.43819" lon="1.65031">
        <ele>49</ele>
        <time>2019-02-17T08:42:59Z</time>
      </trkpt>
      <trkpt lat="50.43828" lon="1.64988">
        <ele>47.8</ele>
        <time>2019-02-17T08:43:03Z</time>
      </trkpt>
      <trkpt lat="50.43837" lon="1.64945">
        <ele>47</ele>
        <time>2019-02-17T08:43:07Z</time>
      </trkpt>
      <trkpt lat="50.43843" lon="1.64901">
        <ele>44.8</ele>
        <time>2019-02-17T08:43:11Z</time>
      </trkpt>
      <trkpt lat="50.43845" lon="1.64857">
        <ele>44</ele>
        <time>2019-02-17T08:43:15Z</time>
      </trkpt>
      <trkpt lat="50.43848" lon="1.64815">
        <ele>43.6</ele>
        <time>2019-02-17T08:43:19Z</time>
      </trkpt>
      <trkpt lat="50.43848" lon="1.64777">
        <ele>42.4</ele>
        <time>2019-02-17T08:43:23Z</time>
      </trkpt>
      <trkpt lat="50.43843" lon="1.64738">
        <ele>41.8</ele>
        <time>2019-02-17T08:43:27Z</time>
      </trkpt>
      <trkpt lat="50.43834" lon="1.64702">
        <ele>41.8</ele>
        <time>2019-02-17T08:43:31Z</time>
      </trkpt>
      <trkpt lat="50.43827" lon="1.64664">
        <ele>41.2</ele>
        <time>2019-02-17T08:43:35Z</time>
      </trkpt>
      <trkpt lat="50.43827" lon="1.64629">
        <ele>40</ele>
        <time>2019-02-17T08:43:39Z</time>
      </trkpt>
      <trkpt lat="50.43824" lon="1.64597">
        <ele>40.6</ele>
        <time>2019-02-17T08:43:43Z</time>
      </trkpt>
      <trkpt lat="50.43822" lon="1.64568">
        <ele>40.6</ele>
        <time>2019-02-17T08:43:47Z</time>
      </trkpt>
      <trkpt lat="50.4382" lon="1.64542">
        <ele>40.2</ele>
        <time>2019-02-17T08:43:51Z</time>
      </trkpt>
      <trkpt lat="50.43818" lon="1.64516">
        <ele>40.4</ele>
        <time>2019-02-17T08:43:55Z</time>
      </trkpt>
      <trkpt lat="50.43814" lon="1.64488">
        <ele>40.4</ele>
        <time>2019-02-17T08:43:59Z</time>
      </trkpt>
      <trkpt lat="50.43811" lon="1.64459">
        <ele>40.4</ele>
        <time>2019-02-17T08:44:03Z</time>
      </trkpt>
      <trkpt lat="50.43812" lon="1.64432">
        <ele>40</ele>
        <time>2019-02-17T08:44:07Z</time>
      </trkpt>
      <trkpt lat="50.43816" lon="1.64407">
        <ele>40</ele>
        <time>2019-02-17T08:44:11Z</time>
      </trkpt>
      <trkpt lat="50.43819" lon="1.64383">
        <ele>40</ele>
        <time>2019-02-17T08:44:15Z</time>
      </trkpt>
      <trkpt lat="50.43823" lon="1.64359">
        <ele>40</ele>
        <time>2019-02-17T08:44:19Z</time>
      </trkpt>
      <trkpt lat="50.43828" lon="1.64334">
        <ele>40</ele>
        <time>2019-02-17T08:44:23Z</time>
      </trkpt>
      <trkpt lat="50.43832" lon="1.64313">
        <ele>40.2</ele>
        <time>2019-02-17T08:44:27Z</time>
      </trkpt>
      <trkpt lat="50.43833" lon="1.64291">
        <ele>40</ele>
        <time>2019-02-17T08:44:31Z</time>
      </trkpt>
      <trkpt lat="50.43837" lon="1.64271">
        <ele>39.8</ele>
        <time>2019-02-17T08:44:35Z</time>
      </trkpt>
      <trkpt lat="50.4384" lon="1.6425">
        <ele>39.8</ele>
        <time>2019-02-17T08:44:39Z</time>
      </trkpt>
      <trkpt lat="50.43844" lon="1.64232">
        <ele>40</ele>
        <time>2019-02-17T08:44:43Z</time>
      </trkpt>
      <trkpt lat="50.43846" lon="1.64216">
        <ele>40.2</ele>
        <time>2019-02-17T08:44:47Z</time>
      </trkpt>
      <trkpt lat="50.43849" lon="1.64195">
        <ele>40.2</ele>
        <time>2019-02-17T08:44:51Z</time>
      </trkpt>
      <trkpt lat="50.43852" lon="1.64173">
        <ele>40.4</ele>
        <time>2019-02-17T08:44:55Z</time>
      </trkpt>
      <trkpt lat="50.43856" lon="1.64153">
        <ele>40</ele>
        <time>2019-02-17T08:44:59Z</time>
      </trkpt>
      <trkpt lat="50.43859" lon="1.64134">
        <ele>40.4</ele>
        <time>2019-02-17T08:45:03Z</time>
      </trkpt>
      <trkpt lat="50.43864" lon="1.64117">
        <ele>40</ele>
        <time>2019-02-17T08:45:07Z</time>
      </trkpt>
      <trkpt lat="50.4387" lon="1.64101">
        <ele>40</ele>
        <time>2019-02-17T08:45:11Z</time>
      </trkpt>
      <trkpt lat="50.43877" lon="1.64084">
        <ele>39.8</ele>
        <time>2019-02-17T08:45:15Z</time>
      </trkpt>
      <trkpt lat="50.43887" lon="1.64072">
        <ele>40.4</ele>
        <time>2019-02-17T08:45:19Z</time>
      </trkpt>
      <trkpt lat="50.43899" lon="1.64059">
        <ele>40.4</ele>
        <time>2019-02-17T08:45:23Z</time>
      </trkpt>
      <trkpt lat="50.43911" lon="1.64047">
        <ele>40.4</ele>
        <time>2019-02-17T08:45:27Z</time>
      </trkpt>
      <trkpt lat="50.43922" lon="1.64031">
        <ele>40</ele>
        <time>2019-02-17T08:45:31Z</time>
      </trkpt>
      <trkpt lat="50.43926" lon="1.64011">
        <ele>40.8</ele>
        <time>2019-02-17T08:45:35Z</time>
      </trkpt>
      <trkpt lat="50.43918" lon="1.63989">
        <ele>40.8</ele>
        <time>2019-02-17T08:45:39Z</time>
      </trkpt>
      <trkpt lat="50.4391" lon="1.63969">
        <ele>40.4</ele>
        <time>2019-02-17T08:45:43Z</time>
      </trkpt>
      <trkpt lat="50.43909" lon="1.63946">
        <ele>40.4</ele>
        <time>2019-02-17T08:45:47Z</time>
      </trkpt>
      <trkpt lat="50.43915" lon="1.63922">
        <ele>40.2</ele>
        <time>2019-02-17T08:45:51Z</time>
      </trkpt>
      <trkpt lat="50.4392" lon="1.63896">
        <ele>40</ele>
        <time>2019-02-17T08:45:55Z</time>
      </trkpt>
      <trkpt lat="50.43926" lon="1.63868">
        <ele>40.2</ele>
        <time>2019-02-17T08:45:59Z</time>
      </trkpt>
      <trkpt lat="50.43932" lon="1.6384">
        <ele>40.4</ele>
        <time>2019-02-17T08:46:03Z</time>
      </trkpt>
      <trkpt lat="50.43936" lon="1.6381">
        <ele>40.4</ele>
        <time>2019-02-17T08:46:07Z</time>
      </trkpt>
      <trkpt lat="50.4394" lon="1.63782">
        <ele>40.6</ele>
        <time>2019-02-17T08:46:11Z</time>
      </trkpt>
      <trkpt lat="50.43943" lon="1.63755">
        <ele>40.4</ele>
        <time>2019-02-17T08:46:15Z</time>
      </trkpt>
      <trkpt lat="50.43942" lon="1.63727">
        <ele>40.2</ele>
        <time>2019-02-17T08:46:19Z</time>
      </trkpt>
      <trkpt lat="50.4394" lon="1.63698">
        <ele>40.4</ele>
        <time>2019-02-17T08:46:23Z</time>
      </trkpt>
      <trkpt lat="50.43938" lon="1.63671">
        <ele>40.4</ele>
        <time>2019-02-17T08:46:27Z</time>
      </trkpt>
      <trkpt lat="50.43937" lon="1.63643">
        <ele>40.6</ele>
        <time>2019-02-17T08:46:31Z</time>
      </trkpt>
      <trkpt lat="50.43943" lon="1.63613">
        <ele>40.4</ele>
        <time>2019-02-17T08:46:35Z</time>
      </trkpt>
      <trkpt lat="50.43953" lon="1.63583">
        <ele>41.2</ele>
        <time>2019-02-17T08:46:39Z</time>
      </trkpt>
      <trkpt lat="50.43964" lon="1.63553">
        <ele>40.6</ele>
        <time>2019-02-17T08:46:43Z</time>
      </trkpt>
      <trkpt lat="50.43975" lon="1.63522">
        <ele>40.4</ele>
        <time>2019-02-17T08:46:47Z</time>
      </trkpt>
      <trkpt lat="50.43986" lon="1.63491">
        <ele>41</ele>
        <time>2019-02-17T08:46:51Z</time>
      </trkpt>
      <trkpt lat="50.43997" lon="1.63461">
        <ele>40.6</ele>
        <time>2019-02-17T08:46:55Z</time>
      </trkpt>
      <trkpt lat="50.44008" lon="1.63431">
        <ele>40.8</ele>
        <time>2019-02-17T08:46:59Z</time>
      </trkpt>
      <trkpt lat="50.44019" lon="1.634">
        <ele>41</ele>
        <time>2019-02-17T08:47:03Z</time>
      </trkpt>
      <trkpt lat="50.44029" lon="1.6337">
        <ele>40.4</ele>
        <time>2019-02-17T08:47:07Z</time>
      </trkpt>
      <trkpt lat="50.44039" lon="1.6334">
        <ele>40.6</ele>
        <time>2019-02-17T08:47:11Z</time>
      </trkpt>
      <trkpt lat="50.44049" lon="1.63311">
        <ele>40.6</ele>
        <time>2019-02-17T08:47:15Z</time>
      </trkpt>
      <trkpt lat="50.44057" lon="1.63281">
        <ele>40.6</ele>
        <time>2019-02-17T08:47:19Z</time>
      </trkpt>
      <trkpt lat="50.44062" lon="1.63249">
        <ele>40.4</ele>
        <time>2019-02-17T08:47:23Z</time>
      </trkpt>
      <trkpt lat="50.44064" lon="1.63217">
        <ele>40.8</ele>
        <time>2019-02-17T08:47:27Z</time>
      </trkpt>
      <trkpt lat="50.44066" lon="1.63185">
        <ele>40.8</ele>
        <time>2019-02-17T08:47:31Z</time>
      </trkpt>
      <trkpt lat="50.44071" lon="1.63154">
        <ele>40.4</ele>
        <time>2019-02-17T08:47:35Z</time>
      </trkpt>
      <trkpt lat="50.44084" lon="1.63127">
        <ele>40.4</ele>
        <time>2019-02-17T08:47:39Z</time>
      </trkpt>
      <trkpt lat="50.44098" lon="1.63103">
        <ele>40</ele>
        <time>2019-02-17T08:47:43Z</time>
      </trkpt>
      <trkpt lat="50.44111" lon="1.63078">
        <ele>40</ele>
        <time>2019-02-17T08:47:47Z</time>
      </trkpt>
      <trkpt lat="50.44124" lon="1.63052">
        <ele>40</ele>
        <time>2019-02-17T08:47:51Z</time>
      </trkpt>
      <trkpt lat="50.44133" lon="1.63023">
        <ele>40.2</ele>
        <time>2019-02-17T08:47:55Z</time>
      </trkpt>
      <trkpt lat="50.44144" lon="1.62996">
        <ele>40.4</ele>
        <time>2019-02-17T08:47:59Z</time>
      </trkpt>
      <trkpt lat="50.44154" lon="1.62968">
        <ele>40.4</ele>
        <time>2019-02-17T08:48:03Z</time>
      </trkpt>
      <trkpt lat="50.44164" lon="1.62939">
        <ele>39.8</ele>
        <time>2019-02-17T08:48:07Z</time>
      </trkpt>
      <trkpt lat="50.44174" lon="1.6291">
        <ele>40</ele>
        <time>2019-02-17T08:48:11Z</time>
      </trkpt>
      <trkpt lat="50.44186" lon="1.62883">
        <ele>40.2</ele>
        <time>2019-02-17T08:48:15Z</time>
      </trkpt>
      <trkpt lat="50.44203" lon="1.62862">
        <ele>39.6</ele>
        <time>2019-02-17T08:48:19Z</time>
      </trkpt>
      <trkpt lat="50.44223" lon="1.62848">
        <ele>40</ele>
        <time>2019-02-17T08:48:23Z</time>
      </trkpt>
      <trkpt lat="50.44242" lon="1.62834">
        <ele>40.2</ele>
        <time>2019-02-17T08:48:27Z</time>
      </trkpt>
      <trkpt lat="50.44262" lon="1.62821">
        <ele>40</ele>
        <time>2019-02-17T08:48:31Z</time>
      </trkpt>
      <trkpt lat="50.4428" lon="1.62803">
        <ele>40</ele>
        <time>2019-02-17T08:48:35Z</time>
      </trkpt>
      <trkpt lat="50.44294" lon="1.62777">
        <ele>40.4</ele>
        <time>2019-02-17T08:48:39Z</time>
      </trkpt>
      <trkpt lat="50.44302" lon="1.62746">
        <ele>39.8</ele>
        <time>2019-02-17T08:48:43Z</time>
      </trkpt>
      <trkpt lat="50.4431" lon="1.62717">
        <ele>40.4</ele>
        <time>2019-02-17T08:48:47Z</time>
      </trkpt>
      <trkpt lat="50.44317" lon="1.62686">
        <ele>40.8</ele>
        <time>2019-02-17T08:48:51Z</time>
      </trkpt>
      <trkpt lat="50.44324" lon="1.62658">
        <ele>40.4</ele>
        <time>2019-02-17T08:48:55Z</time>
      </trkpt>
      <trkpt lat="50.44331" lon="1.62628">
        <ele>40.6</ele>
        <time>2019-02-17T08:48:59Z</time>
      </trkpt>
      <trkpt lat="50.44335" lon="1.62597">
        <ele>40.8</ele>
        <time>2019-02-17T08:49:03Z</time>
      </trkpt>
      <trkpt lat="50.44334" lon="1.62567">
        <ele>40.4</ele>
        <time>2019-02-17T08:49:07Z</time>
      </trkpt>
      <trkpt lat="50.44331" lon="1.62537">
        <ele>40.4</ele>
        <time>2019-02-17T08:49:11Z</time>
      </trkpt>
      <trkpt lat="50.44331" lon="1.62508">
        <ele>40.2</ele>
        <time>2019-02-17T08:49:15Z</time>
      </trkpt>
      <trkpt lat="50.44341" lon="1.62483">
        <ele>40.2</ele>
        <time>2019-02-17T08:49:19Z</time>
      </trkpt>
      <trkpt lat="50.44358" lon="1.62468">
        <ele>40.4</ele>
        <time>2019-02-17T08:49:23Z</time>
      </trkpt>
      <trkpt lat="50.44376" lon="1.62451">
        <ele>40.4</ele>
        <time>2019-02-17T08:49:27Z</time>
      </trkpt>
      <trkpt lat="50.44394" lon="1.62429">
        <ele>40.6</ele>
        <time>2019-02-17T08:49:31Z</time>
      </trkpt>
      <trkpt lat="50.44409" lon="1.62404">
        <ele>40.6</ele>
        <time>2019-02-17T08:49:35Z</time>
      </trkpt>
      <trkpt lat="50.44422" lon="1.62376">
        <ele>40.8</ele>
        <time>2019-02-17T08:49:39Z</time>
      </trkpt>
      <trkpt lat="50.44433" lon="1.62347">
        <ele>41</ele>
        <time>2019-02-17T08:49:43Z</time>
      </trkpt>
      <trkpt lat="50.44442" lon="1.62319">
        <ele>41.2</ele>
        <time>2019-02-17T08:49:47Z</time>
      </trkpt>
      <trkpt lat="50.4445" lon="1.62291">
        <ele>41</ele>
        <time>2019-02-17T08:49:51Z</time>
      </trkpt>
      <trkpt lat="50.44458" lon="1.62261">
        <ele>40.8</ele>
        <time>2019-02-17T08:49:55Z</time>
      </trkpt>
      <trkpt lat="50.44467" lon="1.62232">
        <ele>41</ele>
        <time>2019-02-17T08:49:59Z</time>
      </trkpt>
      <trkpt lat="50.44474" lon="1.62204">
        <ele>40.8</ele>
        <time>2019-02-17T08:50:03Z</time>
      </trkpt>
      <trkpt lat="50.44483" lon="1.62179">
        <ele>41.2</ele>
        <time>2019-02-17T08:50:07Z</time>
      </trkpt>
      <trkpt lat="50.44494" lon="1.6216">
        <ele>41.2</ele>
        <time>2019-02-17T08:50:11Z</time>
      </trkpt>
      <trkpt lat="50.44504" lon="1.62139">
        <ele>41.2</ele>
        <time>2019-02-17T08:50:15Z</time>
      </trkpt>
      <trkpt lat="50.44511" lon="1.62118">
        <ele>41.2</ele>
        <time>2019-02-17T08:50:19Z</time>
      </trkpt>
      <trkpt lat="50.44517" lon="1.62093">
        <ele>41</ele>
        <time>2019-02-17T08:50:23Z</time>
      </trkpt>
      <trkpt lat="50.44519" lon="1.62069">
        <ele>41</ele>
        <time>2019-02-17T08:50:27Z</time>
      </trkpt>
      <trkpt lat="50.44518" lon="1.62046">
        <ele>40.8</ele>
        <time>2019-02-17T08:50:31Z</time>
      </trkpt>
      <trkpt lat="50.44519" lon="1.62021">
        <ele>41.2</ele>
        <time>2019-02-17T08:50:35Z</time>
      </trkpt>
      <trkpt lat="50.44519" lon="1.61996">
        <ele>41.4</ele>
        <time>2019-02-17T08:50:39Z</time>
      </trkpt>
      <trkpt lat="50.4452" lon="1.61979">
        <ele>41.2</ele>
        <time>2019-02-17T08:50:43Z</time>
      </trkpt>
      <trkpt lat="50.44518" lon="1.61967">
        <ele>41</ele>
        <time>2019-02-17T08:50:47Z</time>
      </trkpt>
      <trkpt lat="50.4452" lon="1.61953">
        <ele>41.6</ele>
        <time>2019-02-17T08:50:51Z</time>
      </trkpt>
      <trkpt lat="50.44519" lon="1.61932">
        <ele>41.8</ele>
        <time>2019-02-17T08:50:55Z</time>
      </trkpt>
      <trkpt lat="50.4452" lon="1.61913">
        <ele>42</ele>
        <time>2019-02-17T08:50:59Z</time>
      </trkpt>
      <trkpt lat="50.44522" lon="1.61891">
        <ele>42.4</ele>
        <time>2019-02-17T08:51:03Z</time>
      </trkpt>
      <trkpt lat="50.44525" lon="1.61871">
        <ele>42.4</ele>
        <time>2019-02-17T08:51:07Z</time>
      </trkpt>
      <trkpt lat="50.44526" lon="1.61848">
        <ele>42.4</ele>
        <time>2019-02-17T08:51:11Z</time>
      </trkpt>
      <trkpt lat="50.44526" lon="1.61827">
        <ele>42.8</ele>
        <time>2019-02-17T08:51:15Z</time>
      </trkpt>
      <trkpt lat="50.44527" lon="1.61808">
        <ele>43.2</ele>
        <time>2019-02-17T08:51:19Z</time>
      </trkpt>
      <trkpt lat="50.44526" lon="1.61784">
        <ele>43.8</ele>
        <time>2019-02-17T08:51:23Z</time>
      </trkpt>
      <trkpt lat="50.44534" lon="1.61773">
        <ele>43.8</ele>
        <time>2019-02-17T08:51:27Z</time>
      </trkpt>
      <trkpt lat="50.44545" lon="1.61772">
        <ele>44.2</ele>
        <time>2019-02-17T08:51:31Z</time>
      </trkpt>
      <trkpt lat="50.44545" lon="1.61772">
        <ele>44.2</ele>
        <time>2019-02-17T08:51:35Z</time>
      </trkpt>
      <trkpt lat="50.44545" lon="1.61772">
        <ele>44.2</ele>
        <time>2019-02-17T08:51:39Z</time>
      </trkpt>
      <trkpt lat="50.44545" lon="1.61772">
        <ele>44.2</ele>
        <time>2019-02-17T08:51:43Z</time>
      </trkpt>
      <trkpt lat="50.44545" lon="1.61772">
        <ele>44.2</ele>
        <time>2019-02-17T08:51:47Z</time>
      </trkpt>
      <trkpt lat="50.44545" lon="1.61772">
        <ele>44.2</ele>
        <time>2019-02-17T08:51:51Z</time>
      </trkpt>
      <trkpt lat="50.44545" lon="1.61772">
        <ele>44.2</ele>
        <time>2019-02-17T08:51:55Z</time>
      </trkpt>
      <trkpt lat="50.44545" lon="1.61772">
        <ele>44.2</ele>
        <time>2019-02-17T08:51:59Z</time>
      </trkpt>
      <trkpt lat="50.44545" lon="1.61772">
        <ele>44.2</ele>
        <time>2019-02-17T08:52:03Z</time>
      </trkpt>
      <trkpt lat="50.44545" lon="1.61772">
        <ele>44.2</ele>
        <time>2019-02-17T08:52:07Z</time>
      </trkpt>
      <trkpt lat="50.44545" lon="1.61772">
        <ele>44.2</ele>
        <time>2019-02-17T08:52:11Z</time>
      </trkpt>
      <trkpt lat="50.44545" lon="1.61772">
        <ele>44.2</ele>
        <time>2019-02-17T08:52:15Z</time>
      </trkpt>
      <trkpt lat="50.44545" lon="1.61772">
        <ele>44.2</ele>
        <time>2019-02-17T08:52:19Z</time>
      </trkpt>
      <trkpt lat="50.44545" lon="1.61772">
        <ele>44.2</ele>
        <time>2019-02-17T08:52:23Z</time>
      </trkpt>
      <trkpt lat="50.44548" lon="1.61765">
        <ele>44.2</ele>
        <time>2019-02-17T08:52:27Z</time>
      </trkpt>
      <trkpt lat="50.44548" lon="1.61765">
        <ele>44.2</ele>
        <time>2019-02-17T08:52:31Z</time>
      </trkpt>
      <trkpt lat="50.44548" lon="1.61765">
        <ele>44.2</ele>
        <time>2019-02-17T08:52:35Z</time>
      </trkpt>
      <trkpt lat="50.44548" lon="1.61765">
        <ele>44.2</ele>
        <time>2019-02-17T08:52:39Z</time>
      </trkpt>
      <trkpt lat="50.44548" lon="1.61765">
        <ele>44.2</ele>
        <time>2019-02-17T08:52:43Z</time>
      </trkpt>
      <trkpt lat="50.44548" lon="1.61765">
        <ele>44.2</ele>
        <time>2019-02-17T08:52:47Z</time>
      </trkpt>
      <trkpt lat="50.44548" lon="1.61765">
        <ele>44.2</ele>
        <time>2019-02-17T08:52:51Z</time>
      </trkpt>
      <trkpt lat="50.44548" lon="1.61765">
        <ele>44.2</ele>
        <time>2019-02-17T08:52:55Z</time>
      </trkpt>
      <trkpt lat="50.44548" lon="1.61765">
        <ele>44.2</ele>
        <time>2019-02-17T08:52:59Z</time>
      </trkpt>
      <trkpt lat="50.44548" lon="1.61765">
        <ele>44.2</ele>
        <time>2019-02-17T08:53:03Z</time>
      </trkpt>
      <trkpt lat="50.44548" lon="1.61765">
        <ele>44.2</ele>
        <time>2019-02-17T08:53:07Z</time>
      </trkpt>
      <trkpt lat="50.44548" lon="1.61765">
        <ele>44.2</ele>
        <time>2019-02-17T08:53:11Z</time>
      </trkpt>
      <trkpt lat="50.44548" lon="1.61765">
        <ele>44.2</ele>
        <time>2019-02-17T08:53:15Z</time>
      </trkpt>
      <trkpt lat="50.44548" lon="1.61765">
        <ele>44.2</ele>
        <time>2019-02-17T08:53:19Z</time>
      </trkpt>
      <trkpt lat="50.44548" lon="1.61765">
        <ele>44.2</ele>
        <time>2019-02-17T08:53:23Z</time>
      </trkpt>
      <trkpt lat="50.44548" lon="1.61765">
        <ele>44.2</ele>
        <time>2019-02-17T08:53:27Z</time>
      </trkpt>
      <trkpt lat="50.44548" lon="1.61765">
        <ele>44.2</ele>
        <time>2019-02-17T08:53:31Z</time>
      </trkpt>
      <trkpt lat="50.44548" lon="1.61763">
        <ele>44</ele>
        <time>2019-02-17T08:53:35Z</time>
      </trkpt>
      <trkpt lat="50.44557" lon="1.61762">
        <ele>44.6</ele>
        <time>2019-02-17T08:53:39Z</time>
      </trkpt>
      <trkpt lat="50.44576" lon="1.61759">
        <ele>45.2</ele>
        <time>2019-02-17T08:53:43Z</time>
      </trkpt>
      <trkpt lat="50.446" lon="1.61753">
        <ele>45.6</ele>
        <time>2019-02-17T08:53:47Z</time>
      </trkpt>
      <trkpt lat="50.44625" lon="1.61742">
        <ele>45</ele>
        <time>2019-02-17T08:53:51Z</time>
      </trkpt>
      <trkpt lat="50.44648" lon="1.61727">
        <ele>44.6</ele>
        <time>2019-02-17T08:53:55Z</time>
      </trkpt>
      <trkpt lat="50.44672" lon="1.61712">
        <ele>44.8</ele>
        <time>2019-02-17T08:53:59Z</time>
      </trkpt>
      <trkpt lat="50.44697" lon="1.61693">
        <ele>45</ele>
        <time>2019-02-17T08:54:03Z</time>
      </trkpt>
      <trkpt lat="50.44723" lon="1.61675">
        <ele>44.2</ele>
        <time>2019-02-17T08:54:07Z</time>
      </trkpt>
      <trkpt lat="50.44748" lon="1.61657">
        <ele>44</ele>
        <time>2019-02-17T08:54:11Z</time>
      </trkpt>
      <trkpt lat="50.44773" lon="1.6164">
        <ele>44</ele>
        <time>2019-02-17T08:54:15Z</time>
      </trkpt>
      <trkpt lat="50.44795" lon="1.61614">
        <ele>44.6</ele>
        <time>2019-02-17T08:54:19Z</time>
      </trkpt>
      <trkpt lat="50.44819" lon="1.61593">
        <ele>43.6</ele>
        <time>2019-02-17T08:54:23Z</time>
      </trkpt>
      <trkpt lat="50.44842" lon="1.61578">
        <ele>43.2</ele>
        <time>2019-02-17T08:54:27Z</time>
      </trkpt>
      <trkpt lat="50.44837" lon="1.6155">
        <ele>43.4</ele>
        <time>2019-02-17T08:54:31Z</time>
      </trkpt>
      <trkpt lat="50.44828" lon="1.61516">
        <ele>44.4</ele>
        <time>2019-02-17T08:54:35Z</time>
      </trkpt>
      <trkpt lat="50.44822" lon="1.61496">
        <ele>45</ele>
        <time>2019-02-17T08:54:39Z</time>
      </trkpt>
      <trkpt lat="50.44811" lon="1.61483">
        <ele>45.6</ele>
        <time>2019-02-17T08:54:43Z</time>
      </trkpt>
      <trkpt lat="50.44811" lon="1.61467">
        <ele>47.2</ele>
        <time>2019-02-17T08:54:47Z</time>
      </trkpt>
      <trkpt lat="50.44816" lon="1.61457">
        <ele>48</ele>
        <time>2019-02-17T08:54:51Z</time>
      </trkpt>
      <trkpt lat="50.44821" lon="1.61445">
        <ele>49.2</ele>
        <time>2019-02-17T08:54:55Z</time>
      </trkpt>
      <trkpt lat="50.44829" lon="1.61431">
        <ele>50</ele>
        <time>2019-02-17T08:54:59Z</time>
      </trkpt>
      <trkpt lat="50.44836" lon="1.61421">
        <ele>49.2</ele>
        <time>2019-02-17T08:55:03Z</time>
      </trkpt>
      <trkpt lat="50.44848" lon="1.61409">
        <ele>49.2</ele>
        <time>2019-02-17T08:55:07Z</time>
      </trkpt>
      <trkpt lat="50.4485" lon="1.61401">
        <ele>49.6</ele>
        <time>2019-02-17T08:55:11Z</time>
      </trkpt>
      <trkpt lat="50.44854" lon="1.61392">
        <ele>49.8</ele>
        <time>2019-02-17T08:55:15Z</time>
      </trkpt>
      <trkpt lat="50.44856" lon="1.61386">
        <ele>50.2</ele>
        <time>2019-02-17T08:55:19Z</time>
      </trkpt>
      <trkpt lat="50.44862" lon="1.61377">
        <ele>48.8</ele>
        <time>2019-02-17T08:55:23Z</time>
      </trkpt>
      <trkpt lat="50.44873" lon="1.6139">
        <ele>47</ele>
        <time>2019-02-17T08:55:27Z</time>
      </trkpt>
      <trkpt lat="50.44878" lon="1.61401">
        <ele>48</ele>
        <time>2019-02-17T08:55:31Z</time>
      </trkpt>
      <trkpt lat="50.44886" lon="1.61408">
        <ele>48.4</ele>
        <time>2019-02-17T08:55:35Z</time>
      </trkpt>
      <trkpt lat="50.44888" lon="1.61404">
        <ele>49.6</ele>
        <time>2019-02-17T08:55:39Z</time>
      </trkpt>
      <trkpt lat="50.44891" lon="1.61398">
        <ele>50.8</ele>
        <time>2019-02-17T08:55:43Z</time>
      </trkpt>
      <trkpt lat="50.44902" lon="1.61386">
        <ele>50.6</ele>
        <time>2019-02-17T08:55:47Z</time>
      </trkpt>
      <trkpt lat="50.44906" lon="1.61367">
        <ele>48.6</ele>
        <time>2019-02-17T08:55:51Z</time>
      </trkpt>
      <trkpt lat="50.44907" lon="1.61353">
        <ele>47.8</ele>
        <time>2019-02-17T08:55:55Z</time>
      </trkpt>
      <trkpt lat="50.44915" lon="1.61331">
        <ele>49</ele>
        <time>2019-02-17T08:55:59Z</time>
      </trkpt>
      <trkpt lat="50.44922" lon="1.61311">
        <ele>50.4</ele>
        <time>2019-02-17T08:56:03Z</time>
      </trkpt>
      <trkpt lat="50.44923" lon="1.61294">
        <ele>50.4</ele>
        <time>2019-02-17T08:56:07Z</time>
      </trkpt>
      <trkpt lat="50.44925" lon="1.61284">
        <ele>51.2</ele>
        <time>2019-02-17T08:56:11Z</time>
      </trkpt>
      <trkpt lat="50.44932" lon="1.61258">
        <ele>49.8</ele>
        <time>2019-02-17T08:56:15Z</time>
      </trkpt>
      <trkpt lat="50.44946" lon="1.61234">
        <ele>49.2</ele>
        <time>2019-02-17T08:56:19Z</time>
      </trkpt>
      <trkpt lat="50.44948" lon="1.6121">
        <ele>48.4</ele>
        <time>2019-02-17T08:56:23Z</time>
      </trkpt>
      <trkpt lat="50.44956" lon="1.61189">
        <ele>48</ele>
        <time>2019-02-17T08:56:27Z</time>
      </trkpt>
      <trkpt lat="50.44959" lon="1.61165">
        <ele>48</ele>
        <time>2019-02-17T08:56:31Z</time>
      </trkpt>
      <trkpt lat="50.44953" lon="1.61152">
        <ele>47.8</ele>
        <time>2019-02-17T08:56:35Z</time>
      </trkpt>
      <trkpt lat="50.44957" lon="1.6113">
        <ele>47</ele>
        <time>2019-02-17T08:56:39Z</time>
      </trkpt>
      <trkpt lat="50.44969" lon="1.61121">
        <ele>45.6</ele>
        <time>2019-02-17T08:56:43Z</time>
      </trkpt>
      <trkpt lat="50.44981" lon="1.61119">
        <ele>45.6</ele>
        <time>2019-02-17T08:56:47Z</time>
      </trkpt>
      <trkpt lat="50.44993" lon="1.61112">
        <ele>46.6</ele>
        <time>2019-02-17T08:56:51Z</time>
      </trkpt>
      <trkpt lat="50.45008" lon="1.6111">
        <ele>45.6</ele>
        <time>2019-02-17T08:56:55Z</time>
      </trkpt>
      <trkpt lat="50.45025" lon="1.61114">
        <ele>45.2</ele>
        <time>2019-02-17T08:56:59Z</time>
      </trkpt>
      <trkpt lat="50.45044" lon="1.61114">
        <ele>44.8</ele>
        <time>2019-02-17T08:57:03Z</time>
      </trkpt>
      <trkpt lat="50.45061" lon="1.61116">
        <ele>44.8</ele>
        <time>2019-02-17T08:57:07Z</time>
      </trkpt>
      <trkpt lat="50.45075" lon="1.61118">
        <ele>44.2</ele>
        <time>2019-02-17T08:57:11Z</time>
      </trkpt>
      <trkpt lat="50.45093" lon="1.6112">
        <ele>44.8</ele>
        <time>2019-02-17T08:57:15Z</time>
      </trkpt>
      <trkpt lat="50.45107" lon="1.61123">
        <ele>44.2</ele>
        <time>2019-02-17T08:57:19Z</time>
      </trkpt>
      <trkpt lat="50.45128" lon="1.61125">
        <ele>44.2</ele>
        <time>2019-02-17T08:57:23Z</time>
      </trkpt>
      <trkpt lat="50.45147" lon="1.61129">
        <ele>44.8</ele>
        <time>2019-02-17T08:57:27Z</time>
      </trkpt>
      <trkpt lat="50.45166" lon="1.61141">
        <ele>44.8</ele>
        <time>2019-02-17T08:57:31Z</time>
      </trkpt>
      <trkpt lat="50.45187" lon="1.61146">
        <ele>44.4</ele>
        <time>2019-02-17T08:57:35Z</time>
      </trkpt>
      <trkpt lat="50.45195" lon="1.61121">
        <ele>44.4</ele>
        <time>2019-02-17T08:57:39Z</time>
      </trkpt>
      <trkpt lat="50.45189" lon="1.61094">
        <ele>44.8</ele>
        <time>2019-02-17T08:57:43Z</time>
      </trkpt>
      <trkpt lat="50.45184" lon="1.61065">
        <ele>45</ele>
        <time>2019-02-17T08:57:47Z</time>
      </trkpt>
      <trkpt lat="50.4518" lon="1.61037">
        <ele>45.2</ele>
        <time>2019-02-17T08:57:51Z</time>
      </trkpt>
      <trkpt lat="50.45172" lon="1.61011">
        <ele>45.6</ele>
        <time>2019-02-17T08:57:55Z</time>
      </trkpt>
      <trkpt lat="50.45172" lon="1.60985">
        <ele>45</ele>
        <time>2019-02-17T08:57:59Z</time>
      </trkpt>
      <trkpt lat="50.45185" lon="1.60958">
        <ele>45</ele>
        <time>2019-02-17T08:58:03Z</time>
      </trkpt>
      <trkpt lat="50.45197" lon="1.60933">
        <ele>45.2</ele>
        <time>2019-02-17T08:58:07Z</time>
      </trkpt>
      <trkpt lat="50.45209" lon="1.60911">
        <ele>45.2</ele>
        <time>2019-02-17T08:58:11Z</time>
      </trkpt>
      <trkpt lat="50.45222" lon="1.60887">
        <ele>45.2</ele>
        <time>2019-02-17T08:58:15Z</time>
      </trkpt>
      <trkpt lat="50.45233" lon="1.6086">
        <ele>45.6</ele>
        <time>2019-02-17T08:58:19Z</time>
      </trkpt>
      <trkpt lat="50.45243" lon="1.60831">
        <ele>45.4</ele>
        <time>2019-02-17T08:58:23Z</time>
      </trkpt>
      <trkpt lat="50.45249" lon="1.60802">
        <ele>46</ele>
        <time>2019-02-17T08:58:27Z</time>
      </trkpt>
      <trkpt lat="50.45257" lon="1.60777">
        <ele>45.2</ele>
        <time>2019-02-17T08:58:31Z</time>
      </trkpt>
      <trkpt lat="50.4527" lon="1.60758">
        <ele>45.6</ele>
        <time>2019-02-17T08:58:35Z</time>
      </trkpt>
      <trkpt lat="50.45286" lon="1.60744">
        <ele>46.2</ele>
        <time>2019-02-17T08:58:39Z</time>
      </trkpt>
      <trkpt lat="50.45303" lon="1.60736">
        <ele>46.6</ele>
        <time>2019-02-17T08:58:43Z</time>
      </trkpt>
      <trkpt lat="50.45312" lon="1.60711">
        <ele>46.4</ele>
        <time>2019-02-17T08:58:47Z</time>
      </trkpt>
      <trkpt lat="50.4532" lon="1.60684">
        <ele>46.8</ele>
        <time>2019-02-17T08:58:51Z</time>
      </trkpt>
      <trkpt lat="50.45331" lon="1.60659">
        <ele>46.8</ele>
        <time>2019-02-17T08:58:55Z</time>
      </trkpt>
      <trkpt lat="50.45341" lon="1.60634">
        <ele>47.6</ele>
        <time>2019-02-17T08:58:59Z</time>
      </trkpt>
      <trkpt lat="50.45348" lon="1.60607">
        <ele>47.2</ele>
        <time>2019-02-17T08:59:03Z</time>
      </trkpt>
      <trkpt lat="50.45354" lon="1.60582">
        <ele>46.8</ele>
        <time>2019-02-17T08:59:07Z</time>
      </trkpt>
      <trkpt lat="50.45358" lon="1.60557">
        <ele>47.8</ele>
        <time>2019-02-17T08:59:11Z</time>
      </trkpt>
      <trkpt lat="50.45369" lon="1.60529">
        <ele>47.8</ele>
        <time>2019-02-17T08:59:15Z</time>
      </trkpt>
      <trkpt lat="50.45389" lon="1.60521">
        <ele>47.2</ele>
        <time>2019-02-17T08:59:19Z</time>
      </trkpt>
      <trkpt lat="50.4541" lon="1.60513">
        <ele>47.2</ele>
        <time>2019-02-17T08:59:23Z</time>
      </trkpt>
      <trkpt lat="50.45432" lon="1.60509">
        <ele>47.2</ele>
        <time>2019-02-17T08:59:27Z</time>
      </trkpt>
      <trkpt lat="50.45453" lon="1.60503">
        <ele>46.6</ele>
        <time>2019-02-17T08:59:31Z</time>
      </trkpt>
      <trkpt lat="50.45475" lon="1.60494">
        <ele>46.8</ele>
        <time>2019-02-17T08:59:35Z</time>
      </trkpt>
      <trkpt lat="50.45495" lon="1.60487">
        <ele>47.8</ele>
        <time>2019-02-17T08:59:39Z</time>
      </trkpt>
      <trkpt lat="50.45513" lon="1.60476">
        <ele>48.2</ele>
        <time>2019-02-17T08:59:43Z</time>
      </trkpt>
      <trkpt lat="50.4553" lon="1.60463">
        <ele>48</ele>
        <time>2019-02-17T08:59:47Z</time>
      </trkpt>
      <trkpt lat="50.45547" lon="1.60457">
        <ele>48</ele>
        <time>2019-02-17T08:59:51Z</time>
      </trkpt>
      <trkpt lat="50.45557" lon="1.60451">
        <ele>48</ele>
        <time>2019-02-17T08:59:55Z</time>
      </trkpt>
      <trkpt lat="50.45546" lon="1.60452">
        <ele>47.8</ele>
        <time>2019-02-17T08:59:59Z</time>
      </trkpt>
      <trkpt lat="50.4554" lon="1.60466">
        <ele>48</ele>
        <time>2019-02-17T09:00:03Z</time>
      </trkpt>
      <trkpt lat="50.4554" lon="1.60496">
        <ele>47.8</ele>
        <time>2019-02-17T09:00:07Z</time>
      </trkpt>
      <trkpt lat="50.45541" lon="1.60527">
        <ele>48</ele>
        <time>2019-02-17T09:00:11Z</time>
      </trkpt>
      <trkpt lat="50.45544" lon="1.60558">
        <ele>47.6</ele>
        <time>2019-02-17T09:00:15Z</time>
      </trkpt>
      <trkpt lat="50.45551" lon="1.60584">
        <ele>47.6</ele>
        <time>2019-02-17T09:00:19Z</time>
      </trkpt>
      <trkpt lat="50.4556" lon="1.6061">
        <ele>47.2</ele>
        <time>2019-02-17T09:00:23Z</time>
      </trkpt>
      <trkpt lat="50.45572" lon="1.60629">
        <ele>47.8</ele>
        <time>2019-02-17T09:00:27Z</time>
      </trkpt>
      <trkpt lat="50.45586" lon="1.60642">
        <ele>47.6</ele>
        <time>2019-02-17T09:00:31Z</time>
      </trkpt>
      <trkpt lat="50.45595" lon="1.60649">
        <ele>47.6</ele>
        <time>2019-02-17T09:00:35Z</time>
      </trkpt>
      <trkpt lat="50.4561" lon="1.60649">
        <ele>47.6</ele>
        <time>2019-02-17T09:00:39Z</time>
      </trkpt>
      <trkpt lat="50.45621" lon="1.60665">
        <ele>47.8</ele>
        <time>2019-02-17T09:00:43Z</time>
      </trkpt>
      <trkpt lat="50.45633" lon="1.60684">
        <ele>48</ele>
        <time>2019-02-17T09:00:47Z</time>
      </trkpt>
      <trkpt lat="50.45647" lon="1.60697">
        <ele>48.2</ele>
        <time>2019-02-17T09:00:51Z</time>
      </trkpt>
      <trkpt lat="50.45658" lon="1.60705">
        <ele>49</ele>
        <time>2019-02-17T09:00:55Z</time>
      </trkpt>
      <trkpt lat="50.45669" lon="1.60713">
        <ele>49.6</ele>
        <time>2019-02-17T09:00:59Z</time>
      </trkpt>
      <trkpt lat="50.45677" lon="1.60725">
        <ele>50</ele>
        <time>2019-02-17T09:01:03Z</time>
      </trkpt>
      <trkpt lat="50.45682" lon="1.60739">
        <ele>50.4</ele>
        <time>2019-02-17T09:01:07Z</time>
      </trkpt>
      <trkpt lat="50.45688" lon="1.60756">
        <ele>50.8</ele>
        <time>2019-02-17T09:01:11Z</time>
      </trkpt>
      <trkpt lat="50.45699" lon="1.60769">
        <ele>50.4</ele>
        <time>2019-02-17T09:01:15Z</time>
      </trkpt>
      <trkpt lat="50.4571" lon="1.6078">
        <ele>51.4</ele>
        <time>2019-02-17T09:01:19Z</time>
      </trkpt>
      <trkpt lat="50.45726" lon="1.60799">
        <ele>50</ele>
        <time>2019-02-17T09:01:23Z</time>
      </trkpt>
      <trkpt lat="50.45746" lon="1.60813">
        <ele>49</ele>
        <time>2019-02-17T09:01:27Z</time>
      </trkpt>
      <trkpt lat="50.45759" lon="1.60823">
        <ele>49.4</ele>
        <time>2019-02-17T09:01:31Z</time>
      </trkpt>
      <trkpt lat="50.4577" lon="1.60834">
        <ele>50.4</ele>
        <time>2019-02-17T09:01:35Z</time>
      </trkpt>
      <trkpt lat="50.45774" lon="1.60829">
        <ele>50.4</ele>
        <time>2019-02-17T09:01:39Z</time>
      </trkpt>
      <trkpt lat="50.45774" lon="1.60818">
        <ele>50.6</ele>
        <time>2019-02-17T09:01:43Z</time>
      </trkpt>
      <trkpt lat="50.45772" lon="1.60809">
        <ele>51.2</ele>
        <time>2019-02-17T09:01:47Z</time>
      </trkpt>
      <trkpt lat="50.45782" lon="1.60798">
        <ele>50.4</ele>
        <time>2019-02-17T09:01:51Z</time>
      </trkpt>
      <trkpt lat="50.45786" lon="1.60777">
        <ele>48.4</ele>
        <time>2019-02-17T09:01:55Z</time>
      </trkpt>
      <trkpt lat="50.4579" lon="1.60754">
        <ele>47.4</ele>
        <time>2019-02-17T09:01:59Z</time>
      </trkpt>
      <trkpt lat="50.45792" lon="1.60739">
        <ele>47</ele>
        <time>2019-02-17T09:02:03Z</time>
      </trkpt>
      <trkpt lat="50.45796" lon="1.60721">
        <ele>46.8</ele>
        <time>2019-02-17T09:02:07Z</time>
      </trkpt>
      <trkpt lat="50.45803" lon="1.60706">
        <ele>47</ele>
        <time>2019-02-17T09:02:11Z</time>
      </trkpt>
      <trkpt lat="50.4581" lon="1.60711">
        <ele>48.2</ele>
        <time>2019-02-17T09:02:15Z</time>
      </trkpt>
      <trkpt lat="50.45813" lon="1.60716">
        <ele>49.8</ele>
        <time>2019-02-17T09:02:19Z</time>
      </trkpt>
      <trkpt lat="50.45818" lon="1.60728">
        <ele>50</ele>
        <time>2019-02-17T09:02:23Z</time>
      </trkpt>
      <trkpt lat="50.45828" lon="1.60733">
        <ele>49.6</ele>
        <time>2019-02-17T09:02:27Z</time>
      </trkpt>
      <trkpt lat="50.45833" lon="1.60734">
        <ele>50.6</ele>
        <time>2019-02-17T09:02:31Z</time>
      </trkpt>
      <trkpt lat="50.45837" lon="1.60741">
        <ele>50.8</ele>
        <time>2019-02-17T09:02:35Z</time>
      </trkpt>
      <trkpt lat="50.45849" lon="1.60754">
        <ele>50</ele>
        <time>2019-02-17T09:02:39Z</time>
      </trkpt>
      <trkpt lat="50.45857" lon="1.60766">
        <ele>48.6</ele>
        <time>2019-02-17T09:02:43Z</time>
      </trkpt>
      <trkpt lat="50.45862" lon="1.60779">
        <ele>48.4</ele>
        <time>2019-02-17T09:02:47Z</time>
      </trkpt>
      <trkpt lat="50.45866" lon="1.60793">
        <ele>48</ele>
        <time>2019-02-17T09:02:51Z</time>
      </trkpt>
      <trkpt lat="50.45876" lon="1.60798">
        <ele>48.6</ele>
        <time>2019-02-17T09:02:55Z</time>
      </trkpt>
      <trkpt lat="50.45886" lon="1.60794">
        <ele>49.4</ele>
        <time>2019-02-17T09:02:59Z</time>
      </trkpt>
      <trkpt lat="50.45895" lon="1.60795">
        <ele>50</ele>
        <time>2019-02-17T09:03:03Z</time>
      </trkpt>
      <trkpt lat="50.45906" lon="1.60795">
        <ele>50.2</ele>
        <time>2019-02-17T09:03:07Z</time>
      </trkpt>
      <trkpt lat="50.45919" lon="1.60796">
        <ele>50.2</ele>
        <time>2019-02-17T09:03:11Z</time>
      </trkpt>
      <trkpt lat="50.45928" lon="1.60802">
        <ele>51</ele>
        <time>2019-02-17T09:03:15Z</time>
      </trkpt>
      <trkpt lat="50.45938" lon="1.60809">
        <ele>52.6</ele>
        <time>2019-02-17T09:03:19Z</time>
      </trkpt>
      <trkpt lat="50.45947" lon="1.60822">
        <ele>52.4</ele>
        <time>2019-02-17T09:03:23Z</time>
      </trkpt>
      <trkpt lat="50.45962" lon="1.60837">
        <ele>52.4</ele>
        <time>2019-02-17T09:03:27Z</time>
      </trkpt>
      <trkpt lat="50.45977" lon="1.60848">
        <ele>52.4</ele>
        <time>2019-02-17T09:03:31Z</time>
      </trkpt>
      <trkpt lat="50.45991" lon="1.60859">
        <ele>51.8</ele>
        <time>2019-02-17T09:03:35Z</time>
      </trkpt>
      <trkpt lat="50.46008" lon="1.60864">
        <ele>51.4</ele>
        <time>2019-02-17T09:03:39Z</time>
      </trkpt>
      <trkpt lat="50.46015" lon="1.60864">
        <ele>51.6</ele>
        <time>2019-02-17T09:03:43Z</time>
      </trkpt>
      <trkpt lat="50.46016" lon="1.60857">
        <ele>53.6</ele>
        <time>2019-02-17T09:03:47Z</time>
      </trkpt>
      <trkpt lat="50.4602" lon="1.60852">
        <ele>54.4</ele>
        <time>2019-02-17T09:03:51Z</time>
      </trkpt>
      <trkpt lat="50.46022" lon="1.60849">
        <ele>55.4</ele>
        <time>2019-02-17T09:03:55Z</time>
      </trkpt>
      <trkpt lat="50.46025" lon="1.6085">
        <ele>57</ele>
        <time>2019-02-17T09:03:59Z</time>
      </trkpt>
      <trkpt lat="50.46028" lon="1.60853">
        <ele>58</ele>
        <time>2019-02-17T09:04:03Z</time>
      </trkpt>
      <trkpt lat="50.46033" lon="1.6086">
        <ele>58</ele>
        <time>2019-02-17T09:04:07Z</time>
      </trkpt>
      <trkpt lat="50.46042" lon="1.6086">
        <ele>57.8</ele>
        <time>2019-02-17T09:04:11Z</time>
      </trkpt>
      <trkpt lat="50.4605" lon="1.60862">
        <ele>59</ele>
        <time>2019-02-17T09:04:15Z</time>
      </trkpt>
      <trkpt lat="50.46061" lon="1.60864">
        <ele>60</ele>
        <time>2019-02-17T09:04:19Z</time>
      </trkpt>
      <trkpt lat="50.46072" lon="1.60861">
        <ele>60</ele>
        <time>2019-02-17T09:04:23Z</time>
      </trkpt>
      <trkpt lat="50.46072" lon="1.60861">
        <ele>60</ele>
        <time>2019-02-17T09:04:27Z</time>
      </trkpt>
      <trkpt lat="50.46072" lon="1.60861">
        <ele>60</ele>
        <time>2019-02-17T09:04:31Z</time>
      </trkpt>
      <trkpt lat="50.46084" lon="1.60874">
        <ele>59</ele>
        <time>2019-02-17T09:04:35Z</time>
      </trkpt>
      <trkpt lat="50.46089" lon="1.60884">
        <ele>57</ele>
        <time>2019-02-17T09:04:39Z</time>
      </trkpt>
      <trkpt lat="50.46094" lon="1.60903">
        <ele>49.6</ele>
        <time>2019-02-17T09:04:43Z</time>
      </trkpt>
      <trkpt lat="50.46108" lon="1.60912">
        <ele>48.6</ele>
        <time>2019-02-17T09:04:47Z</time>
      </trkpt>
      <trkpt lat="50.46124" lon="1.6092">
        <ele>48</ele>
        <time>2019-02-17T09:04:51Z</time>
      </trkpt>
      <trkpt lat="50.46136" lon="1.60919">
        <ele>48</ele>
        <time>2019-02-17T09:04:55Z</time>
      </trkpt>
      <trkpt lat="50.46145" lon="1.60917">
        <ele>49.2</ele>
        <time>2019-02-17T09:04:59Z</time>
      </trkpt>
      <trkpt lat="50.46148" lon="1.60925">
        <ele>48</ele>
        <time>2019-02-17T09:05:03Z</time>
      </trkpt>
      <trkpt lat="50.46166" lon="1.60929">
        <ele>47.6</ele>
        <time>2019-02-17T09:05:07Z</time>
      </trkpt>
      <trkpt lat="50.46187" lon="1.60928">
        <ele>48</ele>
        <time>2019-02-17T09:05:11Z</time>
      </trkpt>
      <trkpt lat="50.46204" lon="1.60929">
        <ele>47.6</ele>
        <time>2019-02-17T09:05:15Z</time>
      </trkpt>
      <trkpt lat="50.46227" lon="1.60931">
        <ele>47.8</ele>
        <time>2019-02-17T09:05:19Z</time>
      </trkpt>
      <trkpt lat="50.46246" lon="1.60928">
        <ele>48</ele>
        <time>2019-02-17T09:05:23Z</time>
      </trkpt>
      <trkpt lat="50.46262" lon="1.60934">
        <ele>47.6</ele>
        <time>2019-02-17T09:05:27Z</time>
      </trkpt>
      <trkpt lat="50.46281" lon="1.6094">
        <ele>47.6</ele>
        <time>2019-02-17T09:05:31Z</time>
      </trkpt>
      <trkpt lat="50.46297" lon="1.60952">
        <ele>47.6</ele>
        <time>2019-02-17T09:05:35Z</time>
      </trkpt>
      <trkpt lat="50.46315" lon="1.6097">
        <ele>47.4</ele>
        <time>2019-02-17T09:05:39Z</time>
      </trkpt>
      <trkpt lat="50.46331" lon="1.60973">
        <ele>47.6</ele>
        <time>2019-02-17T09:05:43Z</time>
      </trkpt>
      <trkpt lat="50.46343" lon="1.60981">
        <ele>47.6</ele>
        <time>2019-02-17T09:05:47Z</time>
      </trkpt>
      <trkpt lat="50.46356" lon="1.60994">
        <ele>47.4</ele>
        <time>2019-02-17T09:05:51Z</time>
      </trkpt>
      <trkpt lat="50.4637" lon="1.6101">
        <ele>47.6</ele>
        <time>2019-02-17T09:05:55Z</time>
      </trkpt>
      <trkpt lat="50.46384" lon="1.61021">
        <ele>47.8</ele>
        <time>2019-02-17T09:05:59Z</time>
      </trkpt>
      <trkpt lat="50.46396" lon="1.61034">
        <ele>47.8</ele>
        <time>2019-02-17T09:06:03Z</time>
      </trkpt>
      <trkpt lat="50.4641" lon="1.61052">
        <ele>48.2</ele>
        <time>2019-02-17T09:06:07Z</time>
      </trkpt>
      <trkpt lat="50.46423" lon="1.61069">
        <ele>48.8</ele>
        <time>2019-02-17T09:06:11Z</time>
      </trkpt>
      <trkpt lat="50.46437" lon="1.61081">
        <ele>48.6</ele>
        <time>2019-02-17T09:06:15Z</time>
      </trkpt>
      <trkpt lat="50.4645" lon="1.6109">
        <ele>49.2</ele>
        <time>2019-02-17T09:06:19Z</time>
      </trkpt>
      <trkpt lat="50.46465" lon="1.61101">
        <ele>49.4</ele>
        <time>2019-02-17T09:06:23Z</time>
      </trkpt>
      <trkpt lat="50.46479" lon="1.61116">
        <ele>49.4</ele>
        <time>2019-02-17T09:06:27Z</time>
      </trkpt>
      <trkpt lat="50.46493" lon="1.61131">
        <ele>48.8</ele>
        <time>2019-02-17T09:06:31Z</time>
      </trkpt>
      <trkpt lat="50.46508" lon="1.61137">
        <ele>50</ele>
        <time>2019-02-17T09:06:35Z</time>
      </trkpt>
      <trkpt lat="50.46515" lon="1.61137">
        <ele>51</ele>
        <time>2019-02-17T09:06:39Z</time>
      </trkpt>
      <trkpt lat="50.46523" lon="1.61137">
        <ele>51.4</ele>
        <time>2019-02-17T09:06:43Z</time>
      </trkpt>
      <trkpt lat="50.46531" lon="1.61146">
        <ele>50.8</ele>
        <time>2019-02-17T09:06:47Z</time>
      </trkpt>
      <trkpt lat="50.46544" lon="1.6117">
        <ele>49.2</ele>
        <time>2019-02-17T09:06:51Z</time>
      </trkpt>
      <trkpt lat="50.46562" lon="1.61176">
        <ele>48.6</ele>
        <time>2019-02-17T09:06:55Z</time>
      </trkpt>
      <trkpt lat="50.46581" lon="1.61168">
        <ele>47.8</ele>
        <time>2019-02-17T09:06:59Z</time>
      </trkpt>
      <trkpt lat="50.466" lon="1.61166">
        <ele>47.6</ele>
        <time>2019-02-17T09:07:03Z</time>
      </trkpt>
      <trkpt lat="50.46616" lon="1.61171">
        <ele>47.6</ele>
        <time>2019-02-17T09:07:07Z</time>
      </trkpt>
      <trkpt lat="50.46629" lon="1.61172">
        <ele>48.8</ele>
        <time>2019-02-17T09:07:11Z</time>
      </trkpt>
      <trkpt lat="50.46642" lon="1.61172">
        <ele>48.4</ele>
        <time>2019-02-17T09:07:15Z</time>
      </trkpt>
      <trkpt lat="50.46657" lon="1.61171">
        <ele>48.6</ele>
        <time>2019-02-17T09:07:19Z</time>
      </trkpt>
      <trkpt lat="50.46671" lon="1.61168">
        <ele>48.8</ele>
        <time>2019-02-17T09:07:23Z</time>
      </trkpt>
      <trkpt lat="50.46685" lon="1.61164">
        <ele>48.6</ele>
        <time>2019-02-17T09:07:27Z</time>
      </trkpt>
      <trkpt lat="50.467" lon="1.6116">
        <ele>48.2</ele>
        <time>2019-02-17T09:07:31Z</time>
      </trkpt>
      <trkpt lat="50.46716" lon="1.61156">
        <ele>48.6</ele>
        <time>2019-02-17T09:07:35Z</time>
      </trkpt>
      <trkpt lat="50.46733" lon="1.61153">
        <ele>48</ele>
        <time>2019-02-17T09:07:39Z</time>
      </trkpt>
      <trkpt lat="50.4675" lon="1.61147">
        <ele>48.4</ele>
        <time>2019-02-17T09:07:43Z</time>
      </trkpt>
      <trkpt lat="50.46767" lon="1.61146">
        <ele>48.2</ele>
        <time>2019-02-17T09:07:47Z</time>
      </trkpt>
      <trkpt lat="50.46785" lon="1.61145">
        <ele>48.2</ele>
        <time>2019-02-17T09:07:51Z</time>
      </trkpt>
      <trkpt lat="50.46803" lon="1.61147">
        <ele>48.2</ele>
        <time>2019-02-17T09:07:55Z</time>
      </trkpt>
      <trkpt lat="50.46821" lon="1.61148">
        <ele>48.6</ele>
        <time>2019-02-17T09:07:59Z</time>
      </trkpt>
      <trkpt lat="50.46838" lon="1.61153">
        <ele>48.8</ele>
        <time>2019-02-17T09:08:03Z</time>
      </trkpt>
      <trkpt lat="50.46854" lon="1.6116">
        <ele>48.8</ele>
        <time>2019-02-17T09:08:07Z</time>
      </trkpt>
      <trkpt lat="50.4687" lon="1.61169">
        <ele>48.4</ele>
        <time>2019-02-17T09:08:11Z</time>
      </trkpt>
      <trkpt lat="50.46886" lon="1.61177">
        <ele>48.6</ele>
        <time>2019-02-17T09:08:15Z</time>
      </trkpt>
      <trkpt lat="50.46903" lon="1.61183">
        <ele>48.4</ele>
        <time>2019-02-17T09:08:19Z</time>
      </trkpt>
      <trkpt lat="50.46917" lon="1.61191">
        <ele>48.2</ele>
        <time>2019-02-17T09:08:23Z</time>
      </trkpt>
      <trkpt lat="50.46932" lon="1.61195">
        <ele>48.8</ele>
        <time>2019-02-17T09:08:27Z</time>
      </trkpt>
      <trkpt lat="50.46943" lon="1.61202">
        <ele>48</ele>
        <time>2019-02-17T09:08:31Z</time>
      </trkpt>
      <trkpt lat="50.46943" lon="1.61202">
        <ele>48</ele>
        <time>2019-02-17T09:08:35Z</time>
      </trkpt>
      <trkpt lat="50.46948" lon="1.61206">
        <ele>48.2</ele>
        <time>2019-02-17T09:08:39Z</time>
      </trkpt>
      <trkpt lat="50.46951" lon="1.61211">
        <ele>48.6</ele>
        <time>2019-02-17T09:08:43Z</time>
      </trkpt>
      <trkpt lat="50.46953" lon="1.61216">
        <ele>48.8</ele>
        <time>2019-02-17T09:08:47Z</time>
      </trkpt>
      <trkpt lat="50.46954" lon="1.61223">
        <ele>48.4</ele>
        <time>2019-02-17T09:08:51Z</time>
      </trkpt>
      <trkpt lat="50.46951" lon="1.61229">
        <ele>48.6</ele>
        <time>2019-02-17T09:08:55Z</time>
      </trkpt>
      <trkpt lat="50.46947" lon="1.61231">
        <ele>48.4</ele>
        <time>2019-02-17T09:08:59Z</time>
      </trkpt>
      <trkpt lat="50.46942" lon="1.61233">
        <ele>49.2</ele>
        <time>2019-02-17T09:09:03Z</time>
      </trkpt>
      <trkpt lat="50.46941" lon="1.61238">
        <ele>49.6</ele>
        <time>2019-02-17T09:09:07Z</time>
      </trkpt>
      <trkpt lat="50.46941" lon="1.61244">
        <ele>49.6</ele>
        <time>2019-02-17T09:09:11Z</time>
      </trkpt>
      <trkpt lat="50.46939" lon="1.6126">
        <ele>48.8</ele>
        <time>2019-02-17T09:09:15Z</time>
      </trkpt>
      <trkpt lat="50.46936" lon="1.61276">
        <ele>49.2</ele>
        <time>2019-02-17T09:09:19Z</time>
      </trkpt>
      <trkpt lat="50.46933" lon="1.61287">
        <ele>49.4</ele>
        <time>2019-02-17T09:09:23Z</time>
      </trkpt>
      <trkpt lat="50.46931" lon="1.61306">
        <ele>47.6</ele>
        <time>2019-02-17T09:09:27Z</time>
      </trkpt>
      <trkpt lat="50.46938" lon="1.61314">
        <ele>48.6</ele>
        <time>2019-02-17T09:09:31Z</time>
      </trkpt>
      <trkpt lat="50.46945" lon="1.61326">
        <ele>49.4</ele>
        <time>2019-02-17T09:09:35Z</time>
      </trkpt>
      <trkpt lat="50.46945" lon="1.6134">
        <ele>48.8</ele>
        <time>2019-02-17T09:09:39Z</time>
      </trkpt>
      <trkpt lat="50.46957" lon="1.61358">
        <ele>48.2</ele>
        <time>2019-02-17T09:09:43Z</time>
      </trkpt>
      <trkpt lat="50.46962" lon="1.6137">
        <ele>49.2</ele>
        <time>2019-02-17T09:09:47Z</time>
      </trkpt>
      <trkpt lat="50.46973" lon="1.6138">
        <ele>49</ele>
        <time>2019-02-17T09:09:51Z</time>
      </trkpt>
      <trkpt lat="50.46977" lon="1.6139">
        <ele>49.6</ele>
        <time>2019-02-17T09:09:55Z</time>
      </trkpt>
      <trkpt lat="50.46995" lon="1.61412">
        <ele>48.8</ele>
        <time>2019-02-17T09:09:59Z</time>
      </trkpt>
      <trkpt lat="50.47" lon="1.6143">
        <ele>49.6</ele>
        <time>2019-02-17T09:10:03Z</time>
      </trkpt>
      <trkpt lat="50.47002" lon="1.6145">
        <ele>49.6</ele>
        <time>2019-02-17T09:10:07Z</time>
      </trkpt>
      <trkpt lat="50.47006" lon="1.6146">
        <ele>50.4</ele>
        <time>2019-02-17T09:10:11Z</time>
      </trkpt>
      <trkpt lat="50.47014" lon="1.61478">
        <ele>50.4</ele>
        <time>2019-02-17T09:10:15Z</time>
      </trkpt>
      <trkpt lat="50.47022" lon="1.61491">
        <ele>50.4</ele>
        <time>2019-02-17T09:10:19Z</time>
      </trkpt>
      <trkpt lat="50.4703" lon="1.61496">
        <ele>50.8</ele>
        <time>2019-02-17T09:10:23Z</time>
      </trkpt>
      <trkpt lat="50.47039" lon="1.6149">
        <ele>49</ele>
        <time>2019-02-17T09:10:27Z</time>
      </trkpt>
      <trkpt lat="50.4705" lon="1.61479">
        <ele>48.8</ele>
        <time>2019-02-17T09:10:31Z</time>
      </trkpt>
      <trkpt lat="50.47062" lon="1.61468">
        <ele>48.8</ele>
        <time>2019-02-17T09:10:35Z</time>
      </trkpt>
      <trkpt lat="50.47075" lon="1.61459">
        <ele>50.4</ele>
        <time>2019-02-17T09:10:39Z</time>
      </trkpt>
      <trkpt lat="50.47081" lon="1.61452">
        <ele>51.2</ele>
        <time>2019-02-17T09:10:43Z</time>
      </trkpt>
      <trkpt lat="50.47086" lon="1.61441">
        <ele>51.4</ele>
        <time>2019-02-17T09:10:47Z</time>
      </trkpt>
      <trkpt lat="50.47087" lon="1.61431">
        <ele>52</ele>
        <time>2019-02-17T09:10:51Z</time>
      </trkpt>
      <trkpt lat="50.4709" lon="1.61421">
        <ele>50.6</ele>
        <time>2019-02-17T09:10:55Z</time>
      </trkpt>
      <trkpt lat="50.4709" lon="1.61421">
        <ele>50.6</ele>
        <time>2019-02-17T09:10:59Z</time>
      </trkpt>
      <trkpt lat="50.4709" lon="1.61417">
        <ele>50.6</ele>
        <time>2019-02-17T09:11:03Z</time>
      </trkpt>
      <trkpt lat="50.47091" lon="1.61408">
        <ele>50.4</ele>
        <time>2019-02-17T09:11:07Z</time>
      </trkpt>
      <trkpt lat="50.47098" lon="1.61387">
        <ele>50.6</ele>
        <time>2019-02-17T09:11:11Z</time>
      </trkpt>
      <trkpt lat="50.47108" lon="1.61365">
        <ele>50.2</ele>
        <time>2019-02-17T09:11:15Z</time>
      </trkpt>
      <trkpt lat="50.47115" lon="1.61351">
        <ele>50.4</ele>
        <time>2019-02-17T09:11:19Z</time>
      </trkpt>
      <trkpt lat="50.47129" lon="1.61336">
        <ele>49.8</ele>
        <time>2019-02-17T09:11:23Z</time>
      </trkpt>
      <trkpt lat="50.4714" lon="1.61346">
        <ele>48.8</ele>
        <time>2019-02-17T09:11:27Z</time>
      </trkpt>
      <trkpt lat="50.47153" lon="1.61356">
        <ele>49.4</ele>
        <time>2019-02-17T09:11:31Z</time>
      </trkpt>
      <trkpt lat="50.47166" lon="1.6135">
        <ele>48.6</ele>
        <time>2019-02-17T09:11:35Z</time>
      </trkpt>
      <trkpt lat="50.47164" lon="1.61342">
        <ele>48.6</ele>
        <time>2019-02-17T09:11:39Z</time>
      </trkpt>
      <trkpt lat="50.47162" lon="1.61332">
        <ele>49.4</ele>
        <time>2019-02-17T09:11:43Z</time>
      </trkpt>
      <trkpt lat="50.47162" lon="1.61332">
        <ele>49.4</ele>
        <time>2019-02-17T09:11:47Z</time>
      </trkpt>
      <trkpt lat="50.47159" lon="1.61326">
        <ele>52</ele>
        <time>2019-02-17T09:11:51Z</time>
      </trkpt>
      <trkpt lat="50.47159" lon="1.61323">
        <ele>52</ele>
        <time>2019-02-17T09:11:55Z</time>
      </trkpt>
      <trkpt lat="50.47158" lon="1.61316">
        <ele>51.4</ele>
        <time>2019-02-17T09:11:59Z</time>
      </trkpt>
      <trkpt lat="50.47154" lon="1.613">
        <ele>50.4</ele>
        <time>2019-02-17T09:12:03Z</time>
      </trkpt>
      <trkpt lat="50.47146" lon="1.61283">
        <ele>49</ele>
        <time>2019-02-17T09:12:07Z</time>
      </trkpt>
      <trkpt lat="50.47144" lon="1.61256">
        <ele>49.4</ele>
        <time>2019-02-17T09:12:11Z</time>
      </trkpt>
      <trkpt lat="50.47147" lon="1.61248">
        <ele>49.4</ele>
        <time>2019-02-17T09:12:15Z</time>
      </trkpt>
      <trkpt lat="50.47148" lon="1.61243">
        <ele>50.4</ele>
        <time>2019-02-17T09:12:19Z</time>
      </trkpt>
      <trkpt lat="50.47149" lon="1.61238">
        <ele>51</ele>
        <time>2019-02-17T09:12:23Z</time>
      </trkpt>
      <trkpt lat="50.47149" lon="1.61238">
        <ele>51</ele>
        <time>2019-02-17T09:12:27Z</time>
      </trkpt>
      <trkpt lat="50.47149" lon="1.61238">
        <ele>51</ele>
        <time>2019-02-17T09:12:31Z</time>
      </trkpt>
      <trkpt lat="50.47152" lon="1.61233">
        <ele>51.6</ele>
        <time>2019-02-17T09:12:35Z</time>
      </trkpt>
      <trkpt lat="50.47152" lon="1.61233">
        <ele>51.6</ele>
        <time>2019-02-17T09:12:39Z</time>
      </trkpt>
      <trkpt lat="50.47155" lon="1.61228">
        <ele>53</ele>
        <time>2019-02-17T09:12:43Z</time>
      </trkpt>
      <trkpt lat="50.47161" lon="1.61227">
        <ele>53.4</ele>
        <time>2019-02-17T09:12:47Z</time>
      </trkpt>
      <trkpt lat="50.47164" lon="1.61221">
        <ele>52.4</ele>
        <time>2019-02-17T09:12:51Z</time>
      </trkpt>
      <trkpt lat="50.47171" lon="1.61206">
        <ele>51.6</ele>
        <time>2019-02-17T09:12:55Z</time>
      </trkpt>
      <trkpt lat="50.47181" lon="1.61196">
        <ele>52.2</ele>
        <time>2019-02-17T09:12:59Z</time>
      </trkpt>
      <trkpt lat="50.47197" lon="1.61192">
        <ele>51.4</ele>
        <time>2019-02-17T09:13:03Z</time>
      </trkpt>
      <trkpt lat="50.47207" lon="1.61182">
        <ele>52.6</ele>
        <time>2019-02-17T09:13:07Z</time>
      </trkpt>
      <trkpt lat="50.47209" lon="1.61172">
        <ele>53.2</ele>
        <time>2019-02-17T09:13:11Z</time>
      </trkpt>
      <trkpt lat="50.47208" lon="1.6116">
        <ele>52.6</ele>
        <time>2019-02-17T09:13:15Z</time>
      </trkpt>
      <trkpt lat="50.47215" lon="1.61144">
        <ele>52</ele>
        <time>2019-02-17T09:13:19Z</time>
      </trkpt>
      <trkpt lat="50.47219" lon="1.61129">
        <ele>50.8</ele>
        <time>2019-02-17T09:13:23Z</time>
      </trkpt>
      <trkpt lat="50.47222" lon="1.61104">
        <ele>50.4</ele>
        <time>2019-02-17T09:13:27Z</time>
      </trkpt>
      <trkpt lat="50.47233" lon="1.61089">
        <ele>50</ele>
        <time>2019-02-17T09:13:31Z</time>
      </trkpt>
      <trkpt lat="50.47247" lon="1.61075">
        <ele>49.6</ele>
        <time>2019-02-17T09:13:35Z</time>
      </trkpt>
      <trkpt lat="50.47255" lon="1.61065">
        <ele>50</ele>
        <time>2019-02-17T09:13:39Z</time>
      </trkpt>
      <trkpt lat="50.47258" lon="1.61058">
        <ele>49.8</ele>
        <time>2019-02-17T09:13:43Z</time>
      </trkpt>
      <trkpt lat="50.4726" lon="1.61046">
        <ele>49.6</ele>
        <time>2019-02-17T09:13:47Z</time>
      </trkpt>
      <trkpt lat="50.47265" lon="1.61032">
        <ele>48.8</ele>
        <time>2019-02-17T09:13:51Z</time>
      </trkpt>
      <trkpt lat="50.47273" lon="1.61026">
        <ele>49.6</ele>
        <time>2019-02-17T09:13:55Z</time>
      </trkpt>
      <trkpt lat="50.47276" lon="1.61024">
        <ele>50.4</ele>
        <time>2019-02-17T09:13:59Z</time>
      </trkpt>
      <trkpt lat="50.47279" lon="1.61022">
        <ele>51.4</ele>
        <time>2019-02-17T09:14:03Z</time>
      </trkpt>
      <trkpt lat="50.47283" lon="1.6102">
        <ele>51.6</ele>
        <time>2019-02-17T09:14:07Z</time>
      </trkpt>
      <trkpt lat="50.47283" lon="1.6102">
        <ele>51.6</ele>
        <time>2019-02-17T09:14:11Z</time>
      </trkpt>
      <trkpt lat="50.47283" lon="1.6102">
        <ele>51.6</ele>
        <time>2019-02-17T09:14:15Z</time>
      </trkpt>
      <trkpt lat="50.47285" lon="1.61021">
        <ele>52.4</ele>
        <time>2019-02-17T09:14:19Z</time>
      </trkpt>
      <trkpt lat="50.47286" lon="1.61023">
        <ele>52</ele>
        <time>2019-02-17T09:14:23Z</time>
      </trkpt>
      <trkpt lat="50.47291" lon="1.61026">
        <ele>51.8</ele>
        <time>2019-02-17T09:14:27Z</time>
      </trkpt>
      <trkpt lat="50.47303" lon="1.6102">
        <ele>49.4</ele>
        <time>2019-02-17T09:14:31Z</time>
      </trkpt>
      <trkpt lat="50.47319" lon="1.61008">
        <ele>49.2</ele>
        <time>2019-02-17T09:14:35Z</time>
      </trkpt>
      <trkpt lat="50.47326" lon="1.61014">
        <ele>48.8</ele>
        <time>2019-02-17T09:14:39Z</time>
      </trkpt>
      <trkpt lat="50.47336" lon="1.6102">
        <ele>48.8</ele>
        <time>2019-02-17T09:14:43Z</time>
      </trkpt>
      <trkpt lat="50.4735" lon="1.6102">
        <ele>49</ele>
        <time>2019-02-17T09:14:47Z</time>
      </trkpt>
      <trkpt lat="50.47363" lon="1.61023">
        <ele>49.6</ele>
        <time>2019-02-17T09:14:51Z</time>
      </trkpt>
      <trkpt lat="50.47376" lon="1.61037">
        <ele>48.6</ele>
        <time>2019-02-17T09:14:55Z</time>
      </trkpt>
      <trkpt lat="50.47398" lon="1.61044">
        <ele>48.6</ele>
        <time>2019-02-17T09:14:59Z</time>
      </trkpt>
      <trkpt lat="50.47411" lon="1.61044">
        <ele>49</ele>
        <time>2019-02-17T09:15:03Z</time>
      </trkpt>
      <trkpt lat="50.4742" lon="1.61054">
        <ele>48.6</ele>
        <time>2019-02-17T09:15:07Z</time>
      </trkpt>
      <trkpt lat="50.4743" lon="1.61057">
        <ele>48.2</ele>
        <time>2019-02-17T09:15:11Z</time>
      </trkpt>
      <trkpt lat="50.47441" lon="1.61061">
        <ele>48.2</ele>
        <time>2019-02-17T09:15:15Z</time>
      </trkpt>
      <trkpt lat="50.4745" lon="1.61062">
        <ele>48.4</ele>
        <time>2019-02-17T09:15:19Z</time>
      </trkpt>
      <trkpt lat="50.47458" lon="1.61063">
        <ele>48.8</ele>
        <time>2019-02-17T09:15:23Z</time>
      </trkpt>
      <trkpt lat="50.47463" lon="1.61067">
        <ele>49</ele>
        <time>2019-02-17T09:15:27Z</time>
      </trkpt>
      <trkpt lat="50.47478" lon="1.61079">
        <ele>49.4</ele>
        <time>2019-02-17T09:15:31Z</time>
      </trkpt>
      <trkpt lat="50.47494" lon="1.61099">
        <ele>49.6</ele>
        <time>2019-02-17T09:15:35Z</time>
      </trkpt>
      <trkpt lat="50.47508" lon="1.61118">
        <ele>48.6</ele>
        <time>2019-02-17T09:15:39Z</time>
      </trkpt>
      <trkpt lat="50.47524" lon="1.61135">
        <ele>48.2</ele>
        <time>2019-02-17T09:15:43Z</time>
      </trkpt>
      <trkpt lat="50.47545" lon="1.61151">
        <ele>48</ele>
        <time>2019-02-17T09:15:47Z</time>
      </trkpt>
      <trkpt lat="50.47565" lon="1.61178">
        <ele>47.2</ele>
        <time>2019-02-17T09:15:51Z</time>
      </trkpt>
      <trkpt lat="50.47579" lon="1.61199">
        <ele>46.4</ele>
        <time>2019-02-17T09:15:55Z</time>
      </trkpt>
      <trkpt lat="50.47602" lon="1.61209">
        <ele>46.2</ele>
        <time>2019-02-17T09:15:59Z</time>
      </trkpt>
      <trkpt lat="50.47611" lon="1.61204">
        <ele>46.2</ele>
        <time>2019-02-17T09:16:03Z</time>
      </trkpt>
      <trkpt lat="50.47627" lon="1.61195">
        <ele>46.8</ele>
        <time>2019-02-17T09:16:07Z</time>
      </trkpt>
      <trkpt lat="50.47644" lon="1.61183">
        <ele>47.2</ele>
        <time>2019-02-17T09:16:11Z</time>
      </trkpt>
      <trkpt lat="50.47662" lon="1.61174">
        <ele>47.2</ele>
        <time>2019-02-17T09:16:15Z</time>
      </trkpt>
      <trkpt lat="50.47683" lon="1.61168">
        <ele>47.2</ele>
        <time>2019-02-17T09:16:19Z</time>
      </trkpt>
      <trkpt lat="50.47703" lon="1.61164">
        <ele>47.6</ele>
        <time>2019-02-17T09:16:23Z</time>
      </trkpt>
      <trkpt lat="50.47722" lon="1.61159">
        <ele>46.8</ele>
        <time>2019-02-17T09:16:27Z</time>
      </trkpt>
      <trkpt lat="50.47741" lon="1.61153">
        <ele>47.2</ele>
        <time>2019-02-17T09:16:31Z</time>
      </trkpt>
      <trkpt lat="50.47761" lon="1.61144">
        <ele>46.2</ele>
        <time>2019-02-17T09:16:35Z</time>
      </trkpt>
      <trkpt lat="50.4778" lon="1.61131">
        <ele>46.2</ele>
        <time>2019-02-17T09:16:39Z</time>
      </trkpt>
      <trkpt lat="50.47798" lon="1.61118">
        <ele>46.2</ele>
        <time>2019-02-17T09:16:43Z</time>
      </trkpt>
      <trkpt lat="50.47812" lon="1.61109">
        <ele>45.8</ele>
        <time>2019-02-17T09:16:47Z</time>
      </trkpt>
      <trkpt lat="50.47823" lon="1.611">
        <ele>46.4</ele>
        <time>2019-02-17T09:16:51Z</time>
      </trkpt>
      <trkpt lat="50.47839" lon="1.61084">
        <ele>46</ele>
        <time>2019-02-17T09:16:55Z</time>
      </trkpt>
      <trkpt lat="50.47857" lon="1.61063">
        <ele>46.8</ele>
        <time>2019-02-17T09:16:59Z</time>
      </trkpt>
      <trkpt lat="50.47872" lon="1.61039">
        <ele>46.2</ele>
        <time>2019-02-17T09:17:03Z</time>
      </trkpt>
      <trkpt lat="50.4789" lon="1.61006">
        <ele>46.8</ele>
        <time>2019-02-17T09:17:07Z</time>
      </trkpt>
      <trkpt lat="50.47907" lon="1.60972">
        <ele>47.2</ele>
        <time>2019-02-17T09:17:11Z</time>
      </trkpt>
      <trkpt lat="50.47918" lon="1.60934">
        <ele>47</ele>
        <time>2019-02-17T09:17:15Z</time>
      </trkpt>
      <trkpt lat="50.47933" lon="1.60902">
        <ele>46.6</ele>
        <time>2019-02-17T09:17:19Z</time>
      </trkpt>
      <trkpt lat="50.47953" lon="1.60877">
        <ele>46.4</ele>
        <time>2019-02-17T09:17:23Z</time>
      </trkpt>
      <trkpt lat="50.47976" lon="1.60861">
        <ele>46</ele>
        <time>2019-02-17T09:17:27Z</time>
      </trkpt>
      <trkpt lat="50.48002" lon="1.60855">
        <ele>45.6</ele>
        <time>2019-02-17T09:17:31Z</time>
      </trkpt>
      <trkpt lat="50.48029" lon="1.6085">
        <ele>45</ele>
        <time>2019-02-17T09:17:35Z</time>
      </trkpt>
      <trkpt lat="50.48055" lon="1.60844">
        <ele>44.8</ele>
        <time>2019-02-17T09:17:39Z</time>
      </trkpt>
      <trkpt lat="50.4808" lon="1.60832">
        <ele>45</ele>
        <time>2019-02-17T09:17:43Z</time>
      </trkpt>
      <trkpt lat="50.481" lon="1.60812">
        <ele>44.6</ele>
        <time>2019-02-17T09:17:47Z</time>
      </trkpt>
      <trkpt lat="50.4812" lon="1.60792">
        <ele>44.4</ele>
        <time>2019-02-17T09:17:51Z</time>
      </trkpt>
      <trkpt lat="50.4814" lon="1.60778">
        <ele>45</ele>
        <time>2019-02-17T09:17:55Z</time>
      </trkpt>
      <trkpt lat="50.4816" lon="1.60767">
        <ele>45.2</ele>
        <time>2019-02-17T09:17:59Z</time>
      </trkpt>
      <trkpt lat="50.4818" lon="1.60765">
        <ele>45.4</ele>
        <time>2019-02-17T09:18:03Z</time>
      </trkpt>
      <trkpt lat="50.482" lon="1.60769">
        <ele>46</ele>
        <time>2019-02-17T09:18:07Z</time>
      </trkpt>
      <trkpt lat="50.48219" lon="1.60776">
        <ele>45.6</ele>
        <time>2019-02-17T09:18:11Z</time>
      </trkpt>
      <trkpt lat="50.48239" lon="1.60782">
        <ele>45.6</ele>
        <time>2019-02-17T09:18:15Z</time>
      </trkpt>
      <trkpt lat="50.48259" lon="1.60788">
        <ele>45.6</ele>
        <time>2019-02-17T09:18:19Z</time>
      </trkpt>
      <trkpt lat="50.48279" lon="1.60796">
        <ele>46</ele>
        <time>2019-02-17T09:18:23Z</time>
      </trkpt>
      <trkpt lat="50.48295" lon="1.60805">
        <ele>46</ele>
        <time>2019-02-17T09:18:27Z</time>
      </trkpt>
      <trkpt lat="50.48307" lon="1.60814">
        <ele>46.2</ele>
        <time>2019-02-17T09:18:31Z</time>
      </trkpt>
      <trkpt lat="50.48323" lon="1.60814">
        <ele>47</ele>
        <time>2019-02-17T09:18:35Z</time>
      </trkpt>
      <trkpt lat="50.48333" lon="1.60792">
        <ele>47</ele>
        <time>2019-02-17T09:18:39Z</time>
      </trkpt>
      <trkpt lat="50.48333" lon="1.6076">
        <ele>47.2</ele>
        <time>2019-02-17T09:18:43Z</time>
      </trkpt>
      <trkpt lat="50.48331" lon="1.60729">
        <ele>47</ele>
        <time>2019-02-17T09:18:47Z</time>
      </trkpt>
      <trkpt lat="50.48329" lon="1.60698">
        <ele>48</ele>
        <time>2019-02-17T09:18:51Z</time>
      </trkpt>
      <trkpt lat="50.48328" lon="1.60666">
        <ele>48.8</ele>
        <time>2019-02-17T09:18:55Z</time>
      </trkpt>
      <trkpt lat="50.48326" lon="1.60635">
        <ele>49</ele>
        <time>2019-02-17T09:18:59Z</time>
      </trkpt>
      <trkpt lat="50.48324" lon="1.60603">
        <ele>49</ele>
        <time>2019-02-17T09:19:03Z</time>
      </trkpt>
      <trkpt lat="50.48322" lon="1.60572">
        <ele>49.6</ele>
        <time>2019-02-17T09:19:07Z</time>
      </trkpt>
      <trkpt lat="50.48319" lon="1.60541">
        <ele>49.6</ele>
        <time>2019-02-17T09:19:11Z</time>
      </trkpt>
      <trkpt lat="50.48317" lon="1.6051">
        <ele>49.8</ele>
        <time>2019-02-17T09:19:15Z</time>
      </trkpt>
      <trkpt lat="50.48315" lon="1.6048">
        <ele>50</ele>
        <time>2019-02-17T09:19:19Z</time>
      </trkpt>
      <trkpt lat="50.4832" lon="1.60453">
        <ele>50.2</ele>
        <time>2019-02-17T09:19:23Z</time>
      </trkpt>
      <trkpt lat="50.48334" lon="1.60432">
        <ele>50.4</ele>
        <time>2019-02-17T09:19:27Z</time>
      </trkpt>
      <trkpt lat="50.48345" lon="1.60408">
        <ele>50.4</ele>
        <time>2019-02-17T09:19:31Z</time>
      </trkpt>
      <trkpt lat="50.48357" lon="1.60386">
        <ele>51</ele>
        <time>2019-02-17T09:19:35Z</time>
      </trkpt>
      <trkpt lat="50.48369" lon="1.60363">
        <ele>51.2</ele>
        <time>2019-02-17T09:19:39Z</time>
      </trkpt>
      <trkpt lat="50.48379" lon="1.60342">
        <ele>50.6</ele>
        <time>2019-02-17T09:19:43Z</time>
      </trkpt>
      <trkpt lat="50.48391" lon="1.60322">
        <ele>51.4</ele>
        <time>2019-02-17T09:19:47Z</time>
      </trkpt>
      <trkpt lat="50.48401" lon="1.603">
        <ele>51.4</ele>
        <time>2019-02-17T09:19:51Z</time>
      </trkpt>
      <trkpt lat="50.48409" lon="1.60282">
        <ele>51.4</ele>
        <time>2019-02-17T09:19:55Z</time>
      </trkpt>
      <trkpt lat="50.48419" lon="1.60269">
        <ele>50.6</ele>
        <time>2019-02-17T09:19:59Z</time>
      </trkpt>
      <trkpt lat="50.48421" lon="1.60262">
        <ele>50</ele>
        <time>2019-02-17T09:20:03Z</time>
      </trkpt>
      <trkpt lat="50.48424" lon="1.60259">
        <ele>50.2</ele>
        <time>2019-02-17T09:20:07Z</time>
      </trkpt>
      <trkpt lat="50.48433" lon="1.60255">
        <ele>50.2</ele>
        <time>2019-02-17T09:20:11Z</time>
      </trkpt>
      <trkpt lat="50.48436" lon="1.60255">
        <ele>50.4</ele>
        <time>2019-02-17T09:20:15Z</time>
      </trkpt>
      <trkpt lat="50.48436" lon="1.60255">
        <ele>50.4</ele>
        <time>2019-02-17T09:20:19Z</time>
      </trkpt>
      <trkpt lat="50.48436" lon="1.60255">
        <ele>50.4</ele>
        <time>2019-02-17T09:20:23Z</time>
      </trkpt>
      <trkpt lat="50.48436" lon="1.60255">
        <ele>50.4</ele>
        <time>2019-02-17T09:20:27Z</time>
      </trkpt>
      <trkpt lat="50.48436" lon="1.60255">
        <ele>50.4</ele>
        <time>2019-02-17T09:20:31Z</time>
      </trkpt>
      <trkpt lat="50.48436" lon="1.60255">
        <ele>50.4</ele>
        <time>2019-02-17T09:20:35Z</time>
      </trkpt>
      <trkpt lat="50.48436" lon="1.60255">
        <ele>50.4</ele>
        <time>2019-02-17T09:20:39Z</time>
      </trkpt>
      <trkpt lat="50.48436" lon="1.60255">
        <ele>50.4</ele>
        <time>2019-02-17T09:20:43Z</time>
      </trkpt>
      <trkpt lat="50.48436" lon="1.60255">
        <ele>50.4</ele>
        <time>2019-02-17T09:20:47Z</time>
      </trkpt>
      <trkpt lat="50.48436" lon="1.60255">
        <ele>50.4</ele>
        <time>2019-02-17T09:20:51Z</time>
      </trkpt>
      <trkpt lat="50.48436" lon="1.60255">
        <ele>50.4</ele>
        <time>2019-02-17T09:20:55Z</time>
      </trkpt>
      <trkpt lat="50.48436" lon="1.60255">
        <ele>50.4</ele>
        <time>2019-02-17T09:20:59Z</time>
      </trkpt>
      <trkpt lat="50.48436" lon="1.60255">
        <ele>50.4</ele>
        <time>2019-02-17T09:21:03Z</time>
      </trkpt>
      <trkpt lat="50.48436" lon="1.60255">
        <ele>50.4</ele>
        <time>2019-02-17T09:21:07Z</time>
      </trkpt>
      <trkpt lat="50.48436" lon="1.60255">
        <ele>50.4</ele>
        <time>2019-02-17T09:21:11Z</time>
      </trkpt>
      <trkpt lat="50.48436" lon="1.60255">
        <ele>50.4</ele>
        <time>2019-02-17T09:21:15Z</time>
      </trkpt>
      <trkpt lat="50.48436" lon="1.60255">
        <ele>50.4</ele>
        <time>2019-02-17T09:21:19Z</time>
      </trkpt>
      <trkpt lat="50.48436" lon="1.60255">
        <ele>50.4</ele>
        <time>2019-02-17T09:21:23Z</time>
      </trkpt>
      <trkpt lat="50.48436" lon="1.60255">
        <ele>50.4</ele>
        <time>2019-02-17T09:21:27Z</time>
      </trkpt>
      <trkpt lat="50.48436" lon="1.60255">
        <ele>50.4</ele>
        <time>2019-02-17T09:21:31Z</time>
      </trkpt>
      <trkpt lat="50.48436" lon="1.60255">
        <ele>50.4</ele>
        <time>2019-02-17T09:21:35Z</time>
      </trkpt>
      <trkpt lat="50.48436" lon="1.60255">
        <ele>50.4</ele>
        <time>2019-02-17T09:21:39Z</time>
      </trkpt>
      <trkpt lat="50.48436" lon="1.60255">
        <ele>50.4</ele>
        <time>2019-02-17T09:21:43Z</time>
      </trkpt>
      <trkpt lat="50.48436" lon="1.60255">
        <ele>50.4</ele>
        <time>2019-02-17T09:21:47Z</time>
      </trkpt>
      <trkpt lat="50.48436" lon="1.60255">
        <ele>50.4</ele>
        <time>2019-02-17T09:21:51Z</time>
      </trkpt>
      <trkpt lat="50.48436" lon="1.60255">
        <ele>50.4</ele>
        <time>2019-02-17T09:21:55Z</time>
      </trkpt>
      <trkpt lat="50.48436" lon="1.60255">
        <ele>50.4</ele>
        <time>2019-02-17T09:21:59Z</time>
      </trkpt>
      <trkpt lat="50.48436" lon="1.60255">
        <ele>50.4</ele>
        <time>2019-02-17T09:22:03Z</time>
      </trkpt>
      <trkpt lat="50.48436" lon="1.60255">
        <ele>50.4</ele>
        <time>2019-02-17T09:22:07Z</time>
      </trkpt>
      <trkpt lat="50.48436" lon="1.60255">
        <ele>50.4</ele>
        <time>2019-02-17T09:22:11Z</time>
      </trkpt>
      <trkpt lat="50.48436" lon="1.60255">
        <ele>50.4</ele>
        <time>2019-02-17T09:22:15Z</time>
      </trkpt>
      <trkpt lat="50.48436" lon="1.60255">
        <ele>50.4</ele>
        <time>2019-02-17T09:22:19Z</time>
      </trkpt>
      <trkpt lat="50.48436" lon="1.60255">
        <ele>50.4</ele>
        <time>2019-02-17T09:22:23Z</time>
      </trkpt>
      <trkpt lat="50.48436" lon="1.60255">
        <ele>50.4</ele>
        <time>2019-02-17T09:22:27Z</time>
      </trkpt>
      <trkpt lat="50.48436" lon="1.60255">
        <ele>50.4</ele>
        <time>2019-02-17T09:22:31Z</time>
      </trkpt>
      <trkpt lat="50.48436" lon="1.60255">
        <ele>50.4</ele>
        <time>2019-02-17T09:22:35Z</time>
      </trkpt>
      <trkpt lat="50.48436" lon="1.60255">
        <ele>50.4</ele>
        <time>2019-02-17T09:22:39Z</time>
      </trkpt>
      <trkpt lat="50.48436" lon="1.60255">
        <ele>50.4</ele>
        <time>2019-02-17T09:22:43Z</time>
      </trkpt>
      <trkpt lat="50.48436" lon="1.60255">
        <ele>50.4</ele>
        <time>2019-02-17T09:22:47Z</time>
      </trkpt>
      <trkpt lat="50.48436" lon="1.60255">
        <ele>50.4</ele>
        <time>2019-02-17T09:22:51Z</time>
      </trkpt>
      <trkpt lat="50.48436" lon="1.60255">
        <ele>50.4</ele>
        <time>2019-02-17T09:22:55Z</time>
      </trkpt>
      <trkpt lat="50.48436" lon="1.60255">
        <ele>50.4</ele>
        <time>2019-02-17T09:22:59Z</time>
      </trkpt>
      <trkpt lat="50.48436" lon="1.60255">
        <ele>50.4</ele>
        <time>2019-02-17T09:23:03Z</time>
      </trkpt>
      <trkpt lat="50.48436" lon="1.60255">
        <ele>50.4</ele>
        <time>2019-02-17T09:23:07Z</time>
      </trkpt>
      <trkpt lat="50.48436" lon="1.60255">
        <ele>50.4</ele>
        <time>2019-02-17T09:23:11Z</time>
      </trkpt>
      <trkpt lat="50.48436" lon="1.60255">
        <ele>50.4</ele>
        <time>2019-02-17T09:23:15Z</time>
      </trkpt>
      <trkpt lat="50.48436" lon="1.60255">
        <ele>50.4</ele>
        <time>2019-02-17T09:23:19Z</time>
      </trkpt>
      <trkpt lat="50.48436" lon="1.60255">
        <ele>50.4</ele>
        <time>2019-02-17T09:23:23Z</time>
      </trkpt>
      <trkpt lat="50.48436" lon="1.60255">
        <ele>50.4</ele>
        <time>2019-02-17T09:23:27Z</time>
      </trkpt>
      <trkpt lat="50.48436" lon="1.60255">
        <ele>50.4</ele>
        <time>2019-02-17T09:23:31Z</time>
      </trkpt>
      <trkpt lat="50.48436" lon="1.60255">
        <ele>50.4</ele>
        <time>2019-02-17T09:23:35Z</time>
      </trkpt>
      <trkpt lat="50.48436" lon="1.60255">
        <ele>50.4</ele>
        <time>2019-02-17T09:23:39Z</time>
      </trkpt>
      <trkpt lat="50.48436" lon="1.60255">
        <ele>50.4</ele>
        <time>2019-02-17T09:23:43Z</time>
      </trkpt>
      <trkpt lat="50.48436" lon="1.60255">
        <ele>50.4</ele>
        <time>2019-02-17T09:23:47Z</time>
      </trkpt>
      <trkpt lat="50.48436" lon="1.60255">
        <ele>50.4</ele>
        <time>2019-02-17T09:23:51Z</time>
      </trkpt>
      <trkpt lat="50.48436" lon="1.60255">
        <ele>50.4</ele>
        <time>2019-02-17T09:23:55Z</time>
      </trkpt>
      <trkpt lat="50.48436" lon="1.60255">
        <ele>50.4</ele>
        <time>2019-02-17T09:23:59Z</time>
      </trkpt>
      <trkpt lat="50.48436" lon="1.60255">
        <ele>50.4</ele>
        <time>2019-02-17T09:24:03Z</time>
      </trkpt>
      <trkpt lat="50.48436" lon="1.60255">
        <ele>50.4</ele>
        <time>2019-02-17T09:24:07Z</time>
      </trkpt>
      <trkpt lat="50.48436" lon="1.60255">
        <ele>50.4</ele>
        <time>2019-02-17T09:24:11Z</time>
      </trkpt>
      <trkpt lat="50.48436" lon="1.60255">
        <ele>50.4</ele>
        <time>2019-02-17T09:24:15Z</time>
      </trkpt>
      <trkpt lat="50.48436" lon="1.60255">
        <ele>50.4</ele>
        <time>2019-02-17T09:24:19Z</time>
      </trkpt>
      <trkpt lat="50.48436" lon="1.60255">
        <ele>50.4</ele>
        <time>2019-02-17T09:24:23Z</time>
      </trkpt>
      <trkpt lat="50.48436" lon="1.60255">
        <ele>50.4</ele>
        <time>2019-02-17T09:24:27Z</time>
      </trkpt>
      <trkpt lat="50.48436" lon="1.60255">
        <ele>50.4</ele>
        <time>2019-02-17T09:24:31Z</time>
      </trkpt>
      <trkpt lat="50.48436" lon="1.60255">
        <ele>50.4</ele>
        <time>2019-02-17T09:24:35Z</time>
      </trkpt>
      <trkpt lat="50.48436" lon="1.60255">
        <ele>50.4</ele>
        <time>2019-02-17T09:24:39Z</time>
      </trkpt>
      <trkpt lat="50.48436" lon="1.60255">
        <ele>50.4</ele>
        <time>2019-02-17T09:24:43Z</time>
      </trkpt>
      <trkpt lat="50.48439" lon="1.60252">
        <ele>50.4</ele>
        <time>2019-02-17T09:24:47Z</time>
      </trkpt>
      <trkpt lat="50.48437" lon="1.6025">
        <ele>50</ele>
        <time>2019-02-17T09:24:51Z</time>
      </trkpt>
      <trkpt lat="50.4844" lon="1.60248">
        <ele>50.2</ele>
        <time>2019-02-17T09:24:55Z</time>
      </trkpt>
      <trkpt lat="50.4844" lon="1.60248">
        <ele>50.2</ele>
        <time>2019-02-17T09:24:59Z</time>
      </trkpt>
      <trkpt lat="50.4844" lon="1.60249">
        <ele>50</ele>
        <time>2019-02-17T09:25:03Z</time>
      </trkpt>
      <trkpt lat="50.48446" lon="1.60235">
        <ele>50</ele>
        <time>2019-02-17T09:25:07Z</time>
      </trkpt>
      <trkpt lat="50.48462" lon="1.60208">
        <ele>50.4</ele>
        <time>2019-02-17T09:25:11Z</time>
      </trkpt>
      <trkpt lat="50.48475" lon="1.60183">
        <ele>50</ele>
        <time>2019-02-17T09:25:15Z</time>
      </trkpt>
      <trkpt lat="50.48489" lon="1.60158">
        <ele>50</ele>
        <time>2019-02-17T09:25:19Z</time>
      </trkpt>
      <trkpt lat="50.48508" lon="1.60155">
        <ele>48.6</ele>
        <time>2019-02-17T09:25:23Z</time>
      </trkpt>
      <trkpt lat="50.48523" lon="1.60154">
        <ele>48.4</ele>
        <time>2019-02-17T09:25:27Z</time>
      </trkpt>
      <trkpt lat="50.48539" lon="1.6016">
        <ele>48.6</ele>
        <time>2019-02-17T09:25:31Z</time>
      </trkpt>
      <trkpt lat="50.48549" lon="1.60176">
        <ele>50</ele>
        <time>2019-02-17T09:25:35Z</time>
      </trkpt>
      <trkpt lat="50.48554" lon="1.60192">
        <ele>51</ele>
        <time>2019-02-17T09:25:39Z</time>
      </trkpt>
      <trkpt lat="50.48564" lon="1.60207">
        <ele>51.6</ele>
        <time>2019-02-17T09:25:43Z</time>
      </trkpt>
      <trkpt lat="50.48569" lon="1.60217">
        <ele>53.4</ele>
        <time>2019-02-17T09:25:47Z</time>
      </trkpt>
      <trkpt lat="50.48574" lon="1.60221">
        <ele>54.6</ele>
        <time>2019-02-17T09:25:51Z</time>
      </trkpt>
      <trkpt lat="50.48581" lon="1.60227">
        <ele>55.6</ele>
        <time>2019-02-17T09:25:55Z</time>
      </trkpt>
      <trkpt lat="50.48584" lon="1.60238">
        <ele>57.4</ele>
        <time>2019-02-17T09:25:59Z</time>
      </trkpt>
      <trkpt lat="50.4859" lon="1.60246">
        <ele>57.6</ele>
        <time>2019-02-17T09:26:03Z</time>
      </trkpt>
      <trkpt lat="50.48598" lon="1.60252">
        <ele>58</ele>
        <time>2019-02-17T09:26:07Z</time>
      </trkpt>
      <trkpt lat="50.48605" lon="1.60253">
        <ele>59.6</ele>
        <time>2019-02-17T09:26:11Z</time>
      </trkpt>
      <trkpt lat="50.48612" lon="1.60252">
        <ele>59.8</ele>
        <time>2019-02-17T09:26:15Z</time>
      </trkpt>
      <trkpt lat="50.48619" lon="1.60257">
        <ele>60.6</ele>
        <time>2019-02-17T09:26:19Z</time>
      </trkpt>
      <trkpt lat="50.48625" lon="1.60257">
        <ele>61.4</ele>
        <time>2019-02-17T09:26:23Z</time>
      </trkpt>
      <trkpt lat="50.48631" lon="1.60256">
        <ele>61.8</ele>
        <time>2019-02-17T09:26:27Z</time>
      </trkpt>
      <trkpt lat="50.48643" lon="1.60242">
        <ele>59.8</ele>
        <time>2019-02-17T09:26:31Z</time>
      </trkpt>
      <trkpt lat="50.48645" lon="1.60213">
        <ele>58.2</ele>
        <time>2019-02-17T09:26:35Z</time>
      </trkpt>
      <trkpt lat="50.48653" lon="1.60198">
        <ele>59</ele>
        <time>2019-02-17T09:26:39Z</time>
      </trkpt>
      <trkpt lat="50.4866" lon="1.60194">
        <ele>58.4</ele>
        <time>2019-02-17T09:26:43Z</time>
      </trkpt>
      <trkpt lat="50.48669" lon="1.6019">
        <ele>56.8</ele>
        <time>2019-02-17T09:26:47Z</time>
      </trkpt>
      <trkpt lat="50.4868" lon="1.60181">
        <ele>56.4</ele>
        <time>2019-02-17T09:26:51Z</time>
      </trkpt>
      <trkpt lat="50.48683" lon="1.60158">
        <ele>54.4</ele>
        <time>2019-02-17T09:26:55Z</time>
      </trkpt>
      <trkpt lat="50.48682" lon="1.60139">
        <ele>52.4</ele>
        <time>2019-02-17T09:26:59Z</time>
      </trkpt>
      <trkpt lat="50.48673" lon="1.60131">
        <ele>52</ele>
        <time>2019-02-17T09:27:03Z</time>
      </trkpt>
      <trkpt lat="50.48661" lon="1.60116">
        <ele>51.2</ele>
        <time>2019-02-17T09:27:07Z</time>
      </trkpt>
      <trkpt lat="50.48657" lon="1.60105">
        <ele>51</ele>
        <time>2019-02-17T09:27:11Z</time>
      </trkpt>
      <trkpt lat="50.48656" lon="1.6009">
        <ele>48.4</ele>
        <time>2019-02-17T09:27:15Z</time>
      </trkpt>
      <trkpt lat="50.4865" lon="1.60073">
        <ele>47.4</ele>
        <time>2019-02-17T09:27:19Z</time>
      </trkpt>
      <trkpt lat="50.48651" lon="1.60057">
        <ele>47.2</ele>
        <time>2019-02-17T09:27:23Z</time>
      </trkpt>
      <trkpt lat="50.48653" lon="1.6004">
        <ele>47.2</ele>
        <time>2019-02-17T09:27:27Z</time>
      </trkpt>
      <trkpt lat="50.48658" lon="1.60018">
        <ele>47.2</ele>
        <time>2019-02-17T09:27:31Z</time>
      </trkpt>
      <trkpt lat="50.48664" lon="1.6">
        <ele>47</ele>
        <time>2019-02-17T09:27:35Z</time>
      </trkpt>
      <trkpt lat="50.48669" lon="1.59985">
        <ele>47.6</ele>
        <time>2019-02-17T09:27:39Z</time>
      </trkpt>
      <trkpt lat="50.48679" lon="1.5998">
        <ele>48</ele>
        <time>2019-02-17T09:27:43Z</time>
      </trkpt>
      <trkpt lat="50.4869" lon="1.59981">
        <ele>47.6</ele>
        <time>2019-02-17T09:27:47Z</time>
      </trkpt>
      <trkpt lat="50.48703" lon="1.59986">
        <ele>47.6</ele>
        <time>2019-02-17T09:27:51Z</time>
      </trkpt>
      <trkpt lat="50.4871" lon="1.59999">
        <ele>47.6</ele>
        <time>2019-02-17T09:27:55Z</time>
      </trkpt>
      <trkpt lat="50.48724" lon="1.60003">
        <ele>47.2</ele>
        <time>2019-02-17T09:27:59Z</time>
      </trkpt>
      <trkpt lat="50.48741" lon="1.60009">
        <ele>47</ele>
        <time>2019-02-17T09:28:03Z</time>
      </trkpt>
      <trkpt lat="50.48753" lon="1.60024">
        <ele>46.8</ele>
        <time>2019-02-17T09:28:07Z</time>
      </trkpt>
      <trkpt lat="50.48764" lon="1.60038">
        <ele>47.8</ele>
        <time>2019-02-17T09:28:11Z</time>
      </trkpt>
      <trkpt lat="50.48771" lon="1.60056">
        <ele>47.6</ele>
        <time>2019-02-17T09:28:15Z</time>
      </trkpt>
      <trkpt lat="50.48778" lon="1.60073">
        <ele>48</ele>
        <time>2019-02-17T09:28:19Z</time>
      </trkpt>
      <trkpt lat="50.48783" lon="1.60083">
        <ele>49.4</ele>
        <time>2019-02-17T09:28:23Z</time>
      </trkpt>
      <trkpt lat="50.48793" lon="1.60096">
        <ele>49.6</ele>
        <time>2019-02-17T09:28:27Z</time>
      </trkpt>
      <trkpt lat="50.48799" lon="1.60111">
        <ele>50.4</ele>
        <time>2019-02-17T09:28:31Z</time>
      </trkpt>
      <trkpt lat="50.48808" lon="1.60125">
        <ele>49.6</ele>
        <time>2019-02-17T09:28:35Z</time>
      </trkpt>
      <trkpt lat="50.48812" lon="1.60135">
        <ele>49.4</ele>
        <time>2019-02-17T09:28:39Z</time>
      </trkpt>
      <trkpt lat="50.48804" lon="1.6014">
        <ele>50</ele>
        <time>2019-02-17T09:28:43Z</time>
      </trkpt>
      <trkpt lat="50.48798" lon="1.60148">
        <ele>50.4</ele>
        <time>2019-02-17T09:28:47Z</time>
      </trkpt>
      <trkpt lat="50.48794" lon="1.60151">
        <ele>51</ele>
        <time>2019-02-17T09:28:51Z</time>
      </trkpt>
      <trkpt lat="50.4879" lon="1.60154">
        <ele>51.6</ele>
        <time>2019-02-17T09:28:55Z</time>
      </trkpt>
      <trkpt lat="50.48786" lon="1.60158">
        <ele>52.8</ele>
        <time>2019-02-17T09:28:59Z</time>
      </trkpt>
      <trkpt lat="50.48782" lon="1.60164">
        <ele>54.6</ele>
        <time>2019-02-17T09:29:03Z</time>
      </trkpt>
      <trkpt lat="50.48781" lon="1.60172">
        <ele>55.4</ele>
        <time>2019-02-17T09:29:07Z</time>
      </trkpt>
      <trkpt lat="50.4878" lon="1.60187">
        <ele>56.6</ele>
        <time>2019-02-17T09:29:11Z</time>
      </trkpt>
      <trkpt lat="50.4878" lon="1.60203">
        <ele>57.8</ele>
        <time>2019-02-17T09:29:15Z</time>
      </trkpt>
      <trkpt lat="50.48781" lon="1.60217">
        <ele>57.6</ele>
        <time>2019-02-17T09:29:19Z</time>
      </trkpt>
      <trkpt lat="50.48772" lon="1.60233">
        <ele>59</ele>
        <time>2019-02-17T09:29:23Z</time>
      </trkpt>
      <trkpt lat="50.48773" lon="1.60248">
        <ele>59.4</ele>
        <time>2019-02-17T09:29:27Z</time>
      </trkpt>
      <trkpt lat="50.48776" lon="1.60257">
        <ele>60.2</ele>
        <time>2019-02-17T09:29:31Z</time>
      </trkpt>
      <trkpt lat="50.4878" lon="1.60266">
        <ele>60.4</ele>
        <time>2019-02-17T09:29:35Z</time>
      </trkpt>
      <trkpt lat="50.4878" lon="1.60278">
        <ele>62</ele>
        <time>2019-02-17T09:29:39Z</time>
      </trkpt>
      <trkpt lat="50.48784" lon="1.60287">
        <ele>62.6</ele>
        <time>2019-02-17T09:29:43Z</time>
      </trkpt>
      <trkpt lat="50.4878" lon="1.6029">
        <ele>62.6</ele>
        <time>2019-02-17T09:29:47Z</time>
      </trkpt>
      <trkpt lat="50.4878" lon="1.6029">
        <ele>62.6</ele>
        <time>2019-02-17T09:29:51Z</time>
      </trkpt>
      <trkpt lat="50.48776" lon="1.60292">
        <ele>62.2</ele>
        <time>2019-02-17T09:29:55Z</time>
      </trkpt>
      <trkpt lat="50.48774" lon="1.60299">
        <ele>62.8</ele>
        <time>2019-02-17T09:29:59Z</time>
      </trkpt>
      <trkpt lat="50.48769" lon="1.60306">
        <ele>63.4</ele>
        <time>2019-02-17T09:30:03Z</time>
      </trkpt>
      <trkpt lat="50.48762" lon="1.60315">
        <ele>63.6</ele>
        <time>2019-02-17T09:30:07Z</time>
      </trkpt>
      <trkpt lat="50.48756" lon="1.60323">
        <ele>64.6</ele>
        <time>2019-02-17T09:30:11Z</time>
      </trkpt>
      <trkpt lat="50.48749" lon="1.60329">
        <ele>63.6</ele>
        <time>2019-02-17T09:30:15Z</time>
      </trkpt>
      <trkpt lat="50.48738" lon="1.60336">
        <ele>62.6</ele>
        <time>2019-02-17T09:30:19Z</time>
      </trkpt>
      <trkpt lat="50.48733" lon="1.60347">
        <ele>63.6</ele>
        <time>2019-02-17T09:30:23Z</time>
      </trkpt>
      <trkpt lat="50.48727" lon="1.60363">
        <ele>63.8</ele>
        <time>2019-02-17T09:30:27Z</time>
      </trkpt>
      <trkpt lat="50.48719" lon="1.60383">
        <ele>64.8</ele>
        <time>2019-02-17T09:30:31Z</time>
      </trkpt>
      <trkpt lat="50.48715" lon="1.60398">
        <ele>65.2</ele>
        <time>2019-02-17T09:30:35Z</time>
      </trkpt>
      <trkpt lat="50.48712" lon="1.60408">
        <ele>66.4</ele>
        <time>2019-02-17T09:30:39Z</time>
      </trkpt>
      <trkpt lat="50.48706" lon="1.6042">
        <ele>67.6</ele>
        <time>2019-02-17T09:30:43Z</time>
      </trkpt>
      <trkpt lat="50.48703" lon="1.60426">
        <ele>69.4</ele>
        <time>2019-02-17T09:30:47Z</time>
      </trkpt>
      <trkpt lat="50.48701" lon="1.60433">
        <ele>69</ele>
        <time>2019-02-17T09:30:51Z</time>
      </trkpt>
      <trkpt lat="50.48698" lon="1.60442">
        <ele>68.4</ele>
        <time>2019-02-17T09:30:55Z</time>
      </trkpt>
      <trkpt lat="50.48701" lon="1.60453">
        <ele>69</ele>
        <time>2019-02-17T09:30:59Z</time>
      </trkpt>
      <trkpt lat="50.48703" lon="1.60459">
        <ele>70.4</ele>
        <time>2019-02-17T09:31:03Z</time>
      </trkpt>
      <trkpt lat="50.48703" lon="1.60459">
        <ele>71.6</ele>
        <time>2019-02-17T09:31:07Z</time>
      </trkpt>
      <trkpt lat="50.48703" lon="1.60459">
        <ele>71.8</ele>
        <time>2019-02-17T09:31:11Z</time>
      </trkpt>
      <trkpt lat="50.48703" lon="1.60459">
        <ele>71.8</ele>
        <time>2019-02-17T09:31:15Z</time>
      </trkpt>
      <trkpt lat="50.48707" lon="1.60464">
        <ele>73</ele>
        <time>2019-02-17T09:31:19Z</time>
      </trkpt>
      <trkpt lat="50.48711" lon="1.60462">
        <ele>73</ele>
        <time>2019-02-17T09:31:23Z</time>
      </trkpt>
      <trkpt lat="50.48711" lon="1.60462">
        <ele>73</ele>
        <time>2019-02-17T09:31:27Z</time>
      </trkpt>
      <trkpt lat="50.48717" lon="1.60462">
        <ele>73</ele>
        <time>2019-02-17T09:31:31Z</time>
      </trkpt>
      <trkpt lat="50.48724" lon="1.60458">
        <ele>71.6</ele>
        <time>2019-02-17T09:31:35Z</time>
      </trkpt>
      <trkpt lat="50.48727" lon="1.60444">
        <ele>68.8</ele>
        <time>2019-02-17T09:31:39Z</time>
      </trkpt>
      <trkpt lat="50.48733" lon="1.60442">
        <ele>64.6</ele>
        <time>2019-02-17T09:31:43Z</time>
      </trkpt>
      <trkpt lat="50.4874" lon="1.60447">
        <ele>64.2</ele>
        <time>2019-02-17T09:31:47Z</time>
      </trkpt>
      <trkpt lat="50.48742" lon="1.60457">
        <ele>64</ele>
        <time>2019-02-17T09:31:51Z</time>
      </trkpt>
      <trkpt lat="50.48737" lon="1.60472">
        <ele>64</ele>
        <time>2019-02-17T09:31:55Z</time>
      </trkpt>
      <trkpt lat="50.4874" lon="1.60482">
        <ele>65.6</ele>
        <time>2019-02-17T09:31:59Z</time>
      </trkpt>
      <trkpt lat="50.48743" lon="1.6049">
        <ele>67.8</ele>
        <time>2019-02-17T09:32:03Z</time>
      </trkpt>
      <trkpt lat="50.4875" lon="1.60491">
        <ele>69.4</ele>
        <time>2019-02-17T09:32:07Z</time>
      </trkpt>
      <trkpt lat="50.48762" lon="1.60492">
        <ele>70</ele>
        <time>2019-02-17T09:32:11Z</time>
      </trkpt>
      <trkpt lat="50.48762" lon="1.60492">
        <ele>70</ele>
        <time>2019-02-17T09:32:15Z</time>
      </trkpt>
      <trkpt lat="50.48767" lon="1.60493">
        <ele>71.4</ele>
        <time>2019-02-17T09:32:19Z</time>
      </trkpt>
      <trkpt lat="50.48769" lon="1.60486">
        <ele>72.2</ele>
        <time>2019-02-17T09:32:23Z</time>
      </trkpt>
      <trkpt lat="50.48773" lon="1.60481">
        <ele>74</ele>
        <time>2019-02-17T09:32:27Z</time>
      </trkpt>
      <trkpt lat="50.48776" lon="1.60475">
        <ele>74.2</ele>
        <time>2019-02-17T09:32:31Z</time>
      </trkpt>
      <trkpt lat="50.48779" lon="1.60469">
        <ele>74.6</ele>
        <time>2019-02-17T09:32:35Z</time>
      </trkpt>
      <trkpt lat="50.48778" lon="1.60463">
        <ele>74.2</ele>
        <time>2019-02-17T09:32:39Z</time>
      </trkpt>
      <trkpt lat="50.48778" lon="1.60457">
        <ele>75.4</ele>
        <time>2019-02-17T09:32:43Z</time>
      </trkpt>
      <trkpt lat="50.48778" lon="1.60457">
        <ele>75.4</ele>
        <time>2019-02-17T09:32:47Z</time>
      </trkpt>
      <trkpt lat="50.48778" lon="1.60457">
        <ele>75.4</ele>
        <time>2019-02-17T09:32:51Z</time>
      </trkpt>
      <trkpt lat="50.48784" lon="1.60451">
        <ele>75.2</ele>
        <time>2019-02-17T09:32:55Z</time>
      </trkpt>
      <trkpt lat="50.48784" lon="1.60451">
        <ele>75.2</ele>
        <time>2019-02-17T09:32:59Z</time>
      </trkpt>
      <trkpt lat="50.48784" lon="1.60451">
        <ele>75.2</ele>
        <time>2019-02-17T09:33:03Z</time>
      </trkpt>
      <trkpt lat="50.48785" lon="1.60446">
        <ele>74.6</ele>
        <time>2019-02-17T09:33:07Z</time>
      </trkpt>
      <trkpt lat="50.48785" lon="1.60441">
        <ele>72.8</ele>
        <time>2019-02-17T09:33:11Z</time>
      </trkpt>
      <trkpt lat="50.48782" lon="1.60436">
        <ele>71.6</ele>
        <time>2019-02-17T09:33:15Z</time>
      </trkpt>
      <trkpt lat="50.48776" lon="1.60424">
        <ele>71.4</ele>
        <time>2019-02-17T09:33:19Z</time>
      </trkpt>
      <trkpt lat="50.48777" lon="1.60407">
        <ele>71.4</ele>
        <time>2019-02-17T09:33:23Z</time>
      </trkpt>
      <trkpt lat="50.48777" lon="1.60391">
        <ele>69</ele>
        <time>2019-02-17T09:33:27Z</time>
      </trkpt>
      <trkpt lat="50.48788" lon="1.60374">
        <ele>64.8</ele>
        <time>2019-02-17T09:33:31Z</time>
      </trkpt>
      <trkpt lat="50.48807" lon="1.60359">
        <ele>64</ele>
        <time>2019-02-17T09:33:35Z</time>
      </trkpt>
      <trkpt lat="50.48823" lon="1.60357">
        <ele>59.2</ele>
        <time>2019-02-17T09:33:39Z</time>
      </trkpt>
      <trkpt lat="50.48835" lon="1.60353">
        <ele>58.4</ele>
        <time>2019-02-17T09:33:43Z</time>
      </trkpt>
      <trkpt lat="50.48839" lon="1.60365">
        <ele>59.2</ele>
        <time>2019-02-17T09:33:47Z</time>
      </trkpt>
      <trkpt lat="50.4884" lon="1.6038">
        <ele>60.2</ele>
        <time>2019-02-17T09:33:51Z</time>
      </trkpt>
      <trkpt lat="50.48836" lon="1.60394">
        <ele>62.2</ele>
        <time>2019-02-17T09:33:55Z</time>
      </trkpt>
      <trkpt lat="50.48845" lon="1.60395">
        <ele>62.6</ele>
        <time>2019-02-17T09:33:59Z</time>
      </trkpt>
      <trkpt lat="50.48857" lon="1.60387">
        <ele>61.6</ele>
        <time>2019-02-17T09:34:03Z</time>
      </trkpt>
      <trkpt lat="50.48873" lon="1.60384">
        <ele>62.6</ele>
        <time>2019-02-17T09:34:07Z</time>
      </trkpt>
      <trkpt lat="50.48876" lon="1.60377">
        <ele>61.6</ele>
        <time>2019-02-17T09:34:11Z</time>
      </trkpt>
      <trkpt lat="50.4888" lon="1.60362">
        <ele>59.6</ele>
        <time>2019-02-17T09:34:15Z</time>
      </trkpt>
      <trkpt lat="50.4889" lon="1.60366">
        <ele>56.2</ele>
        <time>2019-02-17T09:34:19Z</time>
      </trkpt>
      <trkpt lat="50.48905" lon="1.60371">
        <ele>54.2</ele>
        <time>2019-02-17T09:34:23Z</time>
      </trkpt>
      <trkpt lat="50.48923" lon="1.6038">
        <ele>54.6</ele>
        <time>2019-02-17T09:34:27Z</time>
      </trkpt>
      <trkpt lat="50.4894" lon="1.60399">
        <ele>55.4</ele>
        <time>2019-02-17T09:34:31Z</time>
      </trkpt>
      <trkpt lat="50.48949" lon="1.60421">
        <ele>56.8</ele>
        <time>2019-02-17T09:34:35Z</time>
      </trkpt>
      <trkpt lat="50.48951" lon="1.6044">
        <ele>56.2</ele>
        <time>2019-02-17T09:34:39Z</time>
      </trkpt>
      <trkpt lat="50.48945" lon="1.6046">
        <ele>56.2</ele>
        <time>2019-02-17T09:34:43Z</time>
      </trkpt>
      <trkpt lat="50.48941" lon="1.60472">
        <ele>56.4</ele>
        <time>2019-02-17T09:34:47Z</time>
      </trkpt>
      <trkpt lat="50.48937" lon="1.60486">
        <ele>57.2</ele>
        <time>2019-02-17T09:34:51Z</time>
      </trkpt>
      <trkpt lat="50.48932" lon="1.60496">
        <ele>59.2</ele>
        <time>2019-02-17T09:34:55Z</time>
      </trkpt>
      <trkpt lat="50.48925" lon="1.60498">
        <ele>59.2</ele>
        <time>2019-02-17T09:34:59Z</time>
      </trkpt>
      <trkpt lat="50.48917" lon="1.60496">
        <ele>59.2</ele>
        <time>2019-02-17T09:35:03Z</time>
      </trkpt>
      <trkpt lat="50.48915" lon="1.60479">
        <ele>58</ele>
        <time>2019-02-17T09:35:07Z</time>
      </trkpt>
      <trkpt lat="50.48916" lon="1.60455">
        <ele>55.4</ele>
        <time>2019-02-17T09:35:11Z</time>
      </trkpt>
      <trkpt lat="50.48907" lon="1.60446">
        <ele>55.6</ele>
        <time>2019-02-17T09:35:15Z</time>
      </trkpt>
      <trkpt lat="50.48902" lon="1.60441">
        <ele>56.4</ele>
        <time>2019-02-17T09:35:19Z</time>
      </trkpt>
      <trkpt lat="50.48902" lon="1.60441">
        <ele>56.4</ele>
        <time>2019-02-17T09:35:23Z</time>
      </trkpt>
      <trkpt lat="50.489" lon="1.60438">
        <ele>57</ele>
        <time>2019-02-17T09:35:27Z</time>
      </trkpt>
      <trkpt lat="50.48895" lon="1.60435">
        <ele>58.2</ele>
        <time>2019-02-17T09:35:31Z</time>
      </trkpt>
      <trkpt lat="50.48892" lon="1.60435">
        <ele>59.2</ele>
        <time>2019-02-17T09:35:35Z</time>
      </trkpt>
      <trkpt lat="50.48888" lon="1.60436">
        <ele>60</ele>
        <time>2019-02-17T09:35:39Z</time>
      </trkpt>
      <trkpt lat="50.48882" lon="1.60434">
        <ele>61.4</ele>
        <time>2019-02-17T09:35:43Z</time>
      </trkpt>
      <trkpt lat="50.4888" lon="1.6044">
        <ele>62</ele>
        <time>2019-02-17T09:35:47Z</time>
      </trkpt>
      <trkpt lat="50.48879" lon="1.60448">
        <ele>62.6</ele>
        <time>2019-02-17T09:35:51Z</time>
      </trkpt>
      <trkpt lat="50.48878" lon="1.60458">
        <ele>63.8</ele>
        <time>2019-02-17T09:35:55Z</time>
      </trkpt>
      <trkpt lat="50.48874" lon="1.60469">
        <ele>64.4</ele>
        <time>2019-02-17T09:35:59Z</time>
      </trkpt>
      <trkpt lat="50.48871" lon="1.60476">
        <ele>66.8</ele>
        <time>2019-02-17T09:36:03Z</time>
      </trkpt>
      <trkpt lat="50.48866" lon="1.60486">
        <ele>67.6</ele>
        <time>2019-02-17T09:36:07Z</time>
      </trkpt>
      <trkpt lat="50.48862" lon="1.60494">
        <ele>69.4</ele>
        <time>2019-02-17T09:36:11Z</time>
      </trkpt>
      <trkpt lat="50.48859" lon="1.60502">
        <ele>70.4</ele>
        <time>2019-02-17T09:36:15Z</time>
      </trkpt>
      <trkpt lat="50.48856" lon="1.60508">
        <ele>71.4</ele>
        <time>2019-02-17T09:36:19Z</time>
      </trkpt>
      <trkpt lat="50.48856" lon="1.60508">
        <ele>71.4</ele>
        <time>2019-02-17T09:36:23Z</time>
      </trkpt>
      <trkpt lat="50.48856" lon="1.60508">
        <ele>71.4</ele>
        <time>2019-02-17T09:36:27Z</time>
      </trkpt>
      <trkpt lat="50.48856" lon="1.60508">
        <ele>71.4</ele>
        <time>2019-02-17T09:36:31Z</time>
      </trkpt>
      <trkpt lat="50.48847" lon="1.60514">
        <ele>72.2</ele>
        <time>2019-02-17T09:36:35Z</time>
      </trkpt>
      <trkpt lat="50.48847" lon="1.60517">
        <ele>72.8</ele>
        <time>2019-02-17T09:36:39Z</time>
      </trkpt>
      <trkpt lat="50.48845" lon="1.6052">
        <ele>73.8</ele>
        <time>2019-02-17T09:36:43Z</time>
      </trkpt>
      <trkpt lat="50.48842" lon="1.60521">
        <ele>74.2</ele>
        <time>2019-02-17T09:36:47Z</time>
      </trkpt>
      <trkpt lat="50.48839" lon="1.60523">
        <ele>74</ele>
        <time>2019-02-17T09:36:51Z</time>
      </trkpt>
      <trkpt lat="50.48836" lon="1.60529">
        <ele>73.4</ele>
        <time>2019-02-17T09:36:55Z</time>
      </trkpt>
      <trkpt lat="50.48832" lon="1.60537">
        <ele>74</ele>
        <time>2019-02-17T09:36:59Z</time>
      </trkpt>
      <trkpt lat="50.48833" lon="1.60544">
        <ele>75.2</ele>
        <time>2019-02-17T09:37:03Z</time>
      </trkpt>
      <trkpt lat="50.48835" lon="1.60551">
        <ele>76.4</ele>
        <time>2019-02-17T09:37:07Z</time>
      </trkpt>
      <trkpt lat="50.48835" lon="1.60551">
        <ele>76.4</ele>
        <time>2019-02-17T09:37:11Z</time>
      </trkpt>
      <trkpt lat="50.48835" lon="1.60551">
        <ele>76.4</ele>
        <time>2019-02-17T09:37:15Z</time>
      </trkpt>
      <trkpt lat="50.48835" lon="1.60551">
        <ele>76.4</ele>
        <time>2019-02-17T09:37:19Z</time>
      </trkpt>
      <trkpt lat="50.48828" lon="1.60563">
        <ele>77</ele>
        <time>2019-02-17T09:37:23Z</time>
      </trkpt>
      <trkpt lat="50.4883" lon="1.60573">
        <ele>74.2</ele>
        <time>2019-02-17T09:37:27Z</time>
      </trkpt>
      <trkpt lat="50.48829" lon="1.60587">
        <ele>68.2</ele>
        <time>2019-02-17T09:37:31Z</time>
      </trkpt>
      <trkpt lat="50.48839" lon="1.60604">
        <ele>61.8</ele>
        <time>2019-02-17T09:37:35Z</time>
      </trkpt>
      <trkpt lat="50.4884" lon="1.60613">
        <ele>60.2</ele>
        <time>2019-02-17T09:37:39Z</time>
      </trkpt>
      <trkpt lat="50.48844" lon="1.60626">
        <ele>59.2</ele>
        <time>2019-02-17T09:37:43Z</time>
      </trkpt>
      <trkpt lat="50.48849" lon="1.60631">
        <ele>58.6</ele>
        <time>2019-02-17T09:37:47Z</time>
      </trkpt>
      <trkpt lat="50.48863" lon="1.60634">
        <ele>57.4</ele>
        <time>2019-02-17T09:37:51Z</time>
      </trkpt>
      <trkpt lat="50.48881" lon="1.6063">
        <ele>57.6</ele>
        <time>2019-02-17T09:37:55Z</time>
      </trkpt>
      <trkpt lat="50.48888" lon="1.60628">
        <ele>58.4</ele>
        <time>2019-02-17T09:37:59Z</time>
      </trkpt>
      <trkpt lat="50.48896" lon="1.60628">
        <ele>58</ele>
        <time>2019-02-17T09:38:03Z</time>
      </trkpt>
      <trkpt lat="50.48908" lon="1.60619">
        <ele>55.4</ele>
        <time>2019-02-17T09:38:07Z</time>
      </trkpt>
      <trkpt lat="50.4892" lon="1.6062">
        <ele>53.4</ele>
        <time>2019-02-17T09:38:11Z</time>
      </trkpt>
      <trkpt lat="50.48934" lon="1.60636">
        <ele>51.8</ele>
        <time>2019-02-17T09:38:15Z</time>
      </trkpt>
      <trkpt lat="50.48948" lon="1.60654">
        <ele>51.4</ele>
        <time>2019-02-17T09:38:19Z</time>
      </trkpt>
      <trkpt lat="50.48966" lon="1.60656">
        <ele>52</ele>
        <time>2019-02-17T09:38:23Z</time>
      </trkpt>
      <trkpt lat="50.48983" lon="1.60683">
        <ele>54.6</ele>
        <time>2019-02-17T09:38:27Z</time>
      </trkpt>
      <trkpt lat="50.48996" lon="1.60712">
        <ele>55.2</ele>
        <time>2019-02-17T09:38:31Z</time>
      </trkpt>
      <trkpt lat="50.49009" lon="1.60741">
        <ele>55.8</ele>
        <time>2019-02-17T09:38:35Z</time>
      </trkpt>
      <trkpt lat="50.4902" lon="1.60774">
        <ele>56</ele>
        <time>2019-02-17T09:38:39Z</time>
      </trkpt>
      <trkpt lat="50.49029" lon="1.60808">
        <ele>55</ele>
        <time>2019-02-17T09:38:43Z</time>
      </trkpt>
      <trkpt lat="50.49035" lon="1.60843">
        <ele>54.6</ele>
        <time>2019-02-17T09:38:47Z</time>
      </trkpt>
      <trkpt lat="50.49041" lon="1.60881">
        <ele>53</ele>
        <time>2019-02-17T09:38:51Z</time>
      </trkpt>
      <trkpt lat="50.49058" lon="1.60913">
        <ele>51.2</ele>
        <time>2019-02-17T09:38:55Z</time>
      </trkpt>
      <trkpt lat="50.49086" lon="1.60911">
        <ele>50</ele>
        <time>2019-02-17T09:38:59Z</time>
      </trkpt>
      <trkpt lat="50.49116" lon="1.60893">
        <ele>48.8</ele>
        <time>2019-02-17T09:39:03Z</time>
      </trkpt>
      <trkpt lat="50.4914" lon="1.60876">
        <ele>48.4</ele>
        <time>2019-02-17T09:39:07Z</time>
      </trkpt>
      <trkpt lat="50.49157" lon="1.60859">
        <ele>48.2</ele>
        <time>2019-02-17T09:39:11Z</time>
      </trkpt>
      <trkpt lat="50.49166" lon="1.60839">
        <ele>47.8</ele>
        <time>2019-02-17T09:39:15Z</time>
      </trkpt>
      <trkpt lat="50.49173" lon="1.60817">
        <ele>47.2</ele>
        <time>2019-02-17T09:39:19Z</time>
      </trkpt>
      <trkpt lat="50.49176" lon="1.60807">
        <ele>46.6</ele>
        <time>2019-02-17T09:39:23Z</time>
      </trkpt>
      <trkpt lat="50.49179" lon="1.60805">
        <ele>46.8</ele>
        <time>2019-02-17T09:39:27Z</time>
      </trkpt>
      <trkpt lat="50.49188" lon="1.608">
        <ele>47</ele>
        <time>2019-02-17T09:39:31Z</time>
      </trkpt>
      <trkpt lat="50.49192" lon="1.60802">
        <ele>47.4</ele>
        <time>2019-02-17T09:39:35Z</time>
      </trkpt>
      <trkpt lat="50.49198" lon="1.60799">
        <ele>47.6</ele>
        <time>2019-02-17T09:39:39Z</time>
      </trkpt>
      <trkpt lat="50.49206" lon="1.60796">
        <ele>49.6</ele>
        <time>2019-02-17T09:39:43Z</time>
      </trkpt>
      <trkpt lat="50.49211" lon="1.60795">
        <ele>50.8</ele>
        <time>2019-02-17T09:39:47Z</time>
      </trkpt>
      <trkpt lat="50.49216" lon="1.60787">
        <ele>50.2</ele>
        <time>2019-02-17T09:39:51Z</time>
      </trkpt>
      <trkpt lat="50.49213" lon="1.60775">
        <ele>47.6</ele>
        <time>2019-02-17T09:39:55Z</time>
      </trkpt>
      <trkpt lat="50.49217" lon="1.60759">
        <ele>46.8</ele>
        <time>2019-02-17T09:39:59Z</time>
      </trkpt>
      <trkpt lat="50.49226" lon="1.6075">
        <ele>47.2</ele>
        <time>2019-02-17T09:40:03Z</time>
      </trkpt>
      <trkpt lat="50.49231" lon="1.60745">
        <ele>47.6</ele>
        <time>2019-02-17T09:40:07Z</time>
      </trkpt>
      <trkpt lat="50.49238" lon="1.60736">
        <ele>47</ele>
        <time>2019-02-17T09:40:11Z</time>
      </trkpt>
      <trkpt lat="50.49247" lon="1.60723">
        <ele>47.4</ele>
        <time>2019-02-17T09:40:15Z</time>
      </trkpt>
      <trkpt lat="50.49255" lon="1.6072">
        <ele>47.8</ele>
        <time>2019-02-17T09:40:19Z</time>
      </trkpt>
      <trkpt lat="50.49265" lon="1.60731">
        <ele>49</ele>
        <time>2019-02-17T09:40:23Z</time>
      </trkpt>
      <trkpt lat="50.4927" lon="1.6074">
        <ele>49.6</ele>
        <time>2019-02-17T09:40:27Z</time>
      </trkpt>
      <trkpt lat="50.49276" lon="1.60749">
        <ele>50</ele>
        <time>2019-02-17T09:40:31Z</time>
      </trkpt>
      <trkpt lat="50.4928" lon="1.60761">
        <ele>50.2</ele>
        <time>2019-02-17T09:40:35Z</time>
      </trkpt>
      <trkpt lat="50.49288" lon="1.60771">
        <ele>49.8</ele>
        <time>2019-02-17T09:40:39Z</time>
      </trkpt>
      <trkpt lat="50.49295" lon="1.60782">
        <ele>50.2</ele>
        <time>2019-02-17T09:40:43Z</time>
      </trkpt>
      <trkpt lat="50.49306" lon="1.60793">
        <ele>50</ele>
        <time>2019-02-17T09:40:47Z</time>
      </trkpt>
      <trkpt lat="50.4931" lon="1.60789">
        <ele>49.4</ele>
        <time>2019-02-17T09:40:51Z</time>
      </trkpt>
      <trkpt lat="50.49315" lon="1.60793">
        <ele>49.4</ele>
        <time>2019-02-17T09:40:55Z</time>
      </trkpt>
      <trkpt lat="50.4932" lon="1.60807">
        <ele>50</ele>
        <time>2019-02-17T09:40:59Z</time>
      </trkpt>
      <trkpt lat="50.49321" lon="1.60818">
        <ele>49.6</ele>
        <time>2019-02-17T09:41:03Z</time>
      </trkpt>
      <trkpt lat="50.49318" lon="1.60824">
        <ele>51.4</ele>
        <time>2019-02-17T09:41:07Z</time>
      </trkpt>
      <trkpt lat="50.4932" lon="1.60842">
        <ele>51.6</ele>
        <time>2019-02-17T09:41:11Z</time>
      </trkpt>
      <trkpt lat="50.49321" lon="1.60858">
        <ele>52</ele>
        <time>2019-02-17T09:41:15Z</time>
      </trkpt>
      <trkpt lat="50.49323" lon="1.60869">
        <ele>52</ele>
        <time>2019-02-17T09:41:19Z</time>
      </trkpt>
      <trkpt lat="50.49329" lon="1.60881">
        <ele>52</ele>
        <time>2019-02-17T09:41:23Z</time>
      </trkpt>
      <trkpt lat="50.49332" lon="1.60894">
        <ele>52</ele>
        <time>2019-02-17T09:41:27Z</time>
      </trkpt>
      <trkpt lat="50.49339" lon="1.60914">
        <ele>50.4</ele>
        <time>2019-02-17T09:41:31Z</time>
      </trkpt>
      <trkpt lat="50.49343" lon="1.60939">
        <ele>51</ele>
        <time>2019-02-17T09:41:35Z</time>
      </trkpt>
      <trkpt lat="50.49349" lon="1.60954">
        <ele>50.2</ele>
        <time>2019-02-17T09:41:39Z</time>
      </trkpt>
      <trkpt lat="50.49356" lon="1.60971">
        <ele>50</ele>
        <time>2019-02-17T09:41:43Z</time>
      </trkpt>
      <trkpt lat="50.49363" lon="1.60987">
        <ele>49.6</ele>
        <time>2019-02-17T09:41:47Z</time>
      </trkpt>
      <trkpt lat="50.49371" lon="1.61005">
        <ele>50</ele>
        <time>2019-02-17T09:41:51Z</time>
      </trkpt>
      <trkpt lat="50.49378" lon="1.61024">
        <ele>49.6</ele>
        <time>2019-02-17T09:41:55Z</time>
      </trkpt>
      <trkpt lat="50.49388" lon="1.61029">
        <ele>48.2</ele>
        <time>2019-02-17T09:41:59Z</time>
      </trkpt>
      <trkpt lat="50.4941" lon="1.61037">
        <ele>47.8</ele>
        <time>2019-02-17T09:42:03Z</time>
      </trkpt>
      <trkpt lat="50.49421" lon="1.61066">
        <ele>48.6</ele>
        <time>2019-02-17T09:42:07Z</time>
      </trkpt>
      <trkpt lat="50.49423" lon="1.61098">
        <ele>49.6</ele>
        <time>2019-02-17T09:42:11Z</time>
      </trkpt>
      <trkpt lat="50.49417" lon="1.61109">
        <ele>50.4</ele>
        <time>2019-02-17T09:42:15Z</time>
      </trkpt>
      <trkpt lat="50.49411" lon="1.61124">
        <ele>51.6</ele>
        <time>2019-02-17T09:42:19Z</time>
      </trkpt>
      <trkpt lat="50.49414" lon="1.61134">
        <ele>51.6</ele>
        <time>2019-02-17T09:42:23Z</time>
      </trkpt>
      <trkpt lat="50.49426" lon="1.61131">
        <ele>50.4</ele>
        <time>2019-02-17T09:42:27Z</time>
      </trkpt>
      <trkpt lat="50.49441" lon="1.61122">
        <ele>49.8</ele>
        <time>2019-02-17T09:42:31Z</time>
      </trkpt>
      <trkpt lat="50.49455" lon="1.6113">
        <ele>49.4</ele>
        <time>2019-02-17T09:42:35Z</time>
      </trkpt>
      <trkpt lat="50.49462" lon="1.61145">
        <ele>49</ele>
        <time>2019-02-17T09:42:39Z</time>
      </trkpt>
      <trkpt lat="50.49465" lon="1.61157">
        <ele>50</ele>
        <time>2019-02-17T09:42:43Z</time>
      </trkpt>
      <trkpt lat="50.49459" lon="1.61165">
        <ele>51</ele>
        <time>2019-02-17T09:42:47Z</time>
      </trkpt>
      <trkpt lat="50.49461" lon="1.61178">
        <ele>52.4</ele>
        <time>2019-02-17T09:42:51Z</time>
      </trkpt>
      <trkpt lat="50.49467" lon="1.61189">
        <ele>52</ele>
        <time>2019-02-17T09:42:55Z</time>
      </trkpt>
      <trkpt lat="50.49475" lon="1.61202">
        <ele>52</ele>
        <time>2019-02-17T09:42:59Z</time>
      </trkpt>
      <trkpt lat="50.49484" lon="1.61197">
        <ele>50</ele>
        <time>2019-02-17T09:43:03Z</time>
      </trkpt>
      <trkpt lat="50.49489" lon="1.61195">
        <ele>49.8</ele>
        <time>2019-02-17T09:43:07Z</time>
      </trkpt>
      <trkpt lat="50.49496" lon="1.61218">
        <ele>48</ele>
        <time>2019-02-17T09:43:11Z</time>
      </trkpt>
      <trkpt lat="50.49493" lon="1.61245">
        <ele>49.2</ele>
        <time>2019-02-17T09:43:15Z</time>
      </trkpt>
      <trkpt lat="50.49493" lon="1.61255">
        <ele>50.8</ele>
        <time>2019-02-17T09:43:19Z</time>
      </trkpt>
      <trkpt lat="50.49492" lon="1.61266">
        <ele>51.8</ele>
        <time>2019-02-17T09:43:23Z</time>
      </trkpt>
      <trkpt lat="50.49493" lon="1.61272">
        <ele>53.2</ele>
        <time>2019-02-17T09:43:27Z</time>
      </trkpt>
      <trkpt lat="50.49495" lon="1.61277">
        <ele>52.8</ele>
        <time>2019-02-17T09:43:31Z</time>
      </trkpt>
      <trkpt lat="50.49509" lon="1.61267">
        <ele>51</ele>
        <time>2019-02-17T09:43:35Z</time>
      </trkpt>
      <trkpt lat="50.49515" lon="1.61258">
        <ele>49.6</ele>
        <time>2019-02-17T09:43:39Z</time>
      </trkpt>
      <trkpt lat="50.49514" lon="1.61249">
        <ele>49.6</ele>
        <time>2019-02-17T09:43:43Z</time>
      </trkpt>
      <trkpt lat="50.49509" lon="1.61234">
        <ele>49.4</ele>
        <time>2019-02-17T09:43:47Z</time>
      </trkpt>
      <trkpt lat="50.49504" lon="1.61219">
        <ele>49.6</ele>
        <time>2019-02-17T09:43:51Z</time>
      </trkpt>
      <trkpt lat="50.49498" lon="1.61205">
        <ele>49.6</ele>
        <time>2019-02-17T09:43:55Z</time>
      </trkpt>
      <trkpt lat="50.49493" lon="1.61188">
        <ele>48.8</ele>
        <time>2019-02-17T09:43:59Z</time>
      </trkpt>
      <trkpt lat="50.49498" lon="1.61173">
        <ele>49</ele>
        <time>2019-02-17T09:44:03Z</time>
      </trkpt>
      <trkpt lat="50.49505" lon="1.61179">
        <ele>49</ele>
        <time>2019-02-17T09:44:07Z</time>
      </trkpt>
      <trkpt lat="50.49511" lon="1.61177">
        <ele>50.8</ele>
        <time>2019-02-17T09:44:11Z</time>
      </trkpt>
      <trkpt lat="50.49517" lon="1.61174">
        <ele>49.8</ele>
        <time>2019-02-17T09:44:15Z</time>
      </trkpt>
      <trkpt lat="50.4954" lon="1.61166">
        <ele>48</ele>
        <time>2019-02-17T09:44:19Z</time>
      </trkpt>
      <trkpt lat="50.49547" lon="1.61162">
        <ele>47.6</ele>
        <time>2019-02-17T09:44:23Z</time>
      </trkpt>
      <trkpt lat="50.49555" lon="1.6116">
        <ele>47.4</ele>
        <time>2019-02-17T09:44:27Z</time>
      </trkpt>
      <trkpt lat="50.49563" lon="1.6116">
        <ele>47.8</ele>
        <time>2019-02-17T09:44:31Z</time>
      </trkpt>
      <trkpt lat="50.49577" lon="1.61158">
        <ele>47.8</ele>
        <time>2019-02-17T09:44:35Z</time>
      </trkpt>
      <trkpt lat="50.49587" lon="1.6115">
        <ele>48</ele>
        <time>2019-02-17T09:44:39Z</time>
      </trkpt>
      <trkpt lat="50.49599" lon="1.61145">
        <ele>48.2</ele>
        <time>2019-02-17T09:44:43Z</time>
      </trkpt>
      <trkpt lat="50.49611" lon="1.61137">
        <ele>48.2</ele>
        <time>2019-02-17T09:44:47Z</time>
      </trkpt>
      <trkpt lat="50.49623" lon="1.61128">
        <ele>47.8</ele>
        <time>2019-02-17T09:44:51Z</time>
      </trkpt>
      <trkpt lat="50.49629" lon="1.61116">
        <ele>48.6</ele>
        <time>2019-02-17T09:44:55Z</time>
      </trkpt>
      <trkpt lat="50.49634" lon="1.61108">
        <ele>49.8</ele>
        <time>2019-02-17T09:44:59Z</time>
      </trkpt>
      <trkpt lat="50.49639" lon="1.61103">
        <ele>50.4</ele>
        <time>2019-02-17T09:45:03Z</time>
      </trkpt>
      <trkpt lat="50.49646" lon="1.61097">
        <ele>50.2</ele>
        <time>2019-02-17T09:45:07Z</time>
      </trkpt>
      <trkpt lat="50.49656" lon="1.61082">
        <ele>49.4</ele>
        <time>2019-02-17T09:45:11Z</time>
      </trkpt>
      <trkpt lat="50.49666" lon="1.61075">
        <ele>50</ele>
        <time>2019-02-17T09:45:15Z</time>
      </trkpt>
      <trkpt lat="50.49672" lon="1.6107">
        <ele>50.6</ele>
        <time>2019-02-17T09:45:19Z</time>
      </trkpt>
      <trkpt lat="50.49676" lon="1.61069">
        <ele>52</ele>
        <time>2019-02-17T09:45:23Z</time>
      </trkpt>
      <trkpt lat="50.49681" lon="1.6107">
        <ele>53.4</ele>
        <time>2019-02-17T09:45:27Z</time>
      </trkpt>
      <trkpt lat="50.49687" lon="1.6107">
        <ele>54.8</ele>
        <time>2019-02-17T09:45:31Z</time>
      </trkpt>
      <trkpt lat="50.49697" lon="1.61079">
        <ele>53.8</ele>
        <time>2019-02-17T09:45:35Z</time>
      </trkpt>
      <trkpt lat="50.497" lon="1.61097">
        <ele>53.4</ele>
        <time>2019-02-17T09:45:39Z</time>
      </trkpt>
      <trkpt lat="50.49702" lon="1.61113">
        <ele>54.2</ele>
        <time>2019-02-17T09:45:43Z</time>
      </trkpt>
      <trkpt lat="50.49706" lon="1.61126">
        <ele>53.6</ele>
        <time>2019-02-17T09:45:47Z</time>
      </trkpt>
      <trkpt lat="50.49704" lon="1.61139">
        <ele>54.8</ele>
        <time>2019-02-17T09:45:51Z</time>
      </trkpt>
      <trkpt lat="50.4971" lon="1.61157">
        <ele>53.8</ele>
        <time>2019-02-17T09:45:55Z</time>
      </trkpt>
      <trkpt lat="50.49716" lon="1.61175">
        <ele>51.4</ele>
        <time>2019-02-17T09:45:59Z</time>
      </trkpt>
      <trkpt lat="50.4971" lon="1.61192">
        <ele>50.4</ele>
        <time>2019-02-17T09:46:03Z</time>
      </trkpt>
      <trkpt lat="50.49709" lon="1.61209">
        <ele>50.6</ele>
        <time>2019-02-17T09:46:07Z</time>
      </trkpt>
      <trkpt lat="50.49716" lon="1.61217">
        <ele>51.4</ele>
        <time>2019-02-17T09:46:11Z</time>
      </trkpt>
      <trkpt lat="50.49724" lon="1.61232">
        <ele>52.4</ele>
        <time>2019-02-17T09:46:15Z</time>
      </trkpt>
      <trkpt lat="50.49726" lon="1.61251">
        <ele>50.6</ele>
        <time>2019-02-17T09:46:19Z</time>
      </trkpt>
      <trkpt lat="50.49728" lon="1.61254">
        <ele>51.8</ele>
        <time>2019-02-17T09:46:23Z</time>
      </trkpt>
      <trkpt lat="50.49741" lon="1.61261">
        <ele>48.6</ele>
        <time>2019-02-17T09:46:27Z</time>
      </trkpt>
      <trkpt lat="50.49742" lon="1.61272">
        <ele>48.2</ele>
        <time>2019-02-17T09:46:31Z</time>
      </trkpt>
      <trkpt lat="50.49744" lon="1.61279">
        <ele>49.4</ele>
        <time>2019-02-17T09:46:35Z</time>
      </trkpt>
      <trkpt lat="50.49752" lon="1.61296">
        <ele>48.2</ele>
        <time>2019-02-17T09:46:39Z</time>
      </trkpt>
      <trkpt lat="50.49746" lon="1.61301">
        <ele>48</ele>
        <time>2019-02-17T09:46:43Z</time>
      </trkpt>
      <trkpt lat="50.49739" lon="1.61297">
        <ele>48</ele>
        <time>2019-02-17T09:46:47Z</time>
      </trkpt>
      <trkpt lat="50.49731" lon="1.61293">
        <ele>48.4</ele>
        <time>2019-02-17T09:46:51Z</time>
      </trkpt>
      <trkpt lat="50.49724" lon="1.6129">
        <ele>48.4</ele>
        <time>2019-02-17T09:46:55Z</time>
      </trkpt>
      <trkpt lat="50.49727" lon="1.61297">
        <ele>48.4</ele>
        <time>2019-02-17T09:46:59Z</time>
      </trkpt>
      <trkpt lat="50.49723" lon="1.61303">
        <ele>49.2</ele>
        <time>2019-02-17T09:47:03Z</time>
      </trkpt>
      <trkpt lat="50.49726" lon="1.61312">
        <ele>49</ele>
        <time>2019-02-17T09:47:07Z</time>
      </trkpt>
      <trkpt lat="50.4973" lon="1.61314">
        <ele>49.8</ele>
        <time>2019-02-17T09:47:11Z</time>
      </trkpt>
      <trkpt lat="50.49738" lon="1.61321">
        <ele>49.2</ele>
        <time>2019-02-17T09:47:15Z</time>
      </trkpt>
      <trkpt lat="50.49746" lon="1.61333">
        <ele>49.6</ele>
        <time>2019-02-17T09:47:19Z</time>
      </trkpt>
      <trkpt lat="50.4974" lon="1.61345">
        <ele>50.2</ele>
        <time>2019-02-17T09:47:23Z</time>
      </trkpt>
      <trkpt lat="50.4973" lon="1.61346">
        <ele>49.8</ele>
        <time>2019-02-17T09:47:27Z</time>
      </trkpt>
      <trkpt lat="50.49719" lon="1.61336">
        <ele>49.4</ele>
        <time>2019-02-17T09:47:31Z</time>
      </trkpt>
      <trkpt lat="50.49713" lon="1.61348">
        <ele>48.8</ele>
        <time>2019-02-17T09:47:35Z</time>
      </trkpt>
      <trkpt lat="50.49718" lon="1.61358">
        <ele>48.2</ele>
        <time>2019-02-17T09:47:39Z</time>
      </trkpt>
      <trkpt lat="50.49726" lon="1.61369">
        <ele>48.6</ele>
        <time>2019-02-17T09:47:43Z</time>
      </trkpt>
      <trkpt lat="50.49733" lon="1.61385">
        <ele>48.2</ele>
        <time>2019-02-17T09:47:47Z</time>
      </trkpt>
      <trkpt lat="50.49732" lon="1.61404">
        <ele>48</ele>
        <time>2019-02-17T09:47:51Z</time>
      </trkpt>
      <trkpt lat="50.4972" lon="1.61425">
        <ele>48</ele>
        <time>2019-02-17T09:47:55Z</time>
      </trkpt>
      <trkpt lat="50.49711" lon="1.61439">
        <ele>47.6</ele>
        <time>2019-02-17T09:47:59Z</time>
      </trkpt>
      <trkpt lat="50.49701" lon="1.61456">
        <ele>47.6</ele>
        <time>2019-02-17T09:48:03Z</time>
      </trkpt>
      <trkpt lat="50.49692" lon="1.6147">
        <ele>47.8</ele>
        <time>2019-02-17T09:48:07Z</time>
      </trkpt>
      <trkpt lat="50.49684" lon="1.61482">
        <ele>47.4</ele>
        <time>2019-02-17T09:48:11Z</time>
      </trkpt>
      <trkpt lat="50.49673" lon="1.61494">
        <ele>47.6</ele>
        <time>2019-02-17T09:48:15Z</time>
      </trkpt>
      <trkpt lat="50.49665" lon="1.61505">
        <ele>47.8</ele>
        <time>2019-02-17T09:48:19Z</time>
      </trkpt>
      <trkpt lat="50.49664" lon="1.6151">
        <ele>48</ele>
        <time>2019-02-17T09:48:23Z</time>
      </trkpt>
      <trkpt lat="50.49672" lon="1.61516">
        <ele>49.4</ele>
        <time>2019-02-17T09:48:27Z</time>
      </trkpt>
      <trkpt lat="50.49682" lon="1.61522">
        <ele>49.8</ele>
        <time>2019-02-17T09:48:31Z</time>
      </trkpt>
      <trkpt lat="50.49692" lon="1.61531">
        <ele>49.8</ele>
        <time>2019-02-17T09:48:35Z</time>
      </trkpt>
      <trkpt lat="50.49697" lon="1.61547">
        <ele>50.2</ele>
        <time>2019-02-17T09:48:39Z</time>
      </trkpt>
      <trkpt lat="50.497" lon="1.61561">
        <ele>50.8</ele>
        <time>2019-02-17T09:48:43Z</time>
      </trkpt>
      <trkpt lat="50.49704" lon="1.61576">
        <ele>51.4</ele>
        <time>2019-02-17T09:48:47Z</time>
      </trkpt>
      <trkpt lat="50.49698" lon="1.61582">
        <ele>52.2</ele>
        <time>2019-02-17T09:48:51Z</time>
      </trkpt>
      <trkpt lat="50.49695" lon="1.61588">
        <ele>52.8</ele>
        <time>2019-02-17T09:48:55Z</time>
      </trkpt>
      <trkpt lat="50.49692" lon="1.616">
        <ele>54.4</ele>
        <time>2019-02-17T09:48:59Z</time>
      </trkpt>
      <trkpt lat="50.49684" lon="1.6161">
        <ele>55.2</ele>
        <time>2019-02-17T09:49:03Z</time>
      </trkpt>
      <trkpt lat="50.49677" lon="1.61623">
        <ele>55.4</ele>
        <time>2019-02-17T09:49:07Z</time>
      </trkpt>
      <trkpt lat="50.49666" lon="1.61632">
        <ele>55.4</ele>
        <time>2019-02-17T09:49:11Z</time>
      </trkpt>
      <trkpt lat="50.49658" lon="1.61637">
        <ele>56.4</ele>
        <time>2019-02-17T09:49:15Z</time>
      </trkpt>
      <trkpt lat="50.49649" lon="1.61644">
        <ele>56.6</ele>
        <time>2019-02-17T09:49:19Z</time>
      </trkpt>
      <trkpt lat="50.49637" lon="1.61646">
        <ele>56.8</ele>
        <time>2019-02-17T09:49:23Z</time>
      </trkpt>
      <trkpt lat="50.49622" lon="1.61651">
        <ele>57.2</ele>
        <time>2019-02-17T09:49:27Z</time>
      </trkpt>
      <trkpt lat="50.49611" lon="1.61653">
        <ele>57</ele>
        <time>2019-02-17T09:49:31Z</time>
      </trkpt>
      <trkpt lat="50.49597" lon="1.61655">
        <ele>56.6</ele>
        <time>2019-02-17T09:49:35Z</time>
      </trkpt>
      <trkpt lat="50.49595" lon="1.61661">
        <ele>57.2</ele>
        <time>2019-02-17T09:49:39Z</time>
      </trkpt>
      <trkpt lat="50.49597" lon="1.6167">
        <ele>58.2</ele>
        <time>2019-02-17T09:49:43Z</time>
      </trkpt>
      <trkpt lat="50.49599" lon="1.6168">
        <ele>58.4</ele>
        <time>2019-02-17T09:49:47Z</time>
      </trkpt>
      <trkpt lat="50.49603" lon="1.61694">
        <ele>58</ele>
        <time>2019-02-17T09:49:51Z</time>
      </trkpt>
      <trkpt lat="50.49606" lon="1.61704">
        <ele>59</ele>
        <time>2019-02-17T09:49:55Z</time>
      </trkpt>
      <trkpt lat="50.49609" lon="1.61716">
        <ele>60</ele>
        <time>2019-02-17T09:49:59Z</time>
      </trkpt>
      <trkpt lat="50.49611" lon="1.61722">
        <ele>61.2</ele>
        <time>2019-02-17T09:50:03Z</time>
      </trkpt>
      <trkpt lat="50.49617" lon="1.61722">
        <ele>60.8</ele>
        <time>2019-02-17T09:50:07Z</time>
      </trkpt>
      <trkpt lat="50.49624" lon="1.61715">
        <ele>61.6</ele>
        <time>2019-02-17T09:50:11Z</time>
      </trkpt>
      <trkpt lat="50.49629" lon="1.61709">
        <ele>62.8</ele>
        <time>2019-02-17T09:50:15Z</time>
      </trkpt>
      <trkpt lat="50.49638" lon="1.61704">
        <ele>62</ele>
        <time>2019-02-17T09:50:19Z</time>
      </trkpt>
      <trkpt lat="50.49653" lon="1.61709">
        <ele>61.4</ele>
        <time>2019-02-17T09:50:23Z</time>
      </trkpt>
      <trkpt lat="50.49664" lon="1.61705">
        <ele>61.2</ele>
        <time>2019-02-17T09:50:27Z</time>
      </trkpt>
      <trkpt lat="50.49675" lon="1.61696">
        <ele>60.4</ele>
        <time>2019-02-17T09:50:31Z</time>
      </trkpt>
      <trkpt lat="50.497" lon="1.61691">
        <ele>57.2</ele>
        <time>2019-02-17T09:50:35Z</time>
      </trkpt>
      <trkpt lat="50.49718" lon="1.61694">
        <ele>55.2</ele>
        <time>2019-02-17T09:50:39Z</time>
      </trkpt>
      <trkpt lat="50.49723" lon="1.61702">
        <ele>55.2</ele>
        <time>2019-02-17T09:50:43Z</time>
      </trkpt>
      <trkpt lat="50.49729" lon="1.61692">
        <ele>54.4</ele>
        <time>2019-02-17T09:50:47Z</time>
      </trkpt>
      <trkpt lat="50.49747" lon="1.61672">
        <ele>52.8</ele>
        <time>2019-02-17T09:50:51Z</time>
      </trkpt>
      <trkpt lat="50.49762" lon="1.61652">
        <ele>52.2</ele>
        <time>2019-02-17T09:50:55Z</time>
      </trkpt>
      <trkpt lat="50.49779" lon="1.61651">
        <ele>51.4</ele>
        <time>2019-02-17T09:50:59Z</time>
      </trkpt>
      <trkpt lat="50.49803" lon="1.61658">
        <ele>49.6</ele>
        <time>2019-02-17T09:51:03Z</time>
      </trkpt>
      <trkpt lat="50.49816" lon="1.61666">
        <ele>50.6</ele>
        <time>2019-02-17T09:51:07Z</time>
      </trkpt>
      <trkpt lat="50.49821" lon="1.61666">
        <ele>52</ele>
        <time>2019-02-17T09:51:11Z</time>
      </trkpt>
      <trkpt lat="50.49826" lon="1.61664">
        <ele>52.8</ele>
        <time>2019-02-17T09:51:15Z</time>
      </trkpt>
      <trkpt lat="50.4983" lon="1.61657">
        <ele>53.4</ele>
        <time>2019-02-17T09:51:19Z</time>
      </trkpt>
      <trkpt lat="50.49826" lon="1.61648">
        <ele>54.2</ele>
        <time>2019-02-17T09:51:23Z</time>
      </trkpt>
      <trkpt lat="50.49825" lon="1.6164">
        <ele>55.6</ele>
        <time>2019-02-17T09:51:27Z</time>
      </trkpt>
      <trkpt lat="50.49819" lon="1.61616">
        <ele>53.2</ele>
        <time>2019-02-17T09:51:31Z</time>
      </trkpt>
      <trkpt lat="50.49819" lon="1.61596">
        <ele>53.4</ele>
        <time>2019-02-17T09:51:35Z</time>
      </trkpt>
      <trkpt lat="50.49821" lon="1.61583">
        <ele>55.6</ele>
        <time>2019-02-17T09:51:39Z</time>
      </trkpt>
      <trkpt lat="50.49819" lon="1.61564">
        <ele>53.6</ele>
        <time>2019-02-17T09:51:43Z</time>
      </trkpt>
      <trkpt lat="50.49819" lon="1.61532">
        <ele>52.6</ele>
        <time>2019-02-17T09:51:47Z</time>
      </trkpt>
      <trkpt lat="50.49818" lon="1.615">
        <ele>52.6</ele>
        <time>2019-02-17T09:51:51Z</time>
      </trkpt>
      <trkpt lat="50.4982" lon="1.61477">
        <ele>52.6</ele>
        <time>2019-02-17T09:51:55Z</time>
      </trkpt>
      <trkpt lat="50.49822" lon="1.61458">
        <ele>52.4</ele>
        <time>2019-02-17T09:51:59Z</time>
      </trkpt>
      <trkpt lat="50.49822" lon="1.61426">
        <ele>51.4</ele>
        <time>2019-02-17T09:52:03Z</time>
      </trkpt>
      <trkpt lat="50.49824" lon="1.61398">
        <ele>51.2</ele>
        <time>2019-02-17T09:52:07Z</time>
      </trkpt>
      <trkpt lat="50.49831" lon="1.61376">
        <ele>51.4</ele>
        <time>2019-02-17T09:52:11Z</time>
      </trkpt>
      <trkpt lat="50.49833" lon="1.61351">
        <ele>51.4</ele>
        <time>2019-02-17T09:52:15Z</time>
      </trkpt>
      <trkpt lat="50.49838" lon="1.61335">
        <ele>51.8</ele>
        <time>2019-02-17T09:52:19Z</time>
      </trkpt>
      <trkpt lat="50.49845" lon="1.6133">
        <ele>53.2</ele>
        <time>2019-02-17T09:52:23Z</time>
      </trkpt>
      <trkpt lat="50.49849" lon="1.61327">
        <ele>54.2</ele>
        <time>2019-02-17T09:52:27Z</time>
      </trkpt>
      <trkpt lat="50.49853" lon="1.61322">
        <ele>55.8</ele>
        <time>2019-02-17T09:52:31Z</time>
      </trkpt>
      <trkpt lat="50.49857" lon="1.61317">
        <ele>56.2</ele>
        <time>2019-02-17T09:52:35Z</time>
      </trkpt>
      <trkpt lat="50.49864" lon="1.61319">
        <ele>57</ele>
        <time>2019-02-17T09:52:39Z</time>
      </trkpt>
      <trkpt lat="50.49871" lon="1.61319">
        <ele>57.6</ele>
        <time>2019-02-17T09:52:43Z</time>
      </trkpt>
      <trkpt lat="50.4988" lon="1.61319">
        <ele>58.4</ele>
        <time>2019-02-17T09:52:47Z</time>
      </trkpt>
      <trkpt lat="50.49887" lon="1.61321">
        <ele>58.8</ele>
        <time>2019-02-17T09:52:51Z</time>
      </trkpt>
      <trkpt lat="50.49898" lon="1.61322">
        <ele>58.6</ele>
        <time>2019-02-17T09:52:55Z</time>
      </trkpt>
      <trkpt lat="50.49903" lon="1.61325">
        <ele>59.6</ele>
        <time>2019-02-17T09:52:59Z</time>
      </trkpt>
      <trkpt lat="50.49908" lon="1.61328">
        <ele>60.4</ele>
        <time>2019-02-17T09:53:03Z</time>
      </trkpt>
      <trkpt lat="50.49914" lon="1.61331">
        <ele>61.4</ele>
        <time>2019-02-17T09:53:07Z</time>
      </trkpt>
      <trkpt lat="50.4992" lon="1.61335">
        <ele>62</ele>
        <time>2019-02-17T09:53:11Z</time>
      </trkpt>
      <trkpt lat="50.49925" lon="1.61339">
        <ele>63.4</ele>
        <time>2019-02-17T09:53:15Z</time>
      </trkpt>
      <trkpt lat="50.49929" lon="1.61347">
        <ele>64.4</ele>
        <time>2019-02-17T09:53:19Z</time>
      </trkpt>
      <trkpt lat="50.49933" lon="1.61354">
        <ele>66.2</ele>
        <time>2019-02-17T09:53:23Z</time>
      </trkpt>
      <trkpt lat="50.49937" lon="1.61363">
        <ele>67.4</ele>
        <time>2019-02-17T09:53:27Z</time>
      </trkpt>
      <trkpt lat="50.49941" lon="1.61378">
        <ele>67</ele>
        <time>2019-02-17T09:53:31Z</time>
      </trkpt>
      <trkpt lat="50.49948" lon="1.61386">
        <ele>67.2</ele>
        <time>2019-02-17T09:53:35Z</time>
      </trkpt>
      <trkpt lat="50.49952" lon="1.61394">
        <ele>66.2</ele>
        <time>2019-02-17T09:53:39Z</time>
      </trkpt>
      <trkpt lat="50.49951" lon="1.61405">
        <ele>66.2</ele>
        <time>2019-02-17T09:53:43Z</time>
      </trkpt>
      <trkpt lat="50.49938" lon="1.61414">
        <ele>65.6</ele>
        <time>2019-02-17T09:53:47Z</time>
      </trkpt>
      <trkpt lat="50.49915" lon="1.61414">
        <ele>61.8</ele>
        <time>2019-02-17T09:53:51Z</time>
      </trkpt>
      <trkpt lat="50.49916" lon="1.61428">
        <ele>58.6</ele>
        <time>2019-02-17T09:53:55Z</time>
      </trkpt>
      <trkpt lat="50.49924" lon="1.61437">
        <ele>59.8</ele>
        <time>2019-02-17T09:53:59Z</time>
      </trkpt>
      <trkpt lat="50.49925" lon="1.61448">
        <ele>59.8</ele>
        <time>2019-02-17T09:54:03Z</time>
      </trkpt>
      <trkpt lat="50.49929" lon="1.61454">
        <ele>61.2</ele>
        <time>2019-02-17T09:54:07Z</time>
      </trkpt>
      <trkpt lat="50.49935" lon="1.61458">
        <ele>62</ele>
        <time>2019-02-17T09:54:11Z</time>
      </trkpt>
      <trkpt lat="50.49942" lon="1.61471">
        <ele>63.2</ele>
        <time>2019-02-17T09:54:15Z</time>
      </trkpt>
      <trkpt lat="50.49931" lon="1.6148">
        <ele>63</ele>
        <time>2019-02-17T09:54:19Z</time>
      </trkpt>
      <trkpt lat="50.49919" lon="1.61467">
        <ele>62</ele>
        <time>2019-02-17T09:54:23Z</time>
      </trkpt>
      <trkpt lat="50.49908" lon="1.61442">
        <ele>61.2</ele>
        <time>2019-02-17T09:54:27Z</time>
      </trkpt>
      <trkpt lat="50.49896" lon="1.61433">
        <ele>58.8</ele>
        <time>2019-02-17T09:54:31Z</time>
      </trkpt>
      <trkpt lat="50.49883" lon="1.6145">
        <ele>56.6</ele>
        <time>2019-02-17T09:54:35Z</time>
      </trkpt>
      <trkpt lat="50.49887" lon="1.61468">
        <ele>54.6</ele>
        <time>2019-02-17T09:54:39Z</time>
      </trkpt>
      <trkpt lat="50.49893" lon="1.6148">
        <ele>54</ele>
        <time>2019-02-17T09:54:43Z</time>
      </trkpt>
      <trkpt lat="50.49899" lon="1.61503">
        <ele>54</ele>
        <time>2019-02-17T09:54:47Z</time>
      </trkpt>
      <trkpt lat="50.49916" lon="1.61525">
        <ele>53.8</ele>
        <time>2019-02-17T09:54:51Z</time>
      </trkpt>
      <trkpt lat="50.49933" lon="1.61548">
        <ele>52.4</ele>
        <time>2019-02-17T09:54:55Z</time>
      </trkpt>
      <trkpt lat="50.49952" lon="1.61558">
        <ele>49.6</ele>
        <time>2019-02-17T09:54:59Z</time>
      </trkpt>
      <trkpt lat="50.49964" lon="1.61574">
        <ele>49.8</ele>
        <time>2019-02-17T09:55:03Z</time>
      </trkpt>
      <trkpt lat="50.49979" lon="1.61583">
        <ele>49</ele>
        <time>2019-02-17T09:55:07Z</time>
      </trkpt>
      <trkpt lat="50.49993" lon="1.61596">
        <ele>47.8</ele>
        <time>2019-02-17T09:55:11Z</time>
      </trkpt>
      <trkpt lat="50.50011" lon="1.6161">
        <ele>47.8</ele>
        <time>2019-02-17T09:55:15Z</time>
      </trkpt>
      <trkpt lat="50.50024" lon="1.61636">
        <ele>47.6</ele>
        <time>2019-02-17T09:55:19Z</time>
      </trkpt>
      <trkpt lat="50.50035" lon="1.61659">
        <ele>47.2</ele>
        <time>2019-02-17T09:55:23Z</time>
      </trkpt>
      <trkpt lat="50.50046" lon="1.61676">
        <ele>47.2</ele>
        <time>2019-02-17T09:55:27Z</time>
      </trkpt>
      <trkpt lat="50.5006" lon="1.61692">
        <ele>46.8</ele>
        <time>2019-02-17T09:55:31Z</time>
      </trkpt>
      <trkpt lat="50.50054" lon="1.61706">
        <ele>47.6</ele>
        <time>2019-02-17T09:55:35Z</time>
      </trkpt>
      <trkpt lat="50.50038" lon="1.61702">
        <ele>47.4</ele>
        <time>2019-02-17T09:55:39Z</time>
      </trkpt>
      <trkpt lat="50.50023" lon="1.61704">
        <ele>48.4</ele>
        <time>2019-02-17T09:55:43Z</time>
      </trkpt>
      <trkpt lat="50.50011" lon="1.61714">
        <ele>48</ele>
        <time>2019-02-17T09:55:47Z</time>
      </trkpt>
      <trkpt lat="50.50008" lon="1.61717">
        <ele>47.8</ele>
        <time>2019-02-17T09:55:51Z</time>
      </trkpt>
      <trkpt lat="50.50001" lon="1.61721">
        <ele>48</ele>
        <time>2019-02-17T09:55:55Z</time>
      </trkpt>
      <trkpt lat="50.49996" lon="1.61723">
        <ele>49.6</ele>
        <time>2019-02-17T09:55:59Z</time>
      </trkpt>
      <trkpt lat="50.49992" lon="1.61726">
        <ele>51</ele>
        <time>2019-02-17T09:56:03Z</time>
      </trkpt>
      <trkpt lat="50.49987" lon="1.6173">
        <ele>52.4</ele>
        <time>2019-02-17T09:56:07Z</time>
      </trkpt>
      <trkpt lat="50.4998" lon="1.61734">
        <ele>52.2</ele>
        <time>2019-02-17T09:56:11Z</time>
      </trkpt>
      <trkpt lat="50.4997" lon="1.61738">
        <ele>52.4</ele>
        <time>2019-02-17T09:56:15Z</time>
      </trkpt>
      <trkpt lat="50.4996" lon="1.61735">
        <ele>52.8</ele>
        <time>2019-02-17T09:56:19Z</time>
      </trkpt>
      <trkpt lat="50.49953" lon="1.6174">
        <ele>53.8</ele>
        <time>2019-02-17T09:56:23Z</time>
      </trkpt>
      <trkpt lat="50.49947" lon="1.61743">
        <ele>55.6</ele>
        <time>2019-02-17T09:56:27Z</time>
      </trkpt>
      <trkpt lat="50.49942" lon="1.61748">
        <ele>56.2</ele>
        <time>2019-02-17T09:56:31Z</time>
      </trkpt>
      <trkpt lat="50.49933" lon="1.61752">
        <ele>57.2</ele>
        <time>2019-02-17T09:56:35Z</time>
      </trkpt>
      <trkpt lat="50.49923" lon="1.61752">
        <ele>57.4</ele>
        <time>2019-02-17T09:56:39Z</time>
      </trkpt>
      <trkpt lat="50.4991" lon="1.61756">
        <ele>56.6</ele>
        <time>2019-02-17T09:56:43Z</time>
      </trkpt>
      <trkpt lat="50.49892" lon="1.61751">
        <ele>55.8</ele>
        <time>2019-02-17T09:56:47Z</time>
      </trkpt>
      <trkpt lat="50.49877" lon="1.61736">
        <ele>54.8</ele>
        <time>2019-02-17T09:56:51Z</time>
      </trkpt>
      <trkpt lat="50.49862" lon="1.61737">
        <ele>53.4</ele>
        <time>2019-02-17T09:56:55Z</time>
      </trkpt>
      <trkpt lat="50.49848" lon="1.61742">
        <ele>52.6</ele>
        <time>2019-02-17T09:56:59Z</time>
      </trkpt>
      <trkpt lat="50.49852" lon="1.61754">
        <ele>52.8</ele>
        <time>2019-02-17T09:57:03Z</time>
      </trkpt>
      <trkpt lat="50.49855" lon="1.61769">
        <ele>54</ele>
        <time>2019-02-17T09:57:07Z</time>
      </trkpt>
      <trkpt lat="50.49855" lon="1.61783">
        <ele>55.2</ele>
        <time>2019-02-17T09:57:11Z</time>
      </trkpt>
      <trkpt lat="50.49859" lon="1.61796">
        <ele>55.8</ele>
        <time>2019-02-17T09:57:15Z</time>
      </trkpt>
      <trkpt lat="50.49861" lon="1.61807">
        <ele>56.6</ele>
        <time>2019-02-17T09:57:19Z</time>
      </trkpt>
      <trkpt lat="50.49862" lon="1.61819">
        <ele>57.4</ele>
        <time>2019-02-17T09:57:23Z</time>
      </trkpt>
      <trkpt lat="50.49863" lon="1.61829">
        <ele>58.2</ele>
        <time>2019-02-17T09:57:27Z</time>
      </trkpt>
      <trkpt lat="50.49865" lon="1.61836">
        <ele>59</ele>
        <time>2019-02-17T09:57:31Z</time>
      </trkpt>
      <trkpt lat="50.49869" lon="1.61842">
        <ele>59.6</ele>
        <time>2019-02-17T09:57:35Z</time>
      </trkpt>
      <trkpt lat="50.49873" lon="1.61849">
        <ele>60.2</ele>
        <time>2019-02-17T09:57:39Z</time>
      </trkpt>
      <trkpt lat="50.49878" lon="1.61858">
        <ele>61.4</ele>
        <time>2019-02-17T09:57:43Z</time>
      </trkpt>
      <trkpt lat="50.49883" lon="1.61867">
        <ele>62</ele>
        <time>2019-02-17T09:57:47Z</time>
      </trkpt>
      <trkpt lat="50.49888" lon="1.61875">
        <ele>62.2</ele>
        <time>2019-02-17T09:57:51Z</time>
      </trkpt>
      <trkpt lat="50.49891" lon="1.61884">
        <ele>63.2</ele>
        <time>2019-02-17T09:57:55Z</time>
      </trkpt>
      <trkpt lat="50.49895" lon="1.6189">
        <ele>64.2</ele>
        <time>2019-02-17T09:57:59Z</time>
      </trkpt>
      <trkpt lat="50.49899" lon="1.61896">
        <ele>65.4</ele>
        <time>2019-02-17T09:58:03Z</time>
      </trkpt>
      <trkpt lat="50.49904" lon="1.61904">
        <ele>65.8</ele>
        <time>2019-02-17T09:58:07Z</time>
      </trkpt>
      <trkpt lat="50.49915" lon="1.61911">
        <ele>65.2</ele>
        <time>2019-02-17T09:58:11Z</time>
      </trkpt>
      <trkpt lat="50.49921" lon="1.61916">
        <ele>66.8</ele>
        <time>2019-02-17T09:58:15Z</time>
      </trkpt>
      <trkpt lat="50.49925" lon="1.61921">
        <ele>68.2</ele>
        <time>2019-02-17T09:58:19Z</time>
      </trkpt>
      <trkpt lat="50.49928" lon="1.61921">
        <ele>69.2</ele>
        <time>2019-02-17T09:58:23Z</time>
      </trkpt>
      <trkpt lat="50.49927" lon="1.61917">
        <ele>69.6</ele>
        <time>2019-02-17T09:58:27Z</time>
      </trkpt>
      <trkpt lat="50.49925" lon="1.61906">
        <ele>69.8</ele>
        <time>2019-02-17T09:58:31Z</time>
      </trkpt>
      <trkpt lat="50.49927" lon="1.61891">
        <ele>68.8</ele>
        <time>2019-02-17T09:58:35Z</time>
      </trkpt>
      <trkpt lat="50.49936" lon="1.61867">
        <ele>65.6</ele>
        <time>2019-02-17T09:58:39Z</time>
      </trkpt>
      <trkpt lat="50.49951" lon="1.61849">
        <ele>61.8</ele>
        <time>2019-02-17T09:58:43Z</time>
      </trkpt>
      <trkpt lat="50.49964" lon="1.61836">
        <ele>59.4</ele>
        <time>2019-02-17T09:58:47Z</time>
      </trkpt>
      <trkpt lat="50.49977" lon="1.61826">
        <ele>57.2</ele>
        <time>2019-02-17T09:58:51Z</time>
      </trkpt>
      <trkpt lat="50.49993" lon="1.61818">
        <ele>53.8</ele>
        <time>2019-02-17T09:58:55Z</time>
      </trkpt>
      <trkpt lat="50.50001" lon="1.61823">
        <ele>53.8</ele>
        <time>2019-02-17T09:58:59Z</time>
      </trkpt>
      <trkpt lat="50.50003" lon="1.61838">
        <ele>54</ele>
        <time>2019-02-17T09:59:03Z</time>
      </trkpt>
      <trkpt lat="50.5001" lon="1.61859">
        <ele>53.6</ele>
        <time>2019-02-17T09:59:07Z</time>
      </trkpt>
      <trkpt lat="50.50016" lon="1.61869">
        <ele>54.4</ele>
        <time>2019-02-17T09:59:11Z</time>
      </trkpt>
      <trkpt lat="50.50019" lon="1.6188">
        <ele>54.4</ele>
        <time>2019-02-17T09:59:15Z</time>
      </trkpt>
      <trkpt lat="50.50028" lon="1.61896">
        <ele>54.2</ele>
        <time>2019-02-17T09:59:19Z</time>
      </trkpt>
      <trkpt lat="50.50034" lon="1.61909">
        <ele>53.8</ele>
        <time>2019-02-17T09:59:23Z</time>
      </trkpt>
      <trkpt lat="50.50053" lon="1.6193">
        <ele>52.6</ele>
        <time>2019-02-17T09:59:27Z</time>
      </trkpt>
      <trkpt lat="50.5006" lon="1.61951">
        <ele>51.8</ele>
        <time>2019-02-17T09:59:31Z</time>
      </trkpt>
      <trkpt lat="50.50066" lon="1.61957">
        <ele>52.4</ele>
        <time>2019-02-17T09:59:35Z</time>
      </trkpt>
      <trkpt lat="50.5008" lon="1.61962">
        <ele>53.2</ele>
        <time>2019-02-17T09:59:39Z</time>
      </trkpt>
      <trkpt lat="50.5009" lon="1.61973">
        <ele>54</ele>
        <time>2019-02-17T09:59:43Z</time>
      </trkpt>
      <trkpt lat="50.50097" lon="1.61973">
        <ele>54.6</ele>
        <time>2019-02-17T09:59:47Z</time>
      </trkpt>
      <trkpt lat="50.50107" lon="1.61961">
        <ele>53.2</ele>
        <time>2019-02-17T09:59:51Z</time>
      </trkpt>
      <trkpt lat="50.50107" lon="1.61947">
        <ele>53.4</ele>
        <time>2019-02-17T09:59:55Z</time>
      </trkpt>
      <trkpt lat="50.50109" lon="1.61938">
        <ele>54.4</ele>
        <time>2019-02-17T09:59:59Z</time>
      </trkpt>
      <trkpt lat="50.50113" lon="1.61919">
        <ele>53</ele>
        <time>2019-02-17T10:00:03Z</time>
      </trkpt>
      <trkpt lat="50.50125" lon="1.61906">
        <ele>52</ele>
        <time>2019-02-17T10:00:07Z</time>
      </trkpt>
      <trkpt lat="50.50131" lon="1.6191">
        <ele>52.8</ele>
        <time>2019-02-17T10:00:11Z</time>
      </trkpt>
      <trkpt lat="50.50136" lon="1.61911">
        <ele>53.6</ele>
        <time>2019-02-17T10:00:15Z</time>
      </trkpt>
      <trkpt lat="50.5014" lon="1.61918">
        <ele>54.4</ele>
        <time>2019-02-17T10:00:19Z</time>
      </trkpt>
      <trkpt lat="50.50144" lon="1.61924">
        <ele>55.2</ele>
        <time>2019-02-17T10:00:23Z</time>
      </trkpt>
      <trkpt lat="50.50148" lon="1.61936">
        <ele>54.8</ele>
        <time>2019-02-17T10:00:27Z</time>
      </trkpt>
      <trkpt lat="50.50162" lon="1.61955">
        <ele>53.8</ele>
        <time>2019-02-17T10:00:31Z</time>
      </trkpt>
      <trkpt lat="50.50178" lon="1.61977">
        <ele>52.6</ele>
        <time>2019-02-17T10:00:35Z</time>
      </trkpt>
      <trkpt lat="50.50186" lon="1.62002">
        <ele>52</ele>
        <time>2019-02-17T10:00:39Z</time>
      </trkpt>
      <trkpt lat="50.50183" lon="1.62006">
        <ele>52.8</ele>
        <time>2019-02-17T10:00:43Z</time>
      </trkpt>
      <trkpt lat="50.5018" lon="1.62016">
        <ele>53.4</ele>
        <time>2019-02-17T10:00:47Z</time>
      </trkpt>
      <trkpt lat="50.5018" lon="1.62024">
        <ele>54.2</ele>
        <time>2019-02-17T10:00:51Z</time>
      </trkpt>
      <trkpt lat="50.50182" lon="1.62033">
        <ele>54.2</ele>
        <time>2019-02-17T10:00:55Z</time>
      </trkpt>
      <trkpt lat="50.50185" lon="1.62052">
        <ele>54.4</ele>
        <time>2019-02-17T10:00:59Z</time>
      </trkpt>
      <trkpt lat="50.50185" lon="1.62052">
        <ele>54.4</ele>
        <time>2019-02-17T10:01:03Z</time>
      </trkpt>
      <trkpt lat="50.50187" lon="1.6206">
        <ele>55.8</ele>
        <time>2019-02-17T10:01:07Z</time>
      </trkpt>
      <trkpt lat="50.50186" lon="1.62064">
        <ele>55.8</ele>
        <time>2019-02-17T10:01:11Z</time>
      </trkpt>
      <trkpt lat="50.50186" lon="1.62069">
        <ele>57</ele>
        <time>2019-02-17T10:01:15Z</time>
      </trkpt>
      <trkpt lat="50.50186" lon="1.62069">
        <ele>57</ele>
        <time>2019-02-17T10:01:19Z</time>
      </trkpt>
      <trkpt lat="50.50187" lon="1.62075">
        <ele>58.6</ele>
        <time>2019-02-17T10:01:23Z</time>
      </trkpt>
      <trkpt lat="50.5019" lon="1.62081">
        <ele>58.8</ele>
        <time>2019-02-17T10:01:27Z</time>
      </trkpt>
      <trkpt lat="50.50192" lon="1.62088">
        <ele>58.8</ele>
        <time>2019-02-17T10:01:31Z</time>
      </trkpt>
      <trkpt lat="50.50195" lon="1.6209">
        <ele>59.2</ele>
        <time>2019-02-17T10:01:35Z</time>
      </trkpt>
      <trkpt lat="50.50197" lon="1.62091">
        <ele>58.8</ele>
        <time>2019-02-17T10:01:39Z</time>
      </trkpt>
      <trkpt lat="50.50203" lon="1.62089">
        <ele>58.6</ele>
        <time>2019-02-17T10:01:43Z</time>
      </trkpt>
      <trkpt lat="50.50209" lon="1.62093">
        <ele>59.6</ele>
        <time>2019-02-17T10:01:47Z</time>
      </trkpt>
      <trkpt lat="50.50212" lon="1.62104">
        <ele>58.6</ele>
        <time>2019-02-17T10:01:51Z</time>
      </trkpt>
      <trkpt lat="50.50213" lon="1.62114">
        <ele>59.6</ele>
        <time>2019-02-17T10:01:55Z</time>
      </trkpt>
      <trkpt lat="50.50217" lon="1.6212">
        <ele>60.2</ele>
        <time>2019-02-17T10:01:59Z</time>
      </trkpt>
      <trkpt lat="50.50213" lon="1.62127">
        <ele>60.8</ele>
        <time>2019-02-17T10:02:03Z</time>
      </trkpt>
      <trkpt lat="50.50208" lon="1.62133">
        <ele>62</ele>
        <time>2019-02-17T10:02:07Z</time>
      </trkpt>
      <trkpt lat="50.50199" lon="1.62134">
        <ele>61.2</ele>
        <time>2019-02-17T10:02:11Z</time>
      </trkpt>
      <trkpt lat="50.50192" lon="1.62135">
        <ele>62</ele>
        <time>2019-02-17T10:02:15Z</time>
      </trkpt>
      <trkpt lat="50.50184" lon="1.62136">
        <ele>62.2</ele>
        <time>2019-02-17T10:02:19Z</time>
      </trkpt>
      <trkpt lat="50.5018" lon="1.62136">
        <ele>63.8</ele>
        <time>2019-02-17T10:02:23Z</time>
      </trkpt>
      <trkpt lat="50.50176" lon="1.6214">
        <ele>65</ele>
        <time>2019-02-17T10:02:27Z</time>
      </trkpt>
      <trkpt lat="50.50174" lon="1.62142">
        <ele>64.8</ele>
        <time>2019-02-17T10:02:31Z</time>
      </trkpt>
      <trkpt lat="50.50171" lon="1.62134">
        <ele>64.6</ele>
        <time>2019-02-17T10:02:35Z</time>
      </trkpt>
      <trkpt lat="50.50173" lon="1.62128">
        <ele>63.8</ele>
        <time>2019-02-17T10:02:39Z</time>
      </trkpt>
      <trkpt lat="50.50175" lon="1.62118">
        <ele>61.2</ele>
        <time>2019-02-17T10:02:43Z</time>
      </trkpt>
      <trkpt lat="50.50169" lon="1.62114">
        <ele>61.6</ele>
        <time>2019-02-17T10:02:47Z</time>
      </trkpt>
      <trkpt lat="50.50166" lon="1.62113">
        <ele>63</ele>
        <time>2019-02-17T10:02:51Z</time>
      </trkpt>
      <trkpt lat="50.50163" lon="1.62113">
        <ele>64</ele>
        <time>2019-02-17T10:02:55Z</time>
      </trkpt>
      <trkpt lat="50.50158" lon="1.62111">
        <ele>64.6</ele>
        <time>2019-02-17T10:02:59Z</time>
      </trkpt>
      <trkpt lat="50.50156" lon="1.62106">
        <ele>64.6</ele>
        <time>2019-02-17T10:03:03Z</time>
      </trkpt>
      <trkpt lat="50.50157" lon="1.62097">
        <ele>62.2</ele>
        <time>2019-02-17T10:03:07Z</time>
      </trkpt>
      <trkpt lat="50.50159" lon="1.62084">
        <ele>60.4</ele>
        <time>2019-02-17T10:03:11Z</time>
      </trkpt>
      <trkpt lat="50.50159" lon="1.62068">
        <ele>58</ele>
        <time>2019-02-17T10:03:15Z</time>
      </trkpt>
      <trkpt lat="50.50152" lon="1.62059">
        <ele>57.4</ele>
        <time>2019-02-17T10:03:19Z</time>
      </trkpt>
      <trkpt lat="50.50147" lon="1.62058">
        <ele>58.4</ele>
        <time>2019-02-17T10:03:23Z</time>
      </trkpt>
      <trkpt lat="50.50148" lon="1.62063">
        <ele>59.6</ele>
        <time>2019-02-17T10:03:27Z</time>
      </trkpt>
      <trkpt lat="50.50144" lon="1.62062">
        <ele>59.2</ele>
        <time>2019-02-17T10:03:31Z</time>
      </trkpt>
      <trkpt lat="50.5014" lon="1.62053">
        <ele>58.6</ele>
        <time>2019-02-17T10:03:35Z</time>
      </trkpt>
      <trkpt lat="50.50131" lon="1.62046">
        <ele>56.4</ele>
        <time>2019-02-17T10:03:39Z</time>
      </trkpt>
      <trkpt lat="50.5012" lon="1.62027">
        <ele>56.4</ele>
        <time>2019-02-17T10:03:43Z</time>
      </trkpt>
      <trkpt lat="50.5011" lon="1.62022">
        <ele>55.8</ele>
        <time>2019-02-17T10:03:47Z</time>
      </trkpt>
      <trkpt lat="50.50103" lon="1.62031">
        <ele>56.6</ele>
        <time>2019-02-17T10:03:51Z</time>
      </trkpt>
      <trkpt lat="50.50095" lon="1.62032">
        <ele>56</ele>
        <time>2019-02-17T10:03:55Z</time>
      </trkpt>
      <trkpt lat="50.50093" lon="1.62045">
        <ele>56.8</ele>
        <time>2019-02-17T10:03:59Z</time>
      </trkpt>
      <trkpt lat="50.50095" lon="1.62062">
        <ele>56.8</ele>
        <time>2019-02-17T10:04:03Z</time>
      </trkpt>
      <trkpt lat="50.50099" lon="1.62072">
        <ele>58</ele>
        <time>2019-02-17T10:04:07Z</time>
      </trkpt>
      <trkpt lat="50.50101" lon="1.62082">
        <ele>59.2</ele>
        <time>2019-02-17T10:04:11Z</time>
      </trkpt>
      <trkpt lat="50.50104" lon="1.62087">
        <ele>60.4</ele>
        <time>2019-02-17T10:04:15Z</time>
      </trkpt>
      <trkpt lat="50.50108" lon="1.62091">
        <ele>61.4</ele>
        <time>2019-02-17T10:04:19Z</time>
      </trkpt>
      <trkpt lat="50.50111" lon="1.62094">
        <ele>62</ele>
        <time>2019-02-17T10:04:23Z</time>
      </trkpt>
      <trkpt lat="50.50114" lon="1.621">
        <ele>63.2</ele>
        <time>2019-02-17T10:04:27Z</time>
      </trkpt>
      <trkpt lat="50.50119" lon="1.62106">
        <ele>64.2</ele>
        <time>2019-02-17T10:04:31Z</time>
      </trkpt>
      <trkpt lat="50.50123" lon="1.62111">
        <ele>65.6</ele>
        <time>2019-02-17T10:04:35Z</time>
      </trkpt>
      <trkpt lat="50.50127" lon="1.62116">
        <ele>66.4</ele>
        <time>2019-02-17T10:04:39Z</time>
      </trkpt>
      <trkpt lat="50.50134" lon="1.62112">
        <ele>66.2</ele>
        <time>2019-02-17T10:04:43Z</time>
      </trkpt>
      <trkpt lat="50.50142" lon="1.6211">
        <ele>66.2</ele>
        <time>2019-02-17T10:04:47Z</time>
      </trkpt>
      <trkpt lat="50.50146" lon="1.6211">
        <ele>67.6</ele>
        <time>2019-02-17T10:04:51Z</time>
      </trkpt>
      <trkpt lat="50.5015" lon="1.62117">
        <ele>68.8</ele>
        <time>2019-02-17T10:04:55Z</time>
      </trkpt>
      <trkpt lat="50.50151" lon="1.62125">
        <ele>69.8</ele>
        <time>2019-02-17T10:04:59Z</time>
      </trkpt>
      <trkpt lat="50.50154" lon="1.62132">
        <ele>70.4</ele>
        <time>2019-02-17T10:05:03Z</time>
      </trkpt>
      <trkpt lat="50.50157" lon="1.6214">
        <ele>69.8</ele>
        <time>2019-02-17T10:05:07Z</time>
      </trkpt>
      <trkpt lat="50.5016" lon="1.62151">
        <ele>70.4</ele>
        <time>2019-02-17T10:05:11Z</time>
      </trkpt>
      <trkpt lat="50.50161" lon="1.62161">
        <ele>71</ele>
        <time>2019-02-17T10:05:15Z</time>
      </trkpt>
      <trkpt lat="50.50164" lon="1.62172">
        <ele>70.8</ele>
        <time>2019-02-17T10:05:19Z</time>
      </trkpt>
      <trkpt lat="50.5017" lon="1.62176">
        <ele>70.2</ele>
        <time>2019-02-17T10:05:23Z</time>
      </trkpt>
      <trkpt lat="50.50172" lon="1.62184">
        <ele>70.8</ele>
        <time>2019-02-17T10:05:27Z</time>
      </trkpt>
      <trkpt lat="50.50173" lon="1.62197">
        <ele>71.8</ele>
        <time>2019-02-17T10:05:31Z</time>
      </trkpt>
      <trkpt lat="50.50167" lon="1.62197">
        <ele>72.6</ele>
        <time>2019-02-17T10:05:35Z</time>
      </trkpt>
      <trkpt lat="50.50159" lon="1.6219">
        <ele>73.2</ele>
        <time>2019-02-17T10:05:39Z</time>
      </trkpt>
      <trkpt lat="50.50154" lon="1.62175">
        <ele>72.4</ele>
        <time>2019-02-17T10:05:43Z</time>
      </trkpt>
      <trkpt lat="50.50144" lon="1.62167">
        <ele>69.2</ele>
        <time>2019-02-17T10:05:47Z</time>
      </trkpt>
      <trkpt lat="50.50146" lon="1.62156">
        <ele>67.8</ele>
        <time>2019-02-17T10:05:51Z</time>
      </trkpt>
      <trkpt lat="50.50142" lon="1.62142">
        <ele>67.8</ele>
        <time>2019-02-17T10:05:55Z</time>
      </trkpt>
      <trkpt lat="50.50133" lon="1.62153">
        <ele>67.2</ele>
        <time>2019-02-17T10:05:59Z</time>
      </trkpt>
      <trkpt lat="50.50125" lon="1.62149">
        <ele>66.8</ele>
        <time>2019-02-17T10:06:03Z</time>
      </trkpt>
      <trkpt lat="50.50114" lon="1.62144">
        <ele>67.6</ele>
        <time>2019-02-17T10:06:07Z</time>
      </trkpt>
      <trkpt lat="50.5011" lon="1.62137">
        <ele>66.2</ele>
        <time>2019-02-17T10:06:11Z</time>
      </trkpt>
      <trkpt lat="50.50107" lon="1.6213">
        <ele>65.8</ele>
        <time>2019-02-17T10:06:15Z</time>
      </trkpt>
      <trkpt lat="50.501" lon="1.62129">
        <ele>67.2</ele>
        <time>2019-02-17T10:06:19Z</time>
      </trkpt>
      <trkpt lat="50.501" lon="1.62129">
        <ele>67.2</ele>
        <time>2019-02-17T10:06:23Z</time>
      </trkpt>
      <trkpt lat="50.501" lon="1.62129">
        <ele>67.2</ele>
        <time>2019-02-17T10:06:27Z</time>
      </trkpt>
      <trkpt lat="50.501" lon="1.62129">
        <ele>67.2</ele>
        <time>2019-02-17T10:06:31Z</time>
      </trkpt>
      <trkpt lat="50.50091" lon="1.6213">
        <ele>67</ele>
        <time>2019-02-17T10:06:35Z</time>
      </trkpt>
      <trkpt lat="50.50084" lon="1.62127">
        <ele>66.4</ele>
        <time>2019-02-17T10:06:39Z</time>
      </trkpt>
      <trkpt lat="50.50081" lon="1.62124">
        <ele>66.4</ele>
        <time>2019-02-17T10:06:43Z</time>
      </trkpt>
      <trkpt lat="50.50081" lon="1.62124">
        <ele>66.4</ele>
        <time>2019-02-17T10:06:47Z</time>
      </trkpt>
      <trkpt lat="50.50081" lon="1.62124">
        <ele>66.4</ele>
        <time>2019-02-17T10:06:51Z</time>
      </trkpt>
      <trkpt lat="50.50081" lon="1.62124">
        <ele>66.4</ele>
        <time>2019-02-17T10:06:55Z</time>
      </trkpt>
      <trkpt lat="50.50077" lon="1.62122">
        <ele>66.6</ele>
        <time>2019-02-17T10:06:59Z</time>
      </trkpt>
      <trkpt lat="50.50075" lon="1.62115">
        <ele>63.8</ele>
        <time>2019-02-17T10:07:03Z</time>
      </trkpt>
      <trkpt lat="50.50081" lon="1.62104">
        <ele>61.4</ele>
        <time>2019-02-17T10:07:07Z</time>
      </trkpt>
      <trkpt lat="50.50087" lon="1.621">
        <ele>59.8</ele>
        <time>2019-02-17T10:07:11Z</time>
      </trkpt>
      <trkpt lat="50.50082" lon="1.62089">
        <ele>58.4</ele>
        <time>2019-02-17T10:07:15Z</time>
      </trkpt>
      <trkpt lat="50.5008" lon="1.62078">
        <ele>57.8</ele>
        <time>2019-02-17T10:07:19Z</time>
      </trkpt>
      <trkpt lat="50.50075" lon="1.6207">
        <ele>57.8</ele>
        <time>2019-02-17T10:07:23Z</time>
      </trkpt>
      <trkpt lat="50.50076" lon="1.6206">
        <ele>56.2</ele>
        <time>2019-02-17T10:07:27Z</time>
      </trkpt>
      <trkpt lat="50.50081" lon="1.62057">
        <ele>55.6</ele>
        <time>2019-02-17T10:07:31Z</time>
      </trkpt>
      <trkpt lat="50.50082" lon="1.62044">
        <ele>53.4</ele>
        <time>2019-02-17T10:07:35Z</time>
      </trkpt>
      <trkpt lat="50.50081" lon="1.62026">
        <ele>53</ele>
        <time>2019-02-17T10:07:39Z</time>
      </trkpt>
      <trkpt lat="50.50076" lon="1.62015">
        <ele>52.8</ele>
        <time>2019-02-17T10:07:43Z</time>
      </trkpt>
      <trkpt lat="50.50072" lon="1.62006">
        <ele>53.8</ele>
        <time>2019-02-17T10:07:47Z</time>
      </trkpt>
      <trkpt lat="50.50069" lon="1.62006">
        <ele>54.2</ele>
        <time>2019-02-17T10:07:51Z</time>
      </trkpt>
      <trkpt lat="50.5007" lon="1.62011">
        <ele>54.2</ele>
        <time>2019-02-17T10:07:55Z</time>
      </trkpt>
      <trkpt lat="50.5007" lon="1.62011">
        <ele>54.2</ele>
        <time>2019-02-17T10:07:59Z</time>
      </trkpt>
      <trkpt lat="50.5007" lon="1.62011">
        <ele>54.2</ele>
        <time>2019-02-17T10:08:03Z</time>
      </trkpt>
      <trkpt lat="50.50068" lon="1.6201">
        <ele>55</ele>
        <time>2019-02-17T10:08:07Z</time>
      </trkpt>
      <trkpt lat="50.50065" lon="1.62014">
        <ele>56.8</ele>
        <time>2019-02-17T10:08:11Z</time>
      </trkpt>
      <trkpt lat="50.50065" lon="1.62021">
        <ele>57.8</ele>
        <time>2019-02-17T10:08:15Z</time>
      </trkpt>
      <trkpt lat="50.50065" lon="1.62028">
        <ele>58.2</ele>
        <time>2019-02-17T10:08:19Z</time>
      </trkpt>
      <trkpt lat="50.50067" lon="1.62036">
        <ele>58.6</ele>
        <time>2019-02-17T10:08:23Z</time>
      </trkpt>
      <trkpt lat="50.50061" lon="1.62039">
        <ele>59.2</ele>
        <time>2019-02-17T10:08:27Z</time>
      </trkpt>
      <trkpt lat="50.50056" lon="1.62046">
        <ele>59.4</ele>
        <time>2019-02-17T10:08:31Z</time>
      </trkpt>
      <trkpt lat="50.50055" lon="1.62053">
        <ele>59.6</ele>
        <time>2019-02-17T10:08:35Z</time>
      </trkpt>
      <trkpt lat="50.50056" lon="1.62062">
        <ele>60.4</ele>
        <time>2019-02-17T10:08:39Z</time>
      </trkpt>
      <trkpt lat="50.50055" lon="1.6207">
        <ele>61.8</ele>
        <time>2019-02-17T10:08:43Z</time>
      </trkpt>
      <trkpt lat="50.50054" lon="1.62079">
        <ele>64.2</ele>
        <time>2019-02-17T10:08:47Z</time>
      </trkpt>
      <trkpt lat="50.50057" lon="1.62085">
        <ele>66.2</ele>
        <time>2019-02-17T10:08:51Z</time>
      </trkpt>
      <trkpt lat="50.50058" lon="1.62091">
        <ele>67.2</ele>
        <time>2019-02-17T10:08:55Z</time>
      </trkpt>
      <trkpt lat="50.5006" lon="1.62098">
        <ele>68.4</ele>
        <time>2019-02-17T10:08:59Z</time>
      </trkpt>
      <trkpt lat="50.50061" lon="1.62106">
        <ele>69.4</ele>
        <time>2019-02-17T10:09:03Z</time>
      </trkpt>
      <trkpt lat="50.50064" lon="1.62113">
        <ele>68.2</ele>
        <time>2019-02-17T10:09:07Z</time>
      </trkpt>
      <trkpt lat="50.50068" lon="1.62118">
        <ele>67.4</ele>
        <time>2019-02-17T10:09:11Z</time>
      </trkpt>
      <trkpt lat="50.50074" lon="1.62126">
        <ele>68.4</ele>
        <time>2019-02-17T10:09:15Z</time>
      </trkpt>
      <trkpt lat="50.5008" lon="1.62132">
        <ele>67.6</ele>
        <time>2019-02-17T10:09:19Z</time>
      </trkpt>
      <trkpt lat="50.50087" lon="1.62139">
        <ele>68.4</ele>
        <time>2019-02-17T10:09:23Z</time>
      </trkpt>
      <trkpt lat="50.50092" lon="1.62142">
        <ele>67.4</ele>
        <time>2019-02-17T10:09:27Z</time>
      </trkpt>
      <trkpt lat="50.50097" lon="1.62153">
        <ele>66.8</ele>
        <time>2019-02-17T10:09:31Z</time>
      </trkpt>
      <trkpt lat="50.50104" lon="1.62161">
        <ele>65.8</ele>
        <time>2019-02-17T10:09:35Z</time>
      </trkpt>
      <trkpt lat="50.50103" lon="1.62168">
        <ele>65.8</ele>
        <time>2019-02-17T10:09:39Z</time>
      </trkpt>
      <trkpt lat="50.50099" lon="1.6217">
        <ele>66.8</ele>
        <time>2019-02-17T10:09:43Z</time>
      </trkpt>
      <trkpt lat="50.50098" lon="1.62178">
        <ele>67</ele>
        <time>2019-02-17T10:09:47Z</time>
      </trkpt>
      <trkpt lat="50.501" lon="1.6218">
        <ele>65.2</ele>
        <time>2019-02-17T10:09:51Z</time>
      </trkpt>
      <trkpt lat="50.5011" lon="1.62196">
        <ele>64.6</ele>
        <time>2019-02-17T10:09:55Z</time>
      </trkpt>
      <trkpt lat="50.50122" lon="1.62211">
        <ele>63.2</ele>
        <time>2019-02-17T10:09:59Z</time>
      </trkpt>
      <trkpt lat="50.50133" lon="1.62221">
        <ele>62.6</ele>
        <time>2019-02-17T10:10:03Z</time>
      </trkpt>
      <trkpt lat="50.50135" lon="1.62223">
        <ele>63.4</ele>
        <time>2019-02-17T10:10:07Z</time>
      </trkpt>
      <trkpt lat="50.50139" lon="1.6223">
        <ele>64.6</ele>
        <time>2019-02-17T10:10:11Z</time>
      </trkpt>
      <trkpt lat="50.50143" lon="1.62238">
        <ele>64.6</ele>
        <time>2019-02-17T10:10:15Z</time>
      </trkpt>
      <trkpt lat="50.50144" lon="1.62241">
        <ele>64.8</ele>
        <time>2019-02-17T10:10:19Z</time>
      </trkpt>
      <trkpt lat="50.50148" lon="1.62246">
        <ele>65.4</ele>
        <time>2019-02-17T10:10:23Z</time>
      </trkpt>
      <trkpt lat="50.50154" lon="1.62251">
        <ele>66</ele>
        <time>2019-02-17T10:10:27Z</time>
      </trkpt>
      <trkpt lat="50.50154" lon="1.62251">
        <ele>66</ele>
        <time>2019-02-17T10:10:31Z</time>
      </trkpt>
      <trkpt lat="50.5016" lon="1.62258">
        <ele>65.6</ele>
        <time>2019-02-17T10:10:35Z</time>
      </trkpt>
      <trkpt lat="50.5016" lon="1.62258">
        <ele>65.6</ele>
        <time>2019-02-17T10:10:39Z</time>
      </trkpt>
      <trkpt lat="50.5016" lon="1.62258">
        <ele>65.6</ele>
        <time>2019-02-17T10:10:43Z</time>
      </trkpt>
      <trkpt lat="50.5016" lon="1.62258">
        <ele>65.6</ele>
        <time>2019-02-17T10:10:47Z</time>
      </trkpt>
      <trkpt lat="50.5016" lon="1.62258">
        <ele>65.6</ele>
        <time>2019-02-17T10:10:51Z</time>
      </trkpt>
      <trkpt lat="50.5016" lon="1.62258">
        <ele>65.6</ele>
        <time>2019-02-17T10:10:55Z</time>
      </trkpt>
      <trkpt lat="50.5016" lon="1.62258">
        <ele>65.6</ele>
        <time>2019-02-17T10:10:59Z</time>
      </trkpt>
      <trkpt lat="50.5016" lon="1.62258">
        <ele>65.6</ele>
        <time>2019-02-17T10:11:03Z</time>
      </trkpt>
      <trkpt lat="50.5016" lon="1.62258">
        <ele>65.6</ele>
        <time>2019-02-17T10:11:07Z</time>
      </trkpt>
      <trkpt lat="50.50166" lon="1.62263">
        <ele>64.2</ele>
        <time>2019-02-17T10:11:11Z</time>
      </trkpt>
      <trkpt lat="50.50172" lon="1.62267">
        <ele>62.6</ele>
        <time>2019-02-17T10:11:15Z</time>
      </trkpt>
      <trkpt lat="50.5018" lon="1.62273">
        <ele>60.6</ele>
        <time>2019-02-17T10:11:19Z</time>
      </trkpt>
      <trkpt lat="50.50186" lon="1.62275">
        <ele>59</ele>
        <time>2019-02-17T10:11:23Z</time>
      </trkpt>
      <trkpt lat="50.50189" lon="1.6228">
        <ele>56.8</ele>
        <time>2019-02-17T10:11:27Z</time>
      </trkpt>
      <trkpt lat="50.50194" lon="1.62286">
        <ele>55.2</ele>
        <time>2019-02-17T10:11:31Z</time>
      </trkpt>
      <trkpt lat="50.50201" lon="1.62283">
        <ele>54.2</ele>
        <time>2019-02-17T10:11:35Z</time>
      </trkpt>
      <trkpt lat="50.50208" lon="1.62277">
        <ele>54.8</ele>
        <time>2019-02-17T10:11:39Z</time>
      </trkpt>
      <trkpt lat="50.50214" lon="1.6227">
        <ele>54.8</ele>
        <time>2019-02-17T10:11:43Z</time>
      </trkpt>
      <trkpt lat="50.50221" lon="1.62263">
        <ele>55.8</ele>
        <time>2019-02-17T10:11:47Z</time>
      </trkpt>
      <trkpt lat="50.50222" lon="1.62258">
        <ele>57.8</ele>
        <time>2019-02-17T10:11:51Z</time>
      </trkpt>
      <trkpt lat="50.50224" lon="1.62254">
        <ele>58</ele>
        <time>2019-02-17T10:11:55Z</time>
      </trkpt>
      <trkpt lat="50.50226" lon="1.62248">
        <ele>58</ele>
        <time>2019-02-17T10:11:59Z</time>
      </trkpt>
      <trkpt lat="50.5023" lon="1.62241">
        <ele>58.8</ele>
        <time>2019-02-17T10:12:03Z</time>
      </trkpt>
      <trkpt lat="50.50233" lon="1.62231">
        <ele>60</ele>
        <time>2019-02-17T10:12:07Z</time>
      </trkpt>
      <trkpt lat="50.50233" lon="1.62231">
        <ele>60</ele>
        <time>2019-02-17T10:12:11Z</time>
      </trkpt>
      <trkpt lat="50.50233" lon="1.62231">
        <ele>60</ele>
        <time>2019-02-17T10:12:15Z</time>
      </trkpt>
      <trkpt lat="50.50233" lon="1.62231">
        <ele>60</ele>
        <time>2019-02-17T10:12:19Z</time>
      </trkpt>
      <trkpt lat="50.50233" lon="1.62231">
        <ele>60</ele>
        <time>2019-02-17T10:12:23Z</time>
      </trkpt>
      <trkpt lat="50.50233" lon="1.62231">
        <ele>60</ele>
        <time>2019-02-17T10:12:27Z</time>
      </trkpt>
      <trkpt lat="50.50241" lon="1.62219">
        <ele>61.2</ele>
        <time>2019-02-17T10:12:31Z</time>
      </trkpt>
      <trkpt lat="50.50243" lon="1.62215">
        <ele>61</ele>
        <time>2019-02-17T10:12:35Z</time>
      </trkpt>
      <trkpt lat="50.50244" lon="1.62212">
        <ele>61</ele>
        <time>2019-02-17T10:12:39Z</time>
      </trkpt>
      <trkpt lat="50.50247" lon="1.62209">
        <ele>60.6</ele>
        <time>2019-02-17T10:12:43Z</time>
      </trkpt>
      <trkpt lat="50.50249" lon="1.62207">
        <ele>59.8</ele>
        <time>2019-02-17T10:12:47Z</time>
      </trkpt>
      <trkpt lat="50.50252" lon="1.62204">
        <ele>59.2</ele>
        <time>2019-02-17T10:12:51Z</time>
      </trkpt>
      <trkpt lat="50.50256" lon="1.62202">
        <ele>59</ele>
        <time>2019-02-17T10:12:55Z</time>
      </trkpt>
      <trkpt lat="50.5026" lon="1.62201">
        <ele>58.4</ele>
        <time>2019-02-17T10:12:59Z</time>
      </trkpt>
      <trkpt lat="50.50263" lon="1.62201">
        <ele>57.8</ele>
        <time>2019-02-17T10:13:03Z</time>
      </trkpt>
      <trkpt lat="50.50265" lon="1.622">
        <ele>57</ele>
        <time>2019-02-17T10:13:07Z</time>
      </trkpt>
      <trkpt lat="50.50267" lon="1.62198">
        <ele>57.8</ele>
        <time>2019-02-17T10:13:11Z</time>
      </trkpt>
      <trkpt lat="50.5027" lon="1.62197">
        <ele>56.8</ele>
        <time>2019-02-17T10:13:15Z</time>
      </trkpt>
      <trkpt lat="50.50274" lon="1.62193">
        <ele>55.6</ele>
        <time>2019-02-17T10:13:19Z</time>
      </trkpt>
      <trkpt lat="50.50279" lon="1.6219">
        <ele>55.4</ele>
        <time>2019-02-17T10:13:23Z</time>
      </trkpt>
      <trkpt lat="50.50283" lon="1.62187">
        <ele>55.2</ele>
        <time>2019-02-17T10:13:27Z</time>
      </trkpt>
      <trkpt lat="50.50284" lon="1.62203">
        <ele>49</ele>
        <time>2019-02-17T10:13:31Z</time>
      </trkpt>
      <trkpt lat="50.50279" lon="1.62219">
        <ele>47</ele>
        <time>2019-02-17T10:13:35Z</time>
      </trkpt>
      <trkpt lat="50.50269" lon="1.62226">
        <ele>46.4</ele>
        <time>2019-02-17T10:13:39Z</time>
      </trkpt>
      <trkpt lat="50.50263" lon="1.62236">
        <ele>47</ele>
        <time>2019-02-17T10:13:43Z</time>
      </trkpt>
      <trkpt lat="50.50264" lon="1.62249">
        <ele>47.4</ele>
        <time>2019-02-17T10:13:47Z</time>
      </trkpt>
      <trkpt lat="50.50273" lon="1.62244">
        <ele>46.6</ele>
        <time>2019-02-17T10:13:51Z</time>
      </trkpt>
      <trkpt lat="50.50285" lon="1.62242">
        <ele>48</ele>
        <time>2019-02-17T10:13:55Z</time>
      </trkpt>
      <trkpt lat="50.50293" lon="1.62243">
        <ele>50.4</ele>
        <time>2019-02-17T10:13:59Z</time>
      </trkpt>
      <trkpt lat="50.50297" lon="1.62243">
        <ele>49</ele>
        <time>2019-02-17T10:14:03Z</time>
      </trkpt>
      <trkpt lat="50.50303" lon="1.62231">
        <ele>47</ele>
        <time>2019-02-17T10:14:07Z</time>
      </trkpt>
      <trkpt lat="50.50309" lon="1.62217">
        <ele>47.4</ele>
        <time>2019-02-17T10:14:11Z</time>
      </trkpt>
      <trkpt lat="50.50305" lon="1.62196">
        <ele>47.4</ele>
        <time>2019-02-17T10:14:15Z</time>
      </trkpt>
      <trkpt lat="50.50306" lon="1.62184">
        <ele>49.2</ele>
        <time>2019-02-17T10:14:19Z</time>
      </trkpt>
      <trkpt lat="50.50306" lon="1.62174">
        <ele>51</ele>
        <time>2019-02-17T10:14:23Z</time>
      </trkpt>
      <trkpt lat="50.50306" lon="1.62163">
        <ele>51.6</ele>
        <time>2019-02-17T10:14:27Z</time>
      </trkpt>
      <trkpt lat="50.50306" lon="1.62163">
        <ele>51.6</ele>
        <time>2019-02-17T10:14:31Z</time>
      </trkpt>
      <trkpt lat="50.50307" lon="1.62157">
        <ele>52.4</ele>
        <time>2019-02-17T10:14:35Z</time>
      </trkpt>
      <trkpt lat="50.50306" lon="1.62154">
        <ele>53.4</ele>
        <time>2019-02-17T10:14:39Z</time>
      </trkpt>
      <trkpt lat="50.50307" lon="1.62148">
        <ele>53.2</ele>
        <time>2019-02-17T10:14:43Z</time>
      </trkpt>
      <trkpt lat="50.50309" lon="1.6214">
        <ele>52.6</ele>
        <time>2019-02-17T10:14:47Z</time>
      </trkpt>
      <trkpt lat="50.50311" lon="1.62133">
        <ele>52.4</ele>
        <time>2019-02-17T10:14:51Z</time>
      </trkpt>
      <trkpt lat="50.50311" lon="1.62126">
        <ele>52.6</ele>
        <time>2019-02-17T10:14:55Z</time>
      </trkpt>
      <trkpt lat="50.5031" lon="1.6212">
        <ele>53</ele>
        <time>2019-02-17T10:14:59Z</time>
      </trkpt>
      <trkpt lat="50.50309" lon="1.62115">
        <ele>53.8</ele>
        <time>2019-02-17T10:15:03Z</time>
      </trkpt>
      <trkpt lat="50.50308" lon="1.62112">
        <ele>54.4</ele>
        <time>2019-02-17T10:15:07Z</time>
      </trkpt>
      <trkpt lat="50.50307" lon="1.62102">
        <ele>54.6</ele>
        <time>2019-02-17T10:15:11Z</time>
      </trkpt>
      <trkpt lat="50.50306" lon="1.62095">
        <ele>54.8</ele>
        <time>2019-02-17T10:15:15Z</time>
      </trkpt>
      <trkpt lat="50.50306" lon="1.62095">
        <ele>54.8</ele>
        <time>2019-02-17T10:15:19Z</time>
      </trkpt>
      <trkpt lat="50.50306" lon="1.62088">
        <ele>54.4</ele>
        <time>2019-02-17T10:15:23Z</time>
      </trkpt>
      <trkpt lat="50.50305" lon="1.62082">
        <ele>54.8</ele>
        <time>2019-02-17T10:15:27Z</time>
      </trkpt>
      <trkpt lat="50.50302" lon="1.62083">
        <ele>56</ele>
        <time>2019-02-17T10:15:31Z</time>
      </trkpt>
      <trkpt lat="50.503" lon="1.62087">
        <ele>56.4</ele>
        <time>2019-02-17T10:15:35Z</time>
      </trkpt>
      <trkpt lat="50.50299" lon="1.6209">
        <ele>57.6</ele>
        <time>2019-02-17T10:15:39Z</time>
      </trkpt>
      <trkpt lat="50.503" lon="1.62094">
        <ele>58.8</ele>
        <time>2019-02-17T10:15:43Z</time>
      </trkpt>
      <trkpt lat="50.503" lon="1.62102">
        <ele>58.8</ele>
        <time>2019-02-17T10:15:47Z</time>
      </trkpt>
      <trkpt lat="50.50298" lon="1.62121">
        <ele>57.6</ele>
        <time>2019-02-17T10:15:51Z</time>
      </trkpt>
      <trkpt lat="50.50294" lon="1.62133">
        <ele>59</ele>
        <time>2019-02-17T10:15:55Z</time>
      </trkpt>
      <trkpt lat="50.50291" lon="1.6214">
        <ele>60.4</ele>
        <time>2019-02-17T10:15:59Z</time>
      </trkpt>
      <trkpt lat="50.50287" lon="1.6215">
        <ele>60.2</ele>
        <time>2019-02-17T10:16:03Z</time>
      </trkpt>
      <trkpt lat="50.50282" lon="1.6216">
        <ele>60</ele>
        <time>2019-02-17T10:16:07Z</time>
      </trkpt>
      <trkpt lat="50.50275" lon="1.62158">
        <ele>61</ele>
        <time>2019-02-17T10:16:11Z</time>
      </trkpt>
      <trkpt lat="50.50268" lon="1.62154">
        <ele>61.6</ele>
        <time>2019-02-17T10:16:15Z</time>
      </trkpt>
      <trkpt lat="50.50263" lon="1.62152">
        <ele>63</ele>
        <time>2019-02-17T10:16:19Z</time>
      </trkpt>
      <trkpt lat="50.50258" lon="1.62151">
        <ele>64</ele>
        <time>2019-02-17T10:16:23Z</time>
      </trkpt>
      <trkpt lat="50.5025" lon="1.62149">
        <ele>64.6</ele>
        <time>2019-02-17T10:16:27Z</time>
      </trkpt>
      <trkpt lat="50.5024" lon="1.62152">
        <ele>63.8</ele>
        <time>2019-02-17T10:16:31Z</time>
      </trkpt>
      <trkpt lat="50.50228" lon="1.62154">
        <ele>62.2</ele>
        <time>2019-02-17T10:16:35Z</time>
      </trkpt>
      <trkpt lat="50.50228" lon="1.6214">
        <ele>61.8</ele>
        <time>2019-02-17T10:16:39Z</time>
      </trkpt>
      <trkpt lat="50.50224" lon="1.62123">
        <ele>60.6</ele>
        <time>2019-02-17T10:16:43Z</time>
      </trkpt>
      <trkpt lat="50.50223" lon="1.621">
        <ele>59</ele>
        <time>2019-02-17T10:16:47Z</time>
      </trkpt>
      <trkpt lat="50.50218" lon="1.62085">
        <ele>58.4</ele>
        <time>2019-02-17T10:16:51Z</time>
      </trkpt>
      <trkpt lat="50.50224" lon="1.62082">
        <ele>57.2</ele>
        <time>2019-02-17T10:16:55Z</time>
      </trkpt>
      <trkpt lat="50.5023" lon="1.62076">
        <ele>56.8</ele>
        <time>2019-02-17T10:16:59Z</time>
      </trkpt>
      <trkpt lat="50.50239" lon="1.62054">
        <ele>53.4</ele>
        <time>2019-02-17T10:17:03Z</time>
      </trkpt>
      <trkpt lat="50.50249" lon="1.62027">
        <ele>53.2</ele>
        <time>2019-02-17T10:17:07Z</time>
      </trkpt>
      <trkpt lat="50.50251" lon="1.62004">
        <ele>53.8</ele>
        <time>2019-02-17T10:17:11Z</time>
      </trkpt>
      <trkpt lat="50.50253" lon="1.61986">
        <ele>55.8</ele>
        <time>2019-02-17T10:17:15Z</time>
      </trkpt>
      <trkpt lat="50.50247" lon="1.6197">
        <ele>54.6</ele>
        <time>2019-02-17T10:17:19Z</time>
      </trkpt>
      <trkpt lat="50.50253" lon="1.61956">
        <ele>51</ele>
        <time>2019-02-17T10:17:23Z</time>
      </trkpt>
      <trkpt lat="50.50264" lon="1.61951">
        <ele>51.8</ele>
        <time>2019-02-17T10:17:27Z</time>
      </trkpt>
      <trkpt lat="50.50274" lon="1.61943">
        <ele>51.4</ele>
        <time>2019-02-17T10:17:31Z</time>
      </trkpt>
      <trkpt lat="50.50281" lon="1.61935">
        <ele>49.8</ele>
        <time>2019-02-17T10:17:35Z</time>
      </trkpt>
      <trkpt lat="50.5029" lon="1.61923">
        <ele>45.8</ele>
        <time>2019-02-17T10:17:39Z</time>
      </trkpt>
      <trkpt lat="50.50305" lon="1.61925">
        <ele>45.6</ele>
        <time>2019-02-17T10:17:43Z</time>
      </trkpt>
      <trkpt lat="50.50319" lon="1.61917">
        <ele>46.4</ele>
        <time>2019-02-17T10:17:47Z</time>
      </trkpt>
      <trkpt lat="50.50331" lon="1.61914">
        <ele>46.2</ele>
        <time>2019-02-17T10:17:51Z</time>
      </trkpt>
      <trkpt lat="50.50344" lon="1.61911">
        <ele>47</ele>
        <time>2019-02-17T10:17:55Z</time>
      </trkpt>
      <trkpt lat="50.50354" lon="1.61912">
        <ele>48.4</ele>
        <time>2019-02-17T10:17:59Z</time>
      </trkpt>
      <trkpt lat="50.50363" lon="1.61906">
        <ele>49.8</ele>
        <time>2019-02-17T10:18:03Z</time>
      </trkpt>
      <trkpt lat="50.50378" lon="1.61904">
        <ele>48.2</ele>
        <time>2019-02-17T10:18:07Z</time>
      </trkpt>
      <trkpt lat="50.50396" lon="1.61907">
        <ele>47.6</ele>
        <time>2019-02-17T10:18:11Z</time>
      </trkpt>
      <trkpt lat="50.50402" lon="1.61903">
        <ele>49.4</ele>
        <time>2019-02-17T10:18:15Z</time>
      </trkpt>
      <trkpt lat="50.50409" lon="1.61902">
        <ele>50.4</ele>
        <time>2019-02-17T10:18:19Z</time>
      </trkpt>
      <trkpt lat="50.50415" lon="1.61903">
        <ele>51.6</ele>
        <time>2019-02-17T10:18:23Z</time>
      </trkpt>
      <trkpt lat="50.5042" lon="1.61899">
        <ele>52.6</ele>
        <time>2019-02-17T10:18:27Z</time>
      </trkpt>
      <trkpt lat="50.50425" lon="1.61897">
        <ele>53.8</ele>
        <time>2019-02-17T10:18:31Z</time>
      </trkpt>
      <trkpt lat="50.50425" lon="1.61897">
        <ele>53.8</ele>
        <time>2019-02-17T10:18:35Z</time>
      </trkpt>
      <trkpt lat="50.50425" lon="1.61897">
        <ele>53.8</ele>
        <time>2019-02-17T10:18:39Z</time>
      </trkpt>
      <trkpt lat="50.50425" lon="1.61897">
        <ele>53.8</ele>
        <time>2019-02-17T10:18:43Z</time>
      </trkpt>
      <trkpt lat="50.50425" lon="1.61897">
        <ele>53.8</ele>
        <time>2019-02-17T10:18:47Z</time>
      </trkpt>
      <trkpt lat="50.50432" lon="1.61899">
        <ele>54</ele>
        <time>2019-02-17T10:18:51Z</time>
      </trkpt>
      <trkpt lat="50.50427" lon="1.61897">
        <ele>53.6</ele>
        <time>2019-02-17T10:18:55Z</time>
      </trkpt>
      <trkpt lat="50.50427" lon="1.61897">
        <ele>53.6</ele>
        <time>2019-02-17T10:18:59Z</time>
      </trkpt>
      <trkpt lat="50.50427" lon="1.61897">
        <ele>53.6</ele>
        <time>2019-02-17T10:19:03Z</time>
      </trkpt>
      <trkpt lat="50.50427" lon="1.61897">
        <ele>53.6</ele>
        <time>2019-02-17T10:19:07Z</time>
      </trkpt>
      <trkpt lat="50.50427" lon="1.61897">
        <ele>53.6</ele>
        <time>2019-02-17T10:19:11Z</time>
      </trkpt>
      <trkpt lat="50.50427" lon="1.61897">
        <ele>53.6</ele>
        <time>2019-02-17T10:19:15Z</time>
      </trkpt>
      <trkpt lat="50.50427" lon="1.61897">
        <ele>53.6</ele>
        <time>2019-02-17T10:19:19Z</time>
      </trkpt>
      <trkpt lat="50.50427" lon="1.61897">
        <ele>53.6</ele>
        <time>2019-02-17T10:19:23Z</time>
      </trkpt>
      <trkpt lat="50.50427" lon="1.61897">
        <ele>53.6</ele>
        <time>2019-02-17T10:19:27Z</time>
      </trkpt>
      <trkpt lat="50.50427" lon="1.61897">
        <ele>53.6</ele>
        <time>2019-02-17T10:19:31Z</time>
      </trkpt>
      <trkpt lat="50.50427" lon="1.61897">
        <ele>53.6</ele>
        <time>2019-02-17T10:19:35Z</time>
      </trkpt>
      <trkpt lat="50.50427" lon="1.61897">
        <ele>53.6</ele>
        <time>2019-02-17T10:19:39Z</time>
      </trkpt>
      <trkpt lat="50.50427" lon="1.61897">
        <ele>53.6</ele>
        <time>2019-02-17T10:19:43Z</time>
      </trkpt>
      <trkpt lat="50.50427" lon="1.61897">
        <ele>53.6</ele>
        <time>2019-02-17T10:19:47Z</time>
      </trkpt>
      <trkpt lat="50.50427" lon="1.61897">
        <ele>53.6</ele>
        <time>2019-02-17T10:19:51Z</time>
      </trkpt>
      <trkpt lat="50.50427" lon="1.61897">
        <ele>53.6</ele>
        <time>2019-02-17T10:19:55Z</time>
      </trkpt>
      <trkpt lat="50.50427" lon="1.61897">
        <ele>53.6</ele>
        <time>2019-02-17T10:19:59Z</time>
      </trkpt>
      <trkpt lat="50.50427" lon="1.61897">
        <ele>53.6</ele>
        <time>2019-02-17T10:20:03Z</time>
      </trkpt>
      <trkpt lat="50.50427" lon="1.61897">
        <ele>53.6</ele>
        <time>2019-02-17T10:20:07Z</time>
      </trkpt>
      <trkpt lat="50.50427" lon="1.61897">
        <ele>53.6</ele>
        <time>2019-02-17T10:20:11Z</time>
      </trkpt>
      <trkpt lat="50.50427" lon="1.61897">
        <ele>53.6</ele>
        <time>2019-02-17T10:20:15Z</time>
      </trkpt>
      <trkpt lat="50.50427" lon="1.61897">
        <ele>53.6</ele>
        <time>2019-02-17T10:20:19Z</time>
      </trkpt>
      <trkpt lat="50.50427" lon="1.61897">
        <ele>53.6</ele>
        <time>2019-02-17T10:20:23Z</time>
      </trkpt>
      <trkpt lat="50.50427" lon="1.61897">
        <ele>53.6</ele>
        <time>2019-02-17T10:20:27Z</time>
      </trkpt>
      <trkpt lat="50.50427" lon="1.61897">
        <ele>53.6</ele>
        <time>2019-02-17T10:20:31Z</time>
      </trkpt>
      <trkpt lat="50.50427" lon="1.61897">
        <ele>53.6</ele>
        <time>2019-02-17T10:20:35Z</time>
      </trkpt>
      <trkpt lat="50.50427" lon="1.61897">
        <ele>53.6</ele>
        <time>2019-02-17T10:20:39Z</time>
      </trkpt>
      <trkpt lat="50.50427" lon="1.61897">
        <ele>53.6</ele>
        <time>2019-02-17T10:20:43Z</time>
      </trkpt>
      <trkpt lat="50.50427" lon="1.61897">
        <ele>53.6</ele>
        <time>2019-02-17T10:20:47Z</time>
      </trkpt>
      <trkpt lat="50.50427" lon="1.61897">
        <ele>53.6</ele>
        <time>2019-02-17T10:20:51Z</time>
      </trkpt>
      <trkpt lat="50.50427" lon="1.61897">
        <ele>53.6</ele>
        <time>2019-02-17T10:20:55Z</time>
      </trkpt>
      <trkpt lat="50.50427" lon="1.61897">
        <ele>53.6</ele>
        <time>2019-02-17T10:20:59Z</time>
      </trkpt>
      <trkpt lat="50.50427" lon="1.61897">
        <ele>53.6</ele>
        <time>2019-02-17T10:21:03Z</time>
      </trkpt>
      <trkpt lat="50.50427" lon="1.61897">
        <ele>53.6</ele>
        <time>2019-02-17T10:21:07Z</time>
      </trkpt>
      <trkpt lat="50.50427" lon="1.61897">
        <ele>53.6</ele>
        <time>2019-02-17T10:21:11Z</time>
      </trkpt>
      <trkpt lat="50.50427" lon="1.61897">
        <ele>53.6</ele>
        <time>2019-02-17T10:21:15Z</time>
      </trkpt>
      <trkpt lat="50.50427" lon="1.61897">
        <ele>53.6</ele>
        <time>2019-02-17T10:21:19Z</time>
      </trkpt>
      <trkpt lat="50.50427" lon="1.61897">
        <ele>53.6</ele>
        <time>2019-02-17T10:21:23Z</time>
      </trkpt>
      <trkpt lat="50.50427" lon="1.61897">
        <ele>53.6</ele>
        <time>2019-02-17T10:21:27Z</time>
      </trkpt>
      <trkpt lat="50.50427" lon="1.61897">
        <ele>53.6</ele>
        <time>2019-02-17T10:21:31Z</time>
      </trkpt>
      <trkpt lat="50.50427" lon="1.61897">
        <ele>53.6</ele>
        <time>2019-02-17T10:21:35Z</time>
      </trkpt>
      <trkpt lat="50.50427" lon="1.61897">
        <ele>53.6</ele>
        <time>2019-02-17T10:21:39Z</time>
      </trkpt>
      <trkpt lat="50.50427" lon="1.61897">
        <ele>53.6</ele>
        <time>2019-02-17T10:21:43Z</time>
      </trkpt>
      <trkpt lat="50.50427" lon="1.61897">
        <ele>53.6</ele>
        <time>2019-02-17T10:21:47Z</time>
      </trkpt>
      <trkpt lat="50.50427" lon="1.61897">
        <ele>53.6</ele>
        <time>2019-02-17T10:21:51Z</time>
      </trkpt>
      <trkpt lat="50.50427" lon="1.61897">
        <ele>53.6</ele>
        <time>2019-02-17T10:21:55Z</time>
      </trkpt>
      <trkpt lat="50.50428" lon="1.61899">
        <ele>53.2</ele>
        <time>2019-02-17T10:21:59Z</time>
      </trkpt>
      <trkpt lat="50.50426" lon="1.61899">
        <ele>54</ele>
        <time>2019-02-17T10:22:03Z</time>
      </trkpt>
      <trkpt lat="50.50428" lon="1.61899">
        <ele>54.2</ele>
        <time>2019-02-17T10:22:07Z</time>
      </trkpt>
      <trkpt lat="50.5043" lon="1.61902">
        <ele>54.6</ele>
        <time>2019-02-17T10:22:11Z</time>
      </trkpt>
      <trkpt lat="50.50434" lon="1.61906">
        <ele>55.6</ele>
        <time>2019-02-17T10:22:15Z</time>
      </trkpt>
      <trkpt lat="50.5044" lon="1.61905">
        <ele>56.8</ele>
        <time>2019-02-17T10:22:19Z</time>
      </trkpt>
      <trkpt lat="50.50446" lon="1.61909">
        <ele>57.2</ele>
        <time>2019-02-17T10:22:23Z</time>
      </trkpt>
      <trkpt lat="50.50455" lon="1.61911">
        <ele>57.8</ele>
        <time>2019-02-17T10:22:27Z</time>
      </trkpt>
      <trkpt lat="50.50461" lon="1.61911">
        <ele>59.2</ele>
        <time>2019-02-17T10:22:31Z</time>
      </trkpt>
      <trkpt lat="50.50469" lon="1.61913">
        <ele>58.6</ele>
        <time>2019-02-17T10:22:35Z</time>
      </trkpt>
      <trkpt lat="50.50479" lon="1.61916">
        <ele>59.2</ele>
        <time>2019-02-17T10:22:39Z</time>
      </trkpt>
      <trkpt lat="50.50489" lon="1.61917">
        <ele>59.6</ele>
        <time>2019-02-17T10:22:43Z</time>
      </trkpt>
      <trkpt lat="50.50496" lon="1.61916">
        <ele>60.4</ele>
        <time>2019-02-17T10:22:47Z</time>
      </trkpt>
      <trkpt lat="50.50501" lon="1.61913">
        <ele>61.4</ele>
        <time>2019-02-17T10:22:51Z</time>
      </trkpt>
      <trkpt lat="50.50507" lon="1.61912">
        <ele>62.6</ele>
        <time>2019-02-17T10:22:55Z</time>
      </trkpt>
      <trkpt lat="50.50513" lon="1.61911">
        <ele>63.8</ele>
        <time>2019-02-17T10:22:59Z</time>
      </trkpt>
      <trkpt lat="50.50518" lon="1.61911">
        <ele>65</ele>
        <time>2019-02-17T10:23:03Z</time>
      </trkpt>
      <trkpt lat="50.50522" lon="1.6191">
        <ele>66</ele>
        <time>2019-02-17T10:23:07Z</time>
      </trkpt>
      <trkpt lat="50.50529" lon="1.61913">
        <ele>67.2</ele>
        <time>2019-02-17T10:23:11Z</time>
      </trkpt>
      <trkpt lat="50.50535" lon="1.61912">
        <ele>67.6</ele>
        <time>2019-02-17T10:23:15Z</time>
      </trkpt>
      <trkpt lat="50.50542" lon="1.61911">
        <ele>68.2</ele>
        <time>2019-02-17T10:23:19Z</time>
      </trkpt>
      <trkpt lat="50.50545" lon="1.61913">
        <ele>69</ele>
        <time>2019-02-17T10:23:23Z</time>
      </trkpt>
      <trkpt lat="50.5055" lon="1.61917">
        <ele>69.4</ele>
        <time>2019-02-17T10:23:27Z</time>
      </trkpt>
      <trkpt lat="50.50558" lon="1.61917">
        <ele>70</ele>
        <time>2019-02-17T10:23:31Z</time>
      </trkpt>
      <trkpt lat="50.50561" lon="1.61911">
        <ele>71.4</ele>
        <time>2019-02-17T10:23:35Z</time>
      </trkpt>
      <trkpt lat="50.50567" lon="1.61892">
        <ele>69.6</ele>
        <time>2019-02-17T10:23:39Z</time>
      </trkpt>
      <trkpt lat="50.5058" lon="1.6187">
        <ele>69.4</ele>
        <time>2019-02-17T10:23:43Z</time>
      </trkpt>
      <trkpt lat="50.50599" lon="1.61856">
        <ele>66.8</ele>
        <time>2019-02-17T10:23:47Z</time>
      </trkpt>
      <trkpt lat="50.5062" lon="1.61847">
        <ele>67.4</ele>
        <time>2019-02-17T10:23:51Z</time>
      </trkpt>
      <trkpt lat="50.5064" lon="1.61836">
        <ele>64.6</ele>
        <time>2019-02-17T10:23:55Z</time>
      </trkpt>
      <trkpt lat="50.50664" lon="1.61825">
        <ele>61.8</ele>
        <time>2019-02-17T10:23:59Z</time>
      </trkpt>
      <trkpt lat="50.50674" lon="1.61797">
        <ele>60.8</ele>
        <time>2019-02-17T10:24:03Z</time>
      </trkpt>
      <trkpt lat="50.50682" lon="1.61774">
        <ele>59</ele>
        <time>2019-02-17T10:24:07Z</time>
      </trkpt>
      <trkpt lat="50.50695" lon="1.61775">
        <ele>58.6</ele>
        <time>2019-02-17T10:24:11Z</time>
      </trkpt>
      <trkpt lat="50.50712" lon="1.61786">
        <ele>56.8</ele>
        <time>2019-02-17T10:24:15Z</time>
      </trkpt>
      <trkpt lat="50.50739" lon="1.61804">
        <ele>55.6</ele>
        <time>2019-02-17T10:24:19Z</time>
      </trkpt>
      <trkpt lat="50.50772" lon="1.61794">
        <ele>51.8</ele>
        <time>2019-02-17T10:24:23Z</time>
      </trkpt>
      <trkpt lat="50.50795" lon="1.61809">
        <ele>50.8</ele>
        <time>2019-02-17T10:24:27Z</time>
      </trkpt>
      <trkpt lat="50.50816" lon="1.61799">
        <ele>50.8</ele>
        <time>2019-02-17T10:24:31Z</time>
      </trkpt>
      <trkpt lat="50.50836" lon="1.61796">
        <ele>50</ele>
        <time>2019-02-17T10:24:35Z</time>
      </trkpt>
      <trkpt lat="50.50856" lon="1.61798">
        <ele>48</ele>
        <time>2019-02-17T10:24:39Z</time>
      </trkpt>
      <trkpt lat="50.50858" lon="1.61778">
        <ele>47.2</ele>
        <time>2019-02-17T10:24:43Z</time>
      </trkpt>
      <trkpt lat="50.5086" lon="1.61756">
        <ele>48.2</ele>
        <time>2019-02-17T10:24:47Z</time>
      </trkpt>
      <trkpt lat="50.50852" lon="1.61743">
        <ele>47.8</ele>
        <time>2019-02-17T10:24:51Z</time>
      </trkpt>
      <trkpt lat="50.50848" lon="1.61726">
        <ele>48.2</ele>
        <time>2019-02-17T10:24:55Z</time>
      </trkpt>
      <trkpt lat="50.50855" lon="1.61707">
        <ele>48.4</ele>
        <time>2019-02-17T10:24:59Z</time>
      </trkpt>
      <trkpt lat="50.50852" lon="1.61678">
        <ele>48.2</ele>
        <time>2019-02-17T10:25:03Z</time>
      </trkpt>
      <trkpt lat="50.50845" lon="1.61641">
        <ele>47.2</ele>
        <time>2019-02-17T10:25:07Z</time>
      </trkpt>
      <trkpt lat="50.50847" lon="1.61601">
        <ele>47.2</ele>
        <time>2019-02-17T10:25:11Z</time>
      </trkpt>
      <trkpt lat="50.50835" lon="1.61581">
        <ele>46.2</ele>
        <time>2019-02-17T10:25:15Z</time>
      </trkpt>
      <trkpt lat="50.50827" lon="1.61561">
        <ele>46</ele>
        <time>2019-02-17T10:25:19Z</time>
      </trkpt>
      <trkpt lat="50.50828" lon="1.61521">
        <ele>46.8</ele>
        <time>2019-02-17T10:25:23Z</time>
      </trkpt>
      <trkpt lat="50.50822" lon="1.61497">
        <ele>47</ele>
        <time>2019-02-17T10:25:27Z</time>
      </trkpt>
      <trkpt lat="50.50824" lon="1.61477">
        <ele>46.6</ele>
        <time>2019-02-17T10:25:31Z</time>
      </trkpt>
      <trkpt lat="50.5082" lon="1.61458">
        <ele>47</ele>
        <time>2019-02-17T10:25:35Z</time>
      </trkpt>
      <trkpt lat="50.50816" lon="1.61439">
        <ele>47</ele>
        <time>2019-02-17T10:25:39Z</time>
      </trkpt>
      <trkpt lat="50.50811" lon="1.6142">
        <ele>47.4</ele>
        <time>2019-02-17T10:25:43Z</time>
      </trkpt>
      <trkpt lat="50.50801" lon="1.61394">
        <ele>47.2</ele>
        <time>2019-02-17T10:25:47Z</time>
      </trkpt>
      <trkpt lat="50.50792" lon="1.61372">
        <ele>47.2</ele>
        <time>2019-02-17T10:25:51Z</time>
      </trkpt>
      <trkpt lat="50.50785" lon="1.61355">
        <ele>47.2</ele>
        <time>2019-02-17T10:25:55Z</time>
      </trkpt>
      <trkpt lat="50.50776" lon="1.61337">
        <ele>47.2</ele>
        <time>2019-02-17T10:25:59Z</time>
      </trkpt>
      <trkpt lat="50.50769" lon="1.61314">
        <ele>47.8</ele>
        <time>2019-02-17T10:26:03Z</time>
      </trkpt>
      <trkpt lat="50.50762" lon="1.61298">
        <ele>48.2</ele>
        <time>2019-02-17T10:26:07Z</time>
      </trkpt>
      <trkpt lat="50.50753" lon="1.61281">
        <ele>48</ele>
        <time>2019-02-17T10:26:11Z</time>
      </trkpt>
      <trkpt lat="50.50751" lon="1.61257">
        <ele>48.4</ele>
        <time>2019-02-17T10:26:15Z</time>
      </trkpt>
      <trkpt lat="50.50746" lon="1.61239">
        <ele>48.4</ele>
        <time>2019-02-17T10:26:19Z</time>
      </trkpt>
      <trkpt lat="50.50739" lon="1.61232">
        <ele>49.6</ele>
        <time>2019-02-17T10:26:23Z</time>
      </trkpt>
      <trkpt lat="50.50726" lon="1.61232">
        <ele>49.2</ele>
        <time>2019-02-17T10:26:27Z</time>
      </trkpt>
      <trkpt lat="50.50713" lon="1.61239">
        <ele>49.2</ele>
        <time>2019-02-17T10:26:31Z</time>
      </trkpt>
      <trkpt lat="50.50704" lon="1.61246">
        <ele>48.8</ele>
        <time>2019-02-17T10:26:35Z</time>
      </trkpt>
      <trkpt lat="50.50688" lon="1.61256">
        <ele>48.8</ele>
        <time>2019-02-17T10:26:39Z</time>
      </trkpt>
      <trkpt lat="50.50675" lon="1.61267">
        <ele>48.2</ele>
        <time>2019-02-17T10:26:43Z</time>
      </trkpt>
      <trkpt lat="50.50658" lon="1.61279">
        <ele>48.6</ele>
        <time>2019-02-17T10:26:47Z</time>
      </trkpt>
      <trkpt lat="50.50644" lon="1.6129">
        <ele>48.2</ele>
        <time>2019-02-17T10:26:51Z</time>
      </trkpt>
      <trkpt lat="50.50628" lon="1.61297">
        <ele>48</ele>
        <time>2019-02-17T10:26:55Z</time>
      </trkpt>
      <trkpt lat="50.50614" lon="1.61307">
        <ele>48.2</ele>
        <time>2019-02-17T10:26:59Z</time>
      </trkpt>
      <trkpt lat="50.50601" lon="1.61314">
        <ele>48</ele>
        <time>2019-02-17T10:27:03Z</time>
      </trkpt>
      <trkpt lat="50.50586" lon="1.6132">
        <ele>48</ele>
        <time>2019-02-17T10:27:07Z</time>
      </trkpt>
      <trkpt lat="50.5057" lon="1.61327">
        <ele>47.6</ele>
        <time>2019-02-17T10:27:11Z</time>
      </trkpt>
      <trkpt lat="50.50552" lon="1.61332">
        <ele>48.4</ele>
        <time>2019-02-17T10:27:15Z</time>
      </trkpt>
      <trkpt lat="50.50539" lon="1.61337">
        <ele>48.2</ele>
        <time>2019-02-17T10:27:19Z</time>
      </trkpt>
      <trkpt lat="50.50522" lon="1.6135">
        <ele>48</ele>
        <time>2019-02-17T10:27:23Z</time>
      </trkpt>
      <trkpt lat="50.50517" lon="1.61366">
        <ele>47.6</ele>
        <time>2019-02-17T10:27:27Z</time>
      </trkpt>
      <trkpt lat="50.50514" lon="1.61388">
        <ele>47.8</ele>
        <time>2019-02-17T10:27:31Z</time>
      </trkpt>
      <trkpt lat="50.50515" lon="1.61412">
        <ele>48</ele>
        <time>2019-02-17T10:27:35Z</time>
      </trkpt>
      <trkpt lat="50.50518" lon="1.6144">
        <ele>48</ele>
        <time>2019-02-17T10:27:39Z</time>
      </trkpt>
      <trkpt lat="50.50518" lon="1.61466">
        <ele>48</ele>
        <time>2019-02-17T10:27:43Z</time>
      </trkpt>
      <trkpt lat="50.5052" lon="1.61494">
        <ele>47.6</ele>
        <time>2019-02-17T10:27:47Z</time>
      </trkpt>
      <trkpt lat="50.50518" lon="1.61519">
        <ele>47.8</ele>
        <time>2019-02-17T10:27:51Z</time>
      </trkpt>
      <trkpt lat="50.50505" lon="1.6153">
        <ele>47.2</ele>
        <time>2019-02-17T10:27:55Z</time>
      </trkpt>
      <trkpt lat="50.5049" lon="1.6153">
        <ele>47.2</ele>
        <time>2019-02-17T10:27:59Z</time>
      </trkpt>
      <trkpt lat="50.5048" lon="1.61525">
        <ele>47.6</ele>
        <time>2019-02-17T10:28:03Z</time>
      </trkpt>
      <trkpt lat="50.50472" lon="1.61517">
        <ele>47.4</ele>
        <time>2019-02-17T10:28:07Z</time>
      </trkpt>
      <trkpt lat="50.50461" lon="1.61507">
        <ele>47.6</ele>
        <time>2019-02-17T10:28:11Z</time>
      </trkpt>
      <trkpt lat="50.50448" lon="1.61493">
        <ele>47.4</ele>
        <time>2019-02-17T10:28:15Z</time>
      </trkpt>
      <trkpt lat="50.50436" lon="1.61481">
        <ele>47.4</ele>
        <time>2019-02-17T10:28:19Z</time>
      </trkpt>
      <trkpt lat="50.50424" lon="1.6147">
        <ele>47.6</ele>
        <time>2019-02-17T10:28:23Z</time>
      </trkpt>
      <trkpt lat="50.50414" lon="1.61458">
        <ele>47.2</ele>
        <time>2019-02-17T10:28:27Z</time>
      </trkpt>
      <trkpt lat="50.50405" lon="1.61447">
        <ele>47.2</ele>
        <time>2019-02-17T10:28:31Z</time>
      </trkpt>
      <trkpt lat="50.50399" lon="1.6143">
        <ele>48.2</ele>
        <time>2019-02-17T10:28:35Z</time>
      </trkpt>
      <trkpt lat="50.50394" lon="1.61416">
        <ele>47.8</ele>
        <time>2019-02-17T10:28:39Z</time>
      </trkpt>
      <trkpt lat="50.50387" lon="1.614">
        <ele>47.2</ele>
        <time>2019-02-17T10:28:43Z</time>
      </trkpt>
      <trkpt lat="50.50379" lon="1.61381">
        <ele>47.6</ele>
        <time>2019-02-17T10:28:47Z</time>
      </trkpt>
      <trkpt lat="50.50375" lon="1.61364">
        <ele>47.2</ele>
        <time>2019-02-17T10:28:51Z</time>
      </trkpt>
      <trkpt lat="50.50382" lon="1.61356">
        <ele>47.2</ele>
        <time>2019-02-17T10:28:55Z</time>
      </trkpt>
      <trkpt lat="50.5039" lon="1.61344">
        <ele>47.2</ele>
        <time>2019-02-17T10:28:59Z</time>
      </trkpt>
      <trkpt lat="50.50398" lon="1.61333">
        <ele>47.4</ele>
        <time>2019-02-17T10:29:03Z</time>
      </trkpt>
      <trkpt lat="50.50406" lon="1.61317">
        <ele>47.6</ele>
        <time>2019-02-17T10:29:07Z</time>
      </trkpt>
      <trkpt lat="50.50417" lon="1.61308">
        <ele>47.2</ele>
        <time>2019-02-17T10:29:11Z</time>
      </trkpt>
      <trkpt lat="50.50423" lon="1.61296">
        <ele>47.2</ele>
        <time>2019-02-17T10:29:15Z</time>
      </trkpt>
      <trkpt lat="50.50418" lon="1.61283">
        <ele>47.6</ele>
        <time>2019-02-17T10:29:19Z</time>
      </trkpt>
      <trkpt lat="50.5041" lon="1.61273">
        <ele>47.2</ele>
        <time>2019-02-17T10:29:23Z</time>
      </trkpt>
      <trkpt lat="50.50401" lon="1.6126">
        <ele>47.2</ele>
        <time>2019-02-17T10:29:27Z</time>
      </trkpt>
      <trkpt lat="50.50396" lon="1.61239">
        <ele>47</ele>
        <time>2019-02-17T10:29:31Z</time>
      </trkpt>
      <trkpt lat="50.50394" lon="1.61222">
        <ele>47</ele>
        <time>2019-02-17T10:29:35Z</time>
      </trkpt>
      <trkpt lat="50.50394" lon="1.61203">
        <ele>47</ele>
        <time>2019-02-17T10:29:39Z</time>
      </trkpt>
      <trkpt lat="50.50392" lon="1.6119">
        <ele>47.2</ele>
        <time>2019-02-17T10:29:43Z</time>
      </trkpt>
      <trkpt lat="50.50391" lon="1.61166">
        <ele>47</ele>
        <time>2019-02-17T10:29:47Z</time>
      </trkpt>
      <trkpt lat="50.50389" lon="1.61149">
        <ele>47.4</ele>
        <time>2019-02-17T10:29:51Z</time>
      </trkpt>
      <trkpt lat="50.5039" lon="1.61133">
        <ele>47.2</ele>
        <time>2019-02-17T10:29:55Z</time>
      </trkpt>
      <trkpt lat="50.50386" lon="1.61114">
        <ele>47</ele>
        <time>2019-02-17T10:29:59Z</time>
      </trkpt>
      <trkpt lat="50.50385" lon="1.61095">
        <ele>46.6</ele>
        <time>2019-02-17T10:30:03Z</time>
      </trkpt>
      <trkpt lat="50.50386" lon="1.61077">
        <ele>46.8</ele>
        <time>2019-02-17T10:30:07Z</time>
      </trkpt>
      <trkpt lat="50.50386" lon="1.61077">
        <ele>46.8</ele>
        <time>2019-02-17T10:30:11Z</time>
      </trkpt>
      <trkpt lat="50.50386" lon="1.61077">
        <ele>46.8</ele>
        <time>2019-02-17T10:30:15Z</time>
      </trkpt>
      <trkpt lat="50.50386" lon="1.61077">
        <ele>46.8</ele>
        <time>2019-02-17T10:30:19Z</time>
      </trkpt>
      <trkpt lat="50.50386" lon="1.61077">
        <ele>46.8</ele>
        <time>2019-02-17T10:30:23Z</time>
      </trkpt>
      <trkpt lat="50.50386" lon="1.61077">
        <ele>46.8</ele>
        <time>2019-02-17T10:30:27Z</time>
      </trkpt>
      <trkpt lat="50.50386" lon="1.61077">
        <ele>46.8</ele>
        <time>2019-02-17T10:30:31Z</time>
      </trkpt>
      <trkpt lat="50.50386" lon="1.61077">
        <ele>46.8</ele>
        <time>2019-02-17T10:30:35Z</time>
      </trkpt>
      <trkpt lat="50.50386" lon="1.61077">
        <ele>46.8</ele>
        <time>2019-02-17T10:30:39Z</time>
      </trkpt>
      <trkpt lat="50.50386" lon="1.61077">
        <ele>46.8</ele>
        <time>2019-02-17T10:30:43Z</time>
      </trkpt>
      <trkpt lat="50.50386" lon="1.61077">
        <ele>46.8</ele>
        <time>2019-02-17T10:30:47Z</time>
      </trkpt>
      <trkpt lat="50.50386" lon="1.61077">
        <ele>46.8</ele>
        <time>2019-02-17T10:30:51Z</time>
      </trkpt>
      <trkpt lat="50.50386" lon="1.61077">
        <ele>46.8</ele>
        <time>2019-02-17T10:30:55Z</time>
      </trkpt>
      <trkpt lat="50.50386" lon="1.61077">
        <ele>46.8</ele>
        <time>2019-02-17T10:30:59Z</time>
      </trkpt>
      <trkpt lat="50.50386" lon="1.61077">
        <ele>46.8</ele>
        <time>2019-02-17T10:31:03Z</time>
      </trkpt>
      <trkpt lat="50.50386" lon="1.61077">
        <ele>46.8</ele>
        <time>2019-02-17T10:31:07Z</time>
      </trkpt>
      <trkpt lat="50.50386" lon="1.61077">
        <ele>46.8</ele>
        <time>2019-02-17T10:31:11Z</time>
      </trkpt>
      <trkpt lat="50.50386" lon="1.61077">
        <ele>46.8</ele>
        <time>2019-02-17T10:31:15Z</time>
      </trkpt>
      <trkpt lat="50.50386" lon="1.61077">
        <ele>46.8</ele>
        <time>2019-02-17T10:31:19Z</time>
      </trkpt>
      <trkpt lat="50.50386" lon="1.61077">
        <ele>46.8</ele>
        <time>2019-02-17T10:31:23Z</time>
      </trkpt>
      <trkpt lat="50.50386" lon="1.61077">
        <ele>46.8</ele>
        <time>2019-02-17T10:31:27Z</time>
      </trkpt>
      <trkpt lat="50.50386" lon="1.61077">
        <ele>46.8</ele>
        <time>2019-02-17T10:31:31Z</time>
      </trkpt>
      <trkpt lat="50.50386" lon="1.61077">
        <ele>46.8</ele>
        <time>2019-02-17T10:31:35Z</time>
      </trkpt>
      <trkpt lat="50.50386" lon="1.61077">
        <ele>46.8</ele>
        <time>2019-02-17T10:31:39Z</time>
      </trkpt>
      <trkpt lat="50.50386" lon="1.61077">
        <ele>46.8</ele>
        <time>2019-02-17T10:31:43Z</time>
      </trkpt>
      <trkpt lat="50.50386" lon="1.61077">
        <ele>46.8</ele>
        <time>2019-02-17T10:31:47Z</time>
      </trkpt>
      <trkpt lat="50.50386" lon="1.61077">
        <ele>46.8</ele>
        <time>2019-02-17T10:31:51Z</time>
      </trkpt>
      <trkpt lat="50.50386" lon="1.61077">
        <ele>46.8</ele>
        <time>2019-02-17T10:31:55Z</time>
      </trkpt>
      <trkpt lat="50.50386" lon="1.61077">
        <ele>46.8</ele>
        <time>2019-02-17T10:31:59Z</time>
      </trkpt>
      <trkpt lat="50.50386" lon="1.61077">
        <ele>46.8</ele>
        <time>2019-02-17T10:32:03Z</time>
      </trkpt>
      <trkpt lat="50.50386" lon="1.61077">
        <ele>46.8</ele>
        <time>2019-02-17T10:32:07Z</time>
      </trkpt>
      <trkpt lat="50.50386" lon="1.61077">
        <ele>46.8</ele>
        <time>2019-02-17T10:32:11Z</time>
      </trkpt>
      <trkpt lat="50.50386" lon="1.61077">
        <ele>46.8</ele>
        <time>2019-02-17T10:32:15Z</time>
      </trkpt>
      <trkpt lat="50.50386" lon="1.61077">
        <ele>46.8</ele>
        <time>2019-02-17T10:32:19Z</time>
      </trkpt>
      <trkpt lat="50.50386" lon="1.61077">
        <ele>46.8</ele>
        <time>2019-02-17T10:32:23Z</time>
      </trkpt>
      <trkpt lat="50.50386" lon="1.61077">
        <ele>46.8</ele>
        <time>2019-02-17T10:32:27Z</time>
      </trkpt>
      <trkpt lat="50.50386" lon="1.61077">
        <ele>46.8</ele>
        <time>2019-02-17T10:32:31Z</time>
      </trkpt>
      <trkpt lat="50.50386" lon="1.61077">
        <ele>46.8</ele>
        <time>2019-02-17T10:32:35Z</time>
      </trkpt>
      <trkpt lat="50.50386" lon="1.61077">
        <ele>46.8</ele>
        <time>2019-02-17T10:32:39Z</time>
      </trkpt>
      <trkpt lat="50.50386" lon="1.61077">
        <ele>46.8</ele>
        <time>2019-02-17T10:32:43Z</time>
      </trkpt>
      <trkpt lat="50.50386" lon="1.61077">
        <ele>46.8</ele>
        <time>2019-02-17T10:32:47Z</time>
      </trkpt>
      <trkpt lat="50.50386" lon="1.61077">
        <ele>46.8</ele>
        <time>2019-02-17T10:32:51Z</time>
      </trkpt>
      <trkpt lat="50.50386" lon="1.61077">
        <ele>46.8</ele>
        <time>2019-02-17T10:32:55Z</time>
      </trkpt>
      <trkpt lat="50.50386" lon="1.61077">
        <ele>46.8</ele>
        <time>2019-02-17T10:32:59Z</time>
      </trkpt>
      <trkpt lat="50.50386" lon="1.61077">
        <ele>46.8</ele>
        <time>2019-02-17T10:33:03Z</time>
      </trkpt>
      <trkpt lat="50.50386" lon="1.61077">
        <ele>46.8</ele>
        <time>2019-02-17T10:33:07Z</time>
      </trkpt>
      <trkpt lat="50.50386" lon="1.61077">
        <ele>46.8</ele>
        <time>2019-02-17T10:33:11Z</time>
      </trkpt>
      <trkpt lat="50.50386" lon="1.61077">
        <ele>46.8</ele>
        <time>2019-02-17T10:33:15Z</time>
      </trkpt>
      <trkpt lat="50.50386" lon="1.61077">
        <ele>46.8</ele>
        <time>2019-02-17T10:33:19Z</time>
      </trkpt>
      <trkpt lat="50.50386" lon="1.61077">
        <ele>46.8</ele>
        <time>2019-02-17T10:33:23Z</time>
      </trkpt>
      <trkpt lat="50.50386" lon="1.61077">
        <ele>46.8</ele>
        <time>2019-02-17T10:33:27Z</time>
      </trkpt>
      <trkpt lat="50.50386" lon="1.61077">
        <ele>46.8</ele>
        <time>2019-02-17T10:33:31Z</time>
      </trkpt>
      <trkpt lat="50.50386" lon="1.61077">
        <ele>46.8</ele>
        <time>2019-02-17T10:33:35Z</time>
      </trkpt>
      <trkpt lat="50.50386" lon="1.61077">
        <ele>46.8</ele>
        <time>2019-02-17T10:33:39Z</time>
      </trkpt>
      <trkpt lat="50.50386" lon="1.61077">
        <ele>46.8</ele>
        <time>2019-02-17T10:33:43Z</time>
      </trkpt>
      <trkpt lat="50.50386" lon="1.61077">
        <ele>46.8</ele>
        <time>2019-02-17T10:33:47Z</time>
      </trkpt>
      <trkpt lat="50.50386" lon="1.61077">
        <ele>46.8</ele>
        <time>2019-02-17T10:33:51Z</time>
      </trkpt>
      <trkpt lat="50.50386" lon="1.61077">
        <ele>46.8</ele>
        <time>2019-02-17T10:33:55Z</time>
      </trkpt>
      <trkpt lat="50.50386" lon="1.61077">
        <ele>46.8</ele>
        <time>2019-02-17T10:33:59Z</time>
      </trkpt>
      <trkpt lat="50.50386" lon="1.61077">
        <ele>46.8</ele>
        <time>2019-02-17T10:34:03Z</time>
      </trkpt>
      <trkpt lat="50.50386" lon="1.61077">
        <ele>46.8</ele>
        <time>2019-02-17T10:34:07Z</time>
      </trkpt>
      <trkpt lat="50.50386" lon="1.61077">
        <ele>46.8</ele>
        <time>2019-02-17T10:34:11Z</time>
      </trkpt>
      <trkpt lat="50.50386" lon="1.61077">
        <ele>46.8</ele>
        <time>2019-02-17T10:34:15Z</time>
      </trkpt>
      <trkpt lat="50.50386" lon="1.61077">
        <ele>46.8</ele>
        <time>2019-02-17T10:34:19Z</time>
      </trkpt>
      <trkpt lat="50.50386" lon="1.61077">
        <ele>46.8</ele>
        <time>2019-02-17T10:34:23Z</time>
      </trkpt>
      <trkpt lat="50.50386" lon="1.61077">
        <ele>46.8</ele>
        <time>2019-02-17T10:34:27Z</time>
      </trkpt>
      <trkpt lat="50.50386" lon="1.61077">
        <ele>46.8</ele>
        <time>2019-02-17T10:34:31Z</time>
      </trkpt>
      <trkpt lat="50.50386" lon="1.61077">
        <ele>46.8</ele>
        <time>2019-02-17T10:34:35Z</time>
      </trkpt>
      <trkpt lat="50.50386" lon="1.61077">
        <ele>46.8</ele>
        <time>2019-02-17T10:34:39Z</time>
      </trkpt>
      <trkpt lat="50.50386" lon="1.61077">
        <ele>46.8</ele>
        <time>2019-02-17T10:34:43Z</time>
      </trkpt>
      <trkpt lat="50.50386" lon="1.61077">
        <ele>46.8</ele>
        <time>2019-02-17T10:34:47Z</time>
      </trkpt>
      <trkpt lat="50.50386" lon="1.61077">
        <ele>46.8</ele>
        <time>2019-02-17T10:34:51Z</time>
      </trkpt>
      <trkpt lat="50.50386" lon="1.61077">
        <ele>46.8</ele>
        <time>2019-02-17T10:34:55Z</time>
      </trkpt>
      <trkpt lat="50.50386" lon="1.61077">
        <ele>46.8</ele>
        <time>2019-02-17T10:34:59Z</time>
      </trkpt>
      <trkpt lat="50.50386" lon="1.61077">
        <ele>46.8</ele>
        <time>2019-02-17T10:35:03Z</time>
      </trkpt>
      <trkpt lat="50.50386" lon="1.61077">
        <ele>46.8</ele>
        <time>2019-02-17T10:35:07Z</time>
      </trkpt>
      <trkpt lat="50.50386" lon="1.61077">
        <ele>46.8</ele>
        <time>2019-02-17T10:35:11Z</time>
      </trkpt>
      <trkpt lat="50.50386" lon="1.61077">
        <ele>46.8</ele>
        <time>2019-02-17T10:35:15Z</time>
      </trkpt>
      <trkpt lat="50.50386" lon="1.61077">
        <ele>46.8</ele>
        <time>2019-02-17T10:35:19Z</time>
      </trkpt>
      <trkpt lat="50.50386" lon="1.61077">
        <ele>46.8</ele>
        <time>2019-02-17T10:35:23Z</time>
      </trkpt>
      <trkpt lat="50.50386" lon="1.61077">
        <ele>46.8</ele>
        <time>2019-02-17T10:35:27Z</time>
      </trkpt>
      <trkpt lat="50.50386" lon="1.61077">
        <ele>46.8</ele>
        <time>2019-02-17T10:35:31Z</time>
      </trkpt>
      <trkpt lat="50.50386" lon="1.61077">
        <ele>46.8</ele>
        <time>2019-02-17T10:35:35Z</time>
      </trkpt>
      <trkpt lat="50.50386" lon="1.61077">
        <ele>46.8</ele>
        <time>2019-02-17T10:35:39Z</time>
      </trkpt>
      <trkpt lat="50.50386" lon="1.61077">
        <ele>46.8</ele>
        <time>2019-02-17T10:35:43Z</time>
      </trkpt>
      <trkpt lat="50.50386" lon="1.61077">
        <ele>46.8</ele>
        <time>2019-02-17T10:35:47Z</time>
      </trkpt>
      <trkpt lat="50.50386" lon="1.61077">
        <ele>46.8</ele>
        <time>2019-02-17T10:35:51Z</time>
      </trkpt>
      <trkpt lat="50.50386" lon="1.61077">
        <ele>46.8</ele>
        <time>2019-02-17T10:35:55Z</time>
      </trkpt>
      <trkpt lat="50.50386" lon="1.61077">
        <ele>46.8</ele>
        <time>2019-02-17T10:35:59Z</time>
      </trkpt>
      <trkpt lat="50.50386" lon="1.61077">
        <ele>46.8</ele>
        <time>2019-02-17T10:36:03Z</time>
      </trkpt>
      <trkpt lat="50.50386" lon="1.61077">
        <ele>46.8</ele>
        <time>2019-02-17T10:36:07Z</time>
      </trkpt>
      <trkpt lat="50.50386" lon="1.61077">
        <ele>46.8</ele>
        <time>2019-02-17T10:36:11Z</time>
      </trkpt>
      <trkpt lat="50.50386" lon="1.61077">
        <ele>46.8</ele>
        <time>2019-02-17T10:36:15Z</time>
      </trkpt>
      <trkpt lat="50.50386" lon="1.61077">
        <ele>46.8</ele>
        <time>2019-02-17T10:36:19Z</time>
      </trkpt>
      <trkpt lat="50.50386" lon="1.61077">
        <ele>46.8</ele>
        <time>2019-02-17T10:36:23Z</time>
      </trkpt>
      <trkpt lat="50.50386" lon="1.61077">
        <ele>46.8</ele>
        <time>2019-02-17T10:36:27Z</time>
      </trkpt>
      <trkpt lat="50.50386" lon="1.61075">
        <ele>47.6</ele>
        <time>2019-02-17T10:36:31Z</time>
      </trkpt>
      <trkpt lat="50.50384" lon="1.61078">
        <ele>47.8</ele>
        <time>2019-02-17T10:36:35Z</time>
      </trkpt>
      <trkpt lat="50.50382" lon="1.61084">
        <ele>47.4</ele>
        <time>2019-02-17T10:36:39Z</time>
      </trkpt>
      <trkpt lat="50.50379" lon="1.61088">
        <ele>47.6</ele>
        <time>2019-02-17T10:36:43Z</time>
      </trkpt>
      <trkpt lat="50.50375" lon="1.6109">
        <ele>47.6</ele>
        <time>2019-02-17T10:36:47Z</time>
      </trkpt>
      <trkpt lat="50.5037" lon="1.61088">
        <ele>47.2</ele>
        <time>2019-02-17T10:36:51Z</time>
      </trkpt>
      <trkpt lat="50.50357" lon="1.61088">
        <ele>47.2</ele>
        <time>2019-02-17T10:36:55Z</time>
      </trkpt>
      <trkpt lat="50.50344" lon="1.61091">
        <ele>47.8</ele>
        <time>2019-02-17T10:36:59Z</time>
      </trkpt>
      <trkpt lat="50.50331" lon="1.61092">
        <ele>47.2</ele>
        <time>2019-02-17T10:37:03Z</time>
      </trkpt>
      <trkpt lat="50.5032" lon="1.61097">
        <ele>48</ele>
        <time>2019-02-17T10:37:07Z</time>
      </trkpt>
      <trkpt lat="50.50306" lon="1.61105">
        <ele>47.6</ele>
        <time>2019-02-17T10:37:11Z</time>
      </trkpt>
      <trkpt lat="50.50291" lon="1.61098">
        <ele>47.6</ele>
        <time>2019-02-17T10:37:15Z</time>
      </trkpt>
      <trkpt lat="50.50278" lon="1.61105">
        <ele>48</ele>
        <time>2019-02-17T10:37:19Z</time>
      </trkpt>
      <trkpt lat="50.50265" lon="1.61109">
        <ele>47.8</ele>
        <time>2019-02-17T10:37:23Z</time>
      </trkpt>
      <trkpt lat="50.50255" lon="1.61107">
        <ele>48.6</ele>
        <time>2019-02-17T10:37:27Z</time>
      </trkpt>
      <trkpt lat="50.50244" lon="1.61117">
        <ele>48</ele>
        <time>2019-02-17T10:37:31Z</time>
      </trkpt>
      <trkpt lat="50.50241" lon="1.61138">
        <ele>48</ele>
        <time>2019-02-17T10:37:35Z</time>
      </trkpt>
      <trkpt lat="50.50247" lon="1.61161">
        <ele>48.2</ele>
        <time>2019-02-17T10:37:39Z</time>
      </trkpt>
      <trkpt lat="50.50252" lon="1.61191">
        <ele>47.8</ele>
        <time>2019-02-17T10:37:43Z</time>
      </trkpt>
      <trkpt lat="50.50249" lon="1.61215">
        <ele>48.2</ele>
        <time>2019-02-17T10:37:47Z</time>
      </trkpt>
      <trkpt lat="50.50241" lon="1.61233">
        <ele>47.8</ele>
        <time>2019-02-17T10:37:51Z</time>
      </trkpt>
      <trkpt lat="50.50235" lon="1.61253">
        <ele>48.2</ele>
        <time>2019-02-17T10:37:55Z</time>
      </trkpt>
      <trkpt lat="50.5023" lon="1.61271">
        <ele>48.8</ele>
        <time>2019-02-17T10:37:59Z</time>
      </trkpt>
      <trkpt lat="50.50227" lon="1.6129">
        <ele>49.2</ele>
        <time>2019-02-17T10:38:03Z</time>
      </trkpt>
      <trkpt lat="50.5022" lon="1.61306">
        <ele>49.2</ele>
        <time>2019-02-17T10:38:07Z</time>
      </trkpt>
      <trkpt lat="50.50221" lon="1.61329">
        <ele>49</ele>
        <time>2019-02-17T10:38:11Z</time>
      </trkpt>
      <trkpt lat="50.50223" lon="1.61356">
        <ele>49.2</ele>
        <time>2019-02-17T10:38:15Z</time>
      </trkpt>
      <trkpt lat="50.5023" lon="1.61384">
        <ele>49.2</ele>
        <time>2019-02-17T10:38:19Z</time>
      </trkpt>
      <trkpt lat="50.50235" lon="1.61421">
        <ele>49.2</ele>
        <time>2019-02-17T10:38:23Z</time>
      </trkpt>
      <trkpt lat="50.50239" lon="1.6145">
        <ele>49</ele>
        <time>2019-02-17T10:38:27Z</time>
      </trkpt>
      <trkpt lat="50.50237" lon="1.61473">
        <ele>48.6</ele>
        <time>2019-02-17T10:38:31Z</time>
      </trkpt>
      <trkpt lat="50.50224" lon="1.61493">
        <ele>48.2</ele>
        <time>2019-02-17T10:38:35Z</time>
      </trkpt>
      <trkpt lat="50.50214" lon="1.61512">
        <ele>48.2</ele>
        <time>2019-02-17T10:38:39Z</time>
      </trkpt>
      <trkpt lat="50.50201" lon="1.61532">
        <ele>48.8</ele>
        <time>2019-02-17T10:38:43Z</time>
      </trkpt>
      <trkpt lat="50.50186" lon="1.61539">
        <ele>49.6</ele>
        <time>2019-02-17T10:38:47Z</time>
      </trkpt>
      <trkpt lat="50.50174" lon="1.61532">
        <ele>50.2</ele>
        <time>2019-02-17T10:38:51Z</time>
      </trkpt>
      <trkpt lat="50.50159" lon="1.61526">
        <ele>50</ele>
        <time>2019-02-17T10:38:55Z</time>
      </trkpt>
      <trkpt lat="50.50148" lon="1.61525">
        <ele>50.4</ele>
        <time>2019-02-17T10:38:59Z</time>
      </trkpt>
      <trkpt lat="50.50137" lon="1.61532">
        <ele>50.4</ele>
        <time>2019-02-17T10:39:03Z</time>
      </trkpt>
      <trkpt lat="50.5013" lon="1.61542">
        <ele>51.6</ele>
        <time>2019-02-17T10:39:07Z</time>
      </trkpt>
      <trkpt lat="50.50117" lon="1.61546">
        <ele>50.8</ele>
        <time>2019-02-17T10:39:11Z</time>
      </trkpt>
      <trkpt lat="50.50106" lon="1.61552">
        <ele>51.6</ele>
        <time>2019-02-17T10:39:15Z</time>
      </trkpt>
      <trkpt lat="50.501" lon="1.61551">
        <ele>51.4</ele>
        <time>2019-02-17T10:39:19Z</time>
      </trkpt>
      <trkpt lat="50.50101" lon="1.6154">
        <ele>52.6</ele>
        <time>2019-02-17T10:39:23Z</time>
      </trkpt>
      <trkpt lat="50.50105" lon="1.61524">
        <ele>51.4</ele>
        <time>2019-02-17T10:39:27Z</time>
      </trkpt>
      <trkpt lat="50.50113" lon="1.61495">
        <ele>50.8</ele>
        <time>2019-02-17T10:39:31Z</time>
      </trkpt>
      <trkpt lat="50.5012" lon="1.61467">
        <ele>51</ele>
        <time>2019-02-17T10:39:35Z</time>
      </trkpt>
      <trkpt lat="50.50129" lon="1.61453">
        <ele>51.4</ele>
        <time>2019-02-17T10:39:39Z</time>
      </trkpt>
      <trkpt lat="50.50137" lon="1.61435">
        <ele>51.4</ele>
        <time>2019-02-17T10:39:43Z</time>
      </trkpt>
      <trkpt lat="50.50145" lon="1.61412">
        <ele>50.6</ele>
        <time>2019-02-17T10:39:47Z</time>
      </trkpt>
      <trkpt lat="50.50153" lon="1.61396">
        <ele>51</ele>
        <time>2019-02-17T10:39:51Z</time>
      </trkpt>
      <trkpt lat="50.50153" lon="1.61396">
        <ele>51</ele>
        <time>2019-02-17T10:39:55Z</time>
      </trkpt>
      <trkpt lat="50.50156" lon="1.61386">
        <ele>51.2</ele>
        <time>2019-02-17T10:39:59Z</time>
      </trkpt>
      <trkpt lat="50.50147" lon="1.61384">
        <ele>51</ele>
        <time>2019-02-17T10:40:03Z</time>
      </trkpt>
      <trkpt lat="50.50138" lon="1.61387">
        <ele>51.8</ele>
        <time>2019-02-17T10:40:07Z</time>
      </trkpt>
      <trkpt lat="50.50135" lon="1.61396">
        <ele>53</ele>
        <time>2019-02-17T10:40:11Z</time>
      </trkpt>
      <trkpt lat="50.50128" lon="1.61406">
        <ele>52.6</ele>
        <time>2019-02-17T10:40:15Z</time>
      </trkpt>
      <trkpt lat="50.50124" lon="1.61411">
        <ele>53.8</ele>
        <time>2019-02-17T10:40:19Z</time>
      </trkpt>
      <trkpt lat="50.5012" lon="1.61419">
        <ele>54</ele>
        <time>2019-02-17T10:40:23Z</time>
      </trkpt>
      <trkpt lat="50.50115" lon="1.61425">
        <ele>54.4</ele>
        <time>2019-02-17T10:40:27Z</time>
      </trkpt>
      <trkpt lat="50.5011" lon="1.61433">
        <ele>55.2</ele>
        <time>2019-02-17T10:40:31Z</time>
      </trkpt>
      <trkpt lat="50.50103" lon="1.61435">
        <ele>55.8</ele>
        <time>2019-02-17T10:40:35Z</time>
      </trkpt>
      <trkpt lat="50.50098" lon="1.61431">
        <ele>57.2</ele>
        <time>2019-02-17T10:40:39Z</time>
      </trkpt>
      <trkpt lat="50.50093" lon="1.61424">
        <ele>58.2</ele>
        <time>2019-02-17T10:40:43Z</time>
      </trkpt>
      <trkpt lat="50.50092" lon="1.61415">
        <ele>58.2</ele>
        <time>2019-02-17T10:40:47Z</time>
      </trkpt>
      <trkpt lat="50.50091" lon="1.61406">
        <ele>59.2</ele>
        <time>2019-02-17T10:40:51Z</time>
      </trkpt>
      <trkpt lat="50.50087" lon="1.61401">
        <ele>60.4</ele>
        <time>2019-02-17T10:40:55Z</time>
      </trkpt>
      <trkpt lat="50.50082" lon="1.61396">
        <ele>60.8</ele>
        <time>2019-02-17T10:40:59Z</time>
      </trkpt>
      <trkpt lat="50.50074" lon="1.61391">
        <ele>60.6</ele>
        <time>2019-02-17T10:41:03Z</time>
      </trkpt>
      <trkpt lat="50.50062" lon="1.61389">
        <ele>60.2</ele>
        <time>2019-02-17T10:41:07Z</time>
      </trkpt>
      <trkpt lat="50.50056" lon="1.61391">
        <ele>61.6</ele>
        <time>2019-02-17T10:41:11Z</time>
      </trkpt>
      <trkpt lat="50.50053" lon="1.61391">
        <ele>62.4</ele>
        <time>2019-02-17T10:41:15Z</time>
      </trkpt>
      <trkpt lat="50.50044" lon="1.61389">
        <ele>62.4</ele>
        <time>2019-02-17T10:41:19Z</time>
      </trkpt>
      <trkpt lat="50.50035" lon="1.61378">
        <ele>61.4</ele>
        <time>2019-02-17T10:41:23Z</time>
      </trkpt>
      <trkpt lat="50.50023" lon="1.61356">
        <ele>61.2</ele>
        <time>2019-02-17T10:41:27Z</time>
      </trkpt>
      <trkpt lat="50.50017" lon="1.61337">
        <ele>61.2</ele>
        <time>2019-02-17T10:41:31Z</time>
      </trkpt>
      <trkpt lat="50.50009" lon="1.61326">
        <ele>61.8</ele>
        <time>2019-02-17T10:41:35Z</time>
      </trkpt>
      <trkpt lat="50.50002" lon="1.61311">
        <ele>61.6</ele>
        <time>2019-02-17T10:41:39Z</time>
      </trkpt>
      <trkpt lat="50.49993" lon="1.61295">
        <ele>61.6</ele>
        <time>2019-02-17T10:41:43Z</time>
      </trkpt>
      <trkpt lat="50.49982" lon="1.61283">
        <ele>60.4</ele>
        <time>2019-02-17T10:41:47Z</time>
      </trkpt>
      <trkpt lat="50.49964" lon="1.61257">
        <ele>57.6</ele>
        <time>2019-02-17T10:41:51Z</time>
      </trkpt>
      <trkpt lat="50.49944" lon="1.61232">
        <ele>57</ele>
        <time>2019-02-17T10:41:55Z</time>
      </trkpt>
      <trkpt lat="50.49939" lon="1.61195">
        <ele>55</ele>
        <time>2019-02-17T10:41:59Z</time>
      </trkpt>
      <trkpt lat="50.49923" lon="1.61165">
        <ele>52</ele>
        <time>2019-02-17T10:42:03Z</time>
      </trkpt>
      <trkpt lat="50.49919" lon="1.61138">
        <ele>51.6</ele>
        <time>2019-02-17T10:42:07Z</time>
      </trkpt>
      <trkpt lat="50.49917" lon="1.61111">
        <ele>49.6</ele>
        <time>2019-02-17T10:42:11Z</time>
      </trkpt>
      <trkpt lat="50.49924" lon="1.61078">
        <ele>49</ele>
        <time>2019-02-17T10:42:15Z</time>
      </trkpt>
      <trkpt lat="50.49939" lon="1.6106">
        <ele>48</ele>
        <time>2019-02-17T10:42:19Z</time>
      </trkpt>
      <trkpt lat="50.49954" lon="1.61043">
        <ele>48.6</ele>
        <time>2019-02-17T10:42:23Z</time>
      </trkpt>
      <trkpt lat="50.49965" lon="1.61028">
        <ele>49</ele>
        <time>2019-02-17T10:42:27Z</time>
      </trkpt>
      <trkpt lat="50.49976" lon="1.61016">
        <ele>48.8</ele>
        <time>2019-02-17T10:42:31Z</time>
      </trkpt>
      <trkpt lat="50.49989" lon="1.61008">
        <ele>49</ele>
        <time>2019-02-17T10:42:35Z</time>
      </trkpt>
      <trkpt lat="50.50002" lon="1.60997">
        <ele>48.6</ele>
        <time>2019-02-17T10:42:39Z</time>
      </trkpt>
      <trkpt lat="50.50011" lon="1.60985">
        <ele>49.6</ele>
        <time>2019-02-17T10:42:43Z</time>
      </trkpt>
      <trkpt lat="50.5002" lon="1.60975">
        <ele>49.8</ele>
        <time>2019-02-17T10:42:47Z</time>
      </trkpt>
      <trkpt lat="50.50026" lon="1.60962">
        <ele>50.4</ele>
        <time>2019-02-17T10:42:51Z</time>
      </trkpt>
      <trkpt lat="50.50034" lon="1.60957">
        <ele>51</ele>
        <time>2019-02-17T10:42:55Z</time>
      </trkpt>
      <trkpt lat="50.50041" lon="1.60952">
        <ele>51.8</ele>
        <time>2019-02-17T10:42:59Z</time>
      </trkpt>
      <trkpt lat="50.50051" lon="1.6095">
        <ele>52</ele>
        <time>2019-02-17T10:43:03Z</time>
      </trkpt>
      <trkpt lat="50.50059" lon="1.60948">
        <ele>53.4</ele>
        <time>2019-02-17T10:43:07Z</time>
      </trkpt>
      <trkpt lat="50.50069" lon="1.6094">
        <ele>54.2</ele>
        <time>2019-02-17T10:43:11Z</time>
      </trkpt>
      <trkpt lat="50.50078" lon="1.60932">
        <ele>55.2</ele>
        <time>2019-02-17T10:43:15Z</time>
      </trkpt>
      <trkpt lat="50.50086" lon="1.60924">
        <ele>56.2</ele>
        <time>2019-02-17T10:43:19Z</time>
      </trkpt>
      <trkpt lat="50.50095" lon="1.60917">
        <ele>57</ele>
        <time>2019-02-17T10:43:23Z</time>
      </trkpt>
      <trkpt lat="50.50095" lon="1.60909">
        <ele>58</ele>
        <time>2019-02-17T10:43:27Z</time>
      </trkpt>
      <trkpt lat="50.50096" lon="1.60902">
        <ele>59</ele>
        <time>2019-02-17T10:43:31Z</time>
      </trkpt>
      <trkpt lat="50.50097" lon="1.60894">
        <ele>59.6</ele>
        <time>2019-02-17T10:43:35Z</time>
      </trkpt>
      <trkpt lat="50.50095" lon="1.60882">
        <ele>59.8</ele>
        <time>2019-02-17T10:43:39Z</time>
      </trkpt>
      <trkpt lat="50.50095" lon="1.60882">
        <ele>59.8</ele>
        <time>2019-02-17T10:43:43Z</time>
      </trkpt>
      <trkpt lat="50.50095" lon="1.60882">
        <ele>59.8</ele>
        <time>2019-02-17T10:43:47Z</time>
      </trkpt>
      <trkpt lat="50.50095" lon="1.60882">
        <ele>59.8</ele>
        <time>2019-02-17T10:43:51Z</time>
      </trkpt>
      <trkpt lat="50.50093" lon="1.60871">
        <ele>59.6</ele>
        <time>2019-02-17T10:43:55Z</time>
      </trkpt>
      <trkpt lat="50.5009" lon="1.60861">
        <ele>60.2</ele>
        <time>2019-02-17T10:43:59Z</time>
      </trkpt>
      <trkpt lat="50.50089" lon="1.60847">
        <ele>61.2</ele>
        <time>2019-02-17T10:44:03Z</time>
      </trkpt>
      <trkpt lat="50.5009" lon="1.60839">
        <ele>61.6</ele>
        <time>2019-02-17T10:44:07Z</time>
      </trkpt>
      <trkpt lat="50.50087" lon="1.60828">
        <ele>62.4</ele>
        <time>2019-02-17T10:44:11Z</time>
      </trkpt>
      <trkpt lat="50.50084" lon="1.60814">
        <ele>62.8</ele>
        <time>2019-02-17T10:44:15Z</time>
      </trkpt>
      <trkpt lat="50.5008" lon="1.60805">
        <ele>62.4</ele>
        <time>2019-02-17T10:44:19Z</time>
      </trkpt>
      <trkpt lat="50.50077" lon="1.60794">
        <ele>63.4</ele>
        <time>2019-02-17T10:44:23Z</time>
      </trkpt>
      <trkpt lat="50.50075" lon="1.60782">
        <ele>64.4</ele>
        <time>2019-02-17T10:44:27Z</time>
      </trkpt>
      <trkpt lat="50.50066" lon="1.60768">
        <ele>63</ele>
        <time>2019-02-17T10:44:31Z</time>
      </trkpt>
      <trkpt lat="50.5006" lon="1.60753">
        <ele>62</ele>
        <time>2019-02-17T10:44:35Z</time>
      </trkpt>
      <trkpt lat="50.50053" lon="1.60733">
        <ele>64</ele>
        <time>2019-02-17T10:44:39Z</time>
      </trkpt>
      <trkpt lat="50.5005" lon="1.60721">
        <ele>66</ele>
        <time>2019-02-17T10:44:43Z</time>
      </trkpt>
      <trkpt lat="50.50045" lon="1.60708">
        <ele>65.8</ele>
        <time>2019-02-17T10:44:47Z</time>
      </trkpt>
      <trkpt lat="50.50045" lon="1.6069">
        <ele>64.6</ele>
        <time>2019-02-17T10:44:51Z</time>
      </trkpt>
      <trkpt lat="50.50045" lon="1.60673">
        <ele>63.6</ele>
        <time>2019-02-17T10:44:55Z</time>
      </trkpt>
      <trkpt lat="50.50045" lon="1.60654">
        <ele>63.6</ele>
        <time>2019-02-17T10:44:59Z</time>
      </trkpt>
      <trkpt lat="50.50047" lon="1.6064">
        <ele>63</ele>
        <time>2019-02-17T10:45:03Z</time>
      </trkpt>
      <trkpt lat="50.50047" lon="1.60628">
        <ele>64</ele>
        <time>2019-02-17T10:45:07Z</time>
      </trkpt>
      <trkpt lat="50.50044" lon="1.60616">
        <ele>61.2</ele>
        <time>2019-02-17T10:45:11Z</time>
      </trkpt>
      <trkpt lat="50.50051" lon="1.60589">
        <ele>59.6</ele>
        <time>2019-02-17T10:45:15Z</time>
      </trkpt>
      <trkpt lat="50.5006" lon="1.60573">
        <ele>60.2</ele>
        <time>2019-02-17T10:45:19Z</time>
      </trkpt>
      <trkpt lat="50.50067" lon="1.60572">
        <ele>60.8</ele>
        <time>2019-02-17T10:45:23Z</time>
      </trkpt>
      <trkpt lat="50.50072" lon="1.60587">
        <ele>61.2</ele>
        <time>2019-02-17T10:45:27Z</time>
      </trkpt>
      <trkpt lat="50.50075" lon="1.60598">
        <ele>62.4</ele>
        <time>2019-02-17T10:45:31Z</time>
      </trkpt>
      <trkpt lat="50.50076" lon="1.60609">
        <ele>62.6</ele>
        <time>2019-02-17T10:45:35Z</time>
      </trkpt>
      <trkpt lat="50.5008" lon="1.60619">
        <ele>64.2</ele>
        <time>2019-02-17T10:45:39Z</time>
      </trkpt>
      <trkpt lat="50.50083" lon="1.60636">
        <ele>65</ele>
        <time>2019-02-17T10:45:43Z</time>
      </trkpt>
      <trkpt lat="50.50083" lon="1.6065">
        <ele>66.4</ele>
        <time>2019-02-17T10:45:47Z</time>
      </trkpt>
      <trkpt lat="50.50085" lon="1.60662">
        <ele>67.4</ele>
        <time>2019-02-17T10:45:51Z</time>
      </trkpt>
      <trkpt lat="50.50083" lon="1.60681">
        <ele>67.2</ele>
        <time>2019-02-17T10:45:55Z</time>
      </trkpt>
      <trkpt lat="50.50085" lon="1.60697">
        <ele>66.6</ele>
        <time>2019-02-17T10:45:59Z</time>
      </trkpt>
      <trkpt lat="50.50086" lon="1.60714">
        <ele>65.6</ele>
        <time>2019-02-17T10:46:03Z</time>
      </trkpt>
      <trkpt lat="50.50088" lon="1.60735">
        <ele>66</ele>
        <time>2019-02-17T10:46:07Z</time>
      </trkpt>
      <trkpt lat="50.50096" lon="1.6075">
        <ele>65.8</ele>
        <time>2019-02-17T10:46:11Z</time>
      </trkpt>
      <trkpt lat="50.50105" lon="1.60767">
        <ele>64.6</ele>
        <time>2019-02-17T10:46:15Z</time>
      </trkpt>
      <trkpt lat="50.50115" lon="1.60779">
        <ele>65</ele>
        <time>2019-02-17T10:46:19Z</time>
      </trkpt>
      <trkpt lat="50.50125" lon="1.60796">
        <ele>65.2</ele>
        <time>2019-02-17T10:46:23Z</time>
      </trkpt>
      <trkpt lat="50.50134" lon="1.60813">
        <ele>65.8</ele>
        <time>2019-02-17T10:46:27Z</time>
      </trkpt>
      <trkpt lat="50.50143" lon="1.60818">
        <ele>68</ele>
        <time>2019-02-17T10:46:31Z</time>
      </trkpt>
      <trkpt lat="50.50153" lon="1.60826">
        <ele>68.8</ele>
        <time>2019-02-17T10:46:35Z</time>
      </trkpt>
      <trkpt lat="50.50162" lon="1.60828">
        <ele>69.8</ele>
        <time>2019-02-17T10:46:39Z</time>
      </trkpt>
      <trkpt lat="50.50168" lon="1.60828">
        <ele>69.4</ele>
        <time>2019-02-17T10:46:43Z</time>
      </trkpt>
      <trkpt lat="50.50182" lon="1.60831">
        <ele>68.2</ele>
        <time>2019-02-17T10:46:47Z</time>
      </trkpt>
      <trkpt lat="50.50197" lon="1.60842">
        <ele>66</ele>
        <time>2019-02-17T10:46:51Z</time>
      </trkpt>
      <trkpt lat="50.50216" lon="1.60855">
        <ele>64.6</ele>
        <time>2019-02-17T10:46:55Z</time>
      </trkpt>
      <trkpt lat="50.50229" lon="1.60854">
        <ele>64.4</ele>
        <time>2019-02-17T10:46:59Z</time>
      </trkpt>
      <trkpt lat="50.5024" lon="1.60859">
        <ele>64</ele>
        <time>2019-02-17T10:47:03Z</time>
      </trkpt>
      <trkpt lat="50.50254" lon="1.60865">
        <ele>64.2</ele>
        <time>2019-02-17T10:47:07Z</time>
      </trkpt>
      <trkpt lat="50.50267" lon="1.60861">
        <ele>65.4</ele>
        <time>2019-02-17T10:47:11Z</time>
      </trkpt>
      <trkpt lat="50.5028" lon="1.60859">
        <ele>67</ele>
        <time>2019-02-17T10:47:15Z</time>
      </trkpt>
      <trkpt lat="50.50288" lon="1.60861">
        <ele>67</ele>
        <time>2019-02-17T10:47:19Z</time>
      </trkpt>
      <trkpt lat="50.50297" lon="1.60856">
        <ele>67.6</ele>
        <time>2019-02-17T10:47:23Z</time>
      </trkpt>
      <trkpt lat="50.50304" lon="1.60857">
        <ele>67.6</ele>
        <time>2019-02-17T10:47:27Z</time>
      </trkpt>
      <trkpt lat="50.50309" lon="1.60871">
        <ele>63.6</ele>
        <time>2019-02-17T10:47:31Z</time>
      </trkpt>
      <trkpt lat="50.50304" lon="1.6089">
        <ele>54.2</ele>
        <time>2019-02-17T10:47:35Z</time>
      </trkpt>
      <trkpt lat="50.50302" lon="1.60917">
        <ele>48</ele>
        <time>2019-02-17T10:47:39Z</time>
      </trkpt>
      <trkpt lat="50.50309" lon="1.60935">
        <ele>47.8</ele>
        <time>2019-02-17T10:47:43Z</time>
      </trkpt>
      <trkpt lat="50.50319" lon="1.60935">
        <ele>48</ele>
        <time>2019-02-17T10:47:47Z</time>
      </trkpt>
      <trkpt lat="50.50328" lon="1.60937">
        <ele>47.8</ele>
        <time>2019-02-17T10:47:51Z</time>
      </trkpt>
      <trkpt lat="50.50348" lon="1.6094">
        <ele>48</ele>
        <time>2019-02-17T10:47:55Z</time>
      </trkpt>
      <trkpt lat="50.50363" lon="1.60955">
        <ele>48.2</ele>
        <time>2019-02-17T10:47:59Z</time>
      </trkpt>
      <trkpt lat="50.50376" lon="1.60956">
        <ele>49.6</ele>
        <time>2019-02-17T10:48:03Z</time>
      </trkpt>
      <trkpt lat="50.50383" lon="1.60949">
        <ele>50.4</ele>
        <time>2019-02-17T10:48:07Z</time>
      </trkpt>
      <trkpt lat="50.50383" lon="1.60949">
        <ele>50.4</ele>
        <time>2019-02-17T10:48:11Z</time>
      </trkpt>
      <trkpt lat="50.50383" lon="1.60949">
        <ele>50.4</ele>
        <time>2019-02-17T10:48:15Z</time>
      </trkpt>
      <trkpt lat="50.50383" lon="1.60949">
        <ele>50.4</ele>
        <time>2019-02-17T10:48:19Z</time>
      </trkpt>
      <trkpt lat="50.50383" lon="1.60949">
        <ele>50.4</ele>
        <time>2019-02-17T10:48:23Z</time>
      </trkpt>
      <trkpt lat="50.50383" lon="1.60949">
        <ele>50.4</ele>
        <time>2019-02-17T10:48:27Z</time>
      </trkpt>
      <trkpt lat="50.50383" lon="1.60949">
        <ele>50.4</ele>
        <time>2019-02-17T10:48:31Z</time>
      </trkpt>
      <trkpt lat="50.50387" lon="1.60945">
        <ele>51.8</ele>
        <time>2019-02-17T10:48:35Z</time>
      </trkpt>
      <trkpt lat="50.5039" lon="1.60941">
        <ele>53.4</ele>
        <time>2019-02-17T10:48:39Z</time>
      </trkpt>
      <trkpt lat="50.50396" lon="1.60936">
        <ele>53.8</ele>
        <time>2019-02-17T10:48:43Z</time>
      </trkpt>
      <trkpt lat="50.50399" lon="1.60933">
        <ele>54.4</ele>
        <time>2019-02-17T10:48:47Z</time>
      </trkpt>
      <trkpt lat="50.50401" lon="1.60928">
        <ele>54.8</ele>
        <time>2019-02-17T10:48:51Z</time>
      </trkpt>
      <trkpt lat="50.50405" lon="1.60923">
        <ele>55.8</ele>
        <time>2019-02-17T10:48:55Z</time>
      </trkpt>
      <trkpt lat="50.50413" lon="1.60917">
        <ele>56.2</ele>
        <time>2019-02-17T10:48:59Z</time>
      </trkpt>
      <trkpt lat="50.50419" lon="1.60909">
        <ele>56.8</ele>
        <time>2019-02-17T10:49:03Z</time>
      </trkpt>
      <trkpt lat="50.50425" lon="1.60905">
        <ele>57.8</ele>
        <time>2019-02-17T10:49:07Z</time>
      </trkpt>
      <trkpt lat="50.50431" lon="1.60899">
        <ele>58.4</ele>
        <time>2019-02-17T10:49:11Z</time>
      </trkpt>
      <trkpt lat="50.50439" lon="1.60889">
        <ele>59.2</ele>
        <time>2019-02-17T10:49:15Z</time>
      </trkpt>
      <trkpt lat="50.50447" lon="1.60887">
        <ele>59.6</ele>
        <time>2019-02-17T10:49:19Z</time>
      </trkpt>
      <trkpt lat="50.50453" lon="1.60885">
        <ele>60.2</ele>
        <time>2019-02-17T10:49:23Z</time>
      </trkpt>
      <trkpt lat="50.5046" lon="1.60892">
        <ele>60.8</ele>
        <time>2019-02-17T10:49:27Z</time>
      </trkpt>
      <trkpt lat="50.50468" lon="1.60895">
        <ele>60.4</ele>
        <time>2019-02-17T10:49:31Z</time>
      </trkpt>
      <trkpt lat="50.5047" lon="1.60893">
        <ele>59.8</ele>
        <time>2019-02-17T10:49:35Z</time>
      </trkpt>
      <trkpt lat="50.50477" lon="1.60897">
        <ele>60.2</ele>
        <time>2019-02-17T10:49:39Z</time>
      </trkpt>
      <trkpt lat="50.50486" lon="1.60896">
        <ele>61.4</ele>
        <time>2019-02-17T10:49:43Z</time>
      </trkpt>
      <trkpt lat="50.50493" lon="1.60892">
        <ele>61.2</ele>
        <time>2019-02-17T10:49:47Z</time>
      </trkpt>
      <trkpt lat="50.50501" lon="1.60895">
        <ele>60.2</ele>
        <time>2019-02-17T10:49:51Z</time>
      </trkpt>
      <trkpt lat="50.50509" lon="1.60896">
        <ele>61.2</ele>
        <time>2019-02-17T10:49:55Z</time>
      </trkpt>
      <trkpt lat="50.50518" lon="1.60901">
        <ele>61.2</ele>
        <time>2019-02-17T10:49:59Z</time>
      </trkpt>
      <trkpt lat="50.50528" lon="1.60902">
        <ele>59.2</ele>
        <time>2019-02-17T10:50:03Z</time>
      </trkpt>
      <trkpt lat="50.50537" lon="1.60894">
        <ele>58.2</ele>
        <time>2019-02-17T10:50:07Z</time>
      </trkpt>
      <trkpt lat="50.50545" lon="1.60879">
        <ele>56.8</ele>
        <time>2019-02-17T10:50:11Z</time>
      </trkpt>
      <trkpt lat="50.50558" lon="1.60858">
        <ele>55.8</ele>
        <time>2019-02-17T10:50:15Z</time>
      </trkpt>
      <trkpt lat="50.50567" lon="1.60869">
        <ele>55.8</ele>
        <time>2019-02-17T10:50:19Z</time>
      </trkpt>
      <trkpt lat="50.50577" lon="1.60884">
        <ele>55.8</ele>
        <time>2019-02-17T10:50:23Z</time>
      </trkpt>
      <trkpt lat="50.50583" lon="1.60902">
        <ele>56.2</ele>
        <time>2019-02-17T10:50:27Z</time>
      </trkpt>
      <trkpt lat="50.50583" lon="1.60918">
        <ele>56.8</ele>
        <time>2019-02-17T10:50:31Z</time>
      </trkpt>
      <trkpt lat="50.5058" lon="1.6093">
        <ele>57</ele>
        <time>2019-02-17T10:50:35Z</time>
      </trkpt>
      <trkpt lat="50.50578" lon="1.60945">
        <ele>56.8</ele>
        <time>2019-02-17T10:50:39Z</time>
      </trkpt>
      <trkpt lat="50.50587" lon="1.60961">
        <ele>54</ele>
        <time>2019-02-17T10:50:43Z</time>
      </trkpt>
      <trkpt lat="50.50601" lon="1.60983">
        <ele>53.4</ele>
        <time>2019-02-17T10:50:47Z</time>
      </trkpt>
      <trkpt lat="50.5061" lon="1.60979">
        <ele>54.2</ele>
        <time>2019-02-17T10:50:51Z</time>
      </trkpt>
      <trkpt lat="50.50616" lon="1.60985">
        <ele>54.8</ele>
        <time>2019-02-17T10:50:55Z</time>
      </trkpt>
      <trkpt lat="50.50622" lon="1.60989">
        <ele>54.8</ele>
        <time>2019-02-17T10:50:59Z</time>
      </trkpt>
      <trkpt lat="50.50628" lon="1.60988">
        <ele>55.6</ele>
        <time>2019-02-17T10:51:03Z</time>
      </trkpt>
      <trkpt lat="50.50633" lon="1.60992">
        <ele>56.4</ele>
        <time>2019-02-17T10:51:07Z</time>
      </trkpt>
      <trkpt lat="50.50638" lon="1.60992">
        <ele>57.2</ele>
        <time>2019-02-17T10:51:11Z</time>
      </trkpt>
      <trkpt lat="50.50644" lon="1.60988">
        <ele>57.8</ele>
        <time>2019-02-17T10:51:15Z</time>
      </trkpt>
      <trkpt lat="50.5065" lon="1.60983">
        <ele>58</ele>
        <time>2019-02-17T10:51:19Z</time>
      </trkpt>
      <trkpt lat="50.50657" lon="1.60986">
        <ele>58.6</ele>
        <time>2019-02-17T10:51:23Z</time>
      </trkpt>
      <trkpt lat="50.50662" lon="1.60989">
        <ele>59.2</ele>
        <time>2019-02-17T10:51:27Z</time>
      </trkpt>
      <trkpt lat="50.50671" lon="1.60989">
        <ele>59.4</ele>
        <time>2019-02-17T10:51:31Z</time>
      </trkpt>
      <trkpt lat="50.50678" lon="1.60996">
        <ele>60.2</ele>
        <time>2019-02-17T10:51:35Z</time>
      </trkpt>
      <trkpt lat="50.50684" lon="1.61">
        <ele>60.6</ele>
        <time>2019-02-17T10:51:39Z</time>
      </trkpt>
      <trkpt lat="50.50691" lon="1.6101">
        <ele>61</ele>
        <time>2019-02-17T10:51:43Z</time>
      </trkpt>
      <trkpt lat="50.50697" lon="1.61016">
        <ele>62</ele>
        <time>2019-02-17T10:51:47Z</time>
      </trkpt>
      <trkpt lat="50.50701" lon="1.61026">
        <ele>61</ele>
        <time>2019-02-17T10:51:51Z</time>
      </trkpt>
      <trkpt lat="50.50711" lon="1.61045">
        <ele>60.8</ele>
        <time>2019-02-17T10:51:55Z</time>
      </trkpt>
      <trkpt lat="50.50711" lon="1.6106">
        <ele>61.8</ele>
        <time>2019-02-17T10:51:59Z</time>
      </trkpt>
      <trkpt lat="50.5071" lon="1.6107">
        <ele>62</ele>
        <time>2019-02-17T10:52:03Z</time>
      </trkpt>
      <trkpt lat="50.5071" lon="1.61082">
        <ele>62.2</ele>
        <time>2019-02-17T10:52:07Z</time>
      </trkpt>
      <trkpt lat="50.50713" lon="1.61099">
        <ele>62.4</ele>
        <time>2019-02-17T10:52:11Z</time>
      </trkpt>
      <trkpt lat="50.50713" lon="1.61117">
        <ele>61.2</ele>
        <time>2019-02-17T10:52:15Z</time>
      </trkpt>
      <trkpt lat="50.50707" lon="1.61138">
        <ele>58.2</ele>
        <time>2019-02-17T10:52:19Z</time>
      </trkpt>
      <trkpt lat="50.50706" lon="1.61157">
        <ele>56.6</ele>
        <time>2019-02-17T10:52:23Z</time>
      </trkpt>
      <trkpt lat="50.50716" lon="1.61151">
        <ele>57.4</ele>
        <time>2019-02-17T10:52:27Z</time>
      </trkpt>
      <trkpt lat="50.50725" lon="1.61142">
        <ele>57.8</ele>
        <time>2019-02-17T10:52:31Z</time>
      </trkpt>
      <trkpt lat="50.50734" lon="1.6113">
        <ele>57.2</ele>
        <time>2019-02-17T10:52:35Z</time>
      </trkpt>
      <trkpt lat="50.50749" lon="1.61116">
        <ele>56.2</ele>
        <time>2019-02-17T10:52:39Z</time>
      </trkpt>
      <trkpt lat="50.50764" lon="1.61098">
        <ele>53.8</ele>
        <time>2019-02-17T10:52:43Z</time>
      </trkpt>
      <trkpt lat="50.50774" lon="1.61074">
        <ele>52.6</ele>
        <time>2019-02-17T10:52:47Z</time>
      </trkpt>
      <trkpt lat="50.5078" lon="1.61043">
        <ele>52</ele>
        <time>2019-02-17T10:52:51Z</time>
      </trkpt>
      <trkpt lat="50.50784" lon="1.6101">
        <ele>51.8</ele>
        <time>2019-02-17T10:52:55Z</time>
      </trkpt>
      <trkpt lat="50.5079" lon="1.60976">
        <ele>51.2</ele>
        <time>2019-02-17T10:52:59Z</time>
      </trkpt>
      <trkpt lat="50.50792" lon="1.6094">
        <ele>50.8</ele>
        <time>2019-02-17T10:53:03Z</time>
      </trkpt>
      <trkpt lat="50.50784" lon="1.60918">
        <ele>52.6</ele>
        <time>2019-02-17T10:53:07Z</time>
      </trkpt>
      <trkpt lat="50.50769" lon="1.60902">
        <ele>52.6</ele>
        <time>2019-02-17T10:53:11Z</time>
      </trkpt>
      <trkpt lat="50.50755" lon="1.60885">
        <ele>52.4</ele>
        <time>2019-02-17T10:53:15Z</time>
      </trkpt>
      <trkpt lat="50.50737" lon="1.60876">
        <ele>53.2</ele>
        <time>2019-02-17T10:53:19Z</time>
      </trkpt>
      <trkpt lat="50.50727" lon="1.60878">
        <ele>53.4</ele>
        <time>2019-02-17T10:53:23Z</time>
      </trkpt>
      <trkpt lat="50.50713" lon="1.60885">
        <ele>54.2</ele>
        <time>2019-02-17T10:53:27Z</time>
      </trkpt>
      <trkpt lat="50.50701" lon="1.60889">
        <ele>54.2</ele>
        <time>2019-02-17T10:53:31Z</time>
      </trkpt>
      <trkpt lat="50.50686" lon="1.60895">
        <ele>53.6</ele>
        <time>2019-02-17T10:53:35Z</time>
      </trkpt>
      <trkpt lat="50.50669" lon="1.60898">
        <ele>52.2</ele>
        <time>2019-02-17T10:53:39Z</time>
      </trkpt>
      <trkpt lat="50.50651" lon="1.60878">
        <ele>50.4</ele>
        <time>2019-02-17T10:53:43Z</time>
      </trkpt>
      <trkpt lat="50.5063" lon="1.60856">
        <ele>50.8</ele>
        <time>2019-02-17T10:53:47Z</time>
      </trkpt>
      <trkpt lat="50.50617" lon="1.60848">
        <ele>51.4</ele>
        <time>2019-02-17T10:53:51Z</time>
      </trkpt>
      <trkpt lat="50.50613" lon="1.60843">
        <ele>51.4</ele>
        <time>2019-02-17T10:53:55Z</time>
      </trkpt>
      <trkpt lat="50.50607" lon="1.60838">
        <ele>51.8</ele>
        <time>2019-02-17T10:53:59Z</time>
      </trkpt>
      <trkpt lat="50.50603" lon="1.60832">
        <ele>52.6</ele>
        <time>2019-02-17T10:54:03Z</time>
      </trkpt>
      <trkpt lat="50.50594" lon="1.6082">
        <ele>51.4</ele>
        <time>2019-02-17T10:54:07Z</time>
      </trkpt>
      <trkpt lat="50.50589" lon="1.60813">
        <ele>52.2</ele>
        <time>2019-02-17T10:54:11Z</time>
      </trkpt>
      <trkpt lat="50.50584" lon="1.60809">
        <ele>53</ele>
        <time>2019-02-17T10:54:15Z</time>
      </trkpt>
      <trkpt lat="50.50581" lon="1.60806">
        <ele>53.4</ele>
        <time>2019-02-17T10:54:19Z</time>
      </trkpt>
      <trkpt lat="50.50577" lon="1.60803">
        <ele>53.4</ele>
        <time>2019-02-17T10:54:23Z</time>
      </trkpt>
      <trkpt lat="50.50569" lon="1.60802">
        <ele>53.8</ele>
        <time>2019-02-17T10:54:27Z</time>
      </trkpt>
      <trkpt lat="50.50562" lon="1.60808">
        <ele>54.2</ele>
        <time>2019-02-17T10:54:31Z</time>
      </trkpt>
      <trkpt lat="50.50557" lon="1.60816">
        <ele>55.8</ele>
        <time>2019-02-17T10:54:35Z</time>
      </trkpt>
      <trkpt lat="50.50551" lon="1.60809">
        <ele>55.2</ele>
        <time>2019-02-17T10:54:39Z</time>
      </trkpt>
      <trkpt lat="50.50555" lon="1.608">
        <ele>54.4</ele>
        <time>2019-02-17T10:54:43Z</time>
      </trkpt>
      <trkpt lat="50.5056" lon="1.60784">
        <ele>54</ele>
        <time>2019-02-17T10:54:47Z</time>
      </trkpt>
      <trkpt lat="50.50569" lon="1.60763">
        <ele>52.2</ele>
        <time>2019-02-17T10:54:51Z</time>
      </trkpt>
      <trkpt lat="50.50577" lon="1.60738">
        <ele>51.6</ele>
        <time>2019-02-17T10:54:55Z</time>
      </trkpt>
      <trkpt lat="50.50579" lon="1.60708">
        <ele>49.8</ele>
        <time>2019-02-17T10:54:59Z</time>
      </trkpt>
      <trkpt lat="50.50581" lon="1.60685">
        <ele>48.8</ele>
        <time>2019-02-17T10:55:03Z</time>
      </trkpt>
      <trkpt lat="50.50589" lon="1.60666">
        <ele>48.2</ele>
        <time>2019-02-17T10:55:07Z</time>
      </trkpt>
      <trkpt lat="50.50595" lon="1.60642">
        <ele>47.8</ele>
        <time>2019-02-17T10:55:11Z</time>
      </trkpt>
      <trkpt lat="50.50601" lon="1.60628">
        <ele>47.8</ele>
        <time>2019-02-17T10:55:15Z</time>
      </trkpt>
      <trkpt lat="50.5061" lon="1.60611">
        <ele>48.2</ele>
        <time>2019-02-17T10:55:19Z</time>
      </trkpt>
      <trkpt lat="50.50615" lon="1.60594">
        <ele>48</ele>
        <time>2019-02-17T10:55:23Z</time>
      </trkpt>
      <trkpt lat="50.5062" lon="1.60573">
        <ele>48</ele>
        <time>2019-02-17T10:55:27Z</time>
      </trkpt>
      <trkpt lat="50.50624" lon="1.60556">
        <ele>48.4</ele>
        <time>2019-02-17T10:55:31Z</time>
      </trkpt>
      <trkpt lat="50.50626" lon="1.6054">
        <ele>47.8</ele>
        <time>2019-02-17T10:55:35Z</time>
      </trkpt>
      <trkpt lat="50.5063" lon="1.60526">
        <ele>48</ele>
        <time>2019-02-17T10:55:39Z</time>
      </trkpt>
      <trkpt lat="50.50636" lon="1.60511">
        <ele>48.6</ele>
        <time>2019-02-17T10:55:43Z</time>
      </trkpt>
      <trkpt lat="50.5064" lon="1.60492">
        <ele>48.6</ele>
        <time>2019-02-17T10:55:47Z</time>
      </trkpt>
      <trkpt lat="50.50642" lon="1.60479">
        <ele>48.4</ele>
        <time>2019-02-17T10:55:51Z</time>
      </trkpt>
      <trkpt lat="50.50644" lon="1.60466">
        <ele>48.8</ele>
        <time>2019-02-17T10:55:55Z</time>
      </trkpt>
      <trkpt lat="50.50637" lon="1.60449">
        <ele>48.4</ele>
        <time>2019-02-17T10:55:59Z</time>
      </trkpt>
      <trkpt lat="50.50627" lon="1.60439">
        <ele>48.4</ele>
        <time>2019-02-17T10:56:03Z</time>
      </trkpt>
      <trkpt lat="50.50622" lon="1.60436">
        <ele>48</ele>
        <time>2019-02-17T10:56:07Z</time>
      </trkpt>
      <trkpt lat="50.50608" lon="1.60436">
        <ele>48.4</ele>
        <time>2019-02-17T10:56:11Z</time>
      </trkpt>
      <trkpt lat="50.50601" lon="1.60437">
        <ele>48.4</ele>
        <time>2019-02-17T10:56:15Z</time>
      </trkpt>
      <trkpt lat="50.50588" lon="1.60432">
        <ele>48.6</ele>
        <time>2019-02-17T10:56:19Z</time>
      </trkpt>
      <trkpt lat="50.5057" lon="1.60424">
        <ele>48.8</ele>
        <time>2019-02-17T10:56:23Z</time>
      </trkpt>
      <trkpt lat="50.50561" lon="1.60415">
        <ele>49</ele>
        <time>2019-02-17T10:56:27Z</time>
      </trkpt>
      <trkpt lat="50.50558" lon="1.60396">
        <ele>49</ele>
        <time>2019-02-17T10:56:31Z</time>
      </trkpt>
      <trkpt lat="50.50549" lon="1.60378">
        <ele>49</ele>
        <time>2019-02-17T10:56:35Z</time>
      </trkpt>
      <trkpt lat="50.50543" lon="1.60361">
        <ele>49</ele>
        <time>2019-02-17T10:56:39Z</time>
      </trkpt>
      <trkpt lat="50.5053" lon="1.60337">
        <ele>49</ele>
        <time>2019-02-17T10:56:43Z</time>
      </trkpt>
      <trkpt lat="50.50518" lon="1.60313">
        <ele>49</ele>
        <time>2019-02-17T10:56:47Z</time>
      </trkpt>
      <trkpt lat="50.50507" lon="1.60288">
        <ele>49.4</ele>
        <time>2019-02-17T10:56:51Z</time>
      </trkpt>
      <trkpt lat="50.50497" lon="1.6026">
        <ele>49.8</ele>
        <time>2019-02-17T10:56:55Z</time>
      </trkpt>
      <trkpt lat="50.50489" lon="1.60238">
        <ele>49.2</ele>
        <time>2019-02-17T10:56:59Z</time>
      </trkpt>
      <trkpt lat="50.50486" lon="1.60214">
        <ele>48.8</ele>
        <time>2019-02-17T10:57:03Z</time>
      </trkpt>
      <trkpt lat="50.50481" lon="1.60189">
        <ele>49.4</ele>
        <time>2019-02-17T10:57:07Z</time>
      </trkpt>
      <trkpt lat="50.50485" lon="1.60162">
        <ele>49.6</ele>
        <time>2019-02-17T10:57:11Z</time>
      </trkpt>
      <trkpt lat="50.50484" lon="1.60137">
        <ele>49.8</ele>
        <time>2019-02-17T10:57:15Z</time>
      </trkpt>
      <trkpt lat="50.50486" lon="1.60119">
        <ele>49.4</ele>
        <time>2019-02-17T10:57:19Z</time>
      </trkpt>
      <trkpt lat="50.50486" lon="1.60103">
        <ele>49.4</ele>
        <time>2019-02-17T10:57:23Z</time>
      </trkpt>
      <trkpt lat="50.50484" lon="1.60082">
        <ele>49.2</ele>
        <time>2019-02-17T10:57:27Z</time>
      </trkpt>
      <trkpt lat="50.50482" lon="1.60058">
        <ele>49.2</ele>
        <time>2019-02-17T10:57:31Z</time>
      </trkpt>
      <trkpt lat="50.5048" lon="1.60029">
        <ele>50</ele>
        <time>2019-02-17T10:57:35Z</time>
      </trkpt>
      <trkpt lat="50.50479" lon="1.60002">
        <ele>49.4</ele>
        <time>2019-02-17T10:57:39Z</time>
      </trkpt>
      <trkpt lat="50.50478" lon="1.59973">
        <ele>49.8</ele>
        <time>2019-02-17T10:57:43Z</time>
      </trkpt>
      <trkpt lat="50.50475" lon="1.59945">
        <ele>49.8</ele>
        <time>2019-02-17T10:57:47Z</time>
      </trkpt>
      <trkpt lat="50.50477" lon="1.59908">
        <ele>49.4</ele>
        <time>2019-02-17T10:57:51Z</time>
      </trkpt>
      <trkpt lat="50.50475" lon="1.5988">
        <ele>49.8</ele>
        <time>2019-02-17T10:57:55Z</time>
      </trkpt>
      <trkpt lat="50.50476" lon="1.59852">
        <ele>49.6</ele>
        <time>2019-02-17T10:57:59Z</time>
      </trkpt>
      <trkpt lat="50.50476" lon="1.59821">
        <ele>50.4</ele>
        <time>2019-02-17T10:58:03Z</time>
      </trkpt>
      <trkpt lat="50.50472" lon="1.59789">
        <ele>50.6</ele>
        <time>2019-02-17T10:58:07Z</time>
      </trkpt>
      <trkpt lat="50.5047" lon="1.59763">
        <ele>51.2</ele>
        <time>2019-02-17T10:58:11Z</time>
      </trkpt>
      <trkpt lat="50.50467" lon="1.59746">
        <ele>51.8</ele>
        <time>2019-02-17T10:58:15Z</time>
      </trkpt>
      <trkpt lat="50.50468" lon="1.5973">
        <ele>53.4</ele>
        <time>2019-02-17T10:58:19Z</time>
      </trkpt>
      <trkpt lat="50.50468" lon="1.59716">
        <ele>54.4</ele>
        <time>2019-02-17T10:58:23Z</time>
      </trkpt>
      <trkpt lat="50.50467" lon="1.59706">
        <ele>55.6</ele>
        <time>2019-02-17T10:58:27Z</time>
      </trkpt>
      <trkpt lat="50.50469" lon="1.59694">
        <ele>56</ele>
        <time>2019-02-17T10:58:31Z</time>
      </trkpt>
      <trkpt lat="50.5047" lon="1.59675">
        <ele>56.6</ele>
        <time>2019-02-17T10:58:35Z</time>
      </trkpt>
      <trkpt lat="50.50472" lon="1.59661">
        <ele>58</ele>
        <time>2019-02-17T10:58:39Z</time>
      </trkpt>
      <trkpt lat="50.50473" lon="1.59649">
        <ele>59</ele>
        <time>2019-02-17T10:58:43Z</time>
      </trkpt>
      <trkpt lat="50.50468" lon="1.59632">
        <ele>58.6</ele>
        <time>2019-02-17T10:58:47Z</time>
      </trkpt>
      <trkpt lat="50.50469" lon="1.59609">
        <ele>58.6</ele>
        <time>2019-02-17T10:58:51Z</time>
      </trkpt>
      <trkpt lat="50.50479" lon="1.59578">
        <ele>57</ele>
        <time>2019-02-17T10:58:55Z</time>
      </trkpt>
      <trkpt lat="50.50487" lon="1.59566">
        <ele>57.6</ele>
        <time>2019-02-17T10:58:59Z</time>
      </trkpt>
      <trkpt lat="50.50501" lon="1.5956">
        <ele>57.2</ele>
        <time>2019-02-17T10:59:03Z</time>
      </trkpt>
      <trkpt lat="50.50513" lon="1.59577">
        <ele>57</ele>
        <time>2019-02-17T10:59:07Z</time>
      </trkpt>
      <trkpt lat="50.50525" lon="1.5958">
        <ele>57</ele>
        <time>2019-02-17T10:59:11Z</time>
      </trkpt>
      <trkpt lat="50.50535" lon="1.59576">
        <ele>58</ele>
        <time>2019-02-17T10:59:15Z</time>
      </trkpt>
      <trkpt lat="50.50546" lon="1.59574">
        <ele>58.6</ele>
        <time>2019-02-17T10:59:19Z</time>
      </trkpt>
      <trkpt lat="50.50563" lon="1.59597">
        <ele>56.4</ele>
        <time>2019-02-17T10:59:23Z</time>
      </trkpt>
      <trkpt lat="50.50589" lon="1.59615">
        <ele>53.8</ele>
        <time>2019-02-17T10:59:27Z</time>
      </trkpt>
      <trkpt lat="50.50615" lon="1.5962">
        <ele>52.6</ele>
        <time>2019-02-17T10:59:31Z</time>
      </trkpt>
      <trkpt lat="50.5063" lon="1.59625">
        <ele>52.6</ele>
        <time>2019-02-17T10:59:35Z</time>
      </trkpt>
      <trkpt lat="50.5065" lon="1.59628">
        <ele>51</ele>
        <time>2019-02-17T10:59:39Z</time>
      </trkpt>
      <trkpt lat="50.50669" lon="1.59635">
        <ele>51.4</ele>
        <time>2019-02-17T10:59:43Z</time>
      </trkpt>
      <trkpt lat="50.50685" lon="1.59648">
        <ele>52.4</ele>
        <time>2019-02-17T10:59:47Z</time>
      </trkpt>
      <trkpt lat="50.50692" lon="1.5966">
        <ele>53.2</ele>
        <time>2019-02-17T10:59:51Z</time>
      </trkpt>
      <trkpt lat="50.50699" lon="1.59663">
        <ele>54.2</ele>
        <time>2019-02-17T10:59:55Z</time>
      </trkpt>
      <trkpt lat="50.50708" lon="1.59662">
        <ele>54.8</ele>
        <time>2019-02-17T10:59:59Z</time>
      </trkpt>
      <trkpt lat="50.50716" lon="1.59656">
        <ele>54.8</ele>
        <time>2019-02-17T11:00:03Z</time>
      </trkpt>
      <trkpt lat="50.50725" lon="1.5965">
        <ele>55</ele>
        <time>2019-02-17T11:00:07Z</time>
      </trkpt>
      <trkpt lat="50.50732" lon="1.59645">
        <ele>56.2</ele>
        <time>2019-02-17T11:00:11Z</time>
      </trkpt>
      <trkpt lat="50.50739" lon="1.59641">
        <ele>57.8</ele>
        <time>2019-02-17T11:00:15Z</time>
      </trkpt>
      <trkpt lat="50.50752" lon="1.59633">
        <ele>56</ele>
        <time>2019-02-17T11:00:19Z</time>
      </trkpt>
      <trkpt lat="50.50757" lon="1.5966">
        <ele>54.2</ele>
        <time>2019-02-17T11:00:23Z</time>
      </trkpt>
      <trkpt lat="50.50758" lon="1.59683">
        <ele>53.6</ele>
        <time>2019-02-17T11:00:27Z</time>
      </trkpt>
      <trkpt lat="50.50766" lon="1.59706">
        <ele>53.2</ele>
        <time>2019-02-17T11:00:31Z</time>
      </trkpt>
      <trkpt lat="50.50774" lon="1.59726">
        <ele>52.6</ele>
        <time>2019-02-17T11:00:35Z</time>
      </trkpt>
      <trkpt lat="50.50784" lon="1.59741">
        <ele>51.4</ele>
        <time>2019-02-17T11:00:39Z</time>
      </trkpt>
      <trkpt lat="50.50793" lon="1.59751">
        <ele>51</ele>
        <time>2019-02-17T11:00:43Z</time>
      </trkpt>
      <trkpt lat="50.50799" lon="1.59756">
        <ele>52.4</ele>
        <time>2019-02-17T11:00:47Z</time>
      </trkpt>
      <trkpt lat="50.50804" lon="1.59765">
        <ele>52.6</ele>
        <time>2019-02-17T11:00:51Z</time>
      </trkpt>
      <trkpt lat="50.50811" lon="1.5978">
        <ele>53.4</ele>
        <time>2019-02-17T11:00:55Z</time>
      </trkpt>
      <trkpt lat="50.50819" lon="1.59787">
        <ele>54.2</ele>
        <time>2019-02-17T11:00:59Z</time>
      </trkpt>
      <trkpt lat="50.50825" lon="1.5979">
        <ele>55.4</ele>
        <time>2019-02-17T11:01:03Z</time>
      </trkpt>
      <trkpt lat="50.50832" lon="1.59795">
        <ele>55.8</ele>
        <time>2019-02-17T11:01:07Z</time>
      </trkpt>
      <trkpt lat="50.50841" lon="1.59801">
        <ele>56.6</ele>
        <time>2019-02-17T11:01:11Z</time>
      </trkpt>
      <trkpt lat="50.50849" lon="1.5982">
        <ele>56.2</ele>
        <time>2019-02-17T11:01:15Z</time>
      </trkpt>
      <trkpt lat="50.50857" lon="1.59822">
        <ele>57.2</ele>
        <time>2019-02-17T11:01:19Z</time>
      </trkpt>
      <trkpt lat="50.50875" lon="1.59826">
        <ele>57</ele>
        <time>2019-02-17T11:01:23Z</time>
      </trkpt>
      <trkpt lat="50.50894" lon="1.59826">
        <ele>54</ele>
        <time>2019-02-17T11:01:27Z</time>
      </trkpt>
      <trkpt lat="50.50918" lon="1.59827">
        <ele>51.4</ele>
        <time>2019-02-17T11:01:31Z</time>
      </trkpt>
      <trkpt lat="50.50935" lon="1.59829">
        <ele>51.4</ele>
        <time>2019-02-17T11:01:35Z</time>
      </trkpt>
      <trkpt lat="50.50954" lon="1.59835">
        <ele>50.4</ele>
        <time>2019-02-17T11:01:39Z</time>
      </trkpt>
      <trkpt lat="50.50971" lon="1.59845">
        <ele>50</ele>
        <time>2019-02-17T11:01:43Z</time>
      </trkpt>
      <trkpt lat="50.50988" lon="1.59856">
        <ele>51.2</ele>
        <time>2019-02-17T11:01:47Z</time>
      </trkpt>
      <trkpt lat="50.50999" lon="1.59863">
        <ele>52</ele>
        <time>2019-02-17T11:01:51Z</time>
      </trkpt>
      <trkpt lat="50.51008" lon="1.59873">
        <ele>52.4</ele>
        <time>2019-02-17T11:01:55Z</time>
      </trkpt>
      <trkpt lat="50.51016" lon="1.59882">
        <ele>53</ele>
        <time>2019-02-17T11:01:59Z</time>
      </trkpt>
      <trkpt lat="50.51025" lon="1.59889">
        <ele>54</ele>
        <time>2019-02-17T11:02:03Z</time>
      </trkpt>
      <trkpt lat="50.51033" lon="1.59901">
        <ele>54.8</ele>
        <time>2019-02-17T11:02:07Z</time>
      </trkpt>
      <trkpt lat="50.5104" lon="1.59912">
        <ele>55</ele>
        <time>2019-02-17T11:02:11Z</time>
      </trkpt>
      <trkpt lat="50.5105" lon="1.5992">
        <ele>56</ele>
        <time>2019-02-17T11:02:15Z</time>
      </trkpt>
      <trkpt lat="50.51057" lon="1.59925">
        <ele>56.6</ele>
        <time>2019-02-17T11:02:19Z</time>
      </trkpt>
      <trkpt lat="50.51067" lon="1.59932">
        <ele>57.2</ele>
        <time>2019-02-17T11:02:23Z</time>
      </trkpt>
      <trkpt lat="50.51076" lon="1.59933">
        <ele>57.4</ele>
        <time>2019-02-17T11:02:27Z</time>
      </trkpt>
      <trkpt lat="50.51093" lon="1.59939">
        <ele>56.2</ele>
        <time>2019-02-17T11:02:31Z</time>
      </trkpt>
      <trkpt lat="50.51114" lon="1.59954">
        <ele>54.4</ele>
        <time>2019-02-17T11:02:35Z</time>
      </trkpt>
      <trkpt lat="50.51136" lon="1.59982">
        <ele>53.4</ele>
        <time>2019-02-17T11:02:39Z</time>
      </trkpt>
      <trkpt lat="50.51144" lon="1.60013">
        <ele>52.8</ele>
        <time>2019-02-17T11:02:43Z</time>
      </trkpt>
      <trkpt lat="50.51147" lon="1.60037">
        <ele>53</ele>
        <time>2019-02-17T11:02:47Z</time>
      </trkpt>
      <trkpt lat="50.51156" lon="1.60067">
        <ele>51.8</ele>
        <time>2019-02-17T11:02:51Z</time>
      </trkpt>
      <trkpt lat="50.51176" lon="1.60065">
        <ele>52</ele>
        <time>2019-02-17T11:02:55Z</time>
      </trkpt>
      <trkpt lat="50.51192" lon="1.60062">
        <ele>52.4</ele>
        <time>2019-02-17T11:02:59Z</time>
      </trkpt>
      <trkpt lat="50.51206" lon="1.60055">
        <ele>52.4</ele>
        <time>2019-02-17T11:03:03Z</time>
      </trkpt>
      <trkpt lat="50.5122" lon="1.60052">
        <ele>52.6</ele>
        <time>2019-02-17T11:03:07Z</time>
      </trkpt>
      <trkpt lat="50.51229" lon="1.60047">
        <ele>53.4</ele>
        <time>2019-02-17T11:03:11Z</time>
      </trkpt>
      <trkpt lat="50.51238" lon="1.60045">
        <ele>54.4</ele>
        <time>2019-02-17T11:03:15Z</time>
      </trkpt>
      <trkpt lat="50.51248" lon="1.60038">
        <ele>55.4</ele>
        <time>2019-02-17T11:03:19Z</time>
      </trkpt>
      <trkpt lat="50.51262" lon="1.60033">
        <ele>56.6</ele>
        <time>2019-02-17T11:03:23Z</time>
      </trkpt>
      <trkpt lat="50.51273" lon="1.60026">
        <ele>57.4</ele>
        <time>2019-02-17T11:03:27Z</time>
      </trkpt>
      <trkpt lat="50.51282" lon="1.60019">
        <ele>58.2</ele>
        <time>2019-02-17T11:03:31Z</time>
      </trkpt>
      <trkpt lat="50.51294" lon="1.60014">
        <ele>58.4</ele>
        <time>2019-02-17T11:03:35Z</time>
      </trkpt>
      <trkpt lat="50.51303" lon="1.60012">
        <ele>58.8</ele>
        <time>2019-02-17T11:03:39Z</time>
      </trkpt>
      <trkpt lat="50.51311" lon="1.60002">
        <ele>58.8</ele>
        <time>2019-02-17T11:03:43Z</time>
      </trkpt>
      <trkpt lat="50.51323" lon="1.59978">
        <ele>57.4</ele>
        <time>2019-02-17T11:03:47Z</time>
      </trkpt>
      <trkpt lat="50.51334" lon="1.59951">
        <ele>56.6</ele>
        <time>2019-02-17T11:03:51Z</time>
      </trkpt>
      <trkpt lat="50.51353" lon="1.59931">
        <ele>56</ele>
        <time>2019-02-17T11:03:55Z</time>
      </trkpt>
      <trkpt lat="50.51373" lon="1.59907">
        <ele>54</ele>
        <time>2019-02-17T11:03:59Z</time>
      </trkpt>
      <trkpt lat="50.51395" lon="1.59884">
        <ele>53.4</ele>
        <time>2019-02-17T11:04:03Z</time>
      </trkpt>
      <trkpt lat="50.51412" lon="1.59862">
        <ele>50.6</ele>
        <time>2019-02-17T11:04:07Z</time>
      </trkpt>
      <trkpt lat="50.51432" lon="1.59844">
        <ele>50</ele>
        <time>2019-02-17T11:04:11Z</time>
      </trkpt>
      <trkpt lat="50.51448" lon="1.59833">
        <ele>49.6</ele>
        <time>2019-02-17T11:04:15Z</time>
      </trkpt>
      <trkpt lat="50.51465" lon="1.59846">
        <ele>49.8</ele>
        <time>2019-02-17T11:04:19Z</time>
      </trkpt>
      <trkpt lat="50.5148" lon="1.59867">
        <ele>49.6</ele>
        <time>2019-02-17T11:04:23Z</time>
      </trkpt>
      <trkpt lat="50.51495" lon="1.59888">
        <ele>49.6</ele>
        <time>2019-02-17T11:04:27Z</time>
      </trkpt>
      <trkpt lat="50.5151" lon="1.5991">
        <ele>49.4</ele>
        <time>2019-02-17T11:04:31Z</time>
      </trkpt>
      <trkpt lat="50.51526" lon="1.5993">
        <ele>49.2</ele>
        <time>2019-02-17T11:04:35Z</time>
      </trkpt>
      <trkpt lat="50.51541" lon="1.59948">
        <ele>49.4</ele>
        <time>2019-02-17T11:04:39Z</time>
      </trkpt>
      <trkpt lat="50.51557" lon="1.59963">
        <ele>49</ele>
        <time>2019-02-17T11:04:43Z</time>
      </trkpt>
      <trkpt lat="50.51564" lon="1.59998">
        <ele>49.2</ele>
        <time>2019-02-17T11:04:47Z</time>
      </trkpt>
      <trkpt lat="50.51557" lon="1.60024">
        <ele>49</ele>
        <time>2019-02-17T11:04:51Z</time>
      </trkpt>
      <trkpt lat="50.51546" lon="1.60045">
        <ele>49.4</ele>
        <time>2019-02-17T11:04:55Z</time>
      </trkpt>
      <trkpt lat="50.51535" lon="1.60064">
        <ele>49.4</ele>
        <time>2019-02-17T11:04:59Z</time>
      </trkpt>
      <trkpt lat="50.51524" lon="1.60086">
        <ele>49.6</ele>
        <time>2019-02-17T11:05:03Z</time>
      </trkpt>
      <trkpt lat="50.51511" lon="1.60107">
        <ele>49.6</ele>
        <time>2019-02-17T11:05:07Z</time>
      </trkpt>
      <trkpt lat="50.515" lon="1.60129">
        <ele>49.8</ele>
        <time>2019-02-17T11:05:11Z</time>
      </trkpt>
      <trkpt lat="50.51488" lon="1.60151">
        <ele>49.8</ele>
        <time>2019-02-17T11:05:15Z</time>
      </trkpt>
      <trkpt lat="50.51475" lon="1.60173">
        <ele>49.8</ele>
        <time>2019-02-17T11:05:19Z</time>
      </trkpt>
      <trkpt lat="50.51463" lon="1.60194">
        <ele>49.6</ele>
        <time>2019-02-17T11:05:23Z</time>
      </trkpt>
      <trkpt lat="50.51451" lon="1.60215">
        <ele>49</ele>
        <time>2019-02-17T11:05:27Z</time>
      </trkpt>
      <trkpt lat="50.51438" lon="1.60237">
        <ele>48.8</ele>
        <time>2019-02-17T11:05:31Z</time>
      </trkpt>
      <trkpt lat="50.51424" lon="1.60256">
        <ele>48.6</ele>
        <time>2019-02-17T11:05:35Z</time>
      </trkpt>
      <trkpt lat="50.5141" lon="1.60276">
        <ele>49</ele>
        <time>2019-02-17T11:05:39Z</time>
      </trkpt>
      <trkpt lat="50.51397" lon="1.60296">
        <ele>49.4</ele>
        <time>2019-02-17T11:05:43Z</time>
      </trkpt>
      <trkpt lat="50.51384" lon="1.60314">
        <ele>49</ele>
        <time>2019-02-17T11:05:47Z</time>
      </trkpt>
      <trkpt lat="50.51373" lon="1.60334">
        <ele>49.2</ele>
        <time>2019-02-17T11:05:51Z</time>
      </trkpt>
      <trkpt lat="50.5136" lon="1.6035">
        <ele>49.2</ele>
        <time>2019-02-17T11:05:55Z</time>
      </trkpt>
      <trkpt lat="50.51348" lon="1.60368">
        <ele>49</ele>
        <time>2019-02-17T11:05:59Z</time>
      </trkpt>
      <trkpt lat="50.51334" lon="1.60385">
        <ele>49</ele>
        <time>2019-02-17T11:06:03Z</time>
      </trkpt>
      <trkpt lat="50.51319" lon="1.60403">
        <ele>49.2</ele>
        <time>2019-02-17T11:06:07Z</time>
      </trkpt>
      <trkpt lat="50.51307" lon="1.60422">
        <ele>48.6</ele>
        <time>2019-02-17T11:06:11Z</time>
      </trkpt>
      <trkpt lat="50.51292" lon="1.6043">
        <ele>48.6</ele>
        <time>2019-02-17T11:06:15Z</time>
      </trkpt>
      <trkpt lat="50.51275" lon="1.60418">
        <ele>48.8</ele>
        <time>2019-02-17T11:06:19Z</time>
      </trkpt>
      <trkpt lat="50.51256" lon="1.60406">
        <ele>48.6</ele>
        <time>2019-02-17T11:06:23Z</time>
      </trkpt>
      <trkpt lat="50.5124" lon="1.60391">
        <ele>48.6</ele>
        <time>2019-02-17T11:06:27Z</time>
      </trkpt>
      <trkpt lat="50.51233" lon="1.60368">
        <ele>49.2</ele>
        <time>2019-02-17T11:06:31Z</time>
      </trkpt>
      <trkpt lat="50.51228" lon="1.60349">
        <ele>49</ele>
        <time>2019-02-17T11:06:35Z</time>
      </trkpt>
      <trkpt lat="50.51221" lon="1.60323">
        <ele>49.2</ele>
        <time>2019-02-17T11:06:39Z</time>
      </trkpt>
      <trkpt lat="50.51214" lon="1.60298">
        <ele>49.4</ele>
        <time>2019-02-17T11:06:43Z</time>
      </trkpt>
      <trkpt lat="50.51212" lon="1.60274">
        <ele>49.2</ele>
        <time>2019-02-17T11:06:47Z</time>
      </trkpt>
      <trkpt lat="50.51204" lon="1.60255">
        <ele>49.4</ele>
        <time>2019-02-17T11:06:51Z</time>
      </trkpt>
      <trkpt lat="50.512" lon="1.60233">
        <ele>50</ele>
        <time>2019-02-17T11:06:55Z</time>
      </trkpt>
      <trkpt lat="50.51192" lon="1.60222">
        <ele>50</ele>
        <time>2019-02-17T11:06:59Z</time>
      </trkpt>
      <trkpt lat="50.51183" lon="1.60224">
        <ele>50</ele>
        <time>2019-02-17T11:07:03Z</time>
      </trkpt>
      <trkpt lat="50.51177" lon="1.60238">
        <ele>49</ele>
        <time>2019-02-17T11:07:07Z</time>
      </trkpt>
      <trkpt lat="50.51166" lon="1.60251">
        <ele>49.8</ele>
        <time>2019-02-17T11:07:11Z</time>
      </trkpt>
      <trkpt lat="50.51155" lon="1.60264">
        <ele>50.4</ele>
        <time>2019-02-17T11:07:15Z</time>
      </trkpt>
      <trkpt lat="50.51148" lon="1.6028">
        <ele>50.4</ele>
        <time>2019-02-17T11:07:19Z</time>
      </trkpt>
      <trkpt lat="50.51138" lon="1.60296">
        <ele>50</ele>
        <time>2019-02-17T11:07:23Z</time>
      </trkpt>
      <trkpt lat="50.5113" lon="1.6032">
        <ele>50.2</ele>
        <time>2019-02-17T11:07:27Z</time>
      </trkpt>
      <trkpt lat="50.51117" lon="1.60341">
        <ele>50</ele>
        <time>2019-02-17T11:07:31Z</time>
      </trkpt>
      <trkpt lat="50.51106" lon="1.60363">
        <ele>50.2</ele>
        <time>2019-02-17T11:07:35Z</time>
      </trkpt>
      <trkpt lat="50.51095" lon="1.60377">
        <ele>50.4</ele>
        <time>2019-02-17T11:07:39Z</time>
      </trkpt>
      <trkpt lat="50.51083" lon="1.60393">
        <ele>50.2</ele>
        <time>2019-02-17T11:07:43Z</time>
      </trkpt>
      <trkpt lat="50.51072" lon="1.60408">
        <ele>50.6</ele>
        <time>2019-02-17T11:07:47Z</time>
      </trkpt>
      <trkpt lat="50.5106" lon="1.60428">
        <ele>50.4</ele>
        <time>2019-02-17T11:07:51Z</time>
      </trkpt>
      <trkpt lat="50.51054" lon="1.60446">
        <ele>50.4</ele>
        <time>2019-02-17T11:07:55Z</time>
      </trkpt>
      <trkpt lat="50.51047" lon="1.60464">
        <ele>50.6</ele>
        <time>2019-02-17T11:07:59Z</time>
      </trkpt>
      <trkpt lat="50.51047" lon="1.60484">
        <ele>50</ele>
        <time>2019-02-17T11:08:03Z</time>
      </trkpt>
      <trkpt lat="50.51047" lon="1.60509">
        <ele>49.8</ele>
        <time>2019-02-17T11:08:07Z</time>
      </trkpt>
      <trkpt lat="50.51039" lon="1.60532">
        <ele>49.4</ele>
        <time>2019-02-17T11:08:11Z</time>
      </trkpt>
      <trkpt lat="50.51032" lon="1.60551">
        <ele>49.6</ele>
        <time>2019-02-17T11:08:15Z</time>
      </trkpt>
      <trkpt lat="50.51032" lon="1.60551">
        <ele>49.6</ele>
        <time>2019-02-17T11:08:19Z</time>
      </trkpt>
      <trkpt lat="50.51032" lon="1.60551">
        <ele>49.6</ele>
        <time>2019-02-17T11:08:23Z</time>
      </trkpt>
      <trkpt lat="50.51019" lon="1.60564">
        <ele>49.2</ele>
        <time>2019-02-17T11:08:27Z</time>
      </trkpt>
      <trkpt lat="50.51011" lon="1.60564">
        <ele>49.2</ele>
        <time>2019-02-17T11:08:31Z</time>
      </trkpt>
      <trkpt lat="50.51004" lon="1.60566">
        <ele>49.6</ele>
        <time>2019-02-17T11:08:35Z</time>
      </trkpt>
      <trkpt lat="50.50991" lon="1.60568">
        <ele>50.2</ele>
        <time>2019-02-17T11:08:39Z</time>
      </trkpt>
      <trkpt lat="50.50976" lon="1.60568">
        <ele>50</ele>
        <time>2019-02-17T11:08:43Z</time>
      </trkpt>
      <trkpt lat="50.5096" lon="1.60568">
        <ele>50.2</ele>
        <time>2019-02-17T11:08:47Z</time>
      </trkpt>
      <trkpt lat="50.50943" lon="1.60569">
        <ele>50</ele>
        <time>2019-02-17T11:08:51Z</time>
      </trkpt>
      <trkpt lat="50.5093" lon="1.60571">
        <ele>49.8</ele>
        <time>2019-02-17T11:08:55Z</time>
      </trkpt>
      <trkpt lat="50.50918" lon="1.60579">
        <ele>49.8</ele>
        <time>2019-02-17T11:08:59Z</time>
      </trkpt>
      <trkpt lat="50.50909" lon="1.60591">
        <ele>49.6</ele>
        <time>2019-02-17T11:09:03Z</time>
      </trkpt>
      <trkpt lat="50.50895" lon="1.60593">
        <ele>49.6</ele>
        <time>2019-02-17T11:09:07Z</time>
      </trkpt>
      <trkpt lat="50.50884" lon="1.60599">
        <ele>49.6</ele>
        <time>2019-02-17T11:09:11Z</time>
      </trkpt>
      <trkpt lat="50.50884" lon="1.60614">
        <ele>49.2</ele>
        <time>2019-02-17T11:09:15Z</time>
      </trkpt>
      <trkpt lat="50.50886" lon="1.60631">
        <ele>49.6</ele>
        <time>2019-02-17T11:09:19Z</time>
      </trkpt>
      <trkpt lat="50.50889" lon="1.60648">
        <ele>50</ele>
        <time>2019-02-17T11:09:23Z</time>
      </trkpt>
      <trkpt lat="50.50892" lon="1.6066">
        <ele>50.2</ele>
        <time>2019-02-17T11:09:27Z</time>
      </trkpt>
      <trkpt lat="50.50895" lon="1.6068">
        <ele>51</ele>
        <time>2019-02-17T11:09:31Z</time>
      </trkpt>
      <trkpt lat="50.50899" lon="1.60696">
        <ele>50.8</ele>
        <time>2019-02-17T11:09:35Z</time>
      </trkpt>
      <trkpt lat="50.50904" lon="1.60718">
        <ele>50.4</ele>
        <time>2019-02-17T11:09:39Z</time>
      </trkpt>
      <trkpt lat="50.50909" lon="1.60743">
        <ele>50</ele>
        <time>2019-02-17T11:09:43Z</time>
      </trkpt>
      <trkpt lat="50.50914" lon="1.60768">
        <ele>50</ele>
        <time>2019-02-17T11:09:47Z</time>
      </trkpt>
      <trkpt lat="50.50919" lon="1.60788">
        <ele>49.2</ele>
        <time>2019-02-17T11:09:51Z</time>
      </trkpt>
      <trkpt lat="50.50925" lon="1.60808">
        <ele>49.6</ele>
        <time>2019-02-17T11:09:55Z</time>
      </trkpt>
      <trkpt lat="50.50931" lon="1.60831">
        <ele>49.4</ele>
        <time>2019-02-17T11:09:59Z</time>
      </trkpt>
      <trkpt lat="50.50939" lon="1.60856">
        <ele>49.8</ele>
        <time>2019-02-17T11:10:03Z</time>
      </trkpt>
      <trkpt lat="50.50947" lon="1.60879">
        <ele>49.6</ele>
        <time>2019-02-17T11:10:07Z</time>
      </trkpt>
      <trkpt lat="50.50955" lon="1.60899">
        <ele>49.6</ele>
        <time>2019-02-17T11:10:11Z</time>
      </trkpt>
      <trkpt lat="50.50957" lon="1.6092">
        <ele>49.6</ele>
        <time>2019-02-17T11:10:15Z</time>
      </trkpt>
      <trkpt lat="50.50961" lon="1.60939">
        <ele>49.6</ele>
        <time>2019-02-17T11:10:19Z</time>
      </trkpt>
      <trkpt lat="50.50952" lon="1.60953">
        <ele>50</ele>
        <time>2019-02-17T11:10:23Z</time>
      </trkpt>
      <trkpt lat="50.5095" lon="1.60969">
        <ele>50.4</ele>
        <time>2019-02-17T11:10:27Z</time>
      </trkpt>
      <trkpt lat="50.50948" lon="1.60985">
        <ele>49.6</ele>
        <time>2019-02-17T11:10:31Z</time>
      </trkpt>
      <trkpt lat="50.5094" lon="1.61002">
        <ele>50</ele>
        <time>2019-02-17T11:10:35Z</time>
      </trkpt>
      <trkpt lat="50.50931" lon="1.61011">
        <ele>50</ele>
        <time>2019-02-17T11:10:39Z</time>
      </trkpt>
      <trkpt lat="50.50924" lon="1.61029">
        <ele>49.6</ele>
        <time>2019-02-17T11:10:43Z</time>
      </trkpt>
      <trkpt lat="50.50917" lon="1.61041">
        <ele>50.4</ele>
        <time>2019-02-17T11:10:47Z</time>
      </trkpt>
      <trkpt lat="50.50907" lon="1.61053">
        <ele>50.4</ele>
        <time>2019-02-17T11:10:51Z</time>
      </trkpt>
      <trkpt lat="50.50897" lon="1.61065">
        <ele>50.6</ele>
        <time>2019-02-17T11:10:55Z</time>
      </trkpt>
      <trkpt lat="50.50887" lon="1.61076">
        <ele>51</ele>
        <time>2019-02-17T11:10:59Z</time>
      </trkpt>
      <trkpt lat="50.50881" lon="1.61091">
        <ele>52.2</ele>
        <time>2019-02-17T11:11:03Z</time>
      </trkpt>
      <trkpt lat="50.50876" lon="1.61105">
        <ele>52.4</ele>
        <time>2019-02-17T11:11:07Z</time>
      </trkpt>
      <trkpt lat="50.50873" lon="1.61118">
        <ele>53.2</ele>
        <time>2019-02-17T11:11:11Z</time>
      </trkpt>
      <trkpt lat="50.50871" lon="1.61132">
        <ele>53</ele>
        <time>2019-02-17T11:11:15Z</time>
      </trkpt>
      <trkpt lat="50.50869" lon="1.61147">
        <ele>52.6</ele>
        <time>2019-02-17T11:11:19Z</time>
      </trkpt>
      <trkpt lat="50.5087" lon="1.61163">
        <ele>52.6</ele>
        <time>2019-02-17T11:11:23Z</time>
      </trkpt>
      <trkpt lat="50.50869" lon="1.61177">
        <ele>53.4</ele>
        <time>2019-02-17T11:11:27Z</time>
      </trkpt>
      <trkpt lat="50.50869" lon="1.61188">
        <ele>54.2</ele>
        <time>2019-02-17T11:11:31Z</time>
      </trkpt>
      <trkpt lat="50.50868" lon="1.61195">
        <ele>54</ele>
        <time>2019-02-17T11:11:35Z</time>
      </trkpt>
      <trkpt lat="50.50866" lon="1.61207">
        <ele>53.6</ele>
        <time>2019-02-17T11:11:39Z</time>
      </trkpt>
      <trkpt lat="50.50864" lon="1.6122">
        <ele>54.4</ele>
        <time>2019-02-17T11:11:43Z</time>
      </trkpt>
      <trkpt lat="50.50862" lon="1.61231">
        <ele>54.4</ele>
        <time>2019-02-17T11:11:47Z</time>
      </trkpt>
      <trkpt lat="50.5086" lon="1.61245">
        <ele>53.4</ele>
        <time>2019-02-17T11:11:51Z</time>
      </trkpt>
      <trkpt lat="50.5086" lon="1.61262">
        <ele>53.8</ele>
        <time>2019-02-17T11:11:55Z</time>
      </trkpt>
      <trkpt lat="50.50868" lon="1.61269">
        <ele>53.4</ele>
        <time>2019-02-17T11:11:59Z</time>
      </trkpt>
      <trkpt lat="50.50875" lon="1.61273">
        <ele>54.4</ele>
        <time>2019-02-17T11:12:03Z</time>
      </trkpt>
      <trkpt lat="50.50875" lon="1.61284">
        <ele>55.4</ele>
        <time>2019-02-17T11:12:07Z</time>
      </trkpt>
      <trkpt lat="50.50874" lon="1.61298">
        <ele>55.6</ele>
        <time>2019-02-17T11:12:11Z</time>
      </trkpt>
      <trkpt lat="50.50874" lon="1.61308">
        <ele>54.8</ele>
        <time>2019-02-17T11:12:15Z</time>
      </trkpt>
      <trkpt lat="50.50877" lon="1.61319">
        <ele>53.8</ele>
        <time>2019-02-17T11:12:19Z</time>
      </trkpt>
      <trkpt lat="50.50881" lon="1.61319">
        <ele>55.4</ele>
        <time>2019-02-17T11:12:23Z</time>
      </trkpt>
      <trkpt lat="50.50883" lon="1.6132">
        <ele>55.6</ele>
        <time>2019-02-17T11:12:27Z</time>
      </trkpt>
      <trkpt lat="50.50887" lon="1.61331">
        <ele>55.4</ele>
        <time>2019-02-17T11:12:31Z</time>
      </trkpt>
      <trkpt lat="50.50892" lon="1.61345">
        <ele>53.4</ele>
        <time>2019-02-17T11:12:35Z</time>
      </trkpt>
      <trkpt lat="50.50898" lon="1.61349">
        <ele>55.4</ele>
        <time>2019-02-17T11:12:39Z</time>
      </trkpt>
      <trkpt lat="50.50903" lon="1.61351">
        <ele>56.2</ele>
        <time>2019-02-17T11:12:43Z</time>
      </trkpt>
      <trkpt lat="50.50906" lon="1.61356">
        <ele>57</ele>
        <time>2019-02-17T11:12:47Z</time>
      </trkpt>
      <trkpt lat="50.50909" lon="1.61362">
        <ele>57.6</ele>
        <time>2019-02-17T11:12:51Z</time>
      </trkpt>
      <trkpt lat="50.50906" lon="1.61366">
        <ele>53</ele>
        <time>2019-02-17T11:12:55Z</time>
      </trkpt>
      <trkpt lat="50.50896" lon="1.61367">
        <ele>52.4</ele>
        <time>2019-02-17T11:12:59Z</time>
      </trkpt>
      <trkpt lat="50.50893" lon="1.6138">
        <ele>50.4</ele>
        <time>2019-02-17T11:13:03Z</time>
      </trkpt>
      <trkpt lat="50.50894" lon="1.61394">
        <ele>51</ele>
        <time>2019-02-17T11:13:07Z</time>
      </trkpt>
      <trkpt lat="50.50896" lon="1.61402">
        <ele>52.2</ele>
        <time>2019-02-17T11:13:11Z</time>
      </trkpt>
      <trkpt lat="50.509" lon="1.61409">
        <ele>51.6</ele>
        <time>2019-02-17T11:13:15Z</time>
      </trkpt>
      <trkpt lat="50.50905" lon="1.61419">
        <ele>52.2</ele>
        <time>2019-02-17T11:13:19Z</time>
      </trkpt>
      <trkpt lat="50.5091" lon="1.61428">
        <ele>52</ele>
        <time>2019-02-17T11:13:23Z</time>
      </trkpt>
      <trkpt lat="50.50914" lon="1.61435">
        <ele>52.2</ele>
        <time>2019-02-17T11:13:27Z</time>
      </trkpt>
      <trkpt lat="50.50916" lon="1.61447">
        <ele>51</ele>
        <time>2019-02-17T11:13:31Z</time>
      </trkpt>
      <trkpt lat="50.50911" lon="1.61468">
        <ele>50</ele>
        <time>2019-02-17T11:13:35Z</time>
      </trkpt>
      <trkpt lat="50.50909" lon="1.61492">
        <ele>49.2</ele>
        <time>2019-02-17T11:13:39Z</time>
      </trkpt>
      <trkpt lat="50.50913" lon="1.61512">
        <ele>49</ele>
        <time>2019-02-17T11:13:43Z</time>
      </trkpt>
      <trkpt lat="50.50919" lon="1.61531">
        <ele>49</ele>
        <time>2019-02-17T11:13:47Z</time>
      </trkpt>
      <trkpt lat="50.50927" lon="1.61542">
        <ele>49</ele>
        <time>2019-02-17T11:13:51Z</time>
      </trkpt>
      <trkpt lat="50.50934" lon="1.61553">
        <ele>49.2</ele>
        <time>2019-02-17T11:13:55Z</time>
      </trkpt>
      <trkpt lat="50.50942" lon="1.6155">
        <ele>49.8</ele>
        <time>2019-02-17T11:13:59Z</time>
      </trkpt>
      <trkpt lat="50.50951" lon="1.61547">
        <ele>50.2</ele>
        <time>2019-02-17T11:14:03Z</time>
      </trkpt>
      <trkpt lat="50.50961" lon="1.61546">
        <ele>49.2</ele>
        <time>2019-02-17T11:14:07Z</time>
      </trkpt>
      <trkpt lat="50.50973" lon="1.61557">
        <ele>49.6</ele>
        <time>2019-02-17T11:14:11Z</time>
      </trkpt>
      <trkpt lat="50.50984" lon="1.61571">
        <ele>49.8</ele>
        <time>2019-02-17T11:14:15Z</time>
      </trkpt>
      <trkpt lat="50.5099" lon="1.61586">
        <ele>49.2</ele>
        <time>2019-02-17T11:14:19Z</time>
      </trkpt>
      <trkpt lat="50.51001" lon="1.616">
        <ele>49.6</ele>
        <time>2019-02-17T11:14:23Z</time>
      </trkpt>
      <trkpt lat="50.5101" lon="1.61598">
        <ele>49</ele>
        <time>2019-02-17T11:14:27Z</time>
      </trkpt>
      <trkpt lat="50.51022" lon="1.61589">
        <ele>48.6</ele>
        <time>2019-02-17T11:14:31Z</time>
      </trkpt>
      <trkpt lat="50.51033" lon="1.61573">
        <ele>48.4</ele>
        <time>2019-02-17T11:14:35Z</time>
      </trkpt>
      <trkpt lat="50.5105" lon="1.61572">
        <ele>48.2</ele>
        <time>2019-02-17T11:14:39Z</time>
      </trkpt>
      <trkpt lat="50.51067" lon="1.61577">
        <ele>48.6</ele>
        <time>2019-02-17T11:14:43Z</time>
      </trkpt>
      <trkpt lat="50.51076" lon="1.61599">
        <ele>48</ele>
        <time>2019-02-17T11:14:47Z</time>
      </trkpt>
      <trkpt lat="50.51082" lon="1.61619">
        <ele>48</ele>
        <time>2019-02-17T11:14:51Z</time>
      </trkpt>
      <trkpt lat="50.51093" lon="1.61621">
        <ele>47.8</ele>
        <time>2019-02-17T11:14:55Z</time>
      </trkpt>
      <trkpt lat="50.51103" lon="1.61628">
        <ele>47.6</ele>
        <time>2019-02-17T11:14:59Z</time>
      </trkpt>
      <trkpt lat="50.51108" lon="1.61649">
        <ele>47.8</ele>
        <time>2019-02-17T11:15:03Z</time>
      </trkpt>
      <trkpt lat="50.5111" lon="1.6167">
        <ele>47.6</ele>
        <time>2019-02-17T11:15:07Z</time>
      </trkpt>
      <trkpt lat="50.51111" lon="1.61688">
        <ele>47.4</ele>
        <time>2019-02-17T11:15:11Z</time>
      </trkpt>
      <trkpt lat="50.51111" lon="1.61712">
        <ele>47.2</ele>
        <time>2019-02-17T11:15:15Z</time>
      </trkpt>
      <trkpt lat="50.51108" lon="1.6174">
        <ele>48</ele>
        <time>2019-02-17T11:15:19Z</time>
      </trkpt>
      <trkpt lat="50.51095" lon="1.6177">
        <ele>47.8</ele>
        <time>2019-02-17T11:15:23Z</time>
      </trkpt>
      <trkpt lat="50.51084" lon="1.618">
        <ele>47.6</ele>
        <time>2019-02-17T11:15:27Z</time>
      </trkpt>
      <trkpt lat="50.51088" lon="1.61827">
        <ele>47.4</ele>
        <time>2019-02-17T11:15:31Z</time>
      </trkpt>
      <trkpt lat="50.5108" lon="1.61852">
        <ele>47.2</ele>
        <time>2019-02-17T11:15:35Z</time>
      </trkpt>
      <trkpt lat="50.51069" lon="1.61878">
        <ele>47.4</ele>
        <time>2019-02-17T11:15:39Z</time>
      </trkpt>
      <trkpt lat="50.5106" lon="1.61906">
        <ele>47.6</ele>
        <time>2019-02-17T11:15:43Z</time>
      </trkpt>
      <trkpt lat="50.51052" lon="1.61932">
        <ele>46.4</ele>
        <time>2019-02-17T11:15:47Z</time>
      </trkpt>
      <trkpt lat="50.5105" lon="1.61944">
        <ele>47.2</ele>
        <time>2019-02-17T11:15:51Z</time>
      </trkpt>
      <trkpt lat="50.51045" lon="1.61957">
        <ele>47.2</ele>
        <time>2019-02-17T11:15:55Z</time>
      </trkpt>
      <trkpt lat="50.5104" lon="1.61975">
        <ele>47.6</ele>
        <time>2019-02-17T11:15:59Z</time>
      </trkpt>
      <trkpt lat="50.51033" lon="1.61997">
        <ele>47.4</ele>
        <time>2019-02-17T11:16:03Z</time>
      </trkpt>
      <trkpt lat="50.51026" lon="1.62019">
        <ele>47.2</ele>
        <time>2019-02-17T11:16:07Z</time>
      </trkpt>
      <trkpt lat="50.51019" lon="1.62041">
        <ele>47.4</ele>
        <time>2019-02-17T11:16:11Z</time>
      </trkpt>
      <trkpt lat="50.51011" lon="1.62066">
        <ele>48</ele>
        <time>2019-02-17T11:16:15Z</time>
      </trkpt>
      <trkpt lat="50.51003" lon="1.62091">
        <ele>48</ele>
        <time>2019-02-17T11:16:19Z</time>
      </trkpt>
      <trkpt lat="50.50995" lon="1.62118">
        <ele>49</ele>
        <time>2019-02-17T11:16:23Z</time>
      </trkpt>
      <trkpt lat="50.50986" lon="1.62139">
        <ele>48</ele>
        <time>2019-02-17T11:16:27Z</time>
      </trkpt>
      <trkpt lat="50.50969" lon="1.62141">
        <ele>48.2</ele>
        <time>2019-02-17T11:16:31Z</time>
      </trkpt>
      <trkpt lat="50.50963" lon="1.6213">
        <ele>48</ele>
        <time>2019-02-17T11:16:35Z</time>
      </trkpt>
      <trkpt lat="50.50963" lon="1.6213">
        <ele>48</ele>
        <time>2019-02-17T11:16:39Z</time>
      </trkpt>
      <trkpt lat="50.50959" lon="1.62133">
        <ele>49</ele>
        <time>2019-02-17T11:16:43Z</time>
      </trkpt>
      <trkpt lat="50.50954" lon="1.62134">
        <ele>48.8</ele>
        <time>2019-02-17T11:16:47Z</time>
      </trkpt>
      <trkpt lat="50.50947" lon="1.62143">
        <ele>48.6</ele>
        <time>2019-02-17T11:16:51Z</time>
      </trkpt>
      <trkpt lat="50.50939" lon="1.62165">
        <ele>48.8</ele>
        <time>2019-02-17T11:16:55Z</time>
      </trkpt>
      <trkpt lat="50.50941" lon="1.62193">
        <ele>48.6</ele>
        <time>2019-02-17T11:16:59Z</time>
      </trkpt>
      <trkpt lat="50.50945" lon="1.62218">
        <ele>48.6</ele>
        <time>2019-02-17T11:17:03Z</time>
      </trkpt>
      <trkpt lat="50.50932" lon="1.62219">
        <ele>48.6</ele>
        <time>2019-02-17T11:17:07Z</time>
      </trkpt>
      <trkpt lat="50.50916" lon="1.62205">
        <ele>48.4</ele>
        <time>2019-02-17T11:17:11Z</time>
      </trkpt>
      <trkpt lat="50.509" lon="1.62191">
        <ele>48.6</ele>
        <time>2019-02-17T11:17:15Z</time>
      </trkpt>
      <trkpt lat="50.50884" lon="1.62178">
        <ele>49.2</ele>
        <time>2019-02-17T11:17:19Z</time>
      </trkpt>
      <trkpt lat="50.50867" lon="1.62168">
        <ele>49.6</ele>
        <time>2019-02-17T11:17:23Z</time>
      </trkpt>
      <trkpt lat="50.50851" lon="1.62181">
        <ele>49</ele>
        <time>2019-02-17T11:17:27Z</time>
      </trkpt>
      <trkpt lat="50.50835" lon="1.622">
        <ele>48.8</ele>
        <time>2019-02-17T11:17:31Z</time>
      </trkpt>
      <trkpt lat="50.50819" lon="1.62219">
        <ele>49.4</ele>
        <time>2019-02-17T11:17:35Z</time>
      </trkpt>
      <trkpt lat="50.50803" lon="1.62237">
        <ele>49.2</ele>
        <time>2019-02-17T11:17:39Z</time>
      </trkpt>
      <trkpt lat="50.50787" lon="1.62253">
        <ele>49.4</ele>
        <time>2019-02-17T11:17:43Z</time>
      </trkpt>
      <trkpt lat="50.50772" lon="1.62266">
        <ele>49</ele>
        <time>2019-02-17T11:17:47Z</time>
      </trkpt>
      <trkpt lat="50.50754" lon="1.62277">
        <ele>48.8</ele>
        <time>2019-02-17T11:17:51Z</time>
      </trkpt>
      <trkpt lat="50.50739" lon="1.62292">
        <ele>48.8</ele>
        <time>2019-02-17T11:17:55Z</time>
      </trkpt>
      <trkpt lat="50.50723" lon="1.62306">
        <ele>48.6</ele>
        <time>2019-02-17T11:17:59Z</time>
      </trkpt>
      <trkpt lat="50.50709" lon="1.62322">
        <ele>48.8</ele>
        <time>2019-02-17T11:18:03Z</time>
      </trkpt>
      <trkpt lat="50.50691" lon="1.62336">
        <ele>48.2</ele>
        <time>2019-02-17T11:18:07Z</time>
      </trkpt>
      <trkpt lat="50.50676" lon="1.62351">
        <ele>48.6</ele>
        <time>2019-02-17T11:18:11Z</time>
      </trkpt>
      <trkpt lat="50.50662" lon="1.62366">
        <ele>48.6</ele>
        <time>2019-02-17T11:18:15Z</time>
      </trkpt>
      <trkpt lat="50.50647" lon="1.6238">
        <ele>49.2</ele>
        <time>2019-02-17T11:18:19Z</time>
      </trkpt>
      <trkpt lat="50.50634" lon="1.62394">
        <ele>48.6</ele>
        <time>2019-02-17T11:18:23Z</time>
      </trkpt>
      <trkpt lat="50.50621" lon="1.62407">
        <ele>48.8</ele>
        <time>2019-02-17T11:18:27Z</time>
      </trkpt>
      <trkpt lat="50.50608" lon="1.6242">
        <ele>49</ele>
        <time>2019-02-17T11:18:31Z</time>
      </trkpt>
      <trkpt lat="50.50594" lon="1.62433">
        <ele>49</ele>
        <time>2019-02-17T11:18:35Z</time>
      </trkpt>
      <trkpt lat="50.50581" lon="1.62446">
        <ele>49.4</ele>
        <time>2019-02-17T11:18:39Z</time>
      </trkpt>
      <trkpt lat="50.50568" lon="1.6246">
        <ele>49</ele>
        <time>2019-02-17T11:18:43Z</time>
      </trkpt>
      <trkpt lat="50.50555" lon="1.62474">
        <ele>50</ele>
        <time>2019-02-17T11:18:47Z</time>
      </trkpt>
      <trkpt lat="50.50542" lon="1.62488">
        <ele>50.2</ele>
        <time>2019-02-17T11:18:51Z</time>
      </trkpt>
      <trkpt lat="50.5053" lon="1.62503">
        <ele>50.2</ele>
        <time>2019-02-17T11:18:55Z</time>
      </trkpt>
      <trkpt lat="50.50518" lon="1.62518">
        <ele>49.8</ele>
        <time>2019-02-17T11:18:59Z</time>
      </trkpt>
      <trkpt lat="50.50505" lon="1.6253">
        <ele>49.8</ele>
        <time>2019-02-17T11:19:03Z</time>
      </trkpt>
      <trkpt lat="50.5049" lon="1.62535">
        <ele>49.8</ele>
        <time>2019-02-17T11:19:07Z</time>
      </trkpt>
      <trkpt lat="50.50473" lon="1.62534">
        <ele>49.6</ele>
        <time>2019-02-17T11:19:11Z</time>
      </trkpt>
      <trkpt lat="50.50456" lon="1.62531">
        <ele>50.4</ele>
        <time>2019-02-17T11:19:15Z</time>
      </trkpt>
      <trkpt lat="50.5044" lon="1.62528">
        <ele>49.8</ele>
        <time>2019-02-17T11:19:19Z</time>
      </trkpt>
      <trkpt lat="50.50426" lon="1.62525">
        <ele>50</ele>
        <time>2019-02-17T11:19:23Z</time>
      </trkpt>
      <trkpt lat="50.50411" lon="1.62517">
        <ele>51</ele>
        <time>2019-02-17T11:19:27Z</time>
      </trkpt>
      <trkpt lat="50.50398" lon="1.62508">
        <ele>49.8</ele>
        <time>2019-02-17T11:19:31Z</time>
      </trkpt>
      <trkpt lat="50.50385" lon="1.625">
        <ele>49.6</ele>
        <time>2019-02-17T11:19:35Z</time>
      </trkpt>
      <trkpt lat="50.50371" lon="1.62494">
        <ele>49.6</ele>
        <time>2019-02-17T11:19:39Z</time>
      </trkpt>
      <trkpt lat="50.50358" lon="1.62486">
        <ele>49.2</ele>
        <time>2019-02-17T11:19:43Z</time>
      </trkpt>
      <trkpt lat="50.50344" lon="1.62478">
        <ele>49.8</ele>
        <time>2019-02-17T11:19:47Z</time>
      </trkpt>
      <trkpt lat="50.5033" lon="1.62469">
        <ele>49.8</ele>
        <time>2019-02-17T11:19:51Z</time>
      </trkpt>
      <trkpt lat="50.50317" lon="1.62459">
        <ele>49.8</ele>
        <time>2019-02-17T11:19:55Z</time>
      </trkpt>
      <trkpt lat="50.50305" lon="1.62446">
        <ele>50.4</ele>
        <time>2019-02-17T11:19:59Z</time>
      </trkpt>
      <trkpt lat="50.50292" lon="1.62434">
        <ele>50</ele>
        <time>2019-02-17T11:20:03Z</time>
      </trkpt>
      <trkpt lat="50.5028" lon="1.62418">
        <ele>50.2</ele>
        <time>2019-02-17T11:20:07Z</time>
      </trkpt>
      <trkpt lat="50.50268" lon="1.62397">
        <ele>50.4</ele>
        <time>2019-02-17T11:20:11Z</time>
      </trkpt>
      <trkpt lat="50.50253" lon="1.6238">
        <ele>50</ele>
        <time>2019-02-17T11:20:15Z</time>
      </trkpt>
      <trkpt lat="50.50241" lon="1.62364">
        <ele>50.2</ele>
        <time>2019-02-17T11:20:19Z</time>
      </trkpt>
      <trkpt lat="50.50229" lon="1.62348">
        <ele>50.8</ele>
        <time>2019-02-17T11:20:23Z</time>
      </trkpt>
      <trkpt lat="50.50219" lon="1.62333">
        <ele>51.4</ele>
        <time>2019-02-17T11:20:27Z</time>
      </trkpt>
      <trkpt lat="50.50208" lon="1.6232">
        <ele>52</ele>
        <time>2019-02-17T11:20:31Z</time>
      </trkpt>
      <trkpt lat="50.50195" lon="1.62314">
        <ele>52.4</ele>
        <time>2019-02-17T11:20:35Z</time>
      </trkpt>
      <trkpt lat="50.50181" lon="1.62309">
        <ele>53</ele>
        <time>2019-02-17T11:20:39Z</time>
      </trkpt>
      <trkpt lat="50.50168" lon="1.62306">
        <ele>53.4</ele>
        <time>2019-02-17T11:20:43Z</time>
      </trkpt>
      <trkpt lat="50.50154" lon="1.62305">
        <ele>52.4</ele>
        <time>2019-02-17T11:20:47Z</time>
      </trkpt>
      <trkpt lat="50.50136" lon="1.62299">
        <ele>51.8</ele>
        <time>2019-02-17T11:20:51Z</time>
      </trkpt>
      <trkpt lat="50.50118" lon="1.62303">
        <ele>51.4</ele>
        <time>2019-02-17T11:20:55Z</time>
      </trkpt>
      <trkpt lat="50.50098" lon="1.62311">
        <ele>51</ele>
        <time>2019-02-17T11:20:59Z</time>
      </trkpt>
      <trkpt lat="50.5008" lon="1.62322">
        <ele>51</ele>
        <time>2019-02-17T11:21:03Z</time>
      </trkpt>
      <trkpt lat="50.50061" lon="1.6233">
        <ele>51.4</ele>
        <time>2019-02-17T11:21:07Z</time>
      </trkpt>
      <trkpt lat="50.50047" lon="1.62334">
        <ele>51.2</ele>
        <time>2019-02-17T11:21:11Z</time>
      </trkpt>
      <trkpt lat="50.50023" lon="1.62329">
        <ele>51.8</ele>
        <time>2019-02-17T11:21:15Z</time>
      </trkpt>
      <trkpt lat="50.50005" lon="1.62322">
        <ele>52</ele>
        <time>2019-02-17T11:21:19Z</time>
      </trkpt>
      <trkpt lat="50.49988" lon="1.62319">
        <ele>52.4</ele>
        <time>2019-02-17T11:21:23Z</time>
      </trkpt>
      <trkpt lat="50.49972" lon="1.62314">
        <ele>51</ele>
        <time>2019-02-17T11:21:27Z</time>
      </trkpt>
      <trkpt lat="50.49954" lon="1.62309">
        <ele>51.4</ele>
        <time>2019-02-17T11:21:31Z</time>
      </trkpt>
      <trkpt lat="50.49938" lon="1.62302">
        <ele>50.4</ele>
        <time>2019-02-17T11:21:35Z</time>
      </trkpt>
      <trkpt lat="50.49934" lon="1.62282">
        <ele>52.4</ele>
        <time>2019-02-17T11:21:39Z</time>
      </trkpt>
      <trkpt lat="50.49933" lon="1.6226">
        <ele>52.8</ele>
        <time>2019-02-17T11:21:43Z</time>
      </trkpt>
      <trkpt lat="50.49932" lon="1.62242">
        <ele>53.4</ele>
        <time>2019-02-17T11:21:47Z</time>
      </trkpt>
      <trkpt lat="50.49931" lon="1.62228">
        <ele>53.4</ele>
        <time>2019-02-17T11:21:51Z</time>
      </trkpt>
      <trkpt lat="50.49931" lon="1.62212">
        <ele>54</ele>
        <time>2019-02-17T11:21:55Z</time>
      </trkpt>
      <trkpt lat="50.49931" lon="1.62195">
        <ele>54.4</ele>
        <time>2019-02-17T11:21:59Z</time>
      </trkpt>
      <trkpt lat="50.49932" lon="1.62177">
        <ele>54.6</ele>
        <time>2019-02-17T11:22:03Z</time>
      </trkpt>
      <trkpt lat="50.49933" lon="1.62161">
        <ele>55.2</ele>
        <time>2019-02-17T11:22:07Z</time>
      </trkpt>
      <trkpt lat="50.49934" lon="1.62145">
        <ele>55.8</ele>
        <time>2019-02-17T11:22:11Z</time>
      </trkpt>
      <trkpt lat="50.49934" lon="1.6213">
        <ele>56.4</ele>
        <time>2019-02-17T11:22:15Z</time>
      </trkpt>
      <trkpt lat="50.49932" lon="1.62115">
        <ele>56.8</ele>
        <time>2019-02-17T11:22:19Z</time>
      </trkpt>
      <trkpt lat="50.49931" lon="1.62102">
        <ele>57.6</ele>
        <time>2019-02-17T11:22:23Z</time>
      </trkpt>
      <trkpt lat="50.4993" lon="1.62093">
        <ele>58</ele>
        <time>2019-02-17T11:22:27Z</time>
      </trkpt>
      <trkpt lat="50.49924" lon="1.62087">
        <ele>58.2</ele>
        <time>2019-02-17T11:22:31Z</time>
      </trkpt>
      <trkpt lat="50.4992" lon="1.62084">
        <ele>58.6</ele>
        <time>2019-02-17T11:22:35Z</time>
      </trkpt>
      <trkpt lat="50.49911" lon="1.62083">
        <ele>59.6</ele>
        <time>2019-02-17T11:22:39Z</time>
      </trkpt>
      <trkpt lat="50.49903" lon="1.62085">
        <ele>59.8</ele>
        <time>2019-02-17T11:22:43Z</time>
      </trkpt>
      <trkpt lat="50.49892" lon="1.62086">
        <ele>59.8</ele>
        <time>2019-02-17T11:22:47Z</time>
      </trkpt>
      <trkpt lat="50.49881" lon="1.62084">
        <ele>60</ele>
        <time>2019-02-17T11:22:51Z</time>
      </trkpt>
      <trkpt lat="50.49868" lon="1.62084">
        <ele>60.2</ele>
        <time>2019-02-17T11:22:55Z</time>
      </trkpt>
      <trkpt lat="50.49857" lon="1.62082">
        <ele>60</ele>
        <time>2019-02-17T11:22:59Z</time>
      </trkpt>
      <trkpt lat="50.49845" lon="1.62081">
        <ele>60</ele>
        <time>2019-02-17T11:23:03Z</time>
      </trkpt>
      <trkpt lat="50.49833" lon="1.62081">
        <ele>60</ele>
        <time>2019-02-17T11:23:07Z</time>
      </trkpt>
      <trkpt lat="50.49818" lon="1.62077">
        <ele>59.4</ele>
        <time>2019-02-17T11:23:11Z</time>
      </trkpt>
      <trkpt lat="50.49802" lon="1.62072">
        <ele>59</ele>
        <time>2019-02-17T11:23:15Z</time>
      </trkpt>
      <trkpt lat="50.49787" lon="1.62064">
        <ele>57.8</ele>
        <time>2019-02-17T11:23:19Z</time>
      </trkpt>
      <trkpt lat="50.4977" lon="1.62055">
        <ele>57.2</ele>
        <time>2019-02-17T11:23:23Z</time>
      </trkpt>
      <trkpt lat="50.49751" lon="1.62044">
        <ele>56.2</ele>
        <time>2019-02-17T11:23:27Z</time>
      </trkpt>
      <trkpt lat="50.49732" lon="1.62033">
        <ele>54.6</ele>
        <time>2019-02-17T11:23:31Z</time>
      </trkpt>
      <trkpt lat="50.49709" lon="1.6203">
        <ele>54.2</ele>
        <time>2019-02-17T11:23:35Z</time>
      </trkpt>
      <trkpt lat="50.49691" lon="1.62039">
        <ele>52.8</ele>
        <time>2019-02-17T11:23:39Z</time>
      </trkpt>
      <trkpt lat="50.49679" lon="1.62029">
        <ele>53</ele>
        <time>2019-02-17T11:23:43Z</time>
      </trkpt>
      <trkpt lat="50.49675" lon="1.62013">
        <ele>52.8</ele>
        <time>2019-02-17T11:23:47Z</time>
      </trkpt>
      <trkpt lat="50.4967" lon="1.61996">
        <ele>53.2</ele>
        <time>2019-02-17T11:23:51Z</time>
      </trkpt>
      <trkpt lat="50.49665" lon="1.61988">
        <ele>54.2</ele>
        <time>2019-02-17T11:23:55Z</time>
      </trkpt>
      <trkpt lat="50.49662" lon="1.61979">
        <ele>54.8</ele>
        <time>2019-02-17T11:23:59Z</time>
      </trkpt>
      <trkpt lat="50.49657" lon="1.61975">
        <ele>55.2</ele>
        <time>2019-02-17T11:24:03Z</time>
      </trkpt>
      <trkpt lat="50.49652" lon="1.61973">
        <ele>55.8</ele>
        <time>2019-02-17T11:24:07Z</time>
      </trkpt>
      <trkpt lat="50.49645" lon="1.61964">
        <ele>56.4</ele>
        <time>2019-02-17T11:24:11Z</time>
      </trkpt>
      <trkpt lat="50.49639" lon="1.61961">
        <ele>56</ele>
        <time>2019-02-17T11:24:15Z</time>
      </trkpt>
      <trkpt lat="50.49629" lon="1.61956">
        <ele>55.4</ele>
        <time>2019-02-17T11:24:19Z</time>
      </trkpt>
      <trkpt lat="50.49616" lon="1.61955">
        <ele>54</ele>
        <time>2019-02-17T11:24:23Z</time>
      </trkpt>
      <trkpt lat="50.49611" lon="1.61937">
        <ele>54.6</ele>
        <time>2019-02-17T11:24:27Z</time>
      </trkpt>
      <trkpt lat="50.49609" lon="1.61918">
        <ele>55</ele>
        <time>2019-02-17T11:24:31Z</time>
      </trkpt>
      <trkpt lat="50.49601" lon="1.61901">
        <ele>55.8</ele>
        <time>2019-02-17T11:24:35Z</time>
      </trkpt>
      <trkpt lat="50.49597" lon="1.61887">
        <ele>56.4</ele>
        <time>2019-02-17T11:24:39Z</time>
      </trkpt>
      <trkpt lat="50.49595" lon="1.61875">
        <ele>57.2</ele>
        <time>2019-02-17T11:24:43Z</time>
      </trkpt>
      <trkpt lat="50.49592" lon="1.61864">
        <ele>57.8</ele>
        <time>2019-02-17T11:24:47Z</time>
      </trkpt>
      <trkpt lat="50.49588" lon="1.61862">
        <ele>58.6</ele>
        <time>2019-02-17T11:24:51Z</time>
      </trkpt>
      <trkpt lat="50.49585" lon="1.6187">
        <ele>59.2</ele>
        <time>2019-02-17T11:24:55Z</time>
      </trkpt>
      <trkpt lat="50.49581" lon="1.6188">
        <ele>59</ele>
        <time>2019-02-17T11:24:59Z</time>
      </trkpt>
      <trkpt lat="50.49576" lon="1.61887">
        <ele>58.8</ele>
        <time>2019-02-17T11:25:03Z</time>
      </trkpt>
      <trkpt lat="50.49566" lon="1.6189">
        <ele>56.8</ele>
        <time>2019-02-17T11:25:07Z</time>
      </trkpt>
      <trkpt lat="50.49546" lon="1.619">
        <ele>54.6</ele>
        <time>2019-02-17T11:25:11Z</time>
      </trkpt>
      <trkpt lat="50.49532" lon="1.61882">
        <ele>54.4</ele>
        <time>2019-02-17T11:25:15Z</time>
      </trkpt>
      <trkpt lat="50.49529" lon="1.61869">
        <ele>55</ele>
        <time>2019-02-17T11:25:19Z</time>
      </trkpt>
      <trkpt lat="50.49526" lon="1.61855">
        <ele>55.6</ele>
        <time>2019-02-17T11:25:23Z</time>
      </trkpt>
      <trkpt lat="50.49523" lon="1.61842">
        <ele>56.2</ele>
        <time>2019-02-17T11:25:27Z</time>
      </trkpt>
      <trkpt lat="50.49518" lon="1.61833">
        <ele>57.2</ele>
        <time>2019-02-17T11:25:31Z</time>
      </trkpt>
      <trkpt lat="50.49511" lon="1.61825">
        <ele>57.2</ele>
        <time>2019-02-17T11:25:35Z</time>
      </trkpt>
      <trkpt lat="50.49507" lon="1.61814">
        <ele>57.8</ele>
        <time>2019-02-17T11:25:39Z</time>
      </trkpt>
      <trkpt lat="50.49501" lon="1.61803">
        <ele>58.6</ele>
        <time>2019-02-17T11:25:43Z</time>
      </trkpt>
      <trkpt lat="50.49498" lon="1.61797">
        <ele>58.8</ele>
        <time>2019-02-17T11:25:47Z</time>
      </trkpt>
      <trkpt lat="50.49492" lon="1.61786">
        <ele>58.6</ele>
        <time>2019-02-17T11:25:51Z</time>
      </trkpt>
      <trkpt lat="50.49493" lon="1.61766">
        <ele>58.2</ele>
        <time>2019-02-17T11:25:55Z</time>
      </trkpt>
      <trkpt lat="50.49495" lon="1.61748">
        <ele>57.6</ele>
        <time>2019-02-17T11:25:59Z</time>
      </trkpt>
      <trkpt lat="50.49506" lon="1.61738">
        <ele>54.6</ele>
        <time>2019-02-17T11:26:03Z</time>
      </trkpt>
      <trkpt lat="50.49523" lon="1.61725">
        <ele>54.2</ele>
        <time>2019-02-17T11:26:07Z</time>
      </trkpt>
      <trkpt lat="50.49528" lon="1.61717">
        <ele>55.6</ele>
        <time>2019-02-17T11:26:11Z</time>
      </trkpt>
      <trkpt lat="50.49527" lon="1.61709">
        <ele>55.8</ele>
        <time>2019-02-17T11:26:15Z</time>
      </trkpt>
      <trkpt lat="50.49527" lon="1.61697">
        <ele>55.8</ele>
        <time>2019-02-17T11:26:19Z</time>
      </trkpt>
      <trkpt lat="50.49526" lon="1.61684">
        <ele>56</ele>
        <time>2019-02-17T11:26:23Z</time>
      </trkpt>
      <trkpt lat="50.4953" lon="1.61663">
        <ele>55.8</ele>
        <time>2019-02-17T11:26:27Z</time>
      </trkpt>
      <trkpt lat="50.4953" lon="1.61644">
        <ele>55.6</ele>
        <time>2019-02-17T11:26:31Z</time>
      </trkpt>
      <trkpt lat="50.49526" lon="1.61624">
        <ele>55</ele>
        <time>2019-02-17T11:26:35Z</time>
      </trkpt>
      <trkpt lat="50.49522" lon="1.61602">
        <ele>53.6</ele>
        <time>2019-02-17T11:26:39Z</time>
      </trkpt>
      <trkpt lat="50.49525" lon="1.61577">
        <ele>53</ele>
        <time>2019-02-17T11:26:43Z</time>
      </trkpt>
      <trkpt lat="50.49528" lon="1.61556">
        <ele>54</ele>
        <time>2019-02-17T11:26:47Z</time>
      </trkpt>
      <trkpt lat="50.49531" lon="1.61538">
        <ele>53.4</ele>
        <time>2019-02-17T11:26:51Z</time>
      </trkpt>
      <trkpt lat="50.49527" lon="1.61518">
        <ele>53.4</ele>
        <time>2019-02-17T11:26:55Z</time>
      </trkpt>
      <trkpt lat="50.49526" lon="1.61504">
        <ele>55.4</ele>
        <time>2019-02-17T11:26:59Z</time>
      </trkpt>
      <trkpt lat="50.4953" lon="1.61486">
        <ele>54</ele>
        <time>2019-02-17T11:27:03Z</time>
      </trkpt>
      <trkpt lat="50.49538" lon="1.61465">
        <ele>53.4</ele>
        <time>2019-02-17T11:27:07Z</time>
      </trkpt>
      <trkpt lat="50.49551" lon="1.61451">
        <ele>53.4</ele>
        <time>2019-02-17T11:27:11Z</time>
      </trkpt>
      <trkpt lat="50.49557" lon="1.61441">
        <ele>54.2</ele>
        <time>2019-02-17T11:27:15Z</time>
      </trkpt>
      <trkpt lat="50.49553" lon="1.61432">
        <ele>54.6</ele>
        <time>2019-02-17T11:27:19Z</time>
      </trkpt>
      <trkpt lat="50.49548" lon="1.61421">
        <ele>55.4</ele>
        <time>2019-02-17T11:27:23Z</time>
      </trkpt>
      <trkpt lat="50.4955" lon="1.6141">
        <ele>56</ele>
        <time>2019-02-17T11:27:27Z</time>
      </trkpt>
      <trkpt lat="50.49543" lon="1.61399">
        <ele>55.8</ele>
        <time>2019-02-17T11:27:31Z</time>
      </trkpt>
      <trkpt lat="50.49537" lon="1.61389">
        <ele>56.2</ele>
        <time>2019-02-17T11:27:35Z</time>
      </trkpt>
      <trkpt lat="50.49532" lon="1.61397">
        <ele>56.4</ele>
        <time>2019-02-17T11:27:39Z</time>
      </trkpt>
      <trkpt lat="50.49527" lon="1.614">
        <ele>57</ele>
        <time>2019-02-17T11:27:43Z</time>
      </trkpt>
      <trkpt lat="50.49523" lon="1.61402">
        <ele>57.2</ele>
        <time>2019-02-17T11:27:47Z</time>
      </trkpt>
      <trkpt lat="50.49518" lon="1.61406">
        <ele>58.2</ele>
        <time>2019-02-17T11:27:51Z</time>
      </trkpt>
      <trkpt lat="50.4951" lon="1.6141">
        <ele>59.6</ele>
        <time>2019-02-17T11:27:55Z</time>
      </trkpt>
      <trkpt lat="50.49505" lon="1.6141">
        <ele>60.6</ele>
        <time>2019-02-17T11:27:59Z</time>
      </trkpt>
      <trkpt lat="50.49498" lon="1.61404">
        <ele>61</ele>
        <time>2019-02-17T11:28:03Z</time>
      </trkpt>
      <trkpt lat="50.49488" lon="1.61397">
        <ele>61.4</ele>
        <time>2019-02-17T11:28:07Z</time>
      </trkpt>
      <trkpt lat="50.49482" lon="1.61392">
        <ele>62</ele>
        <time>2019-02-17T11:28:11Z</time>
      </trkpt>
      <trkpt lat="50.49477" lon="1.61386">
        <ele>61.6</ele>
        <time>2019-02-17T11:28:15Z</time>
      </trkpt>
      <trkpt lat="50.49473" lon="1.61386">
        <ele>62.2</ele>
        <time>2019-02-17T11:28:19Z</time>
      </trkpt>
      <trkpt lat="50.49466" lon="1.61383">
        <ele>62.6</ele>
        <time>2019-02-17T11:28:23Z</time>
      </trkpt>
      <trkpt lat="50.49458" lon="1.61383">
        <ele>62.4</ele>
        <time>2019-02-17T11:28:27Z</time>
      </trkpt>
      <trkpt lat="50.49449" lon="1.61385">
        <ele>63</ele>
        <time>2019-02-17T11:28:31Z</time>
      </trkpt>
      <trkpt lat="50.49442" lon="1.61386">
        <ele>63.4</ele>
        <time>2019-02-17T11:28:35Z</time>
      </trkpt>
      <trkpt lat="50.49436" lon="1.6139">
        <ele>63.2</ele>
        <time>2019-02-17T11:28:39Z</time>
      </trkpt>
      <trkpt lat="50.49425" lon="1.6139">
        <ele>63</ele>
        <time>2019-02-17T11:28:43Z</time>
      </trkpt>
      <trkpt lat="50.49418" lon="1.61377">
        <ele>63</ele>
        <time>2019-02-17T11:28:47Z</time>
      </trkpt>
      <trkpt lat="50.49408" lon="1.61365">
        <ele>64</ele>
        <time>2019-02-17T11:28:51Z</time>
      </trkpt>
      <trkpt lat="50.49401" lon="1.61361">
        <ele>64.8</ele>
        <time>2019-02-17T11:28:55Z</time>
      </trkpt>
      <trkpt lat="50.4939" lon="1.6136">
        <ele>64.8</ele>
        <time>2019-02-17T11:28:59Z</time>
      </trkpt>
      <trkpt lat="50.49383" lon="1.61351">
        <ele>64.8</ele>
        <time>2019-02-17T11:29:03Z</time>
      </trkpt>
      <trkpt lat="50.49374" lon="1.61342">
        <ele>65.6</ele>
        <time>2019-02-17T11:29:07Z</time>
      </trkpt>
      <trkpt lat="50.49366" lon="1.61334">
        <ele>67</ele>
        <time>2019-02-17T11:29:11Z</time>
      </trkpt>
      <trkpt lat="50.49359" lon="1.61328">
        <ele>68</ele>
        <time>2019-02-17T11:29:15Z</time>
      </trkpt>
      <trkpt lat="50.49354" lon="1.61321">
        <ele>69</ele>
        <time>2019-02-17T11:29:19Z</time>
      </trkpt>
      <trkpt lat="50.49349" lon="1.61313">
        <ele>69.8</ele>
        <time>2019-02-17T11:29:23Z</time>
      </trkpt>
      <trkpt lat="50.49343" lon="1.61302">
        <ele>69.6</ele>
        <time>2019-02-17T11:29:27Z</time>
      </trkpt>
      <trkpt lat="50.49334" lon="1.61294">
        <ele>69.8</ele>
        <time>2019-02-17T11:29:31Z</time>
      </trkpt>
      <trkpt lat="50.49324" lon="1.61284">
        <ele>70.2</ele>
        <time>2019-02-17T11:29:35Z</time>
      </trkpt>
      <trkpt lat="50.49313" lon="1.61275">
        <ele>70</ele>
        <time>2019-02-17T11:29:39Z</time>
      </trkpt>
      <trkpt lat="50.49304" lon="1.61262">
        <ele>70.6</ele>
        <time>2019-02-17T11:29:43Z</time>
      </trkpt>
      <trkpt lat="50.49295" lon="1.61251">
        <ele>70.4</ele>
        <time>2019-02-17T11:29:47Z</time>
      </trkpt>
      <trkpt lat="50.49285" lon="1.61244">
        <ele>71</ele>
        <time>2019-02-17T11:29:51Z</time>
      </trkpt>
      <trkpt lat="50.49277" lon="1.61234">
        <ele>69.4</ele>
        <time>2019-02-17T11:29:55Z</time>
      </trkpt>
      <trkpt lat="50.49269" lon="1.61225">
        <ele>68.8</ele>
        <time>2019-02-17T11:29:59Z</time>
      </trkpt>
      <trkpt lat="50.49259" lon="1.61215">
        <ele>69.2</ele>
        <time>2019-02-17T11:30:03Z</time>
      </trkpt>
      <trkpt lat="50.49256" lon="1.612">
        <ele>70.2</ele>
        <time>2019-02-17T11:30:07Z</time>
      </trkpt>
      <trkpt lat="50.49251" lon="1.61188">
        <ele>70.8</ele>
        <time>2019-02-17T11:30:11Z</time>
      </trkpt>
      <trkpt lat="50.49251" lon="1.61188">
        <ele>70.8</ele>
        <time>2019-02-17T11:30:15Z</time>
      </trkpt>
      <trkpt lat="50.49251" lon="1.61188">
        <ele>70.8</ele>
        <time>2019-02-17T11:30:19Z</time>
      </trkpt>
      <trkpt lat="50.49251" lon="1.61188">
        <ele>70.8</ele>
        <time>2019-02-17T11:30:23Z</time>
      </trkpt>
      <trkpt lat="50.49246" lon="1.61174">
        <ele>69.2</ele>
        <time>2019-02-17T11:30:27Z</time>
      </trkpt>
      <trkpt lat="50.49239" lon="1.61167">
        <ele>68</ele>
        <time>2019-02-17T11:30:31Z</time>
      </trkpt>
      <trkpt lat="50.49232" lon="1.61161">
        <ele>69.2</ele>
        <time>2019-02-17T11:30:35Z</time>
      </trkpt>
      <trkpt lat="50.49227" lon="1.61155">
        <ele>68.4</ele>
        <time>2019-02-17T11:30:39Z</time>
      </trkpt>
      <trkpt lat="50.49227" lon="1.61155">
        <ele>68.4</ele>
        <time>2019-02-17T11:30:43Z</time>
      </trkpt>
      <trkpt lat="50.49223" lon="1.61147">
        <ele>67.4</ele>
        <time>2019-02-17T11:30:47Z</time>
      </trkpt>
      <trkpt lat="50.49223" lon="1.61142">
        <ele>68</ele>
        <time>2019-02-17T11:30:51Z</time>
      </trkpt>
      <trkpt lat="50.49222" lon="1.61129">
        <ele>67.4</ele>
        <time>2019-02-17T11:30:55Z</time>
      </trkpt>
      <trkpt lat="50.49216" lon="1.61118">
        <ele>65.2</ele>
        <time>2019-02-17T11:30:59Z</time>
      </trkpt>
      <trkpt lat="50.49209" lon="1.61122">
        <ele>64</ele>
        <time>2019-02-17T11:31:03Z</time>
      </trkpt>
      <trkpt lat="50.49198" lon="1.61114">
        <ele>62.2</ele>
        <time>2019-02-17T11:31:07Z</time>
      </trkpt>
      <trkpt lat="50.4919" lon="1.61102">
        <ele>61</ele>
        <time>2019-02-17T11:31:11Z</time>
      </trkpt>
      <trkpt lat="50.49188" lon="1.61099">
        <ele>59.2</ele>
        <time>2019-02-17T11:31:15Z</time>
      </trkpt>
      <trkpt lat="50.49188" lon="1.61099">
        <ele>59.2</ele>
        <time>2019-02-17T11:31:19Z</time>
      </trkpt>
      <trkpt lat="50.49176" lon="1.6109">
        <ele>61.2</ele>
        <time>2019-02-17T11:31:23Z</time>
      </trkpt>
      <trkpt lat="50.4917" lon="1.61082">
        <ele>60.8</ele>
        <time>2019-02-17T11:31:27Z</time>
      </trkpt>
      <trkpt lat="50.49164" lon="1.61083">
        <ele>60</ele>
        <time>2019-02-17T11:31:31Z</time>
      </trkpt>
      <trkpt lat="50.49157" lon="1.61095">
        <ele>60.2</ele>
        <time>2019-02-17T11:31:35Z</time>
      </trkpt>
      <trkpt lat="50.49151" lon="1.6111">
        <ele>59.6</ele>
        <time>2019-02-17T11:31:39Z</time>
      </trkpt>
      <trkpt lat="50.49146" lon="1.61131">
        <ele>59.2</ele>
        <time>2019-02-17T11:31:43Z</time>
      </trkpt>
      <trkpt lat="50.49137" lon="1.61144">
        <ele>59.2</ele>
        <time>2019-02-17T11:31:47Z</time>
      </trkpt>
      <trkpt lat="50.49128" lon="1.61155">
        <ele>59</ele>
        <time>2019-02-17T11:31:51Z</time>
      </trkpt>
      <trkpt lat="50.49119" lon="1.61161">
        <ele>59</ele>
        <time>2019-02-17T11:31:55Z</time>
      </trkpt>
      <trkpt lat="50.49114" lon="1.61174">
        <ele>57.6</ele>
        <time>2019-02-17T11:31:59Z</time>
      </trkpt>
      <trkpt lat="50.49105" lon="1.6119">
        <ele>55</ele>
        <time>2019-02-17T11:32:03Z</time>
      </trkpt>
      <trkpt lat="50.49088" lon="1.61179">
        <ele>54</ele>
        <time>2019-02-17T11:32:07Z</time>
      </trkpt>
      <trkpt lat="50.49076" lon="1.61195">
        <ele>52.6</ele>
        <time>2019-02-17T11:32:11Z</time>
      </trkpt>
      <trkpt lat="50.49066" lon="1.61205">
        <ele>52.2</ele>
        <time>2019-02-17T11:32:15Z</time>
      </trkpt>
      <trkpt lat="50.49052" lon="1.61205">
        <ele>52.4</ele>
        <time>2019-02-17T11:32:19Z</time>
      </trkpt>
      <trkpt lat="50.49044" lon="1.61212">
        <ele>52.6</ele>
        <time>2019-02-17T11:32:23Z</time>
      </trkpt>
      <trkpt lat="50.49031" lon="1.61218">
        <ele>52.6</ele>
        <time>2019-02-17T11:32:27Z</time>
      </trkpt>
      <trkpt lat="50.49013" lon="1.61226">
        <ele>52</ele>
        <time>2019-02-17T11:32:31Z</time>
      </trkpt>
      <trkpt lat="50.48993" lon="1.61211">
        <ele>51.4</ele>
        <time>2019-02-17T11:32:35Z</time>
      </trkpt>
      <trkpt lat="50.48976" lon="1.61191">
        <ele>51.8</ele>
        <time>2019-02-17T11:32:39Z</time>
      </trkpt>
      <trkpt lat="50.48961" lon="1.61169">
        <ele>51.4</ele>
        <time>2019-02-17T11:32:43Z</time>
      </trkpt>
      <trkpt lat="50.48947" lon="1.61147">
        <ele>51.4</ele>
        <time>2019-02-17T11:32:47Z</time>
      </trkpt>
      <trkpt lat="50.48936" lon="1.61125">
        <ele>51.6</ele>
        <time>2019-02-17T11:32:51Z</time>
      </trkpt>
      <trkpt lat="50.48927" lon="1.61098">
        <ele>52.4</ele>
        <time>2019-02-17T11:32:55Z</time>
      </trkpt>
      <trkpt lat="50.48919" lon="1.61074">
        <ele>53.2</ele>
        <time>2019-02-17T11:32:59Z</time>
      </trkpt>
      <trkpt lat="50.48904" lon="1.61054">
        <ele>53</ele>
        <time>2019-02-17T11:33:03Z</time>
      </trkpt>
      <trkpt lat="50.48888" lon="1.61042">
        <ele>52.8</ele>
        <time>2019-02-17T11:33:07Z</time>
      </trkpt>
      <trkpt lat="50.48871" lon="1.61031">
        <ele>52.4</ele>
        <time>2019-02-17T11:33:11Z</time>
      </trkpt>
      <trkpt lat="50.48853" lon="1.61022">
        <ele>53.4</ele>
        <time>2019-02-17T11:33:15Z</time>
      </trkpt>
      <trkpt lat="50.48834" lon="1.61015">
        <ele>54</ele>
        <time>2019-02-17T11:33:19Z</time>
      </trkpt>
      <trkpt lat="50.48815" lon="1.61007">
        <ele>52.6</ele>
        <time>2019-02-17T11:33:23Z</time>
      </trkpt>
      <trkpt lat="50.48796" lon="1.60999">
        <ele>52.4</ele>
        <time>2019-02-17T11:33:27Z</time>
      </trkpt>
      <trkpt lat="50.48776" lon="1.60991">
        <ele>52.6</ele>
        <time>2019-02-17T11:33:31Z</time>
      </trkpt>
      <trkpt lat="50.48755" lon="1.60984">
        <ele>52.6</ele>
        <time>2019-02-17T11:33:35Z</time>
      </trkpt>
      <trkpt lat="50.48733" lon="1.60979">
        <ele>53</ele>
        <time>2019-02-17T11:33:39Z</time>
      </trkpt>
      <trkpt lat="50.48714" lon="1.60974">
        <ele>51.6</ele>
        <time>2019-02-17T11:33:43Z</time>
      </trkpt>
      <trkpt lat="50.48695" lon="1.60969">
        <ele>51.6</ele>
        <time>2019-02-17T11:33:47Z</time>
      </trkpt>
      <trkpt lat="50.48677" lon="1.60964">
        <ele>51.8</ele>
        <time>2019-02-17T11:33:51Z</time>
      </trkpt>
      <trkpt lat="50.48659" lon="1.60958">
        <ele>51.4</ele>
        <time>2019-02-17T11:33:55Z</time>
      </trkpt>
      <trkpt lat="50.48642" lon="1.60948">
        <ele>51</ele>
        <time>2019-02-17T11:33:59Z</time>
      </trkpt>
      <trkpt lat="50.48627" lon="1.60932">
        <ele>51</ele>
        <time>2019-02-17T11:34:03Z</time>
      </trkpt>
      <trkpt lat="50.48613" lon="1.60925">
        <ele>51</ele>
        <time>2019-02-17T11:34:07Z</time>
      </trkpt>
      <trkpt lat="50.48598" lon="1.60939">
        <ele>51</ele>
        <time>2019-02-17T11:34:11Z</time>
      </trkpt>
      <trkpt lat="50.4858" lon="1.60954">
        <ele>50.8</ele>
        <time>2019-02-17T11:34:15Z</time>
      </trkpt>
      <trkpt lat="50.48573" lon="1.60994">
        <ele>51.2</ele>
        <time>2019-02-17T11:34:19Z</time>
      </trkpt>
      <trkpt lat="50.48573" lon="1.61032">
        <ele>50</ele>
        <time>2019-02-17T11:34:23Z</time>
      </trkpt>
      <trkpt lat="50.48571" lon="1.61065">
        <ele>50.8</ele>
        <time>2019-02-17T11:34:27Z</time>
      </trkpt>
      <trkpt lat="50.4857" lon="1.61102">
        <ele>50.4</ele>
        <time>2019-02-17T11:34:31Z</time>
      </trkpt>
      <trkpt lat="50.48568" lon="1.61136">
        <ele>49.4</ele>
        <time>2019-02-17T11:34:35Z</time>
      </trkpt>
      <trkpt lat="50.48568" lon="1.61169">
        <ele>49.4</ele>
        <time>2019-02-17T11:34:39Z</time>
      </trkpt>
      <trkpt lat="50.48565" lon="1.61199">
        <ele>49.2</ele>
        <time>2019-02-17T11:34:43Z</time>
      </trkpt>
      <trkpt lat="50.48549" lon="1.61209">
        <ele>49.4</ele>
        <time>2019-02-17T11:34:47Z</time>
      </trkpt>
      <trkpt lat="50.48532" lon="1.61218">
        <ele>49.2</ele>
        <time>2019-02-17T11:34:51Z</time>
      </trkpt>
      <trkpt lat="50.48513" lon="1.61226">
        <ele>49</ele>
        <time>2019-02-17T11:34:55Z</time>
      </trkpt>
      <trkpt lat="50.48495" lon="1.61234">
        <ele>48.2</ele>
        <time>2019-02-17T11:34:59Z</time>
      </trkpt>
      <trkpt lat="50.48474" lon="1.61239">
        <ele>48.8</ele>
        <time>2019-02-17T11:35:03Z</time>
      </trkpt>
      <trkpt lat="50.48454" lon="1.61234">
        <ele>48.8</ele>
        <time>2019-02-17T11:35:07Z</time>
      </trkpt>
      <trkpt lat="50.48435" lon="1.61226">
        <ele>48.6</ele>
        <time>2019-02-17T11:35:11Z</time>
      </trkpt>
      <trkpt lat="50.48415" lon="1.61216">
        <ele>48.6</ele>
        <time>2019-02-17T11:35:15Z</time>
      </trkpt>
      <trkpt lat="50.48396" lon="1.61207">
        <ele>48.4</ele>
        <time>2019-02-17T11:35:19Z</time>
      </trkpt>
      <trkpt lat="50.48377" lon="1.61199">
        <ele>49</ele>
        <time>2019-02-17T11:35:23Z</time>
      </trkpt>
      <trkpt lat="50.4836" lon="1.61192">
        <ele>48.8</ele>
        <time>2019-02-17T11:35:27Z</time>
      </trkpt>
      <trkpt lat="50.48342" lon="1.61186">
        <ele>48.8</ele>
        <time>2019-02-17T11:35:31Z</time>
      </trkpt>
      <trkpt lat="50.48323" lon="1.61178">
        <ele>48.8</ele>
        <time>2019-02-17T11:35:35Z</time>
      </trkpt>
      <trkpt lat="50.48303" lon="1.61178">
        <ele>48.4</ele>
        <time>2019-02-17T11:35:39Z</time>
      </trkpt>
      <trkpt lat="50.48284" lon="1.61178">
        <ele>48.8</ele>
        <time>2019-02-17T11:35:43Z</time>
      </trkpt>
      <trkpt lat="50.48268" lon="1.61178">
        <ele>48.8</ele>
        <time>2019-02-17T11:35:47Z</time>
      </trkpt>
      <trkpt lat="50.48253" lon="1.61182">
        <ele>49.2</ele>
        <time>2019-02-17T11:35:51Z</time>
      </trkpt>
      <trkpt lat="50.48243" lon="1.61202">
        <ele>49</ele>
        <time>2019-02-17T11:35:55Z</time>
      </trkpt>
      <trkpt lat="50.48237" lon="1.61225">
        <ele>48.8</ele>
        <time>2019-02-17T11:35:59Z</time>
      </trkpt>
      <trkpt lat="50.48231" lon="1.61248">
        <ele>48.4</ele>
        <time>2019-02-17T11:36:03Z</time>
      </trkpt>
      <trkpt lat="50.48223" lon="1.61272">
        <ele>48.4</ele>
        <time>2019-02-17T11:36:07Z</time>
      </trkpt>
      <trkpt lat="50.48215" lon="1.613">
        <ele>48.6</ele>
        <time>2019-02-17T11:36:11Z</time>
      </trkpt>
      <trkpt lat="50.48209" lon="1.61327">
        <ele>48.6</ele>
        <time>2019-02-17T11:36:15Z</time>
      </trkpt>
      <trkpt lat="50.48202" lon="1.61352">
        <ele>48.6</ele>
        <time>2019-02-17T11:36:19Z</time>
      </trkpt>
      <trkpt lat="50.48195" lon="1.61377">
        <ele>48.4</ele>
        <time>2019-02-17T11:36:23Z</time>
      </trkpt>
      <trkpt lat="50.48187" lon="1.61401">
        <ele>48.6</ele>
        <time>2019-02-17T11:36:27Z</time>
      </trkpt>
      <trkpt lat="50.48179" lon="1.61424">
        <ele>48.6</ele>
        <time>2019-02-17T11:36:31Z</time>
      </trkpt>
      <trkpt lat="50.48171" lon="1.61447">
        <ele>48.6</ele>
        <time>2019-02-17T11:36:35Z</time>
      </trkpt>
      <trkpt lat="50.48164" lon="1.61471">
        <ele>49</ele>
        <time>2019-02-17T11:36:39Z</time>
      </trkpt>
      <trkpt lat="50.48156" lon="1.61495">
        <ele>48.8</ele>
        <time>2019-02-17T11:36:43Z</time>
      </trkpt>
      <trkpt lat="50.48148" lon="1.61519">
        <ele>49</ele>
        <time>2019-02-17T11:36:47Z</time>
      </trkpt>
      <trkpt lat="50.48139" lon="1.61543">
        <ele>48.2</ele>
        <time>2019-02-17T11:36:51Z</time>
      </trkpt>
      <trkpt lat="50.48131" lon="1.61564">
        <ele>48.4</ele>
        <time>2019-02-17T11:36:55Z</time>
      </trkpt>
      <trkpt lat="50.48122" lon="1.61586">
        <ele>48.6</ele>
        <time>2019-02-17T11:36:59Z</time>
      </trkpt>
      <trkpt lat="50.48113" lon="1.61608">
        <ele>48.4</ele>
        <time>2019-02-17T11:37:03Z</time>
      </trkpt>
      <trkpt lat="50.48104" lon="1.61632">
        <ele>49</ele>
        <time>2019-02-17T11:37:07Z</time>
      </trkpt>
      <trkpt lat="50.48091" lon="1.61658">
        <ele>49</ele>
        <time>2019-02-17T11:37:11Z</time>
      </trkpt>
      <trkpt lat="50.48078" lon="1.61686">
        <ele>49</ele>
        <time>2019-02-17T11:37:15Z</time>
      </trkpt>
      <trkpt lat="50.48065" lon="1.61715">
        <ele>49</ele>
        <time>2019-02-17T11:37:19Z</time>
      </trkpt>
      <trkpt lat="50.48051" lon="1.61742">
        <ele>49.2</ele>
        <time>2019-02-17T11:37:23Z</time>
      </trkpt>
      <trkpt lat="50.48058" lon="1.61764">
        <ele>48.4</ele>
        <time>2019-02-17T11:37:27Z</time>
      </trkpt>
      <trkpt lat="50.48074" lon="1.61767">
        <ele>48.4</ele>
        <time>2019-02-17T11:37:31Z</time>
      </trkpt>
      <trkpt lat="50.48089" lon="1.61768">
        <ele>48.6</ele>
        <time>2019-02-17T11:37:35Z</time>
      </trkpt>
      <trkpt lat="50.48106" lon="1.61766">
        <ele>48.6</ele>
        <time>2019-02-17T11:37:39Z</time>
      </trkpt>
      <trkpt lat="50.48122" lon="1.61767">
        <ele>48.4</ele>
        <time>2019-02-17T11:37:43Z</time>
      </trkpt>
      <trkpt lat="50.48139" lon="1.61765">
        <ele>48.4</ele>
        <time>2019-02-17T11:37:47Z</time>
      </trkpt>
      <trkpt lat="50.48154" lon="1.61763">
        <ele>48</ele>
        <time>2019-02-17T11:37:51Z</time>
      </trkpt>
      <trkpt lat="50.48164" lon="1.61761">
        <ele>48</ele>
        <time>2019-02-17T11:37:55Z</time>
      </trkpt>
      <trkpt lat="50.48164" lon="1.61761">
        <ele>48</ele>
        <time>2019-02-17T11:37:59Z</time>
      </trkpt>
      <trkpt lat="50.48164" lon="1.61761">
        <ele>48</ele>
        <time>2019-02-17T11:38:03Z</time>
      </trkpt>
      <trkpt lat="50.48164" lon="1.61761">
        <ele>48</ele>
        <time>2019-02-17T11:38:07Z</time>
      </trkpt>
      <trkpt lat="50.48164" lon="1.61761">
        <ele>48</ele>
        <time>2019-02-17T11:38:11Z</time>
      </trkpt>
      <trkpt lat="50.48164" lon="1.61761">
        <ele>48</ele>
        <time>2019-02-17T11:38:15Z</time>
      </trkpt>
      <trkpt lat="50.48164" lon="1.61761">
        <ele>48</ele>
        <time>2019-02-17T11:38:19Z</time>
      </trkpt>
      <trkpt lat="50.48164" lon="1.61761">
        <ele>48</ele>
        <time>2019-02-17T11:38:23Z</time>
      </trkpt>
      <trkpt lat="50.48164" lon="1.61761">
        <ele>48</ele>
        <time>2019-02-17T11:38:27Z</time>
      </trkpt>
      <trkpt lat="50.48164" lon="1.61761">
        <ele>48</ele>
        <time>2019-02-17T11:38:31Z</time>
      </trkpt>
      <trkpt lat="50.48172" lon="1.61767">
        <ele>48</ele>
        <time>2019-02-17T11:38:35Z</time>
      </trkpt>
    </trkseg>
  </trk>
</gpx>